<?xml version="1.0" encoding="UTF-8" standalone="no" ?>
<gpx xmlns="http://www.topografix.com/GPX/1/1" xmlns:xsi="http://www.w3.org/2001/XMLSchema-instance" xsi:schemaLocation="http://www.topografix.com/GPX/1/1 http://www.topografix.com/GPX/1/1/gpx.xsd" version="1.1" creator="VisuGPX - https://www.visugpx.com">
  <metadata>
    <name>SO-E-St Léger St Pazanne St Lumine St Philbert La Chevrolière Pont St Martin St Aignan</name>
    <desc><![CDATA[SO-E-St Léger St Pazanne St Lumine St Philbert La Chevrolière Pont St Martin St Aignan]]></desc>
  </metadata>
  <trk>
    <name><![CDATA[2022-01-01 12:54 GMT+1]]></name>
    <trkseg>
      <trkpt lat="47.16781" lon="-1.62652">
        <ele>78</ele>
        <time>2022-01-01T11:55:16Z</time>
      </trkpt>
      <trkpt lat="47.16775" lon="-1.62654">
        <ele>76</ele>
        <time>2022-01-01T11:57:17Z</time>
      </trkpt>
      <trkpt lat="47.1678" lon="-1.62666">
        <ele>77</ele>
        <time>2022-01-01T11:57:40Z</time>
      </trkpt>
      <trkpt lat="47.16769" lon="-1.62677">
        <ele>75</ele>
        <time>2022-01-01T11:57:43Z</time>
      </trkpt>
      <trkpt lat="47.16757" lon="-1.62674">
        <ele>75</ele>
        <time>2022-01-01T11:57:45Z</time>
      </trkpt>
      <trkpt lat="47.16746" lon="-1.62672">
        <ele>75</ele>
        <time>2022-01-01T11:57:47Z</time>
      </trkpt>
      <trkpt lat="47.16735" lon="-1.6268">
        <ele>74</ele>
        <time>2022-01-01T11:57:49Z</time>
      </trkpt>
      <trkpt lat="47.16725" lon="-1.62687">
        <ele>74</ele>
        <time>2022-01-01T11:57:51Z</time>
      </trkpt>
      <trkpt lat="47.16717" lon="-1.627">
        <ele>73</ele>
        <time>2022-01-01T11:57:53Z</time>
      </trkpt>
      <trkpt lat="47.16718" lon="-1.62715">
        <ele>72</ele>
        <time>2022-01-01T11:57:55Z</time>
      </trkpt>
      <trkpt lat="47.16726" lon="-1.62728">
        <ele>72</ele>
        <time>2022-01-01T11:57:57Z</time>
      </trkpt>
      <trkpt lat="47.16735" lon="-1.62742">
        <ele>71</ele>
        <time>2022-01-01T11:57:59Z</time>
      </trkpt>
      <trkpt lat="47.16746" lon="-1.62755">
        <ele>72</ele>
        <time>2022-01-01T11:58:01Z</time>
      </trkpt>
      <trkpt lat="47.16757" lon="-1.62767">
        <ele>71</ele>
        <time>2022-01-01T11:58:03Z</time>
      </trkpt>
      <trkpt lat="47.16769" lon="-1.62779">
        <ele>71</ele>
        <time>2022-01-01T11:58:05Z</time>
      </trkpt>
      <trkpt lat="47.16781" lon="-1.62789">
        <ele>71</ele>
        <time>2022-01-01T11:58:07Z</time>
      </trkpt>
      <trkpt lat="47.16793" lon="-1.628">
        <ele>71</ele>
        <time>2022-01-01T11:58:09Z</time>
      </trkpt>
      <trkpt lat="47.16805" lon="-1.62811">
        <ele>71</ele>
        <time>2022-01-01T11:58:11Z</time>
      </trkpt>
      <trkpt lat="47.16816" lon="-1.62822">
        <ele>71</ele>
        <time>2022-01-01T11:58:13Z</time>
      </trkpt>
      <trkpt lat="47.16827" lon="-1.62832">
        <ele>71</ele>
        <time>2022-01-01T11:58:15Z</time>
      </trkpt>
      <trkpt lat="47.16844" lon="-1.62847">
        <ele>71</ele>
        <time>2022-01-01T11:58:18Z</time>
      </trkpt>
      <trkpt lat="47.16855" lon="-1.62859">
        <ele>71</ele>
        <time>2022-01-01T11:58:20Z</time>
      </trkpt>
      <trkpt lat="47.16864" lon="-1.62869">
        <ele>72</ele>
        <time>2022-01-01T11:58:22Z</time>
      </trkpt>
      <trkpt lat="47.16872" lon="-1.6288">
        <ele>72</ele>
        <time>2022-01-01T11:58:24Z</time>
      </trkpt>
      <trkpt lat="47.16879" lon="-1.62895">
        <ele>72</ele>
        <time>2022-01-01T11:58:26Z</time>
      </trkpt>
      <trkpt lat="47.16885" lon="-1.62911">
        <ele>72</ele>
        <time>2022-01-01T11:58:28Z</time>
      </trkpt>
      <trkpt lat="47.16889" lon="-1.6293">
        <ele>73</ele>
        <time>2022-01-01T11:58:30Z</time>
      </trkpt>
      <trkpt lat="47.1689" lon="-1.62948">
        <ele>73</ele>
        <time>2022-01-01T11:58:32Z</time>
      </trkpt>
      <trkpt lat="47.1689" lon="-1.62966">
        <ele>73</ele>
        <time>2022-01-01T11:58:34Z</time>
      </trkpt>
      <trkpt lat="47.1689" lon="-1.62984">
        <ele>73</ele>
        <time>2022-01-01T11:58:36Z</time>
      </trkpt>
      <trkpt lat="47.16887" lon="-1.63003">
        <ele>74</ele>
        <time>2022-01-01T11:58:38Z</time>
      </trkpt>
      <trkpt lat="47.16886" lon="-1.63021">
        <ele>74</ele>
        <time>2022-01-01T11:58:40Z</time>
      </trkpt>
      <trkpt lat="47.16885" lon="-1.63039">
        <ele>74</ele>
        <time>2022-01-01T11:58:42Z</time>
      </trkpt>
      <trkpt lat="47.16886" lon="-1.63058">
        <ele>75</ele>
        <time>2022-01-01T11:58:44Z</time>
      </trkpt>
      <trkpt lat="47.16888" lon="-1.63076">
        <ele>75</ele>
        <time>2022-01-01T11:58:46Z</time>
      </trkpt>
      <trkpt lat="47.1689" lon="-1.63093">
        <ele>75</ele>
        <time>2022-01-01T11:58:48Z</time>
      </trkpt>
      <trkpt lat="47.16893" lon="-1.6311">
        <ele>75</ele>
        <time>2022-01-01T11:58:50Z</time>
      </trkpt>
      <trkpt lat="47.16898" lon="-1.63127">
        <ele>76</ele>
        <time>2022-01-01T11:58:52Z</time>
      </trkpt>
      <trkpt lat="47.16904" lon="-1.63143">
        <ele>76</ele>
        <time>2022-01-01T11:58:54Z</time>
      </trkpt>
      <trkpt lat="47.16911" lon="-1.63159">
        <ele>76</ele>
        <time>2022-01-01T11:58:56Z</time>
      </trkpt>
      <trkpt lat="47.16918" lon="-1.63175">
        <ele>76</ele>
        <time>2022-01-01T11:58:58Z</time>
      </trkpt>
      <trkpt lat="47.16925" lon="-1.63189">
        <ele>76</ele>
        <time>2022-01-01T11:59:00Z</time>
      </trkpt>
      <trkpt lat="47.16933" lon="-1.63203">
        <ele>76</ele>
        <time>2022-01-01T11:59:02Z</time>
      </trkpt>
      <trkpt lat="47.16942" lon="-1.63214">
        <ele>76</ele>
        <time>2022-01-01T11:59:04Z</time>
      </trkpt>
      <trkpt lat="47.1695" lon="-1.63225">
        <ele>76</ele>
        <time>2022-01-01T11:59:06Z</time>
      </trkpt>
      <trkpt lat="47.16958" lon="-1.63236">
        <ele>76</ele>
        <time>2022-01-01T11:59:08Z</time>
      </trkpt>
      <trkpt lat="47.16965" lon="-1.63245">
        <ele>77</ele>
        <time>2022-01-01T11:59:10Z</time>
      </trkpt>
      <trkpt lat="47.16967" lon="-1.63259">
        <ele>77</ele>
        <time>2022-01-01T11:59:13Z</time>
      </trkpt>
      <trkpt lat="47.1696" lon="-1.6327">
        <ele>78</ele>
        <time>2022-01-01T11:59:15Z</time>
      </trkpt>
      <trkpt lat="47.16951" lon="-1.63284">
        <ele>78</ele>
        <time>2022-01-01T11:59:17Z</time>
      </trkpt>
      <trkpt lat="47.16942" lon="-1.63299">
        <ele>78</ele>
        <time>2022-01-01T11:59:19Z</time>
      </trkpt>
      <trkpt lat="47.16934" lon="-1.63313">
        <ele>79</ele>
        <time>2022-01-01T11:59:21Z</time>
      </trkpt>
      <trkpt lat="47.16924" lon="-1.63327">
        <ele>78</ele>
        <time>2022-01-01T11:59:23Z</time>
      </trkpt>
      <trkpt lat="47.16915" lon="-1.6334">
        <ele>78</ele>
        <time>2022-01-01T11:59:25Z</time>
      </trkpt>
      <trkpt lat="47.16906" lon="-1.63353">
        <ele>78</ele>
        <time>2022-01-01T11:59:27Z</time>
      </trkpt>
      <trkpt lat="47.16897" lon="-1.63366">
        <ele>78</ele>
        <time>2022-01-01T11:59:29Z</time>
      </trkpt>
      <trkpt lat="47.16888" lon="-1.6338">
        <ele>78</ele>
        <time>2022-01-01T11:59:31Z</time>
      </trkpt>
      <trkpt lat="47.16879" lon="-1.63395">
        <ele>77</ele>
        <time>2022-01-01T11:59:33Z</time>
      </trkpt>
      <trkpt lat="47.1687" lon="-1.63409">
        <ele>77</ele>
        <time>2022-01-01T11:59:35Z</time>
      </trkpt>
      <trkpt lat="47.16862" lon="-1.63423">
        <ele>77</ele>
        <time>2022-01-01T11:59:37Z</time>
      </trkpt>
      <trkpt lat="47.16854" lon="-1.63437">
        <ele>78</ele>
        <time>2022-01-01T11:59:39Z</time>
      </trkpt>
      <trkpt lat="47.16846" lon="-1.63451">
        <ele>78</ele>
        <time>2022-01-01T11:59:41Z</time>
      </trkpt>
      <trkpt lat="47.16837" lon="-1.63465">
        <ele>78</ele>
        <time>2022-01-01T11:59:43Z</time>
      </trkpt>
      <trkpt lat="47.16828" lon="-1.6348">
        <ele>78</ele>
        <time>2022-01-01T11:59:45Z</time>
      </trkpt>
      <trkpt lat="47.1682" lon="-1.63494">
        <ele>78</ele>
        <time>2022-01-01T11:59:47Z</time>
      </trkpt>
      <trkpt lat="47.16812" lon="-1.63508">
        <ele>78</ele>
        <time>2022-01-01T11:59:49Z</time>
      </trkpt>
      <trkpt lat="47.16804" lon="-1.63523">
        <ele>78</ele>
        <time>2022-01-01T11:59:51Z</time>
      </trkpt>
      <trkpt lat="47.16796" lon="-1.63537">
        <ele>78</ele>
        <time>2022-01-01T11:59:53Z</time>
      </trkpt>
      <trkpt lat="47.16788" lon="-1.63551">
        <ele>78</ele>
        <time>2022-01-01T11:59:55Z</time>
      </trkpt>
      <trkpt lat="47.16779" lon="-1.63566">
        <ele>78</ele>
        <time>2022-01-01T11:59:57Z</time>
      </trkpt>
      <trkpt lat="47.1677" lon="-1.63579">
        <ele>77</ele>
        <time>2022-01-01T11:59:59Z</time>
      </trkpt>
      <trkpt lat="47.16762" lon="-1.63593">
        <ele>77</ele>
        <time>2022-01-01T12:00:01Z</time>
      </trkpt>
      <trkpt lat="47.16755" lon="-1.63607">
        <ele>77</ele>
        <time>2022-01-01T12:00:03Z</time>
      </trkpt>
      <trkpt lat="47.16747" lon="-1.63618">
        <ele>77</ele>
        <time>2022-01-01T12:00:05Z</time>
      </trkpt>
      <trkpt lat="47.16744" lon="-1.63633">
        <ele>77</ele>
        <time>2022-01-01T12:00:07Z</time>
      </trkpt>
      <trkpt lat="47.16752" lon="-1.63645">
        <ele>77</ele>
        <time>2022-01-01T12:00:09Z</time>
      </trkpt>
      <trkpt lat="47.16771" lon="-1.63651">
        <ele>77</ele>
        <time>2022-01-01T12:00:12Z</time>
      </trkpt>
      <trkpt lat="47.16785" lon="-1.63655">
        <ele>77</ele>
        <time>2022-01-01T12:00:14Z</time>
      </trkpt>
      <trkpt lat="47.16798" lon="-1.63661">
        <ele>77</ele>
        <time>2022-01-01T12:00:16Z</time>
      </trkpt>
      <trkpt lat="47.16812" lon="-1.63667">
        <ele>77</ele>
        <time>2022-01-01T12:00:18Z</time>
      </trkpt>
      <trkpt lat="47.16825" lon="-1.63672">
        <ele>77</ele>
        <time>2022-01-01T12:00:20Z</time>
      </trkpt>
      <trkpt lat="47.16837" lon="-1.63677">
        <ele>77</ele>
        <time>2022-01-01T12:00:22Z</time>
      </trkpt>
      <trkpt lat="47.16851" lon="-1.63682">
        <ele>77</ele>
        <time>2022-01-01T12:00:24Z</time>
      </trkpt>
      <trkpt lat="47.16864" lon="-1.63686">
        <ele>77</ele>
        <time>2022-01-01T12:00:26Z</time>
      </trkpt>
      <trkpt lat="47.16876" lon="-1.63692">
        <ele>76</ele>
        <time>2022-01-01T12:00:28Z</time>
      </trkpt>
      <trkpt lat="47.16895" lon="-1.637">
        <ele>76</ele>
        <time>2022-01-01T12:00:31Z</time>
      </trkpt>
      <trkpt lat="47.16908" lon="-1.63704">
        <ele>76</ele>
        <time>2022-01-01T12:00:33Z</time>
      </trkpt>
      <trkpt lat="47.16922" lon="-1.63709">
        <ele>77</ele>
        <time>2022-01-01T12:00:35Z</time>
      </trkpt>
      <trkpt lat="47.16935" lon="-1.63714">
        <ele>77</ele>
        <time>2022-01-01T12:00:37Z</time>
      </trkpt>
      <trkpt lat="47.16948" lon="-1.63718">
        <ele>77</ele>
        <time>2022-01-01T12:00:39Z</time>
      </trkpt>
      <trkpt lat="47.16962" lon="-1.63723">
        <ele>78</ele>
        <time>2022-01-01T12:00:41Z</time>
      </trkpt>
      <trkpt lat="47.16976" lon="-1.63729">
        <ele>78</ele>
        <time>2022-01-01T12:00:43Z</time>
      </trkpt>
      <trkpt lat="47.16989" lon="-1.63733">
        <ele>78</ele>
        <time>2022-01-01T12:00:45Z</time>
      </trkpt>
      <trkpt lat="47.17002" lon="-1.63738">
        <ele>79</ele>
        <time>2022-01-01T12:00:47Z</time>
      </trkpt>
      <trkpt lat="47.17015" lon="-1.63743">
        <ele>79</ele>
        <time>2022-01-01T12:00:49Z</time>
      </trkpt>
      <trkpt lat="47.17028" lon="-1.63748">
        <ele>79</ele>
        <time>2022-01-01T12:00:51Z</time>
      </trkpt>
      <trkpt lat="47.17041" lon="-1.63753">
        <ele>79</ele>
        <time>2022-01-01T12:00:53Z</time>
      </trkpt>
      <trkpt lat="47.17053" lon="-1.63762">
        <ele>80</ele>
        <time>2022-01-01T12:00:55Z</time>
      </trkpt>
      <trkpt lat="47.17062" lon="-1.63777">
        <ele>80</ele>
        <time>2022-01-01T12:00:57Z</time>
      </trkpt>
      <trkpt lat="47.17069" lon="-1.63794">
        <ele>79</ele>
        <time>2022-01-01T12:00:59Z</time>
      </trkpt>
      <trkpt lat="47.17075" lon="-1.63812">
        <ele>79</ele>
        <time>2022-01-01T12:01:01Z</time>
      </trkpt>
      <trkpt lat="47.17081" lon="-1.63829">
        <ele>79</ele>
        <time>2022-01-01T12:01:03Z</time>
      </trkpt>
      <trkpt lat="47.17087" lon="-1.63847">
        <ele>79</ele>
        <time>2022-01-01T12:01:05Z</time>
      </trkpt>
      <trkpt lat="47.17093" lon="-1.63864">
        <ele>79</ele>
        <time>2022-01-01T12:01:07Z</time>
      </trkpt>
      <trkpt lat="47.171" lon="-1.63881">
        <ele>78</ele>
        <time>2022-01-01T12:01:09Z</time>
      </trkpt>
      <trkpt lat="47.17106" lon="-1.63897">
        <ele>78</ele>
        <time>2022-01-01T12:01:11Z</time>
      </trkpt>
      <trkpt lat="47.17112" lon="-1.63913">
        <ele>78</ele>
        <time>2022-01-01T12:01:13Z</time>
      </trkpt>
      <trkpt lat="47.17117" lon="-1.63928">
        <ele>78</ele>
        <time>2022-01-01T12:01:15Z</time>
      </trkpt>
      <trkpt lat="47.17125" lon="-1.63938">
        <ele>78</ele>
        <time>2022-01-01T12:01:17Z</time>
      </trkpt>
      <trkpt lat="47.17133" lon="-1.63944">
        <ele>78</ele>
        <time>2022-01-01T12:01:19Z</time>
      </trkpt>
      <trkpt lat="47.17138" lon="-1.63956">
        <ele>78</ele>
        <time>2022-01-01T12:01:21Z</time>
      </trkpt>
      <trkpt lat="47.17139" lon="-1.63974">
        <ele>78</ele>
        <time>2022-01-01T12:01:23Z</time>
      </trkpt>
      <trkpt lat="47.17138" lon="-1.63993">
        <ele>78</ele>
        <time>2022-01-01T12:01:25Z</time>
      </trkpt>
      <trkpt lat="47.17136" lon="-1.64012">
        <ele>78</ele>
        <time>2022-01-01T12:01:27Z</time>
      </trkpt>
      <trkpt lat="47.17134" lon="-1.64032">
        <ele>78</ele>
        <time>2022-01-01T12:01:29Z</time>
      </trkpt>
      <trkpt lat="47.17132" lon="-1.64052">
        <ele>78</ele>
        <time>2022-01-01T12:01:31Z</time>
      </trkpt>
      <trkpt lat="47.1713" lon="-1.64072">
        <ele>78</ele>
        <time>2022-01-01T12:01:33Z</time>
      </trkpt>
      <trkpt lat="47.17128" lon="-1.64091">
        <ele>79</ele>
        <time>2022-01-01T12:01:35Z</time>
      </trkpt>
      <trkpt lat="47.17126" lon="-1.64111">
        <ele>79</ele>
        <time>2022-01-01T12:01:37Z</time>
      </trkpt>
      <trkpt lat="47.17124" lon="-1.6413">
        <ele>79</ele>
        <time>2022-01-01T12:01:39Z</time>
      </trkpt>
      <trkpt lat="47.17122" lon="-1.64149">
        <ele>79</ele>
        <time>2022-01-01T12:01:41Z</time>
      </trkpt>
      <trkpt lat="47.1712" lon="-1.64169">
        <ele>79</ele>
        <time>2022-01-01T12:01:43Z</time>
      </trkpt>
      <trkpt lat="47.17118" lon="-1.64188">
        <ele>79</ele>
        <time>2022-01-01T12:01:45Z</time>
      </trkpt>
      <trkpt lat="47.17116" lon="-1.64207">
        <ele>79</ele>
        <time>2022-01-01T12:01:47Z</time>
      </trkpt>
      <trkpt lat="47.17114" lon="-1.64225">
        <ele>79</ele>
        <time>2022-01-01T12:01:49Z</time>
      </trkpt>
      <trkpt lat="47.17112" lon="-1.64244">
        <ele>79</ele>
        <time>2022-01-01T12:01:51Z</time>
      </trkpt>
      <trkpt lat="47.1711" lon="-1.64262">
        <ele>79</ele>
        <time>2022-01-01T12:01:53Z</time>
      </trkpt>
      <trkpt lat="47.17108" lon="-1.64281">
        <ele>80</ele>
        <time>2022-01-01T12:01:55Z</time>
      </trkpt>
      <trkpt lat="47.17106" lon="-1.64299">
        <ele>80</ele>
        <time>2022-01-01T12:01:57Z</time>
      </trkpt>
      <trkpt lat="47.17104" lon="-1.64318">
        <ele>80</ele>
        <time>2022-01-01T12:01:59Z</time>
      </trkpt>
      <trkpt lat="47.17102" lon="-1.64336">
        <ele>80</ele>
        <time>2022-01-01T12:02:01Z</time>
      </trkpt>
      <trkpt lat="47.17101" lon="-1.64355">
        <ele>80</ele>
        <time>2022-01-01T12:02:03Z</time>
      </trkpt>
      <trkpt lat="47.17099" lon="-1.64374">
        <ele>79</ele>
        <time>2022-01-01T12:02:05Z</time>
      </trkpt>
      <trkpt lat="47.17097" lon="-1.64394">
        <ele>80</ele>
        <time>2022-01-01T12:02:07Z</time>
      </trkpt>
      <trkpt lat="47.17096" lon="-1.64413">
        <ele>80</ele>
        <time>2022-01-01T12:02:09Z</time>
      </trkpt>
      <trkpt lat="47.17095" lon="-1.64433">
        <ele>80</ele>
        <time>2022-01-01T12:02:11Z</time>
      </trkpt>
      <trkpt lat="47.17093" lon="-1.64452">
        <ele>79</ele>
        <time>2022-01-01T12:02:13Z</time>
      </trkpt>
      <trkpt lat="47.17092" lon="-1.64471">
        <ele>79</ele>
        <time>2022-01-01T12:02:15Z</time>
      </trkpt>
      <trkpt lat="47.17091" lon="-1.64491">
        <ele>79</ele>
        <time>2022-01-01T12:02:17Z</time>
      </trkpt>
      <trkpt lat="47.1709" lon="-1.6451">
        <ele>79</ele>
        <time>2022-01-01T12:02:19Z</time>
      </trkpt>
      <trkpt lat="47.17089" lon="-1.6453">
        <ele>78</ele>
        <time>2022-01-01T12:02:21Z</time>
      </trkpt>
      <trkpt lat="47.17088" lon="-1.6455">
        <ele>78</ele>
        <time>2022-01-01T12:02:23Z</time>
      </trkpt>
      <trkpt lat="47.17088" lon="-1.6457">
        <ele>78</ele>
        <time>2022-01-01T12:02:25Z</time>
      </trkpt>
      <trkpt lat="47.17087" lon="-1.64591">
        <ele>78</ele>
        <time>2022-01-01T12:02:27Z</time>
      </trkpt>
      <trkpt lat="47.17087" lon="-1.6461">
        <ele>77</ele>
        <time>2022-01-01T12:02:29Z</time>
      </trkpt>
      <trkpt lat="47.17087" lon="-1.6463">
        <ele>77</ele>
        <time>2022-01-01T12:02:31Z</time>
      </trkpt>
      <trkpt lat="47.17087" lon="-1.6465">
        <ele>77</ele>
        <time>2022-01-01T12:02:33Z</time>
      </trkpt>
      <trkpt lat="47.17088" lon="-1.6467">
        <ele>77</ele>
        <time>2022-01-01T12:02:35Z</time>
      </trkpt>
      <trkpt lat="47.17089" lon="-1.64691">
        <ele>77</ele>
        <time>2022-01-01T12:02:37Z</time>
      </trkpt>
      <trkpt lat="47.17089" lon="-1.64712">
        <ele>77</ele>
        <time>2022-01-01T12:02:39Z</time>
      </trkpt>
      <trkpt lat="47.1709" lon="-1.64732">
        <ele>77</ele>
        <time>2022-01-01T12:02:41Z</time>
      </trkpt>
      <trkpt lat="47.17091" lon="-1.64751">
        <ele>78</ele>
        <time>2022-01-01T12:02:43Z</time>
      </trkpt>
      <trkpt lat="47.17092" lon="-1.6477">
        <ele>77</ele>
        <time>2022-01-01T12:02:45Z</time>
      </trkpt>
      <trkpt lat="47.17094" lon="-1.6479">
        <ele>78</ele>
        <time>2022-01-01T12:02:47Z</time>
      </trkpt>
      <trkpt lat="47.17095" lon="-1.6481">
        <ele>78</ele>
        <time>2022-01-01T12:02:49Z</time>
      </trkpt>
      <trkpt lat="47.17096" lon="-1.6483">
        <ele>78</ele>
        <time>2022-01-01T12:02:51Z</time>
      </trkpt>
      <trkpt lat="47.17098" lon="-1.64851">
        <ele>77</ele>
        <time>2022-01-01T12:02:53Z</time>
      </trkpt>
      <trkpt lat="47.17099" lon="-1.64873">
        <ele>77</ele>
        <time>2022-01-01T12:02:55Z</time>
      </trkpt>
      <trkpt lat="47.171" lon="-1.64894">
        <ele>77</ele>
        <time>2022-01-01T12:02:57Z</time>
      </trkpt>
      <trkpt lat="47.17102" lon="-1.64914">
        <ele>76</ele>
        <time>2022-01-01T12:02:59Z</time>
      </trkpt>
      <trkpt lat="47.17103" lon="-1.64934">
        <ele>76</ele>
        <time>2022-01-01T12:03:01Z</time>
      </trkpt>
      <trkpt lat="47.17105" lon="-1.64954">
        <ele>76</ele>
        <time>2022-01-01T12:03:03Z</time>
      </trkpt>
      <trkpt lat="47.17106" lon="-1.64974">
        <ele>76</ele>
        <time>2022-01-01T12:03:05Z</time>
      </trkpt>
      <trkpt lat="47.17107" lon="-1.64994">
        <ele>77</ele>
        <time>2022-01-01T12:03:07Z</time>
      </trkpt>
      <trkpt lat="47.17109" lon="-1.65014">
        <ele>77</ele>
        <time>2022-01-01T12:03:09Z</time>
      </trkpt>
      <trkpt lat="47.1711" lon="-1.65034">
        <ele>77</ele>
        <time>2022-01-01T12:03:11Z</time>
      </trkpt>
      <trkpt lat="47.17112" lon="-1.65053">
        <ele>77</ele>
        <time>2022-01-01T12:03:13Z</time>
      </trkpt>
      <trkpt lat="47.17113" lon="-1.65073">
        <ele>77</ele>
        <time>2022-01-01T12:03:15Z</time>
      </trkpt>
      <trkpt lat="47.17114" lon="-1.65093">
        <ele>77</ele>
        <time>2022-01-01T12:03:17Z</time>
      </trkpt>
      <trkpt lat="47.17116" lon="-1.65112">
        <ele>77</ele>
        <time>2022-01-01T12:03:19Z</time>
      </trkpt>
      <trkpt lat="47.17117" lon="-1.65132">
        <ele>77</ele>
        <time>2022-01-01T12:03:21Z</time>
      </trkpt>
      <trkpt lat="47.17118" lon="-1.65152">
        <ele>77</ele>
        <time>2022-01-01T12:03:23Z</time>
      </trkpt>
      <trkpt lat="47.17119" lon="-1.65171">
        <ele>77</ele>
        <time>2022-01-01T12:03:25Z</time>
      </trkpt>
      <trkpt lat="47.1712" lon="-1.6519">
        <ele>77</ele>
        <time>2022-01-01T12:03:27Z</time>
      </trkpt>
      <trkpt lat="47.17122" lon="-1.65209">
        <ele>78</ele>
        <time>2022-01-01T12:03:29Z</time>
      </trkpt>
      <trkpt lat="47.17123" lon="-1.65228">
        <ele>78</ele>
        <time>2022-01-01T12:03:31Z</time>
      </trkpt>
      <trkpt lat="47.17124" lon="-1.65245">
        <ele>78</ele>
        <time>2022-01-01T12:03:33Z</time>
      </trkpt>
      <trkpt lat="47.17127" lon="-1.65262">
        <ele>79</ele>
        <time>2022-01-01T12:03:35Z</time>
      </trkpt>
      <trkpt lat="47.17132" lon="-1.65279">
        <ele>79</ele>
        <time>2022-01-01T12:03:37Z</time>
      </trkpt>
      <trkpt lat="47.17137" lon="-1.65296">
        <ele>79</ele>
        <time>2022-01-01T12:03:39Z</time>
      </trkpt>
      <trkpt lat="47.17138" lon="-1.65313">
        <ele>79</ele>
        <time>2022-01-01T12:03:41Z</time>
      </trkpt>
      <trkpt lat="47.17131" lon="-1.65329">
        <ele>80</ele>
        <time>2022-01-01T12:03:43Z</time>
      </trkpt>
      <trkpt lat="47.17122" lon="-1.65342">
        <ele>80</ele>
        <time>2022-01-01T12:03:45Z</time>
      </trkpt>
      <trkpt lat="47.17118" lon="-1.65359">
        <ele>80</ele>
        <time>2022-01-01T12:03:47Z</time>
      </trkpt>
      <trkpt lat="47.17118" lon="-1.65377">
        <ele>80</ele>
        <time>2022-01-01T12:03:49Z</time>
      </trkpt>
      <trkpt lat="47.17119" lon="-1.65394">
        <ele>80</ele>
        <time>2022-01-01T12:03:51Z</time>
      </trkpt>
      <trkpt lat="47.17119" lon="-1.65412">
        <ele>81</ele>
        <time>2022-01-01T12:03:53Z</time>
      </trkpt>
      <trkpt lat="47.17119" lon="-1.65429">
        <ele>81</ele>
        <time>2022-01-01T12:03:55Z</time>
      </trkpt>
      <trkpt lat="47.17119" lon="-1.65446">
        <ele>82</ele>
        <time>2022-01-01T12:03:57Z</time>
      </trkpt>
      <trkpt lat="47.17118" lon="-1.65463">
        <ele>82</ele>
        <time>2022-01-01T12:03:59Z</time>
      </trkpt>
      <trkpt lat="47.17116" lon="-1.65479">
        <ele>83</ele>
        <time>2022-01-01T12:04:01Z</time>
      </trkpt>
      <trkpt lat="47.17113" lon="-1.65494">
        <ele>84</ele>
        <time>2022-01-01T12:04:03Z</time>
      </trkpt>
      <trkpt lat="47.17109" lon="-1.6551">
        <ele>84</ele>
        <time>2022-01-01T12:04:05Z</time>
      </trkpt>
      <trkpt lat="47.17104" lon="-1.65525">
        <ele>85</ele>
        <time>2022-01-01T12:04:07Z</time>
      </trkpt>
      <trkpt lat="47.17098" lon="-1.65539">
        <ele>85</ele>
        <time>2022-01-01T12:04:09Z</time>
      </trkpt>
      <trkpt lat="47.17091" lon="-1.65553">
        <ele>85</ele>
        <time>2022-01-01T12:04:11Z</time>
      </trkpt>
      <trkpt lat="47.17083" lon="-1.65565">
        <ele>85</ele>
        <time>2022-01-01T12:04:13Z</time>
      </trkpt>
      <trkpt lat="47.17076" lon="-1.65578">
        <ele>85</ele>
        <time>2022-01-01T12:04:15Z</time>
      </trkpt>
      <trkpt lat="47.17069" lon="-1.65591">
        <ele>85</ele>
        <time>2022-01-01T12:04:17Z</time>
      </trkpt>
      <trkpt lat="47.17061" lon="-1.65604">
        <ele>85</ele>
        <time>2022-01-01T12:04:19Z</time>
      </trkpt>
      <trkpt lat="47.17054" lon="-1.65617">
        <ele>85</ele>
        <time>2022-01-01T12:04:21Z</time>
      </trkpt>
      <trkpt lat="47.17046" lon="-1.65632">
        <ele>84</ele>
        <time>2022-01-01T12:04:23Z</time>
      </trkpt>
      <trkpt lat="47.17037" lon="-1.65648">
        <ele>84</ele>
        <time>2022-01-01T12:04:25Z</time>
      </trkpt>
      <trkpt lat="47.17028" lon="-1.65664">
        <ele>83</ele>
        <time>2022-01-01T12:04:27Z</time>
      </trkpt>
      <trkpt lat="47.17019" lon="-1.65681">
        <ele>83</ele>
        <time>2022-01-01T12:04:29Z</time>
      </trkpt>
      <trkpt lat="47.17012" lon="-1.65698">
        <ele>83</ele>
        <time>2022-01-01T12:04:31Z</time>
      </trkpt>
      <trkpt lat="47.17005" lon="-1.65717">
        <ele>83</ele>
        <time>2022-01-01T12:04:33Z</time>
      </trkpt>
      <trkpt lat="47.17002" lon="-1.65737">
        <ele>83</ele>
        <time>2022-01-01T12:04:35Z</time>
      </trkpt>
      <trkpt lat="47.16999" lon="-1.65755">
        <ele>82</ele>
        <time>2022-01-01T12:04:37Z</time>
      </trkpt>
      <trkpt lat="47.16989" lon="-1.65768">
        <ele>82</ele>
        <time>2022-01-01T12:04:39Z</time>
      </trkpt>
      <trkpt lat="47.16976" lon="-1.65775">
        <ele>82</ele>
        <time>2022-01-01T12:04:41Z</time>
      </trkpt>
      <trkpt lat="47.16964" lon="-1.65786">
        <ele>82</ele>
        <time>2022-01-01T12:04:43Z</time>
      </trkpt>
      <trkpt lat="47.16954" lon="-1.658">
        <ele>82</ele>
        <time>2022-01-01T12:04:45Z</time>
      </trkpt>
      <trkpt lat="47.16946" lon="-1.65816">
        <ele>82</ele>
        <time>2022-01-01T12:04:47Z</time>
      </trkpt>
      <trkpt lat="47.16938" lon="-1.65833">
        <ele>82</ele>
        <time>2022-01-01T12:04:49Z</time>
      </trkpt>
      <trkpt lat="47.1693" lon="-1.65849">
        <ele>81</ele>
        <time>2022-01-01T12:04:51Z</time>
      </trkpt>
      <trkpt lat="47.16922" lon="-1.65866">
        <ele>81</ele>
        <time>2022-01-01T12:04:53Z</time>
      </trkpt>
      <trkpt lat="47.16914" lon="-1.65883">
        <ele>81</ele>
        <time>2022-01-01T12:04:55Z</time>
      </trkpt>
      <trkpt lat="47.16905" lon="-1.659">
        <ele>81</ele>
        <time>2022-01-01T12:04:57Z</time>
      </trkpt>
      <trkpt lat="47.16897" lon="-1.65916">
        <ele>80</ele>
        <time>2022-01-01T12:04:59Z</time>
      </trkpt>
      <trkpt lat="47.16889" lon="-1.65933">
        <ele>80</ele>
        <time>2022-01-01T12:05:01Z</time>
      </trkpt>
      <trkpt lat="47.16881" lon="-1.6595">
        <ele>80</ele>
        <time>2022-01-01T12:05:03Z</time>
      </trkpt>
      <trkpt lat="47.16874" lon="-1.65968">
        <ele>80</ele>
        <time>2022-01-01T12:05:05Z</time>
      </trkpt>
      <trkpt lat="47.16868" lon="-1.65986">
        <ele>79</ele>
        <time>2022-01-01T12:05:07Z</time>
      </trkpt>
      <trkpt lat="47.16863" lon="-1.66005">
        <ele>79</ele>
        <time>2022-01-01T12:05:09Z</time>
      </trkpt>
      <trkpt lat="47.16858" lon="-1.66022">
        <ele>79</ele>
        <time>2022-01-01T12:05:11Z</time>
      </trkpt>
      <trkpt lat="47.16855" lon="-1.66041">
        <ele>78</ele>
        <time>2022-01-01T12:05:13Z</time>
      </trkpt>
      <trkpt lat="47.16851" lon="-1.66059">
        <ele>78</ele>
        <time>2022-01-01T12:05:15Z</time>
      </trkpt>
      <trkpt lat="47.16848" lon="-1.66078">
        <ele>78</ele>
        <time>2022-01-01T12:05:17Z</time>
      </trkpt>
      <trkpt lat="47.16846" lon="-1.66098">
        <ele>78</ele>
        <time>2022-01-01T12:05:19Z</time>
      </trkpt>
      <trkpt lat="47.16845" lon="-1.66117">
        <ele>78</ele>
        <time>2022-01-01T12:05:21Z</time>
      </trkpt>
      <trkpt lat="47.16844" lon="-1.66137">
        <ele>78</ele>
        <time>2022-01-01T12:05:23Z</time>
      </trkpt>
      <trkpt lat="47.16845" lon="-1.66156">
        <ele>78</ele>
        <time>2022-01-01T12:05:25Z</time>
      </trkpt>
      <trkpt lat="47.16846" lon="-1.66176">
        <ele>78</ele>
        <time>2022-01-01T12:05:27Z</time>
      </trkpt>
      <trkpt lat="47.16847" lon="-1.66195">
        <ele>78</ele>
        <time>2022-01-01T12:05:29Z</time>
      </trkpt>
      <trkpt lat="47.16848" lon="-1.66214">
        <ele>78</ele>
        <time>2022-01-01T12:05:31Z</time>
      </trkpt>
      <trkpt lat="47.16849" lon="-1.66234">
        <ele>78</ele>
        <time>2022-01-01T12:05:33Z</time>
      </trkpt>
      <trkpt lat="47.16851" lon="-1.66252">
        <ele>78</ele>
        <time>2022-01-01T12:05:35Z</time>
      </trkpt>
      <trkpt lat="47.16852" lon="-1.66271">
        <ele>79</ele>
        <time>2022-01-01T12:05:37Z</time>
      </trkpt>
      <trkpt lat="47.16854" lon="-1.6629">
        <ele>79</ele>
        <time>2022-01-01T12:05:39Z</time>
      </trkpt>
      <trkpt lat="47.16855" lon="-1.66309">
        <ele>79</ele>
        <time>2022-01-01T12:05:41Z</time>
      </trkpt>
      <trkpt lat="47.16857" lon="-1.66328">
        <ele>79</ele>
        <time>2022-01-01T12:05:43Z</time>
      </trkpt>
      <trkpt lat="47.16859" lon="-1.66347">
        <ele>79</ele>
        <time>2022-01-01T12:05:45Z</time>
      </trkpt>
      <trkpt lat="47.16861" lon="-1.66365">
        <ele>79</ele>
        <time>2022-01-01T12:05:47Z</time>
      </trkpt>
      <trkpt lat="47.16864" lon="-1.66384">
        <ele>80</ele>
        <time>2022-01-01T12:05:49Z</time>
      </trkpt>
      <trkpt lat="47.16866" lon="-1.66404">
        <ele>80</ele>
        <time>2022-01-01T12:05:51Z</time>
      </trkpt>
      <trkpt lat="47.16868" lon="-1.66423">
        <ele>80</ele>
        <time>2022-01-01T12:05:53Z</time>
      </trkpt>
      <trkpt lat="47.1687" lon="-1.66442">
        <ele>80</ele>
        <time>2022-01-01T12:05:55Z</time>
      </trkpt>
      <trkpt lat="47.16872" lon="-1.66461">
        <ele>79</ele>
        <time>2022-01-01T12:05:57Z</time>
      </trkpt>
      <trkpt lat="47.16874" lon="-1.66479">
        <ele>80</ele>
        <time>2022-01-01T12:05:59Z</time>
      </trkpt>
      <trkpt lat="47.16875" lon="-1.66496">
        <ele>80</ele>
        <time>2022-01-01T12:06:01Z</time>
      </trkpt>
      <trkpt lat="47.16877" lon="-1.66515">
        <ele>80</ele>
        <time>2022-01-01T12:06:03Z</time>
      </trkpt>
      <trkpt lat="47.16879" lon="-1.66535">
        <ele>81</ele>
        <time>2022-01-01T12:06:05Z</time>
      </trkpt>
      <trkpt lat="47.16881" lon="-1.66554">
        <ele>81</ele>
        <time>2022-01-01T12:06:07Z</time>
      </trkpt>
      <trkpt lat="47.16883" lon="-1.66572">
        <ele>82</ele>
        <time>2022-01-01T12:06:09Z</time>
      </trkpt>
      <trkpt lat="47.16886" lon="-1.66591">
        <ele>81</ele>
        <time>2022-01-01T12:06:11Z</time>
      </trkpt>
      <trkpt lat="47.16888" lon="-1.6661">
        <ele>81</ele>
        <time>2022-01-01T12:06:13Z</time>
      </trkpt>
      <trkpt lat="47.1689" lon="-1.66629">
        <ele>80</ele>
        <time>2022-01-01T12:06:15Z</time>
      </trkpt>
      <trkpt lat="47.16892" lon="-1.66648">
        <ele>80</ele>
        <time>2022-01-01T12:06:17Z</time>
      </trkpt>
      <trkpt lat="47.16891" lon="-1.66667">
        <ele>79</ele>
        <time>2022-01-01T12:06:19Z</time>
      </trkpt>
      <trkpt lat="47.1689" lon="-1.66686">
        <ele>79</ele>
        <time>2022-01-01T12:06:21Z</time>
      </trkpt>
      <trkpt lat="47.16887" lon="-1.66705">
        <ele>80</ele>
        <time>2022-01-01T12:06:23Z</time>
      </trkpt>
      <trkpt lat="47.16883" lon="-1.66723">
        <ele>80</ele>
        <time>2022-01-01T12:06:25Z</time>
      </trkpt>
      <trkpt lat="47.16876" lon="-1.6674">
        <ele>80</ele>
        <time>2022-01-01T12:06:27Z</time>
      </trkpt>
      <trkpt lat="47.16868" lon="-1.66757">
        <ele>80</ele>
        <time>2022-01-01T12:06:29Z</time>
      </trkpt>
      <trkpt lat="47.16859" lon="-1.66773">
        <ele>80</ele>
        <time>2022-01-01T12:06:31Z</time>
      </trkpt>
      <trkpt lat="47.16851" lon="-1.66789">
        <ele>80</ele>
        <time>2022-01-01T12:06:33Z</time>
      </trkpt>
      <trkpt lat="47.16842" lon="-1.66805">
        <ele>80</ele>
        <time>2022-01-01T12:06:35Z</time>
      </trkpt>
      <trkpt lat="47.16833" lon="-1.66821">
        <ele>79</ele>
        <time>2022-01-01T12:06:37Z</time>
      </trkpt>
      <trkpt lat="47.16825" lon="-1.66836">
        <ele>79</ele>
        <time>2022-01-01T12:06:39Z</time>
      </trkpt>
      <trkpt lat="47.16817" lon="-1.66852">
        <ele>80</ele>
        <time>2022-01-01T12:06:41Z</time>
      </trkpt>
      <trkpt lat="47.16809" lon="-1.66867">
        <ele>79</ele>
        <time>2022-01-01T12:06:43Z</time>
      </trkpt>
      <trkpt lat="47.168" lon="-1.66881">
        <ele>79</ele>
        <time>2022-01-01T12:06:45Z</time>
      </trkpt>
      <trkpt lat="47.1679" lon="-1.66893">
        <ele>80</ele>
        <time>2022-01-01T12:06:47Z</time>
      </trkpt>
      <trkpt lat="47.16778" lon="-1.66902">
        <ele>80</ele>
        <time>2022-01-01T12:06:49Z</time>
      </trkpt>
      <trkpt lat="47.16767" lon="-1.66909">
        <ele>80</ele>
        <time>2022-01-01T12:06:51Z</time>
      </trkpt>
      <trkpt lat="47.16754" lon="-1.66914">
        <ele>81</ele>
        <time>2022-01-01T12:06:53Z</time>
      </trkpt>
      <trkpt lat="47.16741" lon="-1.66919">
        <ele>81</ele>
        <time>2022-01-01T12:06:55Z</time>
      </trkpt>
      <trkpt lat="47.1673" lon="-1.66923">
        <ele>82</ele>
        <time>2022-01-01T12:06:57Z</time>
      </trkpt>
      <trkpt lat="47.16718" lon="-1.66927">
        <ele>82</ele>
        <time>2022-01-01T12:06:59Z</time>
      </trkpt>
      <trkpt lat="47.16706" lon="-1.66931">
        <ele>82</ele>
        <time>2022-01-01T12:07:01Z</time>
      </trkpt>
      <trkpt lat="47.16696" lon="-1.66937">
        <ele>83</ele>
        <time>2022-01-01T12:07:03Z</time>
      </trkpt>
      <trkpt lat="47.16687" lon="-1.66945">
        <ele>82</ele>
        <time>2022-01-01T12:07:05Z</time>
      </trkpt>
      <trkpt lat="47.16677" lon="-1.66959">
        <ele>82</ele>
        <time>2022-01-01T12:07:07Z</time>
      </trkpt>
      <trkpt lat="47.16668" lon="-1.66975">
        <ele>82</ele>
        <time>2022-01-01T12:07:09Z</time>
      </trkpt>
      <trkpt lat="47.16662" lon="-1.66994">
        <ele>83</ele>
        <time>2022-01-01T12:07:11Z</time>
      </trkpt>
      <trkpt lat="47.16659" lon="-1.67013">
        <ele>82</ele>
        <time>2022-01-01T12:07:13Z</time>
      </trkpt>
      <trkpt lat="47.16655" lon="-1.67033">
        <ele>81</ele>
        <time>2022-01-01T12:07:15Z</time>
      </trkpt>
      <trkpt lat="47.16651" lon="-1.67052">
        <ele>80</ele>
        <time>2022-01-01T12:07:17Z</time>
      </trkpt>
      <trkpt lat="47.16647" lon="-1.67071">
        <ele>80</ele>
        <time>2022-01-01T12:07:19Z</time>
      </trkpt>
      <trkpt lat="47.16643" lon="-1.67089">
        <ele>79</ele>
        <time>2022-01-01T12:07:21Z</time>
      </trkpt>
      <trkpt lat="47.16639" lon="-1.67106">
        <ele>79</ele>
        <time>2022-01-01T12:07:23Z</time>
      </trkpt>
      <trkpt lat="47.16635" lon="-1.67124">
        <ele>79</ele>
        <time>2022-01-01T12:07:25Z</time>
      </trkpt>
      <trkpt lat="47.16632" lon="-1.67142">
        <ele>79</ele>
        <time>2022-01-01T12:07:27Z</time>
      </trkpt>
      <trkpt lat="47.16629" lon="-1.67159">
        <ele>79</ele>
        <time>2022-01-01T12:07:29Z</time>
      </trkpt>
      <trkpt lat="47.16625" lon="-1.67176">
        <ele>79</ele>
        <time>2022-01-01T12:07:31Z</time>
      </trkpt>
      <trkpt lat="47.16622" lon="-1.67193">
        <ele>79</ele>
        <time>2022-01-01T12:07:33Z</time>
      </trkpt>
      <trkpt lat="47.16618" lon="-1.6721">
        <ele>79</ele>
        <time>2022-01-01T12:07:35Z</time>
      </trkpt>
      <trkpt lat="47.16615" lon="-1.67225">
        <ele>78</ele>
        <time>2022-01-01T12:07:37Z</time>
      </trkpt>
      <trkpt lat="47.16612" lon="-1.6724">
        <ele>78</ele>
        <time>2022-01-01T12:07:39Z</time>
      </trkpt>
      <trkpt lat="47.16609" lon="-1.67254">
        <ele>78</ele>
        <time>2022-01-01T12:07:42Z</time>
      </trkpt>
      <trkpt lat="47.16605" lon="-1.67267">
        <ele>78</ele>
        <time>2022-01-01T12:07:45Z</time>
      </trkpt>
      <trkpt lat="47.16599" lon="-1.67281">
        <ele>78</ele>
        <time>2022-01-01T12:07:47Z</time>
      </trkpt>
      <trkpt lat="47.16593" lon="-1.67296">
        <ele>77</ele>
        <time>2022-01-01T12:07:49Z</time>
      </trkpt>
      <trkpt lat="47.16586" lon="-1.6731">
        <ele>78</ele>
        <time>2022-01-01T12:07:51Z</time>
      </trkpt>
      <trkpt lat="47.16578" lon="-1.67327">
        <ele>78</ele>
        <time>2022-01-01T12:07:53Z</time>
      </trkpt>
      <trkpt lat="47.16571" lon="-1.67343">
        <ele>78</ele>
        <time>2022-01-01T12:07:55Z</time>
      </trkpt>
      <trkpt lat="47.16563" lon="-1.67359">
        <ele>78</ele>
        <time>2022-01-01T12:07:57Z</time>
      </trkpt>
      <trkpt lat="47.16554" lon="-1.67373">
        <ele>78</ele>
        <time>2022-01-01T12:07:59Z</time>
      </trkpt>
      <trkpt lat="47.16545" lon="-1.67387">
        <ele>77</ele>
        <time>2022-01-01T12:08:01Z</time>
      </trkpt>
      <trkpt lat="47.16536" lon="-1.67401">
        <ele>77</ele>
        <time>2022-01-01T12:08:03Z</time>
      </trkpt>
      <trkpt lat="47.16527" lon="-1.67413">
        <ele>77</ele>
        <time>2022-01-01T12:08:05Z</time>
      </trkpt>
      <trkpt lat="47.16519" lon="-1.67426">
        <ele>77</ele>
        <time>2022-01-01T12:08:07Z</time>
      </trkpt>
      <trkpt lat="47.16511" lon="-1.6744">
        <ele>77</ele>
        <time>2022-01-01T12:08:09Z</time>
      </trkpt>
      <trkpt lat="47.16503" lon="-1.67455">
        <ele>77</ele>
        <time>2022-01-01T12:08:11Z</time>
      </trkpt>
      <trkpt lat="47.16495" lon="-1.6747">
        <ele>77</ele>
        <time>2022-01-01T12:08:13Z</time>
      </trkpt>
      <trkpt lat="47.16486" lon="-1.67484">
        <ele>77</ele>
        <time>2022-01-01T12:08:15Z</time>
      </trkpt>
      <trkpt lat="47.16478" lon="-1.67498">
        <ele>77</ele>
        <time>2022-01-01T12:08:17Z</time>
      </trkpt>
      <trkpt lat="47.16471" lon="-1.67512">
        <ele>77</ele>
        <time>2022-01-01T12:08:19Z</time>
      </trkpt>
      <trkpt lat="47.16462" lon="-1.67527">
        <ele>78</ele>
        <time>2022-01-01T12:08:21Z</time>
      </trkpt>
      <trkpt lat="47.16455" lon="-1.67541">
        <ele>77</ele>
        <time>2022-01-01T12:08:23Z</time>
      </trkpt>
      <trkpt lat="47.16447" lon="-1.67554">
        <ele>78</ele>
        <time>2022-01-01T12:08:25Z</time>
      </trkpt>
      <trkpt lat="47.16439" lon="-1.67568">
        <ele>77</ele>
        <time>2022-01-01T12:08:27Z</time>
      </trkpt>
      <trkpt lat="47.16432" lon="-1.67583">
        <ele>77</ele>
        <time>2022-01-01T12:08:29Z</time>
      </trkpt>
      <trkpt lat="47.16425" lon="-1.67597">
        <ele>77</ele>
        <time>2022-01-01T12:08:31Z</time>
      </trkpt>
      <trkpt lat="47.16418" lon="-1.67612">
        <ele>77</ele>
        <time>2022-01-01T12:08:33Z</time>
      </trkpt>
      <trkpt lat="47.16411" lon="-1.67626">
        <ele>77</ele>
        <time>2022-01-01T12:08:35Z</time>
      </trkpt>
      <trkpt lat="47.16404" lon="-1.6764">
        <ele>77</ele>
        <time>2022-01-01T12:08:37Z</time>
      </trkpt>
      <trkpt lat="47.16398" lon="-1.67654">
        <ele>77</ele>
        <time>2022-01-01T12:08:39Z</time>
      </trkpt>
      <trkpt lat="47.16392" lon="-1.67667">
        <ele>77</ele>
        <time>2022-01-01T12:08:41Z</time>
      </trkpt>
      <trkpt lat="47.16388" lon="-1.6768">
        <ele>77</ele>
        <time>2022-01-01T12:08:43Z</time>
      </trkpt>
      <trkpt lat="47.16385" lon="-1.67693">
        <ele>77</ele>
        <time>2022-01-01T12:08:47Z</time>
      </trkpt>
      <trkpt lat="47.16377" lon="-1.67701">
        <ele>77</ele>
        <time>2022-01-01T12:08:54Z</time>
      </trkpt>
      <trkpt lat="47.16368" lon="-1.67716">
        <ele>79</ele>
        <time>2022-01-01T12:09:49Z</time>
      </trkpt>
      <trkpt lat="47.16362" lon="-1.6773">
        <ele>81</ele>
        <time>2022-01-01T12:09:51Z</time>
      </trkpt>
      <trkpt lat="47.16355" lon="-1.67744">
        <ele>82</ele>
        <time>2022-01-01T12:09:53Z</time>
      </trkpt>
      <trkpt lat="47.16346" lon="-1.67758">
        <ele>81</ele>
        <time>2022-01-01T12:09:55Z</time>
      </trkpt>
      <trkpt lat="47.16337" lon="-1.67773">
        <ele>81</ele>
        <time>2022-01-01T12:09:57Z</time>
      </trkpt>
      <trkpt lat="47.16328" lon="-1.67789">
        <ele>80</ele>
        <time>2022-01-01T12:09:59Z</time>
      </trkpt>
      <trkpt lat="47.16319" lon="-1.67805">
        <ele>81</ele>
        <time>2022-01-01T12:10:01Z</time>
      </trkpt>
      <trkpt lat="47.1631" lon="-1.67819">
        <ele>80</ele>
        <time>2022-01-01T12:10:03Z</time>
      </trkpt>
      <trkpt lat="47.16301" lon="-1.67834">
        <ele>79</ele>
        <time>2022-01-01T12:10:05Z</time>
      </trkpt>
      <trkpt lat="47.16293" lon="-1.67849">
        <ele>79</ele>
        <time>2022-01-01T12:10:07Z</time>
      </trkpt>
      <trkpt lat="47.16284" lon="-1.67864">
        <ele>79</ele>
        <time>2022-01-01T12:10:09Z</time>
      </trkpt>
      <trkpt lat="47.16275" lon="-1.67879">
        <ele>79</ele>
        <time>2022-01-01T12:10:11Z</time>
      </trkpt>
      <trkpt lat="47.16267" lon="-1.67893">
        <ele>79</ele>
        <time>2022-01-01T12:10:13Z</time>
      </trkpt>
      <trkpt lat="47.16259" lon="-1.67908">
        <ele>79</ele>
        <time>2022-01-01T12:10:15Z</time>
      </trkpt>
      <trkpt lat="47.1625" lon="-1.67922">
        <ele>79</ele>
        <time>2022-01-01T12:10:17Z</time>
      </trkpt>
      <trkpt lat="47.16241" lon="-1.67937">
        <ele>79</ele>
        <time>2022-01-01T12:10:19Z</time>
      </trkpt>
      <trkpt lat="47.16233" lon="-1.67951">
        <ele>79</ele>
        <time>2022-01-01T12:10:21Z</time>
      </trkpt>
      <trkpt lat="47.16225" lon="-1.67966">
        <ele>78</ele>
        <time>2022-01-01T12:10:23Z</time>
      </trkpt>
      <trkpt lat="47.1622" lon="-1.67983">
        <ele>78</ele>
        <time>2022-01-01T12:10:25Z</time>
      </trkpt>
      <trkpt lat="47.16211" lon="-1.67993">
        <ele>77</ele>
        <time>2022-01-01T12:10:27Z</time>
      </trkpt>
      <trkpt lat="47.16197" lon="-1.68">
        <ele>77</ele>
        <time>2022-01-01T12:10:29Z</time>
      </trkpt>
      <trkpt lat="47.16187" lon="-1.68015">
        <ele>77</ele>
        <time>2022-01-01T12:10:31Z</time>
      </trkpt>
      <trkpt lat="47.16177" lon="-1.6803">
        <ele>77</ele>
        <time>2022-01-01T12:10:33Z</time>
      </trkpt>
      <trkpt lat="47.16168" lon="-1.68044">
        <ele>77</ele>
        <time>2022-01-01T12:10:35Z</time>
      </trkpt>
      <trkpt lat="47.16159" lon="-1.68057">
        <ele>77</ele>
        <time>2022-01-01T12:10:37Z</time>
      </trkpt>
      <trkpt lat="47.16151" lon="-1.68071">
        <ele>77</ele>
        <time>2022-01-01T12:10:39Z</time>
      </trkpt>
      <trkpt lat="47.16144" lon="-1.68087">
        <ele>77</ele>
        <time>2022-01-01T12:10:41Z</time>
      </trkpt>
      <trkpt lat="47.16139" lon="-1.68105">
        <ele>77</ele>
        <time>2022-01-01T12:10:43Z</time>
      </trkpt>
      <trkpt lat="47.16135" lon="-1.68123">
        <ele>77</ele>
        <time>2022-01-01T12:10:45Z</time>
      </trkpt>
      <trkpt lat="47.16132" lon="-1.68141">
        <ele>77</ele>
        <time>2022-01-01T12:10:47Z</time>
      </trkpt>
      <trkpt lat="47.16128" lon="-1.68159">
        <ele>77</ele>
        <time>2022-01-01T12:10:49Z</time>
      </trkpt>
      <trkpt lat="47.16124" lon="-1.68177">
        <ele>77</ele>
        <time>2022-01-01T12:10:51Z</time>
      </trkpt>
      <trkpt lat="47.1612" lon="-1.68196">
        <ele>76</ele>
        <time>2022-01-01T12:10:53Z</time>
      </trkpt>
      <trkpt lat="47.16116" lon="-1.68214">
        <ele>76</ele>
        <time>2022-01-01T12:10:55Z</time>
      </trkpt>
      <trkpt lat="47.16112" lon="-1.68233">
        <ele>76</ele>
        <time>2022-01-01T12:10:57Z</time>
      </trkpt>
      <trkpt lat="47.16107" lon="-1.68252">
        <ele>76</ele>
        <time>2022-01-01T12:10:59Z</time>
      </trkpt>
      <trkpt lat="47.16103" lon="-1.68271">
        <ele>75</ele>
        <time>2022-01-01T12:11:01Z</time>
      </trkpt>
      <trkpt lat="47.16099" lon="-1.68293">
        <ele>75</ele>
        <time>2022-01-01T12:11:03Z</time>
      </trkpt>
      <trkpt lat="47.16095" lon="-1.68314">
        <ele>74</ele>
        <time>2022-01-01T12:11:05Z</time>
      </trkpt>
      <trkpt lat="47.16092" lon="-1.68335">
        <ele>74</ele>
        <time>2022-01-01T12:11:07Z</time>
      </trkpt>
      <trkpt lat="47.16088" lon="-1.68355">
        <ele>74</ele>
        <time>2022-01-01T12:11:09Z</time>
      </trkpt>
      <trkpt lat="47.16083" lon="-1.68374">
        <ele>75</ele>
        <time>2022-01-01T12:11:11Z</time>
      </trkpt>
      <trkpt lat="47.16079" lon="-1.68393">
        <ele>74</ele>
        <time>2022-01-01T12:11:13Z</time>
      </trkpt>
      <trkpt lat="47.16076" lon="-1.68411">
        <ele>74</ele>
        <time>2022-01-01T12:11:15Z</time>
      </trkpt>
      <trkpt lat="47.16072" lon="-1.6843">
        <ele>74</ele>
        <time>2022-01-01T12:11:17Z</time>
      </trkpt>
      <trkpt lat="47.16069" lon="-1.68448">
        <ele>74</ele>
        <time>2022-01-01T12:11:19Z</time>
      </trkpt>
      <trkpt lat="47.16065" lon="-1.68467">
        <ele>74</ele>
        <time>2022-01-01T12:11:21Z</time>
      </trkpt>
      <trkpt lat="47.16062" lon="-1.68487">
        <ele>73</ele>
        <time>2022-01-01T12:11:23Z</time>
      </trkpt>
      <trkpt lat="47.16059" lon="-1.68506">
        <ele>73</ele>
        <time>2022-01-01T12:11:25Z</time>
      </trkpt>
      <trkpt lat="47.16056" lon="-1.68525">
        <ele>73</ele>
        <time>2022-01-01T12:11:27Z</time>
      </trkpt>
      <trkpt lat="47.16054" lon="-1.68544">
        <ele>73</ele>
        <time>2022-01-01T12:11:29Z</time>
      </trkpt>
      <trkpt lat="47.16049" lon="-1.68573">
        <ele>73</ele>
        <time>2022-01-01T12:11:32Z</time>
      </trkpt>
      <trkpt lat="47.16047" lon="-1.68591">
        <ele>73</ele>
        <time>2022-01-01T12:11:34Z</time>
      </trkpt>
      <trkpt lat="47.16044" lon="-1.6862">
        <ele>73</ele>
        <time>2022-01-01T12:11:37Z</time>
      </trkpt>
      <trkpt lat="47.16043" lon="-1.6864">
        <ele>73</ele>
        <time>2022-01-01T12:11:39Z</time>
      </trkpt>
      <trkpt lat="47.16042" lon="-1.68658">
        <ele>73</ele>
        <time>2022-01-01T12:11:41Z</time>
      </trkpt>
      <trkpt lat="47.16043" lon="-1.68687">
        <ele>73</ele>
        <time>2022-01-01T12:11:44Z</time>
      </trkpt>
      <trkpt lat="47.16045" lon="-1.68705">
        <ele>74</ele>
        <time>2022-01-01T12:11:46Z</time>
      </trkpt>
      <trkpt lat="47.16047" lon="-1.68724">
        <ele>74</ele>
        <time>2022-01-01T12:11:48Z</time>
      </trkpt>
      <trkpt lat="47.1605" lon="-1.68742">
        <ele>74</ele>
        <time>2022-01-01T12:11:50Z</time>
      </trkpt>
      <trkpt lat="47.16053" lon="-1.68759">
        <ele>75</ele>
        <time>2022-01-01T12:11:52Z</time>
      </trkpt>
      <trkpt lat="47.16057" lon="-1.68775">
        <ele>75</ele>
        <time>2022-01-01T12:11:54Z</time>
      </trkpt>
      <trkpt lat="47.16062" lon="-1.68791">
        <ele>75</ele>
        <time>2022-01-01T12:11:56Z</time>
      </trkpt>
      <trkpt lat="47.16067" lon="-1.68807">
        <ele>76</ele>
        <time>2022-01-01T12:11:58Z</time>
      </trkpt>
      <trkpt lat="47.16071" lon="-1.68823">
        <ele>76</ele>
        <time>2022-01-01T12:12:00Z</time>
      </trkpt>
      <trkpt lat="47.16076" lon="-1.6884">
        <ele>76</ele>
        <time>2022-01-01T12:12:02Z</time>
      </trkpt>
      <trkpt lat="47.16081" lon="-1.68856">
        <ele>76</ele>
        <time>2022-01-01T12:12:04Z</time>
      </trkpt>
      <trkpt lat="47.16086" lon="-1.68873">
        <ele>76</ele>
        <time>2022-01-01T12:12:06Z</time>
      </trkpt>
      <trkpt lat="47.16091" lon="-1.68891">
        <ele>75</ele>
        <time>2022-01-01T12:12:08Z</time>
      </trkpt>
      <trkpt lat="47.16096" lon="-1.68908">
        <ele>75</ele>
        <time>2022-01-01T12:12:10Z</time>
      </trkpt>
      <trkpt lat="47.16102" lon="-1.68927">
        <ele>75</ele>
        <time>2022-01-01T12:12:12Z</time>
      </trkpt>
      <trkpt lat="47.16107" lon="-1.68945">
        <ele>74</ele>
        <time>2022-01-01T12:12:14Z</time>
      </trkpt>
      <trkpt lat="47.16112" lon="-1.68964">
        <ele>74</ele>
        <time>2022-01-01T12:12:16Z</time>
      </trkpt>
      <trkpt lat="47.16117" lon="-1.68983">
        <ele>74</ele>
        <time>2022-01-01T12:12:18Z</time>
      </trkpt>
      <trkpt lat="47.16123" lon="-1.69003">
        <ele>73</ele>
        <time>2022-01-01T12:12:20Z</time>
      </trkpt>
      <trkpt lat="47.16128" lon="-1.69023">
        <ele>73</ele>
        <time>2022-01-01T12:12:22Z</time>
      </trkpt>
      <trkpt lat="47.16133" lon="-1.69045">
        <ele>73</ele>
        <time>2022-01-01T12:12:24Z</time>
      </trkpt>
      <trkpt lat="47.16137" lon="-1.69066">
        <ele>72</ele>
        <time>2022-01-01T12:12:26Z</time>
      </trkpt>
      <trkpt lat="47.1614" lon="-1.69087">
        <ele>72</ele>
        <time>2022-01-01T12:12:28Z</time>
      </trkpt>
      <trkpt lat="47.16143" lon="-1.69107">
        <ele>72</ele>
        <time>2022-01-01T12:12:30Z</time>
      </trkpt>
      <trkpt lat="47.16144" lon="-1.69125">
        <ele>73</ele>
        <time>2022-01-01T12:12:32Z</time>
      </trkpt>
      <trkpt lat="47.16145" lon="-1.69144">
        <ele>73</ele>
        <time>2022-01-01T12:12:34Z</time>
      </trkpt>
      <trkpt lat="47.16144" lon="-1.69165">
        <ele>74</ele>
        <time>2022-01-01T12:12:36Z</time>
      </trkpt>
      <trkpt lat="47.16144" lon="-1.69187">
        <ele>74</ele>
        <time>2022-01-01T12:12:38Z</time>
      </trkpt>
      <trkpt lat="47.16142" lon="-1.69209">
        <ele>73</ele>
        <time>2022-01-01T12:12:40Z</time>
      </trkpt>
      <trkpt lat="47.1614" lon="-1.6923">
        <ele>72</ele>
        <time>2022-01-01T12:12:42Z</time>
      </trkpt>
      <trkpt lat="47.16139" lon="-1.69251">
        <ele>72</ele>
        <time>2022-01-01T12:12:44Z</time>
      </trkpt>
      <trkpt lat="47.16137" lon="-1.69273">
        <ele>72</ele>
        <time>2022-01-01T12:12:46Z</time>
      </trkpt>
      <trkpt lat="47.16134" lon="-1.69293">
        <ele>72</ele>
        <time>2022-01-01T12:12:48Z</time>
      </trkpt>
      <trkpt lat="47.16131" lon="-1.69313">
        <ele>73</ele>
        <time>2022-01-01T12:12:50Z</time>
      </trkpt>
      <trkpt lat="47.16127" lon="-1.69333">
        <ele>73</ele>
        <time>2022-01-01T12:12:52Z</time>
      </trkpt>
      <trkpt lat="47.16124" lon="-1.69352">
        <ele>72</ele>
        <time>2022-01-01T12:12:54Z</time>
      </trkpt>
      <trkpt lat="47.16122" lon="-1.69371">
        <ele>72</ele>
        <time>2022-01-01T12:12:56Z</time>
      </trkpt>
      <trkpt lat="47.16119" lon="-1.69389">
        <ele>72</ele>
        <time>2022-01-01T12:12:58Z</time>
      </trkpt>
      <trkpt lat="47.16118" lon="-1.69408">
        <ele>72</ele>
        <time>2022-01-01T12:13:00Z</time>
      </trkpt>
      <trkpt lat="47.16117" lon="-1.69427">
        <ele>72</ele>
        <time>2022-01-01T12:13:02Z</time>
      </trkpt>
      <trkpt lat="47.16116" lon="-1.69446">
        <ele>71</ele>
        <time>2022-01-01T12:13:04Z</time>
      </trkpt>
      <trkpt lat="47.16114" lon="-1.69466">
        <ele>71</ele>
        <time>2022-01-01T12:13:06Z</time>
      </trkpt>
      <trkpt lat="47.16113" lon="-1.69485">
        <ele>71</ele>
        <time>2022-01-01T12:13:08Z</time>
      </trkpt>
      <trkpt lat="47.16111" lon="-1.69503">
        <ele>71</ele>
        <time>2022-01-01T12:13:10Z</time>
      </trkpt>
      <trkpt lat="47.1611" lon="-1.69522">
        <ele>71</ele>
        <time>2022-01-01T12:13:12Z</time>
      </trkpt>
      <trkpt lat="47.16108" lon="-1.69541">
        <ele>71</ele>
        <time>2022-01-01T12:13:14Z</time>
      </trkpt>
      <trkpt lat="47.16107" lon="-1.6956">
        <ele>72</ele>
        <time>2022-01-01T12:13:16Z</time>
      </trkpt>
      <trkpt lat="47.16105" lon="-1.69578">
        <ele>72</ele>
        <time>2022-01-01T12:13:18Z</time>
      </trkpt>
      <trkpt lat="47.16104" lon="-1.69597">
        <ele>72</ele>
        <time>2022-01-01T12:13:20Z</time>
      </trkpt>
      <trkpt lat="47.16103" lon="-1.69616">
        <ele>72</ele>
        <time>2022-01-01T12:13:22Z</time>
      </trkpt>
      <trkpt lat="47.16102" lon="-1.69635">
        <ele>72</ele>
        <time>2022-01-01T12:13:24Z</time>
      </trkpt>
      <trkpt lat="47.161" lon="-1.69654">
        <ele>72</ele>
        <time>2022-01-01T12:13:26Z</time>
      </trkpt>
      <trkpt lat="47.16098" lon="-1.69672">
        <ele>72</ele>
        <time>2022-01-01T12:13:28Z</time>
      </trkpt>
      <trkpt lat="47.16097" lon="-1.69691">
        <ele>72</ele>
        <time>2022-01-01T12:13:30Z</time>
      </trkpt>
      <trkpt lat="47.16095" lon="-1.6971">
        <ele>72</ele>
        <time>2022-01-01T12:13:32Z</time>
      </trkpt>
      <trkpt lat="47.16093" lon="-1.6973">
        <ele>72</ele>
        <time>2022-01-01T12:13:34Z</time>
      </trkpt>
      <trkpt lat="47.16092" lon="-1.6975">
        <ele>72</ele>
        <time>2022-01-01T12:13:36Z</time>
      </trkpt>
      <trkpt lat="47.16091" lon="-1.69769">
        <ele>72</ele>
        <time>2022-01-01T12:13:38Z</time>
      </trkpt>
      <trkpt lat="47.1609" lon="-1.69788">
        <ele>72</ele>
        <time>2022-01-01T12:13:40Z</time>
      </trkpt>
      <trkpt lat="47.16089" lon="-1.69807">
        <ele>72</ele>
        <time>2022-01-01T12:13:42Z</time>
      </trkpt>
      <trkpt lat="47.16087" lon="-1.69826">
        <ele>73</ele>
        <time>2022-01-01T12:13:44Z</time>
      </trkpt>
      <trkpt lat="47.16086" lon="-1.69845">
        <ele>73</ele>
        <time>2022-01-01T12:13:46Z</time>
      </trkpt>
      <trkpt lat="47.16084" lon="-1.69863">
        <ele>73</ele>
        <time>2022-01-01T12:13:48Z</time>
      </trkpt>
      <trkpt lat="47.16083" lon="-1.69883">
        <ele>73</ele>
        <time>2022-01-01T12:13:50Z</time>
      </trkpt>
      <trkpt lat="47.16082" lon="-1.69902">
        <ele>73</ele>
        <time>2022-01-01T12:13:52Z</time>
      </trkpt>
      <trkpt lat="47.16081" lon="-1.69921">
        <ele>73</ele>
        <time>2022-01-01T12:13:54Z</time>
      </trkpt>
      <trkpt lat="47.1608" lon="-1.69941">
        <ele>73</ele>
        <time>2022-01-01T12:13:56Z</time>
      </trkpt>
      <trkpt lat="47.16078" lon="-1.69961">
        <ele>72</ele>
        <time>2022-01-01T12:13:58Z</time>
      </trkpt>
      <trkpt lat="47.16077" lon="-1.6998">
        <ele>73</ele>
        <time>2022-01-01T12:14:00Z</time>
      </trkpt>
      <trkpt lat="47.16076" lon="-1.7">
        <ele>73</ele>
        <time>2022-01-01T12:14:02Z</time>
      </trkpt>
      <trkpt lat="47.16074" lon="-1.7002">
        <ele>73</ele>
        <time>2022-01-01T12:14:04Z</time>
      </trkpt>
      <trkpt lat="47.16073" lon="-1.70038">
        <ele>73</ele>
        <time>2022-01-01T12:14:06Z</time>
      </trkpt>
      <trkpt lat="47.16072" lon="-1.70058">
        <ele>73</ele>
        <time>2022-01-01T12:14:08Z</time>
      </trkpt>
      <trkpt lat="47.1607" lon="-1.70078">
        <ele>72</ele>
        <time>2022-01-01T12:14:10Z</time>
      </trkpt>
      <trkpt lat="47.16069" lon="-1.70097">
        <ele>72</ele>
        <time>2022-01-01T12:14:12Z</time>
      </trkpt>
      <trkpt lat="47.16066" lon="-1.70116">
        <ele>72</ele>
        <time>2022-01-01T12:14:14Z</time>
      </trkpt>
      <trkpt lat="47.16062" lon="-1.70134">
        <ele>72</ele>
        <time>2022-01-01T12:14:16Z</time>
      </trkpt>
      <trkpt lat="47.16056" lon="-1.70151">
        <ele>72</ele>
        <time>2022-01-01T12:14:18Z</time>
      </trkpt>
      <trkpt lat="47.16049" lon="-1.70168">
        <ele>72</ele>
        <time>2022-01-01T12:14:20Z</time>
      </trkpt>
      <trkpt lat="47.16043" lon="-1.70184">
        <ele>72</ele>
        <time>2022-01-01T12:14:22Z</time>
      </trkpt>
      <trkpt lat="47.16035" lon="-1.702">
        <ele>73</ele>
        <time>2022-01-01T12:14:24Z</time>
      </trkpt>
      <trkpt lat="47.16028" lon="-1.70217">
        <ele>73</ele>
        <time>2022-01-01T12:14:26Z</time>
      </trkpt>
      <trkpt lat="47.16021" lon="-1.70233">
        <ele>73</ele>
        <time>2022-01-01T12:14:28Z</time>
      </trkpt>
      <trkpt lat="47.16015" lon="-1.70249">
        <ele>74</ele>
        <time>2022-01-01T12:14:30Z</time>
      </trkpt>
      <trkpt lat="47.16008" lon="-1.70265">
        <ele>74</ele>
        <time>2022-01-01T12:14:32Z</time>
      </trkpt>
      <trkpt lat="47.16001" lon="-1.70281">
        <ele>75</ele>
        <time>2022-01-01T12:14:34Z</time>
      </trkpt>
      <trkpt lat="47.15994" lon="-1.70297">
        <ele>75</ele>
        <time>2022-01-01T12:14:36Z</time>
      </trkpt>
      <trkpt lat="47.15987" lon="-1.70314">
        <ele>75</ele>
        <time>2022-01-01T12:14:38Z</time>
      </trkpt>
      <trkpt lat="47.1598" lon="-1.70331">
        <ele>75</ele>
        <time>2022-01-01T12:14:40Z</time>
      </trkpt>
      <trkpt lat="47.15972" lon="-1.70347">
        <ele>75</ele>
        <time>2022-01-01T12:14:42Z</time>
      </trkpt>
      <trkpt lat="47.15964" lon="-1.70364">
        <ele>75</ele>
        <time>2022-01-01T12:14:44Z</time>
      </trkpt>
      <trkpt lat="47.15958" lon="-1.7038">
        <ele>75</ele>
        <time>2022-01-01T12:14:46Z</time>
      </trkpt>
      <trkpt lat="47.1595" lon="-1.70398">
        <ele>75</ele>
        <time>2022-01-01T12:14:48Z</time>
      </trkpt>
      <trkpt lat="47.15943" lon="-1.70415">
        <ele>75</ele>
        <time>2022-01-01T12:14:50Z</time>
      </trkpt>
      <trkpt lat="47.15935" lon="-1.70431">
        <ele>75</ele>
        <time>2022-01-01T12:14:52Z</time>
      </trkpt>
      <trkpt lat="47.15928" lon="-1.70447">
        <ele>75</ele>
        <time>2022-01-01T12:14:54Z</time>
      </trkpt>
      <trkpt lat="47.1592" lon="-1.70463">
        <ele>75</ele>
        <time>2022-01-01T12:14:56Z</time>
      </trkpt>
      <trkpt lat="47.15911" lon="-1.70478">
        <ele>74</ele>
        <time>2022-01-01T12:14:58Z</time>
      </trkpt>
      <trkpt lat="47.15903" lon="-1.70494">
        <ele>73</ele>
        <time>2022-01-01T12:15:00Z</time>
      </trkpt>
      <trkpt lat="47.15897" lon="-1.70511">
        <ele>73</ele>
        <time>2022-01-01T12:15:02Z</time>
      </trkpt>
      <trkpt lat="47.15891" lon="-1.70528">
        <ele>72</ele>
        <time>2022-01-01T12:15:04Z</time>
      </trkpt>
      <trkpt lat="47.15885" lon="-1.70545">
        <ele>72</ele>
        <time>2022-01-01T12:15:06Z</time>
      </trkpt>
      <trkpt lat="47.1588" lon="-1.70563">
        <ele>72</ele>
        <time>2022-01-01T12:15:08Z</time>
      </trkpt>
      <trkpt lat="47.15875" lon="-1.70581">
        <ele>72</ele>
        <time>2022-01-01T12:15:10Z</time>
      </trkpt>
      <trkpt lat="47.1587" lon="-1.70598">
        <ele>72</ele>
        <time>2022-01-01T12:15:12Z</time>
      </trkpt>
      <trkpt lat="47.15865" lon="-1.70615">
        <ele>72</ele>
        <time>2022-01-01T12:15:14Z</time>
      </trkpt>
      <trkpt lat="47.1586" lon="-1.70632">
        <ele>72</ele>
        <time>2022-01-01T12:15:16Z</time>
      </trkpt>
      <trkpt lat="47.15854" lon="-1.70649">
        <ele>72</ele>
        <time>2022-01-01T12:15:18Z</time>
      </trkpt>
      <trkpt lat="47.15848" lon="-1.70665">
        <ele>72</ele>
        <time>2022-01-01T12:15:20Z</time>
      </trkpt>
      <trkpt lat="47.15841" lon="-1.70681">
        <ele>72</ele>
        <time>2022-01-01T12:15:22Z</time>
      </trkpt>
      <trkpt lat="47.15834" lon="-1.70696">
        <ele>72</ele>
        <time>2022-01-01T12:15:24Z</time>
      </trkpt>
      <trkpt lat="47.15827" lon="-1.70712">
        <ele>72</ele>
        <time>2022-01-01T12:15:26Z</time>
      </trkpt>
      <trkpt lat="47.1582" lon="-1.70727">
        <ele>72</ele>
        <time>2022-01-01T12:15:28Z</time>
      </trkpt>
      <trkpt lat="47.15813" lon="-1.70743">
        <ele>72</ele>
        <time>2022-01-01T12:15:30Z</time>
      </trkpt>
      <trkpt lat="47.15806" lon="-1.70758">
        <ele>72</ele>
        <time>2022-01-01T12:15:32Z</time>
      </trkpt>
      <trkpt lat="47.15799" lon="-1.70773">
        <ele>72</ele>
        <time>2022-01-01T12:15:34Z</time>
      </trkpt>
      <trkpt lat="47.15792" lon="-1.70788">
        <ele>72</ele>
        <time>2022-01-01T12:15:36Z</time>
      </trkpt>
      <trkpt lat="47.15784" lon="-1.70803">
        <ele>72</ele>
        <time>2022-01-01T12:15:38Z</time>
      </trkpt>
      <trkpt lat="47.15777" lon="-1.70818">
        <ele>72</ele>
        <time>2022-01-01T12:15:40Z</time>
      </trkpt>
      <trkpt lat="47.15769" lon="-1.70833">
        <ele>72</ele>
        <time>2022-01-01T12:15:42Z</time>
      </trkpt>
      <trkpt lat="47.15762" lon="-1.70847">
        <ele>72</ele>
        <time>2022-01-01T12:15:44Z</time>
      </trkpt>
      <trkpt lat="47.15754" lon="-1.70862">
        <ele>72</ele>
        <time>2022-01-01T12:15:46Z</time>
      </trkpt>
      <trkpt lat="47.15746" lon="-1.70877">
        <ele>73</ele>
        <time>2022-01-01T12:15:48Z</time>
      </trkpt>
      <trkpt lat="47.15738" lon="-1.7089">
        <ele>73</ele>
        <time>2022-01-01T12:15:50Z</time>
      </trkpt>
      <trkpt lat="47.1573" lon="-1.70904">
        <ele>72</ele>
        <time>2022-01-01T12:15:52Z</time>
      </trkpt>
      <trkpt lat="47.15722" lon="-1.70919">
        <ele>73</ele>
        <time>2022-01-01T12:15:54Z</time>
      </trkpt>
      <trkpt lat="47.15715" lon="-1.70933">
        <ele>72</ele>
        <time>2022-01-01T12:15:56Z</time>
      </trkpt>
      <trkpt lat="47.15707" lon="-1.70948">
        <ele>73</ele>
        <time>2022-01-01T12:15:58Z</time>
      </trkpt>
      <trkpt lat="47.157" lon="-1.70963">
        <ele>73</ele>
        <time>2022-01-01T12:16:00Z</time>
      </trkpt>
      <trkpt lat="47.15693" lon="-1.70979">
        <ele>73</ele>
        <time>2022-01-01T12:16:02Z</time>
      </trkpt>
      <trkpt lat="47.15686" lon="-1.70994">
        <ele>73</ele>
        <time>2022-01-01T12:16:04Z</time>
      </trkpt>
      <trkpt lat="47.15679" lon="-1.71009">
        <ele>73</ele>
        <time>2022-01-01T12:16:06Z</time>
      </trkpt>
      <trkpt lat="47.15672" lon="-1.71023">
        <ele>73</ele>
        <time>2022-01-01T12:16:08Z</time>
      </trkpt>
      <trkpt lat="47.15666" lon="-1.71037">
        <ele>73</ele>
        <time>2022-01-01T12:16:10Z</time>
      </trkpt>
      <trkpt lat="47.1566" lon="-1.7105">
        <ele>73</ele>
        <time>2022-01-01T12:16:12Z</time>
      </trkpt>
      <trkpt lat="47.15655" lon="-1.7106">
        <ele>73</ele>
        <time>2022-01-01T12:16:14Z</time>
      </trkpt>
      <trkpt lat="47.15644" lon="-1.7107">
        <ele>73</ele>
        <time>2022-01-01T12:16:17Z</time>
      </trkpt>
      <trkpt lat="47.15633" lon="-1.71078">
        <ele>73</ele>
        <time>2022-01-01T12:16:19Z</time>
      </trkpt>
      <trkpt lat="47.15624" lon="-1.71093">
        <ele>73</ele>
        <time>2022-01-01T12:16:21Z</time>
      </trkpt>
      <trkpt lat="47.15616" lon="-1.71107">
        <ele>73</ele>
        <time>2022-01-01T12:16:23Z</time>
      </trkpt>
      <trkpt lat="47.15608" lon="-1.71122">
        <ele>73</ele>
        <time>2022-01-01T12:16:25Z</time>
      </trkpt>
      <trkpt lat="47.15599" lon="-1.71136">
        <ele>73</ele>
        <time>2022-01-01T12:16:27Z</time>
      </trkpt>
      <trkpt lat="47.15591" lon="-1.71151">
        <ele>73</ele>
        <time>2022-01-01T12:16:29Z</time>
      </trkpt>
      <trkpt lat="47.15582" lon="-1.71164">
        <ele>73</ele>
        <time>2022-01-01T12:16:31Z</time>
      </trkpt>
      <trkpt lat="47.15574" lon="-1.71178">
        <ele>73</ele>
        <time>2022-01-01T12:16:33Z</time>
      </trkpt>
      <trkpt lat="47.15566" lon="-1.71192">
        <ele>73</ele>
        <time>2022-01-01T12:16:35Z</time>
      </trkpt>
      <trkpt lat="47.15557" lon="-1.71207">
        <ele>73</ele>
        <time>2022-01-01T12:16:37Z</time>
      </trkpt>
      <trkpt lat="47.1555" lon="-1.71222">
        <ele>73</ele>
        <time>2022-01-01T12:16:39Z</time>
      </trkpt>
      <trkpt lat="47.15544" lon="-1.71237">
        <ele>73</ele>
        <time>2022-01-01T12:16:41Z</time>
      </trkpt>
      <trkpt lat="47.15538" lon="-1.71253">
        <ele>73</ele>
        <time>2022-01-01T12:16:43Z</time>
      </trkpt>
      <trkpt lat="47.15531" lon="-1.71269">
        <ele>73</ele>
        <time>2022-01-01T12:16:45Z</time>
      </trkpt>
      <trkpt lat="47.15524" lon="-1.71285">
        <ele>73</ele>
        <time>2022-01-01T12:16:47Z</time>
      </trkpt>
      <trkpt lat="47.15517" lon="-1.71301">
        <ele>73</ele>
        <time>2022-01-01T12:16:49Z</time>
      </trkpt>
      <trkpt lat="47.1551" lon="-1.71316">
        <ele>73</ele>
        <time>2022-01-01T12:16:51Z</time>
      </trkpt>
      <trkpt lat="47.15502" lon="-1.71331">
        <ele>73</ele>
        <time>2022-01-01T12:16:53Z</time>
      </trkpt>
      <trkpt lat="47.15493" lon="-1.71346">
        <ele>73</ele>
        <time>2022-01-01T12:16:55Z</time>
      </trkpt>
      <trkpt lat="47.15484" lon="-1.7136">
        <ele>73</ele>
        <time>2022-01-01T12:16:57Z</time>
      </trkpt>
      <trkpt lat="47.15474" lon="-1.71373">
        <ele>73</ele>
        <time>2022-01-01T12:16:59Z</time>
      </trkpt>
      <trkpt lat="47.15464" lon="-1.71386">
        <ele>73</ele>
        <time>2022-01-01T12:17:01Z</time>
      </trkpt>
      <trkpt lat="47.15453" lon="-1.71398">
        <ele>73</ele>
        <time>2022-01-01T12:17:03Z</time>
      </trkpt>
      <trkpt lat="47.15442" lon="-1.71409">
        <ele>72</ele>
        <time>2022-01-01T12:17:05Z</time>
      </trkpt>
      <trkpt lat="47.15432" lon="-1.71419">
        <ele>72</ele>
        <time>2022-01-01T12:17:07Z</time>
      </trkpt>
      <trkpt lat="47.15421" lon="-1.71429">
        <ele>72</ele>
        <time>2022-01-01T12:17:09Z</time>
      </trkpt>
      <trkpt lat="47.15411" lon="-1.71439">
        <ele>72</ele>
        <time>2022-01-01T12:17:11Z</time>
      </trkpt>
      <trkpt lat="47.154" lon="-1.71449">
        <ele>72</ele>
        <time>2022-01-01T12:17:13Z</time>
      </trkpt>
      <trkpt lat="47.15388" lon="-1.7146">
        <ele>72</ele>
        <time>2022-01-01T12:17:15Z</time>
      </trkpt>
      <trkpt lat="47.15377" lon="-1.71469">
        <ele>73</ele>
        <time>2022-01-01T12:17:17Z</time>
      </trkpt>
      <trkpt lat="47.15365" lon="-1.71478">
        <ele>73</ele>
        <time>2022-01-01T12:17:19Z</time>
      </trkpt>
      <trkpt lat="47.15355" lon="-1.71489">
        <ele>72</ele>
        <time>2022-01-01T12:17:21Z</time>
      </trkpt>
      <trkpt lat="47.15344" lon="-1.715">
        <ele>72</ele>
        <time>2022-01-01T12:17:23Z</time>
      </trkpt>
      <trkpt lat="47.15333" lon="-1.71512">
        <ele>72</ele>
        <time>2022-01-01T12:17:25Z</time>
      </trkpt>
      <trkpt lat="47.15322" lon="-1.71524">
        <ele>72</ele>
        <time>2022-01-01T12:17:27Z</time>
      </trkpt>
      <trkpt lat="47.15311" lon="-1.71535">
        <ele>71</ele>
        <time>2022-01-01T12:17:29Z</time>
      </trkpt>
      <trkpt lat="47.153" lon="-1.71547">
        <ele>71</ele>
        <time>2022-01-01T12:17:31Z</time>
      </trkpt>
      <trkpt lat="47.15289" lon="-1.71559">
        <ele>71</ele>
        <time>2022-01-01T12:17:33Z</time>
      </trkpt>
      <trkpt lat="47.15279" lon="-1.71571">
        <ele>71</ele>
        <time>2022-01-01T12:17:35Z</time>
      </trkpt>
      <trkpt lat="47.15268" lon="-1.71583">
        <ele>70</ele>
        <time>2022-01-01T12:17:37Z</time>
      </trkpt>
      <trkpt lat="47.15258" lon="-1.71595">
        <ele>70</ele>
        <time>2022-01-01T12:17:39Z</time>
      </trkpt>
      <trkpt lat="47.15248" lon="-1.71608">
        <ele>69</ele>
        <time>2022-01-01T12:17:41Z</time>
      </trkpt>
      <trkpt lat="47.15239" lon="-1.71621">
        <ele>69</ele>
        <time>2022-01-01T12:17:43Z</time>
      </trkpt>
      <trkpt lat="47.15227" lon="-1.71622">
        <ele>70</ele>
        <time>2022-01-01T12:17:45Z</time>
      </trkpt>
      <trkpt lat="47.15214" lon="-1.71614">
        <ele>69</ele>
        <time>2022-01-01T12:17:47Z</time>
      </trkpt>
      <trkpt lat="47.15202" lon="-1.71606">
        <ele>69</ele>
        <time>2022-01-01T12:17:49Z</time>
      </trkpt>
      <trkpt lat="47.15191" lon="-1.71597">
        <ele>70</ele>
        <time>2022-01-01T12:17:51Z</time>
      </trkpt>
      <trkpt lat="47.1518" lon="-1.71589">
        <ele>70</ele>
        <time>2022-01-01T12:17:53Z</time>
      </trkpt>
      <trkpt lat="47.15169" lon="-1.7158">
        <ele>70</ele>
        <time>2022-01-01T12:17:55Z</time>
      </trkpt>
      <trkpt lat="47.15158" lon="-1.71572">
        <ele>70</ele>
        <time>2022-01-01T12:17:57Z</time>
      </trkpt>
      <trkpt lat="47.15147" lon="-1.71563">
        <ele>69</ele>
        <time>2022-01-01T12:17:59Z</time>
      </trkpt>
      <trkpt lat="47.15136" lon="-1.71555">
        <ele>69</ele>
        <time>2022-01-01T12:18:01Z</time>
      </trkpt>
      <trkpt lat="47.15125" lon="-1.71546">
        <ele>69</ele>
        <time>2022-01-01T12:18:03Z</time>
      </trkpt>
      <trkpt lat="47.15114" lon="-1.71537">
        <ele>69</ele>
        <time>2022-01-01T12:18:05Z</time>
      </trkpt>
      <trkpt lat="47.15104" lon="-1.71527">
        <ele>69</ele>
        <time>2022-01-01T12:18:07Z</time>
      </trkpt>
      <trkpt lat="47.15094" lon="-1.71518">
        <ele>69</ele>
        <time>2022-01-01T12:18:09Z</time>
      </trkpt>
      <trkpt lat="47.15084" lon="-1.71508">
        <ele>69</ele>
        <time>2022-01-01T12:18:11Z</time>
      </trkpt>
      <trkpt lat="47.15074" lon="-1.71498">
        <ele>69</ele>
        <time>2022-01-01T12:18:13Z</time>
      </trkpt>
      <trkpt lat="47.15064" lon="-1.71489">
        <ele>69</ele>
        <time>2022-01-01T12:18:15Z</time>
      </trkpt>
      <trkpt lat="47.15054" lon="-1.71478">
        <ele>69</ele>
        <time>2022-01-01T12:18:17Z</time>
      </trkpt>
      <trkpt lat="47.15044" lon="-1.71468">
        <ele>69</ele>
        <time>2022-01-01T12:18:19Z</time>
      </trkpt>
      <trkpt lat="47.15034" lon="-1.71458">
        <ele>69</ele>
        <time>2022-01-01T12:18:21Z</time>
      </trkpt>
      <trkpt lat="47.15023" lon="-1.71448">
        <ele>69</ele>
        <time>2022-01-01T12:18:23Z</time>
      </trkpt>
      <trkpt lat="47.15013" lon="-1.71438">
        <ele>69</ele>
        <time>2022-01-01T12:18:25Z</time>
      </trkpt>
      <trkpt lat="47.15003" lon="-1.71429">
        <ele>69</ele>
        <time>2022-01-01T12:18:27Z</time>
      </trkpt>
      <trkpt lat="47.14994" lon="-1.7142">
        <ele>69</ele>
        <time>2022-01-01T12:18:29Z</time>
      </trkpt>
      <trkpt lat="47.14984" lon="-1.7141">
        <ele>69</ele>
        <time>2022-01-01T12:18:31Z</time>
      </trkpt>
      <trkpt lat="47.14974" lon="-1.71401">
        <ele>69</ele>
        <time>2022-01-01T12:18:33Z</time>
      </trkpt>
      <trkpt lat="47.14964" lon="-1.7139">
        <ele>69</ele>
        <time>2022-01-01T12:18:35Z</time>
      </trkpt>
      <trkpt lat="47.14955" lon="-1.71381">
        <ele>70</ele>
        <time>2022-01-01T12:18:37Z</time>
      </trkpt>
      <trkpt lat="47.14945" lon="-1.7137">
        <ele>70</ele>
        <time>2022-01-01T12:18:39Z</time>
      </trkpt>
      <trkpt lat="47.14936" lon="-1.71359">
        <ele>70</ele>
        <time>2022-01-01T12:18:41Z</time>
      </trkpt>
      <trkpt lat="47.14927" lon="-1.71348">
        <ele>70</ele>
        <time>2022-01-01T12:18:43Z</time>
      </trkpt>
      <trkpt lat="47.14918" lon="-1.71337">
        <ele>70</ele>
        <time>2022-01-01T12:18:45Z</time>
      </trkpt>
      <trkpt lat="47.14909" lon="-1.71325">
        <ele>70</ele>
        <time>2022-01-01T12:18:47Z</time>
      </trkpt>
      <trkpt lat="47.14901" lon="-1.71314">
        <ele>70</ele>
        <time>2022-01-01T12:18:49Z</time>
      </trkpt>
      <trkpt lat="47.14892" lon="-1.71303">
        <ele>71</ele>
        <time>2022-01-01T12:18:51Z</time>
      </trkpt>
      <trkpt lat="47.14882" lon="-1.71293">
        <ele>71</ele>
        <time>2022-01-01T12:18:53Z</time>
      </trkpt>
      <trkpt lat="47.14872" lon="-1.71284">
        <ele>71</ele>
        <time>2022-01-01T12:18:55Z</time>
      </trkpt>
      <trkpt lat="47.14862" lon="-1.71274">
        <ele>71</ele>
        <time>2022-01-01T12:18:57Z</time>
      </trkpt>
      <trkpt lat="47.14853" lon="-1.71262">
        <ele>71</ele>
        <time>2022-01-01T12:18:59Z</time>
      </trkpt>
      <trkpt lat="47.14846" lon="-1.71248">
        <ele>72</ele>
        <time>2022-01-01T12:19:01Z</time>
      </trkpt>
      <trkpt lat="47.1484" lon="-1.71233">
        <ele>72</ele>
        <time>2022-01-01T12:19:03Z</time>
      </trkpt>
      <trkpt lat="47.14834" lon="-1.71218">
        <ele>72</ele>
        <time>2022-01-01T12:19:05Z</time>
      </trkpt>
      <trkpt lat="47.14828" lon="-1.71202">
        <ele>72</ele>
        <time>2022-01-01T12:19:07Z</time>
      </trkpt>
      <trkpt lat="47.14822" lon="-1.71186">
        <ele>73</ele>
        <time>2022-01-01T12:19:09Z</time>
      </trkpt>
      <trkpt lat="47.14817" lon="-1.71171">
        <ele>73</ele>
        <time>2022-01-01T12:19:11Z</time>
      </trkpt>
      <trkpt lat="47.14811" lon="-1.71155">
        <ele>74</ele>
        <time>2022-01-01T12:19:13Z</time>
      </trkpt>
      <trkpt lat="47.14804" lon="-1.71139">
        <ele>73</ele>
        <time>2022-01-01T12:19:15Z</time>
      </trkpt>
      <trkpt lat="47.14797" lon="-1.71124">
        <ele>73</ele>
        <time>2022-01-01T12:19:17Z</time>
      </trkpt>
      <trkpt lat="47.1479" lon="-1.71109">
        <ele>74</ele>
        <time>2022-01-01T12:19:19Z</time>
      </trkpt>
      <trkpt lat="47.14783" lon="-1.71094">
        <ele>74</ele>
        <time>2022-01-01T12:19:21Z</time>
      </trkpt>
      <trkpt lat="47.14777" lon="-1.71078">
        <ele>74</ele>
        <time>2022-01-01T12:19:23Z</time>
      </trkpt>
      <trkpt lat="47.14771" lon="-1.71061">
        <ele>74</ele>
        <time>2022-01-01T12:19:25Z</time>
      </trkpt>
      <trkpt lat="47.14766" lon="-1.71045">
        <ele>74</ele>
        <time>2022-01-01T12:19:27Z</time>
      </trkpt>
      <trkpt lat="47.14761" lon="-1.71028">
        <ele>74</ele>
        <time>2022-01-01T12:19:29Z</time>
      </trkpt>
      <trkpt lat="47.14756" lon="-1.71012">
        <ele>73</ele>
        <time>2022-01-01T12:19:31Z</time>
      </trkpt>
      <trkpt lat="47.14752" lon="-1.70996">
        <ele>73</ele>
        <time>2022-01-01T12:19:33Z</time>
      </trkpt>
      <trkpt lat="47.14747" lon="-1.70983">
        <ele>73</ele>
        <time>2022-01-01T12:19:35Z</time>
      </trkpt>
      <trkpt lat="47.14735" lon="-1.70984">
        <ele>73</ele>
        <time>2022-01-01T12:19:37Z</time>
      </trkpt>
      <trkpt lat="47.14725" lon="-1.70996">
        <ele>73</ele>
        <time>2022-01-01T12:19:39Z</time>
      </trkpt>
      <trkpt lat="47.14716" lon="-1.71009">
        <ele>73</ele>
        <time>2022-01-01T12:19:41Z</time>
      </trkpt>
      <trkpt lat="47.14711" lon="-1.71026">
        <ele>72</ele>
        <time>2022-01-01T12:19:43Z</time>
      </trkpt>
      <trkpt lat="47.1471" lon="-1.71045">
        <ele>72</ele>
        <time>2022-01-01T12:19:45Z</time>
      </trkpt>
      <trkpt lat="47.14711" lon="-1.71064">
        <ele>72</ele>
        <time>2022-01-01T12:19:47Z</time>
      </trkpt>
      <trkpt lat="47.14714" lon="-1.71083">
        <ele>72</ele>
        <time>2022-01-01T12:19:49Z</time>
      </trkpt>
      <trkpt lat="47.14717" lon="-1.71102">
        <ele>72</ele>
        <time>2022-01-01T12:19:51Z</time>
      </trkpt>
      <trkpt lat="47.1472" lon="-1.7112">
        <ele>71</ele>
        <time>2022-01-01T12:19:53Z</time>
      </trkpt>
      <trkpt lat="47.14722" lon="-1.71139">
        <ele>71</ele>
        <time>2022-01-01T12:19:55Z</time>
      </trkpt>
      <trkpt lat="47.14725" lon="-1.71157">
        <ele>71</ele>
        <time>2022-01-01T12:19:57Z</time>
      </trkpt>
      <trkpt lat="47.14728" lon="-1.71175">
        <ele>71</ele>
        <time>2022-01-01T12:19:59Z</time>
      </trkpt>
      <trkpt lat="47.14733" lon="-1.71193">
        <ele>71</ele>
        <time>2022-01-01T12:20:01Z</time>
      </trkpt>
      <trkpt lat="47.14738" lon="-1.7121">
        <ele>72</ele>
        <time>2022-01-01T12:20:03Z</time>
      </trkpt>
      <trkpt lat="47.14743" lon="-1.71228">
        <ele>72</ele>
        <time>2022-01-01T12:20:05Z</time>
      </trkpt>
      <trkpt lat="47.14748" lon="-1.71245">
        <ele>73</ele>
        <time>2022-01-01T12:20:07Z</time>
      </trkpt>
      <trkpt lat="47.14753" lon="-1.71262">
        <ele>73</ele>
        <time>2022-01-01T12:20:09Z</time>
      </trkpt>
      <trkpt lat="47.14757" lon="-1.7128">
        <ele>74</ele>
        <time>2022-01-01T12:20:11Z</time>
      </trkpt>
      <trkpt lat="47.14761" lon="-1.71297">
        <ele>74</ele>
        <time>2022-01-01T12:20:13Z</time>
      </trkpt>
      <trkpt lat="47.14764" lon="-1.71315">
        <ele>74</ele>
        <time>2022-01-01T12:20:15Z</time>
      </trkpt>
      <trkpt lat="47.14766" lon="-1.71333">
        <ele>75</ele>
        <time>2022-01-01T12:20:17Z</time>
      </trkpt>
      <trkpt lat="47.14768" lon="-1.71351">
        <ele>75</ele>
        <time>2022-01-01T12:20:19Z</time>
      </trkpt>
      <trkpt lat="47.14771" lon="-1.71369">
        <ele>75</ele>
        <time>2022-01-01T12:20:21Z</time>
      </trkpt>
      <trkpt lat="47.14774" lon="-1.71387">
        <ele>75</ele>
        <time>2022-01-01T12:20:23Z</time>
      </trkpt>
      <trkpt lat="47.14777" lon="-1.71406">
        <ele>75</ele>
        <time>2022-01-01T12:20:25Z</time>
      </trkpt>
      <trkpt lat="47.1478" lon="-1.71425">
        <ele>75</ele>
        <time>2022-01-01T12:20:27Z</time>
      </trkpt>
      <trkpt lat="47.14783" lon="-1.71443">
        <ele>75</ele>
        <time>2022-01-01T12:20:29Z</time>
      </trkpt>
      <trkpt lat="47.14786" lon="-1.71461">
        <ele>75</ele>
        <time>2022-01-01T12:20:31Z</time>
      </trkpt>
      <trkpt lat="47.14788" lon="-1.7148">
        <ele>75</ele>
        <time>2022-01-01T12:20:33Z</time>
      </trkpt>
      <trkpt lat="47.14791" lon="-1.71498">
        <ele>75</ele>
        <time>2022-01-01T12:20:35Z</time>
      </trkpt>
      <trkpt lat="47.14793" lon="-1.71517">
        <ele>75</ele>
        <time>2022-01-01T12:20:37Z</time>
      </trkpt>
      <trkpt lat="47.14793" lon="-1.71535">
        <ele>74</ele>
        <time>2022-01-01T12:20:39Z</time>
      </trkpt>
      <trkpt lat="47.14792" lon="-1.71554">
        <ele>74</ele>
        <time>2022-01-01T12:20:41Z</time>
      </trkpt>
      <trkpt lat="47.14791" lon="-1.71573">
        <ele>74</ele>
        <time>2022-01-01T12:20:43Z</time>
      </trkpt>
      <trkpt lat="47.14789" lon="-1.71591">
        <ele>74</ele>
        <time>2022-01-01T12:20:45Z</time>
      </trkpt>
      <trkpt lat="47.14786" lon="-1.71609">
        <ele>74</ele>
        <time>2022-01-01T12:20:47Z</time>
      </trkpt>
      <trkpt lat="47.14783" lon="-1.71627">
        <ele>74</ele>
        <time>2022-01-01T12:20:49Z</time>
      </trkpt>
      <trkpt lat="47.1478" lon="-1.71645">
        <ele>74</ele>
        <time>2022-01-01T12:20:51Z</time>
      </trkpt>
      <trkpt lat="47.14777" lon="-1.71662">
        <ele>74</ele>
        <time>2022-01-01T12:20:53Z</time>
      </trkpt>
      <trkpt lat="47.14774" lon="-1.71681">
        <ele>74</ele>
        <time>2022-01-01T12:20:55Z</time>
      </trkpt>
      <trkpt lat="47.14771" lon="-1.71699">
        <ele>74</ele>
        <time>2022-01-01T12:20:57Z</time>
      </trkpt>
      <trkpt lat="47.14769" lon="-1.71717">
        <ele>75</ele>
        <time>2022-01-01T12:20:59Z</time>
      </trkpt>
      <trkpt lat="47.14765" lon="-1.71735">
        <ele>75</ele>
        <time>2022-01-01T12:21:01Z</time>
      </trkpt>
      <trkpt lat="47.14762" lon="-1.71753">
        <ele>75</ele>
        <time>2022-01-01T12:21:03Z</time>
      </trkpt>
      <trkpt lat="47.14758" lon="-1.71771">
        <ele>75</ele>
        <time>2022-01-01T12:21:05Z</time>
      </trkpt>
      <trkpt lat="47.14752" lon="-1.71786">
        <ele>76</ele>
        <time>2022-01-01T12:21:07Z</time>
      </trkpt>
      <trkpt lat="47.14742" lon="-1.718">
        <ele>76</ele>
        <time>2022-01-01T12:21:09Z</time>
      </trkpt>
      <trkpt lat="47.14732" lon="-1.71812">
        <ele>75</ele>
        <time>2022-01-01T12:21:11Z</time>
      </trkpt>
      <trkpt lat="47.1472" lon="-1.71821">
        <ele>75</ele>
        <time>2022-01-01T12:21:13Z</time>
      </trkpt>
      <trkpt lat="47.14708" lon="-1.71828">
        <ele>75</ele>
        <time>2022-01-01T12:21:15Z</time>
      </trkpt>
      <trkpt lat="47.14695" lon="-1.71834">
        <ele>75</ele>
        <time>2022-01-01T12:21:17Z</time>
      </trkpt>
      <trkpt lat="47.14682" lon="-1.7184">
        <ele>75</ele>
        <time>2022-01-01T12:21:19Z</time>
      </trkpt>
      <trkpt lat="47.1467" lon="-1.71846">
        <ele>75</ele>
        <time>2022-01-01T12:21:21Z</time>
      </trkpt>
      <trkpt lat="47.14657" lon="-1.71851">
        <ele>74</ele>
        <time>2022-01-01T12:21:23Z</time>
      </trkpt>
      <trkpt lat="47.14644" lon="-1.71855">
        <ele>74</ele>
        <time>2022-01-01T12:21:25Z</time>
      </trkpt>
      <trkpt lat="47.14631" lon="-1.71855">
        <ele>74</ele>
        <time>2022-01-01T12:21:27Z</time>
      </trkpt>
      <trkpt lat="47.14618" lon="-1.71855">
        <ele>74</ele>
        <time>2022-01-01T12:21:29Z</time>
      </trkpt>
      <trkpt lat="47.14604" lon="-1.71852">
        <ele>74</ele>
        <time>2022-01-01T12:21:31Z</time>
      </trkpt>
      <trkpt lat="47.14592" lon="-1.71848">
        <ele>73</ele>
        <time>2022-01-01T12:21:33Z</time>
      </trkpt>
      <trkpt lat="47.14579" lon="-1.71842">
        <ele>72</ele>
        <time>2022-01-01T12:21:35Z</time>
      </trkpt>
      <trkpt lat="47.14567" lon="-1.71836">
        <ele>72</ele>
        <time>2022-01-01T12:21:37Z</time>
      </trkpt>
      <trkpt lat="47.14555" lon="-1.7183">
        <ele>71</ele>
        <time>2022-01-01T12:21:39Z</time>
      </trkpt>
      <trkpt lat="47.14542" lon="-1.71824">
        <ele>71</ele>
        <time>2022-01-01T12:21:41Z</time>
      </trkpt>
      <trkpt lat="47.1453" lon="-1.71819">
        <ele>71</ele>
        <time>2022-01-01T12:21:43Z</time>
      </trkpt>
      <trkpt lat="47.14517" lon="-1.71813">
        <ele>71</ele>
        <time>2022-01-01T12:21:45Z</time>
      </trkpt>
      <trkpt lat="47.14505" lon="-1.71807">
        <ele>70</ele>
        <time>2022-01-01T12:21:47Z</time>
      </trkpt>
      <trkpt lat="47.14492" lon="-1.718">
        <ele>70</ele>
        <time>2022-01-01T12:21:49Z</time>
      </trkpt>
      <trkpt lat="47.1448" lon="-1.71795">
        <ele>70</ele>
        <time>2022-01-01T12:21:51Z</time>
      </trkpt>
      <trkpt lat="47.14467" lon="-1.7179">
        <ele>69</ele>
        <time>2022-01-01T12:21:53Z</time>
      </trkpt>
      <trkpt lat="47.14455" lon="-1.71784">
        <ele>69</ele>
        <time>2022-01-01T12:21:55Z</time>
      </trkpt>
      <trkpt lat="47.14442" lon="-1.71781">
        <ele>69</ele>
        <time>2022-01-01T12:21:57Z</time>
      </trkpt>
      <trkpt lat="47.1443" lon="-1.71779">
        <ele>69</ele>
        <time>2022-01-01T12:21:59Z</time>
      </trkpt>
      <trkpt lat="47.14417" lon="-1.71779">
        <ele>68</ele>
        <time>2022-01-01T12:22:01Z</time>
      </trkpt>
      <trkpt lat="47.14404" lon="-1.71781">
        <ele>68</ele>
        <time>2022-01-01T12:22:03Z</time>
      </trkpt>
      <trkpt lat="47.14391" lon="-1.71783">
        <ele>68</ele>
        <time>2022-01-01T12:22:05Z</time>
      </trkpt>
      <trkpt lat="47.14378" lon="-1.71787">
        <ele>68</ele>
        <time>2022-01-01T12:22:07Z</time>
      </trkpt>
      <trkpt lat="47.14365" lon="-1.71791">
        <ele>68</ele>
        <time>2022-01-01T12:22:09Z</time>
      </trkpt>
      <trkpt lat="47.14352" lon="-1.71796">
        <ele>68</ele>
        <time>2022-01-01T12:22:11Z</time>
      </trkpt>
      <trkpt lat="47.14339" lon="-1.718">
        <ele>68</ele>
        <time>2022-01-01T12:22:13Z</time>
      </trkpt>
      <trkpt lat="47.14326" lon="-1.71805">
        <ele>69</ele>
        <time>2022-01-01T12:22:15Z</time>
      </trkpt>
      <trkpt lat="47.14313" lon="-1.7181">
        <ele>68</ele>
        <time>2022-01-01T12:22:17Z</time>
      </trkpt>
      <trkpt lat="47.143" lon="-1.71814">
        <ele>68</ele>
        <time>2022-01-01T12:22:19Z</time>
      </trkpt>
      <trkpt lat="47.14287" lon="-1.71818">
        <ele>68</ele>
        <time>2022-01-01T12:22:21Z</time>
      </trkpt>
      <trkpt lat="47.14274" lon="-1.71822">
        <ele>68</ele>
        <time>2022-01-01T12:22:23Z</time>
      </trkpt>
      <trkpt lat="47.14261" lon="-1.71827">
        <ele>68</ele>
        <time>2022-01-01T12:22:25Z</time>
      </trkpt>
      <trkpt lat="47.14248" lon="-1.71831">
        <ele>68</ele>
        <time>2022-01-01T12:22:27Z</time>
      </trkpt>
      <trkpt lat="47.14235" lon="-1.71835">
        <ele>68</ele>
        <time>2022-01-01T12:22:29Z</time>
      </trkpt>
      <trkpt lat="47.14222" lon="-1.7184">
        <ele>68</ele>
        <time>2022-01-01T12:22:31Z</time>
      </trkpt>
      <trkpt lat="47.14209" lon="-1.71844">
        <ele>68</ele>
        <time>2022-01-01T12:22:33Z</time>
      </trkpt>
      <trkpt lat="47.14196" lon="-1.71848">
        <ele>67</ele>
        <time>2022-01-01T12:22:35Z</time>
      </trkpt>
      <trkpt lat="47.14183" lon="-1.71852">
        <ele>67</ele>
        <time>2022-01-01T12:22:37Z</time>
      </trkpt>
      <trkpt lat="47.1417" lon="-1.71856">
        <ele>66</ele>
        <time>2022-01-01T12:22:39Z</time>
      </trkpt>
      <trkpt lat="47.14157" lon="-1.71861">
        <ele>66</ele>
        <time>2022-01-01T12:22:41Z</time>
      </trkpt>
      <trkpt lat="47.14142" lon="-1.71865">
        <ele>66</ele>
        <time>2022-01-01T12:22:43Z</time>
      </trkpt>
      <trkpt lat="47.14128" lon="-1.71871">
        <ele>65</ele>
        <time>2022-01-01T12:22:45Z</time>
      </trkpt>
      <trkpt lat="47.14113" lon="-1.71875">
        <ele>65</ele>
        <time>2022-01-01T12:22:47Z</time>
      </trkpt>
      <trkpt lat="47.14098" lon="-1.71881">
        <ele>64</ele>
        <time>2022-01-01T12:22:49Z</time>
      </trkpt>
      <trkpt lat="47.14083" lon="-1.71885">
        <ele>63</ele>
        <time>2022-01-01T12:22:51Z</time>
      </trkpt>
      <trkpt lat="47.14067" lon="-1.7189">
        <ele>62</ele>
        <time>2022-01-01T12:22:53Z</time>
      </trkpt>
      <trkpt lat="47.14052" lon="-1.71895">
        <ele>61</ele>
        <time>2022-01-01T12:22:55Z</time>
      </trkpt>
      <trkpt lat="47.14037" lon="-1.719">
        <ele>60</ele>
        <time>2022-01-01T12:22:57Z</time>
      </trkpt>
      <trkpt lat="47.14022" lon="-1.71904">
        <ele>59</ele>
        <time>2022-01-01T12:22:59Z</time>
      </trkpt>
      <trkpt lat="47.14006" lon="-1.71905">
        <ele>58</ele>
        <time>2022-01-01T12:23:01Z</time>
      </trkpt>
      <trkpt lat="47.1399" lon="-1.719">
        <ele>57</ele>
        <time>2022-01-01T12:23:03Z</time>
      </trkpt>
      <trkpt lat="47.13974" lon="-1.71901">
        <ele>56</ele>
        <time>2022-01-01T12:23:05Z</time>
      </trkpt>
      <trkpt lat="47.13965" lon="-1.71914">
        <ele>56</ele>
        <time>2022-01-01T12:23:07Z</time>
      </trkpt>
      <trkpt lat="47.13964" lon="-1.71933">
        <ele>56</ele>
        <time>2022-01-01T12:23:09Z</time>
      </trkpt>
      <trkpt lat="47.13964" lon="-1.71953">
        <ele>56</ele>
        <time>2022-01-01T12:23:11Z</time>
      </trkpt>
      <trkpt lat="47.13955" lon="-1.71968">
        <ele>56</ele>
        <time>2022-01-01T12:23:13Z</time>
      </trkpt>
      <trkpt lat="47.13943" lon="-1.71976">
        <ele>57</ele>
        <time>2022-01-01T12:23:15Z</time>
      </trkpt>
      <trkpt lat="47.1393" lon="-1.71982">
        <ele>57</ele>
        <time>2022-01-01T12:23:17Z</time>
      </trkpt>
      <trkpt lat="47.13918" lon="-1.71988">
        <ele>58</ele>
        <time>2022-01-01T12:23:19Z</time>
      </trkpt>
      <trkpt lat="47.13906" lon="-1.71993">
        <ele>58</ele>
        <time>2022-01-01T12:23:21Z</time>
      </trkpt>
      <trkpt lat="47.13895" lon="-1.72">
        <ele>58</ele>
        <time>2022-01-01T12:23:23Z</time>
      </trkpt>
      <trkpt lat="47.13884" lon="-1.72007">
        <ele>58</ele>
        <time>2022-01-01T12:23:25Z</time>
      </trkpt>
      <trkpt lat="47.13874" lon="-1.72017">
        <ele>58</ele>
        <time>2022-01-01T12:23:27Z</time>
      </trkpt>
      <trkpt lat="47.13864" lon="-1.72028">
        <ele>58</ele>
        <time>2022-01-01T12:23:29Z</time>
      </trkpt>
      <trkpt lat="47.13856" lon="-1.7204">
        <ele>59</ele>
        <time>2022-01-01T12:23:31Z</time>
      </trkpt>
      <trkpt lat="47.13848" lon="-1.72053">
        <ele>59</ele>
        <time>2022-01-01T12:23:33Z</time>
      </trkpt>
      <trkpt lat="47.1384" lon="-1.72065">
        <ele>60</ele>
        <time>2022-01-01T12:23:35Z</time>
      </trkpt>
      <trkpt lat="47.13833" lon="-1.72078">
        <ele>60</ele>
        <time>2022-01-01T12:23:37Z</time>
      </trkpt>
      <trkpt lat="47.13825" lon="-1.7209">
        <ele>60</ele>
        <time>2022-01-01T12:23:39Z</time>
      </trkpt>
      <trkpt lat="47.13818" lon="-1.72103">
        <ele>60</ele>
        <time>2022-01-01T12:23:41Z</time>
      </trkpt>
      <trkpt lat="47.13809" lon="-1.72116">
        <ele>60</ele>
        <time>2022-01-01T12:23:43Z</time>
      </trkpt>
      <trkpt lat="47.13802" lon="-1.72129">
        <ele>60</ele>
        <time>2022-01-01T12:23:45Z</time>
      </trkpt>
      <trkpt lat="47.13793" lon="-1.72142">
        <ele>60</ele>
        <time>2022-01-01T12:23:47Z</time>
      </trkpt>
      <trkpt lat="47.13785" lon="-1.72156">
        <ele>61</ele>
        <time>2022-01-01T12:23:49Z</time>
      </trkpt>
      <trkpt lat="47.13778" lon="-1.72168">
        <ele>61</ele>
        <time>2022-01-01T12:23:51Z</time>
      </trkpt>
      <trkpt lat="47.13771" lon="-1.72181">
        <ele>62</ele>
        <time>2022-01-01T12:23:53Z</time>
      </trkpt>
      <trkpt lat="47.13763" lon="-1.72194">
        <ele>62</ele>
        <time>2022-01-01T12:23:55Z</time>
      </trkpt>
      <trkpt lat="47.13756" lon="-1.72207">
        <ele>62</ele>
        <time>2022-01-01T12:23:57Z</time>
      </trkpt>
      <trkpt lat="47.1375" lon="-1.72219">
        <ele>62</ele>
        <time>2022-01-01T12:23:59Z</time>
      </trkpt>
      <trkpt lat="47.13743" lon="-1.72233">
        <ele>63</ele>
        <time>2022-01-01T12:24:01Z</time>
      </trkpt>
      <trkpt lat="47.13739" lon="-1.72248">
        <ele>63</ele>
        <time>2022-01-01T12:24:03Z</time>
      </trkpt>
      <trkpt lat="47.13735" lon="-1.72263">
        <ele>63</ele>
        <time>2022-01-01T12:24:05Z</time>
      </trkpt>
      <trkpt lat="47.13732" lon="-1.72279">
        <ele>64</ele>
        <time>2022-01-01T12:24:07Z</time>
      </trkpt>
      <trkpt lat="47.1373" lon="-1.72297">
        <ele>64</ele>
        <time>2022-01-01T12:24:09Z</time>
      </trkpt>
      <trkpt lat="47.13728" lon="-1.72313">
        <ele>65</ele>
        <time>2022-01-01T12:24:11Z</time>
      </trkpt>
      <trkpt lat="47.13726" lon="-1.7233">
        <ele>65</ele>
        <time>2022-01-01T12:24:13Z</time>
      </trkpt>
      <trkpt lat="47.13723" lon="-1.72346">
        <ele>65</ele>
        <time>2022-01-01T12:24:15Z</time>
      </trkpt>
      <trkpt lat="47.1372" lon="-1.72363">
        <ele>66</ele>
        <time>2022-01-01T12:24:17Z</time>
      </trkpt>
      <trkpt lat="47.13716" lon="-1.7238">
        <ele>66</ele>
        <time>2022-01-01T12:24:19Z</time>
      </trkpt>
      <trkpt lat="47.13712" lon="-1.72397">
        <ele>67</ele>
        <time>2022-01-01T12:24:21Z</time>
      </trkpt>
      <trkpt lat="47.13708" lon="-1.72413">
        <ele>67</ele>
        <time>2022-01-01T12:24:23Z</time>
      </trkpt>
      <trkpt lat="47.13704" lon="-1.7243">
        <ele>68</ele>
        <time>2022-01-01T12:24:25Z</time>
      </trkpt>
      <trkpt lat="47.13699" lon="-1.72447">
        <ele>68</ele>
        <time>2022-01-01T12:24:27Z</time>
      </trkpt>
      <trkpt lat="47.13695" lon="-1.72463">
        <ele>69</ele>
        <time>2022-01-01T12:24:29Z</time>
      </trkpt>
      <trkpt lat="47.13691" lon="-1.7248">
        <ele>69</ele>
        <time>2022-01-01T12:24:31Z</time>
      </trkpt>
      <trkpt lat="47.13686" lon="-1.72497">
        <ele>69</ele>
        <time>2022-01-01T12:24:33Z</time>
      </trkpt>
      <trkpt lat="47.13682" lon="-1.72514">
        <ele>69</ele>
        <time>2022-01-01T12:24:35Z</time>
      </trkpt>
      <trkpt lat="47.1368" lon="-1.72534">
        <ele>70</ele>
        <time>2022-01-01T12:24:37Z</time>
      </trkpt>
      <trkpt lat="47.13679" lon="-1.72553">
        <ele>70</ele>
        <time>2022-01-01T12:24:39Z</time>
      </trkpt>
      <trkpt lat="47.13678" lon="-1.72572">
        <ele>70</ele>
        <time>2022-01-01T12:24:41Z</time>
      </trkpt>
      <trkpt lat="47.13678" lon="-1.72591">
        <ele>70</ele>
        <time>2022-01-01T12:24:43Z</time>
      </trkpt>
      <trkpt lat="47.13677" lon="-1.7261">
        <ele>71</ele>
        <time>2022-01-01T12:24:45Z</time>
      </trkpt>
      <trkpt lat="47.13675" lon="-1.72629">
        <ele>70</ele>
        <time>2022-01-01T12:24:47Z</time>
      </trkpt>
      <trkpt lat="47.13672" lon="-1.72648">
        <ele>70</ele>
        <time>2022-01-01T12:24:49Z</time>
      </trkpt>
      <trkpt lat="47.13669" lon="-1.72668">
        <ele>71</ele>
        <time>2022-01-01T12:24:51Z</time>
      </trkpt>
      <trkpt lat="47.13666" lon="-1.72686">
        <ele>71</ele>
        <time>2022-01-01T12:24:53Z</time>
      </trkpt>
      <trkpt lat="47.13663" lon="-1.72704">
        <ele>71</ele>
        <time>2022-01-01T12:24:55Z</time>
      </trkpt>
      <trkpt lat="47.13662" lon="-1.72721">
        <ele>71</ele>
        <time>2022-01-01T12:24:57Z</time>
      </trkpt>
      <trkpt lat="47.1366" lon="-1.72738">
        <ele>71</ele>
        <time>2022-01-01T12:24:59Z</time>
      </trkpt>
      <trkpt lat="47.1366" lon="-1.72756">
        <ele>71</ele>
        <time>2022-01-01T12:25:01Z</time>
      </trkpt>
      <trkpt lat="47.13659" lon="-1.72774">
        <ele>71</ele>
        <time>2022-01-01T12:25:03Z</time>
      </trkpt>
      <trkpt lat="47.13657" lon="-1.72792">
        <ele>70</ele>
        <time>2022-01-01T12:25:05Z</time>
      </trkpt>
      <trkpt lat="47.13656" lon="-1.7281">
        <ele>70</ele>
        <time>2022-01-01T12:25:07Z</time>
      </trkpt>
      <trkpt lat="47.13654" lon="-1.72829">
        <ele>70</ele>
        <time>2022-01-01T12:25:09Z</time>
      </trkpt>
      <trkpt lat="47.13653" lon="-1.72849">
        <ele>69</ele>
        <time>2022-01-01T12:25:11Z</time>
      </trkpt>
      <trkpt lat="47.1365" lon="-1.7287">
        <ele>69</ele>
        <time>2022-01-01T12:25:13Z</time>
      </trkpt>
      <trkpt lat="47.13648" lon="-1.72893">
        <ele>68</ele>
        <time>2022-01-01T12:25:15Z</time>
      </trkpt>
      <trkpt lat="47.13645" lon="-1.72918">
        <ele>67</ele>
        <time>2022-01-01T12:25:17Z</time>
      </trkpt>
      <trkpt lat="47.13643" lon="-1.72943">
        <ele>66</ele>
        <time>2022-01-01T12:25:19Z</time>
      </trkpt>
      <trkpt lat="47.13642" lon="-1.72956">
        <ele>65</ele>
        <time>2022-01-01T12:25:20Z</time>
      </trkpt>
      <trkpt lat="47.13641" lon="-1.7297">
        <ele>64</ele>
        <time>2022-01-01T12:25:21Z</time>
      </trkpt>
      <trkpt lat="47.1364" lon="-1.72984">
        <ele>63</ele>
        <time>2022-01-01T12:25:22Z</time>
      </trkpt>
      <trkpt lat="47.13639" lon="-1.72998">
        <ele>63</ele>
        <time>2022-01-01T12:25:23Z</time>
      </trkpt>
      <trkpt lat="47.13638" lon="-1.73012">
        <ele>63</ele>
        <time>2022-01-01T12:25:24Z</time>
      </trkpt>
      <trkpt lat="47.13634" lon="-1.73025">
        <ele>62</ele>
        <time>2022-01-01T12:25:25Z</time>
      </trkpt>
      <trkpt lat="47.13629" lon="-1.73038">
        <ele>62</ele>
        <time>2022-01-01T12:25:26Z</time>
      </trkpt>
      <trkpt lat="47.13622" lon="-1.73047">
        <ele>62</ele>
        <time>2022-01-01T12:25:27Z</time>
      </trkpt>
      <trkpt lat="47.13614" lon="-1.73055">
        <ele>61</ele>
        <time>2022-01-01T12:25:28Z</time>
      </trkpt>
      <trkpt lat="47.13606" lon="-1.73061">
        <ele>61</ele>
        <time>2022-01-01T12:25:29Z</time>
      </trkpt>
      <trkpt lat="47.13598" lon="-1.73068">
        <ele>61</ele>
        <time>2022-01-01T12:25:30Z</time>
      </trkpt>
      <trkpt lat="47.1359" lon="-1.73075">
        <ele>61</ele>
        <time>2022-01-01T12:25:31Z</time>
      </trkpt>
      <trkpt lat="47.13575" lon="-1.73087">
        <ele>61</ele>
        <time>2022-01-01T12:25:33Z</time>
      </trkpt>
      <trkpt lat="47.13562" lon="-1.73102">
        <ele>61</ele>
        <time>2022-01-01T12:25:35Z</time>
      </trkpt>
      <trkpt lat="47.13548" lon="-1.73116">
        <ele>61</ele>
        <time>2022-01-01T12:25:37Z</time>
      </trkpt>
      <trkpt lat="47.13535" lon="-1.73129">
        <ele>60</ele>
        <time>2022-01-01T12:25:39Z</time>
      </trkpt>
      <trkpt lat="47.13523" lon="-1.73143">
        <ele>60</ele>
        <time>2022-01-01T12:25:41Z</time>
      </trkpt>
      <trkpt lat="47.13514" lon="-1.73162">
        <ele>59</ele>
        <time>2022-01-01T12:25:43Z</time>
      </trkpt>
      <trkpt lat="47.13511" lon="-1.73185">
        <ele>58</ele>
        <time>2022-01-01T12:25:45Z</time>
      </trkpt>
      <trkpt lat="47.13508" lon="-1.73209">
        <ele>58</ele>
        <time>2022-01-01T12:25:47Z</time>
      </trkpt>
      <trkpt lat="47.13505" lon="-1.73234">
        <ele>57</ele>
        <time>2022-01-01T12:25:49Z</time>
      </trkpt>
      <trkpt lat="47.13503" lon="-1.7326">
        <ele>56</ele>
        <time>2022-01-01T12:25:51Z</time>
      </trkpt>
      <trkpt lat="47.13501" lon="-1.73286">
        <ele>56</ele>
        <time>2022-01-01T12:25:53Z</time>
      </trkpt>
      <trkpt lat="47.13505" lon="-1.73311">
        <ele>56</ele>
        <time>2022-01-01T12:25:55Z</time>
      </trkpt>
      <trkpt lat="47.13511" lon="-1.73333">
        <ele>56</ele>
        <time>2022-01-01T12:25:57Z</time>
      </trkpt>
      <trkpt lat="47.13518" lon="-1.73354">
        <ele>57</ele>
        <time>2022-01-01T12:25:59Z</time>
      </trkpt>
      <trkpt lat="47.13524" lon="-1.73374">
        <ele>57</ele>
        <time>2022-01-01T12:26:01Z</time>
      </trkpt>
      <trkpt lat="47.13531" lon="-1.73392">
        <ele>58</ele>
        <time>2022-01-01T12:26:03Z</time>
      </trkpt>
      <trkpt lat="47.13537" lon="-1.7341">
        <ele>57</ele>
        <time>2022-01-01T12:26:05Z</time>
      </trkpt>
      <trkpt lat="47.13542" lon="-1.73429">
        <ele>58</ele>
        <time>2022-01-01T12:26:07Z</time>
      </trkpt>
      <trkpt lat="47.13548" lon="-1.73447">
        <ele>58</ele>
        <time>2022-01-01T12:26:09Z</time>
      </trkpt>
      <trkpt lat="47.13553" lon="-1.73466">
        <ele>58</ele>
        <time>2022-01-01T12:26:11Z</time>
      </trkpt>
      <trkpt lat="47.13559" lon="-1.73484">
        <ele>58</ele>
        <time>2022-01-01T12:26:13Z</time>
      </trkpt>
      <trkpt lat="47.13564" lon="-1.73502">
        <ele>58</ele>
        <time>2022-01-01T12:26:15Z</time>
      </trkpt>
      <trkpt lat="47.1357" lon="-1.73521">
        <ele>58</ele>
        <time>2022-01-01T12:26:17Z</time>
      </trkpt>
      <trkpt lat="47.13575" lon="-1.73539">
        <ele>58</ele>
        <time>2022-01-01T12:26:19Z</time>
      </trkpt>
      <trkpt lat="47.1358" lon="-1.73558">
        <ele>57</ele>
        <time>2022-01-01T12:26:21Z</time>
      </trkpt>
      <trkpt lat="47.13587" lon="-1.73576">
        <ele>58</ele>
        <time>2022-01-01T12:26:23Z</time>
      </trkpt>
      <trkpt lat="47.13593" lon="-1.73594">
        <ele>58</ele>
        <time>2022-01-01T12:26:25Z</time>
      </trkpt>
      <trkpt lat="47.136" lon="-1.73612">
        <ele>58</ele>
        <time>2022-01-01T12:26:27Z</time>
      </trkpt>
      <trkpt lat="47.13607" lon="-1.7363">
        <ele>58</ele>
        <time>2022-01-01T12:26:29Z</time>
      </trkpt>
      <trkpt lat="47.13612" lon="-1.73648">
        <ele>58</ele>
        <time>2022-01-01T12:26:31Z</time>
      </trkpt>
      <trkpt lat="47.13619" lon="-1.73667">
        <ele>58</ele>
        <time>2022-01-01T12:26:33Z</time>
      </trkpt>
      <trkpt lat="47.13625" lon="-1.73686">
        <ele>58</ele>
        <time>2022-01-01T12:26:35Z</time>
      </trkpt>
      <trkpt lat="47.13629" lon="-1.73705">
        <ele>58</ele>
        <time>2022-01-01T12:26:37Z</time>
      </trkpt>
      <trkpt lat="47.13633" lon="-1.73726">
        <ele>57</ele>
        <time>2022-01-01T12:26:39Z</time>
      </trkpt>
      <trkpt lat="47.13634" lon="-1.73747">
        <ele>57</ele>
        <time>2022-01-01T12:26:41Z</time>
      </trkpt>
      <trkpt lat="47.13636" lon="-1.7377">
        <ele>57</ele>
        <time>2022-01-01T12:26:43Z</time>
      </trkpt>
      <trkpt lat="47.13638" lon="-1.73794">
        <ele>56</ele>
        <time>2022-01-01T12:26:45Z</time>
      </trkpt>
      <trkpt lat="47.1364" lon="-1.73819">
        <ele>55</ele>
        <time>2022-01-01T12:26:47Z</time>
      </trkpt>
      <trkpt lat="47.13642" lon="-1.73844">
        <ele>55</ele>
        <time>2022-01-01T12:26:49Z</time>
      </trkpt>
      <trkpt lat="47.13643" lon="-1.73868">
        <ele>56</ele>
        <time>2022-01-01T12:26:51Z</time>
      </trkpt>
      <trkpt lat="47.13644" lon="-1.7389">
        <ele>56</ele>
        <time>2022-01-01T12:26:53Z</time>
      </trkpt>
      <trkpt lat="47.13645" lon="-1.73911">
        <ele>57</ele>
        <time>2022-01-01T12:26:55Z</time>
      </trkpt>
      <trkpt lat="47.13647" lon="-1.7393">
        <ele>57</ele>
        <time>2022-01-01T12:26:57Z</time>
      </trkpt>
      <trkpt lat="47.13648" lon="-1.73948">
        <ele>58</ele>
        <time>2022-01-01T12:26:59Z</time>
      </trkpt>
      <trkpt lat="47.13648" lon="-1.73965">
        <ele>58</ele>
        <time>2022-01-01T12:27:01Z</time>
      </trkpt>
      <trkpt lat="47.13648" lon="-1.73981">
        <ele>59</ele>
        <time>2022-01-01T12:27:03Z</time>
      </trkpt>
      <trkpt lat="47.13646" lon="-1.73999">
        <ele>59</ele>
        <time>2022-01-01T12:27:05Z</time>
      </trkpt>
      <trkpt lat="47.13645" lon="-1.74017">
        <ele>59</ele>
        <time>2022-01-01T12:27:07Z</time>
      </trkpt>
      <trkpt lat="47.13643" lon="-1.74034">
        <ele>60</ele>
        <time>2022-01-01T12:27:09Z</time>
      </trkpt>
      <trkpt lat="47.13641" lon="-1.74051">
        <ele>60</ele>
        <time>2022-01-01T12:27:11Z</time>
      </trkpt>
      <trkpt lat="47.13641" lon="-1.74069">
        <ele>61</ele>
        <time>2022-01-01T12:27:13Z</time>
      </trkpt>
      <trkpt lat="47.13641" lon="-1.74087">
        <ele>61</ele>
        <time>2022-01-01T12:27:15Z</time>
      </trkpt>
      <trkpt lat="47.13641" lon="-1.74105">
        <ele>62</ele>
        <time>2022-01-01T12:27:17Z</time>
      </trkpt>
      <trkpt lat="47.13643" lon="-1.74122">
        <ele>62</ele>
        <time>2022-01-01T12:27:19Z</time>
      </trkpt>
      <trkpt lat="47.13645" lon="-1.74139">
        <ele>62</ele>
        <time>2022-01-01T12:27:21Z</time>
      </trkpt>
      <trkpt lat="47.13648" lon="-1.74156">
        <ele>62</ele>
        <time>2022-01-01T12:27:23Z</time>
      </trkpt>
      <trkpt lat="47.13652" lon="-1.74174">
        <ele>61</ele>
        <time>2022-01-01T12:27:25Z</time>
      </trkpt>
      <trkpt lat="47.13657" lon="-1.74191">
        <ele>62</ele>
        <time>2022-01-01T12:27:27Z</time>
      </trkpt>
      <trkpt lat="47.13661" lon="-1.74209">
        <ele>62</ele>
        <time>2022-01-01T12:27:29Z</time>
      </trkpt>
      <trkpt lat="47.13665" lon="-1.74227">
        <ele>62</ele>
        <time>2022-01-01T12:27:31Z</time>
      </trkpt>
      <trkpt lat="47.1367" lon="-1.74245">
        <ele>61</ele>
        <time>2022-01-01T12:27:33Z</time>
      </trkpt>
      <trkpt lat="47.13675" lon="-1.74263">
        <ele>61</ele>
        <time>2022-01-01T12:27:35Z</time>
      </trkpt>
      <trkpt lat="47.13681" lon="-1.74283">
        <ele>61</ele>
        <time>2022-01-01T12:27:37Z</time>
      </trkpt>
      <trkpt lat="47.13689" lon="-1.74302">
        <ele>61</ele>
        <time>2022-01-01T12:27:39Z</time>
      </trkpt>
      <trkpt lat="47.13694" lon="-1.74324">
        <ele>60</ele>
        <time>2022-01-01T12:27:41Z</time>
      </trkpt>
      <trkpt lat="47.13695" lon="-1.74349">
        <ele>59</ele>
        <time>2022-01-01T12:27:43Z</time>
      </trkpt>
      <trkpt lat="47.13695" lon="-1.74374">
        <ele>58</ele>
        <time>2022-01-01T12:27:45Z</time>
      </trkpt>
      <trkpt lat="47.13695" lon="-1.744">
        <ele>57</ele>
        <time>2022-01-01T12:27:47Z</time>
      </trkpt>
      <trkpt lat="47.13696" lon="-1.74414">
        <ele>56</ele>
        <time>2022-01-01T12:27:48Z</time>
      </trkpt>
      <trkpt lat="47.13696" lon="-1.74427">
        <ele>55</ele>
        <time>2022-01-01T12:27:49Z</time>
      </trkpt>
      <trkpt lat="47.13695" lon="-1.74441">
        <ele>55</ele>
        <time>2022-01-01T12:27:50Z</time>
      </trkpt>
      <trkpt lat="47.13691" lon="-1.74454">
        <ele>54</ele>
        <time>2022-01-01T12:27:51Z</time>
      </trkpt>
      <trkpt lat="47.13684" lon="-1.74465">
        <ele>54</ele>
        <time>2022-01-01T12:27:52Z</time>
      </trkpt>
      <trkpt lat="47.13677" lon="-1.74474">
        <ele>53</ele>
        <time>2022-01-01T12:27:53Z</time>
      </trkpt>
      <trkpt lat="47.13669" lon="-1.74482">
        <ele>53</ele>
        <time>2022-01-01T12:27:54Z</time>
      </trkpt>
      <trkpt lat="47.13661" lon="-1.7449">
        <ele>53</ele>
        <time>2022-01-01T12:27:55Z</time>
      </trkpt>
      <trkpt lat="47.13648" lon="-1.74505">
        <ele>53</ele>
        <time>2022-01-01T12:27:57Z</time>
      </trkpt>
      <trkpt lat="47.13634" lon="-1.74518">
        <ele>53</ele>
        <time>2022-01-01T12:27:59Z</time>
      </trkpt>
      <trkpt lat="47.13622" lon="-1.74531">
        <ele>53</ele>
        <time>2022-01-01T12:28:01Z</time>
      </trkpt>
      <trkpt lat="47.13609" lon="-1.74544">
        <ele>52</ele>
        <time>2022-01-01T12:28:03Z</time>
      </trkpt>
      <trkpt lat="47.13595" lon="-1.74558">
        <ele>51</ele>
        <time>2022-01-01T12:28:05Z</time>
      </trkpt>
      <trkpt lat="47.13581" lon="-1.74571">
        <ele>51</ele>
        <time>2022-01-01T12:28:07Z</time>
      </trkpt>
      <trkpt lat="47.13567" lon="-1.74585">
        <ele>51</ele>
        <time>2022-01-01T12:28:09Z</time>
      </trkpt>
      <trkpt lat="47.13553" lon="-1.74601">
        <ele>51</ele>
        <time>2022-01-01T12:28:11Z</time>
      </trkpt>
      <trkpt lat="47.1354" lon="-1.74615">
        <ele>52</ele>
        <time>2022-01-01T12:28:13Z</time>
      </trkpt>
      <trkpt lat="47.13526" lon="-1.74627">
        <ele>52</ele>
        <time>2022-01-01T12:28:15Z</time>
      </trkpt>
      <trkpt lat="47.13515" lon="-1.74638">
        <ele>52</ele>
        <time>2022-01-01T12:28:17Z</time>
      </trkpt>
      <trkpt lat="47.13505" lon="-1.74649">
        <ele>52</ele>
        <time>2022-01-01T12:28:19Z</time>
      </trkpt>
      <trkpt lat="47.13497" lon="-1.74661">
        <ele>52</ele>
        <time>2022-01-01T12:28:21Z</time>
      </trkpt>
      <trkpt lat="47.13492" lon="-1.74676">
        <ele>53</ele>
        <time>2022-01-01T12:28:23Z</time>
      </trkpt>
      <trkpt lat="47.13487" lon="-1.7469">
        <ele>53</ele>
        <time>2022-01-01T12:28:25Z</time>
      </trkpt>
      <trkpt lat="47.13483" lon="-1.74705">
        <ele>53</ele>
        <time>2022-01-01T12:28:27Z</time>
      </trkpt>
      <trkpt lat="47.13476" lon="-1.74718">
        <ele>54</ele>
        <time>2022-01-01T12:28:29Z</time>
      </trkpt>
      <trkpt lat="47.13469" lon="-1.7473">
        <ele>55</ele>
        <time>2022-01-01T12:28:31Z</time>
      </trkpt>
      <trkpt lat="47.1346" lon="-1.74741">
        <ele>56</ele>
        <time>2022-01-01T12:28:33Z</time>
      </trkpt>
      <trkpt lat="47.1345" lon="-1.74749">
        <ele>57</ele>
        <time>2022-01-01T12:28:35Z</time>
      </trkpt>
      <trkpt lat="47.13439" lon="-1.74756">
        <ele>57</ele>
        <time>2022-01-01T12:28:37Z</time>
      </trkpt>
      <trkpt lat="47.13429" lon="-1.74762">
        <ele>57</ele>
        <time>2022-01-01T12:28:39Z</time>
      </trkpt>
      <trkpt lat="47.1342" lon="-1.7477">
        <ele>57</ele>
        <time>2022-01-01T12:28:41Z</time>
      </trkpt>
      <trkpt lat="47.13411" lon="-1.74779">
        <ele>57</ele>
        <time>2022-01-01T12:28:43Z</time>
      </trkpt>
      <trkpt lat="47.13402" lon="-1.74789">
        <ele>57</ele>
        <time>2022-01-01T12:28:45Z</time>
      </trkpt>
      <trkpt lat="47.13394" lon="-1.748">
        <ele>57</ele>
        <time>2022-01-01T12:28:47Z</time>
      </trkpt>
      <trkpt lat="47.13387" lon="-1.74812">
        <ele>57</ele>
        <time>2022-01-01T12:28:49Z</time>
      </trkpt>
      <trkpt lat="47.13382" lon="-1.74826">
        <ele>58</ele>
        <time>2022-01-01T12:28:51Z</time>
      </trkpt>
      <trkpt lat="47.13378" lon="-1.74841">
        <ele>58</ele>
        <time>2022-01-01T12:28:53Z</time>
      </trkpt>
      <trkpt lat="47.13374" lon="-1.74856">
        <ele>58</ele>
        <time>2022-01-01T12:28:55Z</time>
      </trkpt>
      <trkpt lat="47.1337" lon="-1.74871">
        <ele>58</ele>
        <time>2022-01-01T12:28:57Z</time>
      </trkpt>
      <trkpt lat="47.13366" lon="-1.74887">
        <ele>58</ele>
        <time>2022-01-01T12:28:59Z</time>
      </trkpt>
      <trkpt lat="47.13361" lon="-1.74902">
        <ele>58</ele>
        <time>2022-01-01T12:29:01Z</time>
      </trkpt>
      <trkpt lat="47.13356" lon="-1.74917">
        <ele>59</ele>
        <time>2022-01-01T12:29:03Z</time>
      </trkpt>
      <trkpt lat="47.1335" lon="-1.74931">
        <ele>59</ele>
        <time>2022-01-01T12:29:05Z</time>
      </trkpt>
      <trkpt lat="47.13343" lon="-1.74945">
        <ele>59</ele>
        <time>2022-01-01T12:29:07Z</time>
      </trkpt>
      <trkpt lat="47.13337" lon="-1.74959">
        <ele>60</ele>
        <time>2022-01-01T12:29:09Z</time>
      </trkpt>
      <trkpt lat="47.1333" lon="-1.74972">
        <ele>61</ele>
        <time>2022-01-01T12:29:11Z</time>
      </trkpt>
      <trkpt lat="47.13323" lon="-1.74985">
        <ele>61</ele>
        <time>2022-01-01T12:29:13Z</time>
      </trkpt>
      <trkpt lat="47.13316" lon="-1.74995">
        <ele>62</ele>
        <time>2022-01-01T12:29:15Z</time>
      </trkpt>
      <trkpt lat="47.13306" lon="-1.75005">
        <ele>63</ele>
        <time>2022-01-01T12:29:17Z</time>
      </trkpt>
      <trkpt lat="47.13296" lon="-1.75013">
        <ele>62</ele>
        <time>2022-01-01T12:29:19Z</time>
      </trkpt>
      <trkpt lat="47.13287" lon="-1.75021">
        <ele>63</ele>
        <time>2022-01-01T12:29:21Z</time>
      </trkpt>
      <trkpt lat="47.13277" lon="-1.75029">
        <ele>63</ele>
        <time>2022-01-01T12:29:23Z</time>
      </trkpt>
      <trkpt lat="47.13267" lon="-1.75037">
        <ele>63</ele>
        <time>2022-01-01T12:29:25Z</time>
      </trkpt>
      <trkpt lat="47.13257" lon="-1.75044">
        <ele>64</ele>
        <time>2022-01-01T12:29:27Z</time>
      </trkpt>
      <trkpt lat="47.13247" lon="-1.75053">
        <ele>65</ele>
        <time>2022-01-01T12:29:29Z</time>
      </trkpt>
      <trkpt lat="47.13238" lon="-1.75061">
        <ele>65</ele>
        <time>2022-01-01T12:29:31Z</time>
      </trkpt>
      <trkpt lat="47.13229" lon="-1.7507">
        <ele>66</ele>
        <time>2022-01-01T12:29:33Z</time>
      </trkpt>
      <trkpt lat="47.1322" lon="-1.75079">
        <ele>66</ele>
        <time>2022-01-01T12:29:35Z</time>
      </trkpt>
      <trkpt lat="47.13211" lon="-1.7509">
        <ele>65</ele>
        <time>2022-01-01T12:29:37Z</time>
      </trkpt>
      <trkpt lat="47.13204" lon="-1.75103">
        <ele>66</ele>
        <time>2022-01-01T12:29:39Z</time>
      </trkpt>
      <trkpt lat="47.13197" lon="-1.75114">
        <ele>66</ele>
        <time>2022-01-01T12:29:41Z</time>
      </trkpt>
      <trkpt lat="47.1319" lon="-1.75127">
        <ele>66</ele>
        <time>2022-01-01T12:29:43Z</time>
      </trkpt>
      <trkpt lat="47.13183" lon="-1.7514">
        <ele>66</ele>
        <time>2022-01-01T12:29:45Z</time>
      </trkpt>
      <trkpt lat="47.13177" lon="-1.75153">
        <ele>66</ele>
        <time>2022-01-01T12:29:47Z</time>
      </trkpt>
      <trkpt lat="47.13171" lon="-1.75167">
        <ele>66</ele>
        <time>2022-01-01T12:29:49Z</time>
      </trkpt>
      <trkpt lat="47.13166" lon="-1.75182">
        <ele>67</ele>
        <time>2022-01-01T12:29:51Z</time>
      </trkpt>
      <trkpt lat="47.13162" lon="-1.75197">
        <ele>67</ele>
        <time>2022-01-01T12:29:53Z</time>
      </trkpt>
      <trkpt lat="47.13158" lon="-1.75212">
        <ele>67</ele>
        <time>2022-01-01T12:29:55Z</time>
      </trkpt>
      <trkpt lat="47.13155" lon="-1.75228">
        <ele>67</ele>
        <time>2022-01-01T12:29:57Z</time>
      </trkpt>
      <trkpt lat="47.13152" lon="-1.75244">
        <ele>67</ele>
        <time>2022-01-01T12:29:59Z</time>
      </trkpt>
      <trkpt lat="47.1315" lon="-1.75259">
        <ele>67</ele>
        <time>2022-01-01T12:30:01Z</time>
      </trkpt>
      <trkpt lat="47.13148" lon="-1.75276">
        <ele>67</ele>
        <time>2022-01-01T12:30:03Z</time>
      </trkpt>
      <trkpt lat="47.13147" lon="-1.75293">
        <ele>67</ele>
        <time>2022-01-01T12:30:05Z</time>
      </trkpt>
      <trkpt lat="47.13143" lon="-1.75309">
        <ele>67</ele>
        <time>2022-01-01T12:30:07Z</time>
      </trkpt>
      <trkpt lat="47.13138" lon="-1.75324">
        <ele>67</ele>
        <time>2022-01-01T12:30:09Z</time>
      </trkpt>
      <trkpt lat="47.13134" lon="-1.75339">
        <ele>68</ele>
        <time>2022-01-01T12:30:11Z</time>
      </trkpt>
      <trkpt lat="47.1313" lon="-1.75355">
        <ele>68</ele>
        <time>2022-01-01T12:30:13Z</time>
      </trkpt>
      <trkpt lat="47.13127" lon="-1.7537">
        <ele>69</ele>
        <time>2022-01-01T12:30:15Z</time>
      </trkpt>
      <trkpt lat="47.13124" lon="-1.75384">
        <ele>70</ele>
        <time>2022-01-01T12:30:17Z</time>
      </trkpt>
      <trkpt lat="47.13121" lon="-1.75398">
        <ele>70</ele>
        <time>2022-01-01T12:30:19Z</time>
      </trkpt>
      <trkpt lat="47.13117" lon="-1.75411">
        <ele>71</ele>
        <time>2022-01-01T12:30:21Z</time>
      </trkpt>
      <trkpt lat="47.13114" lon="-1.75427">
        <ele>72</ele>
        <time>2022-01-01T12:30:23Z</time>
      </trkpt>
      <trkpt lat="47.13113" lon="-1.75443">
        <ele>72</ele>
        <time>2022-01-01T12:30:25Z</time>
      </trkpt>
      <trkpt lat="47.1311" lon="-1.75458">
        <ele>73</ele>
        <time>2022-01-01T12:30:27Z</time>
      </trkpt>
      <trkpt lat="47.13108" lon="-1.75473">
        <ele>73</ele>
        <time>2022-01-01T12:30:29Z</time>
      </trkpt>
      <trkpt lat="47.13107" lon="-1.75489">
        <ele>74</ele>
        <time>2022-01-01T12:30:31Z</time>
      </trkpt>
      <trkpt lat="47.13106" lon="-1.75504">
        <ele>74</ele>
        <time>2022-01-01T12:30:33Z</time>
      </trkpt>
      <trkpt lat="47.13104" lon="-1.7552">
        <ele>74</ele>
        <time>2022-01-01T12:30:35Z</time>
      </trkpt>
      <trkpt lat="47.131" lon="-1.75535">
        <ele>74</ele>
        <time>2022-01-01T12:30:37Z</time>
      </trkpt>
      <trkpt lat="47.13098" lon="-1.7555">
        <ele>74</ele>
        <time>2022-01-01T12:30:39Z</time>
      </trkpt>
      <trkpt lat="47.13096" lon="-1.75565">
        <ele>74</ele>
        <time>2022-01-01T12:30:41Z</time>
      </trkpt>
      <trkpt lat="47.13093" lon="-1.75579">
        <ele>74</ele>
        <time>2022-01-01T12:30:43Z</time>
      </trkpt>
      <trkpt lat="47.1309" lon="-1.75595">
        <ele>74</ele>
        <time>2022-01-01T12:30:45Z</time>
      </trkpt>
      <trkpt lat="47.13087" lon="-1.75611">
        <ele>74</ele>
        <time>2022-01-01T12:30:47Z</time>
      </trkpt>
      <trkpt lat="47.13084" lon="-1.75627">
        <ele>74</ele>
        <time>2022-01-01T12:30:49Z</time>
      </trkpt>
      <trkpt lat="47.13081" lon="-1.75644">
        <ele>74</ele>
        <time>2022-01-01T12:30:51Z</time>
      </trkpt>
      <trkpt lat="47.13078" lon="-1.75661">
        <ele>74</ele>
        <time>2022-01-01T12:30:53Z</time>
      </trkpt>
      <trkpt lat="47.13074" lon="-1.75677">
        <ele>74</ele>
        <time>2022-01-01T12:30:55Z</time>
      </trkpt>
      <trkpt lat="47.1307" lon="-1.75694">
        <ele>75</ele>
        <time>2022-01-01T12:30:57Z</time>
      </trkpt>
      <trkpt lat="47.13066" lon="-1.7571">
        <ele>75</ele>
        <time>2022-01-01T12:30:59Z</time>
      </trkpt>
      <trkpt lat="47.13061" lon="-1.75725">
        <ele>75</ele>
        <time>2022-01-01T12:31:01Z</time>
      </trkpt>
      <trkpt lat="47.13055" lon="-1.7574">
        <ele>75</ele>
        <time>2022-01-01T12:31:03Z</time>
      </trkpt>
      <trkpt lat="47.13049" lon="-1.75753">
        <ele>75</ele>
        <time>2022-01-01T12:31:05Z</time>
      </trkpt>
      <trkpt lat="47.13041" lon="-1.75765">
        <ele>75</ele>
        <time>2022-01-01T12:31:07Z</time>
      </trkpt>
      <trkpt lat="47.13033" lon="-1.75777">
        <ele>75</ele>
        <time>2022-01-01T12:31:09Z</time>
      </trkpt>
      <trkpt lat="47.13025" lon="-1.75789">
        <ele>75</ele>
        <time>2022-01-01T12:31:11Z</time>
      </trkpt>
      <trkpt lat="47.13017" lon="-1.75801">
        <ele>75</ele>
        <time>2022-01-01T12:31:13Z</time>
      </trkpt>
      <trkpt lat="47.1301" lon="-1.75814">
        <ele>75</ele>
        <time>2022-01-01T12:31:15Z</time>
      </trkpt>
      <trkpt lat="47.13006" lon="-1.7583">
        <ele>75</ele>
        <time>2022-01-01T12:31:17Z</time>
      </trkpt>
      <trkpt lat="47.13006" lon="-1.75848">
        <ele>75</ele>
        <time>2022-01-01T12:31:19Z</time>
      </trkpt>
      <trkpt lat="47.13008" lon="-1.75866">
        <ele>75</ele>
        <time>2022-01-01T12:31:21Z</time>
      </trkpt>
      <trkpt lat="47.13008" lon="-1.75882">
        <ele>75</ele>
        <time>2022-01-01T12:31:23Z</time>
      </trkpt>
      <trkpt lat="47.13006" lon="-1.75899">
        <ele>75</ele>
        <time>2022-01-01T12:31:25Z</time>
      </trkpt>
      <trkpt lat="47.13002" lon="-1.75915">
        <ele>76</ele>
        <time>2022-01-01T12:31:27Z</time>
      </trkpt>
      <trkpt lat="47.12999" lon="-1.75931">
        <ele>76</ele>
        <time>2022-01-01T12:31:29Z</time>
      </trkpt>
      <trkpt lat="47.12996" lon="-1.75946">
        <ele>76</ele>
        <time>2022-01-01T12:31:31Z</time>
      </trkpt>
      <trkpt lat="47.12992" lon="-1.75963">
        <ele>76</ele>
        <time>2022-01-01T12:31:33Z</time>
      </trkpt>
      <trkpt lat="47.1299" lon="-1.75979">
        <ele>76</ele>
        <time>2022-01-01T12:31:35Z</time>
      </trkpt>
      <trkpt lat="47.12988" lon="-1.75996">
        <ele>77</ele>
        <time>2022-01-01T12:31:37Z</time>
      </trkpt>
      <trkpt lat="47.12986" lon="-1.76012">
        <ele>77</ele>
        <time>2022-01-01T12:31:39Z</time>
      </trkpt>
      <trkpt lat="47.12984" lon="-1.7603">
        <ele>77</ele>
        <time>2022-01-01T12:31:41Z</time>
      </trkpt>
      <trkpt lat="47.12984" lon="-1.76047">
        <ele>77</ele>
        <time>2022-01-01T12:31:43Z</time>
      </trkpt>
      <trkpt lat="47.12984" lon="-1.76064">
        <ele>77</ele>
        <time>2022-01-01T12:31:45Z</time>
      </trkpt>
      <trkpt lat="47.12984" lon="-1.76081">
        <ele>77</ele>
        <time>2022-01-01T12:31:47Z</time>
      </trkpt>
      <trkpt lat="47.12985" lon="-1.76098">
        <ele>78</ele>
        <time>2022-01-01T12:31:49Z</time>
      </trkpt>
      <trkpt lat="47.12987" lon="-1.76115">
        <ele>78</ele>
        <time>2022-01-01T12:31:51Z</time>
      </trkpt>
      <trkpt lat="47.12991" lon="-1.7613">
        <ele>78</ele>
        <time>2022-01-01T12:31:53Z</time>
      </trkpt>
      <trkpt lat="47.12995" lon="-1.76146">
        <ele>78</ele>
        <time>2022-01-01T12:31:55Z</time>
      </trkpt>
      <trkpt lat="47.13" lon="-1.76162">
        <ele>78</ele>
        <time>2022-01-01T12:31:57Z</time>
      </trkpt>
      <trkpt lat="47.13004" lon="-1.76179">
        <ele>78</ele>
        <time>2022-01-01T12:31:59Z</time>
      </trkpt>
      <trkpt lat="47.13009" lon="-1.76196">
        <ele>77</ele>
        <time>2022-01-01T12:32:01Z</time>
      </trkpt>
      <trkpt lat="47.13013" lon="-1.76212">
        <ele>78</ele>
        <time>2022-01-01T12:32:03Z</time>
      </trkpt>
      <trkpt lat="47.13017" lon="-1.7623">
        <ele>78</ele>
        <time>2022-01-01T12:32:05Z</time>
      </trkpt>
      <trkpt lat="47.13021" lon="-1.76247">
        <ele>78</ele>
        <time>2022-01-01T12:32:07Z</time>
      </trkpt>
      <trkpt lat="47.13025" lon="-1.76264">
        <ele>78</ele>
        <time>2022-01-01T12:32:09Z</time>
      </trkpt>
      <trkpt lat="47.13029" lon="-1.76281">
        <ele>78</ele>
        <time>2022-01-01T12:32:11Z</time>
      </trkpt>
      <trkpt lat="47.13032" lon="-1.76299">
        <ele>78</ele>
        <time>2022-01-01T12:32:13Z</time>
      </trkpt>
      <trkpt lat="47.13036" lon="-1.76317">
        <ele>78</ele>
        <time>2022-01-01T12:32:15Z</time>
      </trkpt>
      <trkpt lat="47.13039" lon="-1.76335">
        <ele>78</ele>
        <time>2022-01-01T12:32:17Z</time>
      </trkpt>
      <trkpt lat="47.13042" lon="-1.76353">
        <ele>78</ele>
        <time>2022-01-01T12:32:19Z</time>
      </trkpt>
      <trkpt lat="47.13046" lon="-1.76371">
        <ele>77</ele>
        <time>2022-01-01T12:32:21Z</time>
      </trkpt>
      <trkpt lat="47.13049" lon="-1.76389">
        <ele>78</ele>
        <time>2022-01-01T12:32:23Z</time>
      </trkpt>
      <trkpt lat="47.13051" lon="-1.76407">
        <ele>78</ele>
        <time>2022-01-01T12:32:25Z</time>
      </trkpt>
      <trkpt lat="47.13052" lon="-1.76426">
        <ele>77</ele>
        <time>2022-01-01T12:32:27Z</time>
      </trkpt>
      <trkpt lat="47.13053" lon="-1.76445">
        <ele>77</ele>
        <time>2022-01-01T12:32:29Z</time>
      </trkpt>
      <trkpt lat="47.13054" lon="-1.76463">
        <ele>77</ele>
        <time>2022-01-01T12:32:31Z</time>
      </trkpt>
      <trkpt lat="47.13056" lon="-1.76482">
        <ele>77</ele>
        <time>2022-01-01T12:32:33Z</time>
      </trkpt>
      <trkpt lat="47.13056" lon="-1.765">
        <ele>78</ele>
        <time>2022-01-01T12:32:35Z</time>
      </trkpt>
      <trkpt lat="47.13057" lon="-1.76519">
        <ele>77</ele>
        <time>2022-01-01T12:32:37Z</time>
      </trkpt>
      <trkpt lat="47.13058" lon="-1.76538">
        <ele>77</ele>
        <time>2022-01-01T12:32:39Z</time>
      </trkpt>
      <trkpt lat="47.13059" lon="-1.76557">
        <ele>77</ele>
        <time>2022-01-01T12:32:41Z</time>
      </trkpt>
      <trkpt lat="47.13061" lon="-1.76575">
        <ele>77</ele>
        <time>2022-01-01T12:32:43Z</time>
      </trkpt>
      <trkpt lat="47.13062" lon="-1.76593">
        <ele>77</ele>
        <time>2022-01-01T12:32:45Z</time>
      </trkpt>
      <trkpt lat="47.13063" lon="-1.76611">
        <ele>77</ele>
        <time>2022-01-01T12:32:47Z</time>
      </trkpt>
      <trkpt lat="47.13065" lon="-1.7663">
        <ele>77</ele>
        <time>2022-01-01T12:32:49Z</time>
      </trkpt>
      <trkpt lat="47.13067" lon="-1.76649">
        <ele>77</ele>
        <time>2022-01-01T12:32:51Z</time>
      </trkpt>
      <trkpt lat="47.13069" lon="-1.76666">
        <ele>77</ele>
        <time>2022-01-01T12:32:53Z</time>
      </trkpt>
      <trkpt lat="47.13069" lon="-1.76684">
        <ele>77</ele>
        <time>2022-01-01T12:32:55Z</time>
      </trkpt>
      <trkpt lat="47.13069" lon="-1.76703">
        <ele>77</ele>
        <time>2022-01-01T12:32:57Z</time>
      </trkpt>
      <trkpt lat="47.13066" lon="-1.76722">
        <ele>77</ele>
        <time>2022-01-01T12:32:59Z</time>
      </trkpt>
      <trkpt lat="47.13064" lon="-1.76741">
        <ele>77</ele>
        <time>2022-01-01T12:33:01Z</time>
      </trkpt>
      <trkpt lat="47.13061" lon="-1.76759">
        <ele>77</ele>
        <time>2022-01-01T12:33:03Z</time>
      </trkpt>
      <trkpt lat="47.13059" lon="-1.76778">
        <ele>77</ele>
        <time>2022-01-01T12:33:05Z</time>
      </trkpt>
      <trkpt lat="47.13056" lon="-1.76796">
        <ele>77</ele>
        <time>2022-01-01T12:33:07Z</time>
      </trkpt>
      <trkpt lat="47.13054" lon="-1.76814">
        <ele>77</ele>
        <time>2022-01-01T12:33:09Z</time>
      </trkpt>
      <trkpt lat="47.13052" lon="-1.76832">
        <ele>77</ele>
        <time>2022-01-01T12:33:11Z</time>
      </trkpt>
      <trkpt lat="47.1305" lon="-1.7685">
        <ele>78</ele>
        <time>2022-01-01T12:33:13Z</time>
      </trkpt>
      <trkpt lat="47.13048" lon="-1.76869">
        <ele>78</ele>
        <time>2022-01-01T12:33:15Z</time>
      </trkpt>
      <trkpt lat="47.13046" lon="-1.76887">
        <ele>78</ele>
        <time>2022-01-01T12:33:17Z</time>
      </trkpt>
      <trkpt lat="47.13044" lon="-1.76906">
        <ele>78</ele>
        <time>2022-01-01T12:33:19Z</time>
      </trkpt>
      <trkpt lat="47.13043" lon="-1.76924">
        <ele>78</ele>
        <time>2022-01-01T12:33:21Z</time>
      </trkpt>
      <trkpt lat="47.13041" lon="-1.76941">
        <ele>78</ele>
        <time>2022-01-01T12:33:23Z</time>
      </trkpt>
      <trkpt lat="47.1304" lon="-1.76959">
        <ele>78</ele>
        <time>2022-01-01T12:33:25Z</time>
      </trkpt>
      <trkpt lat="47.13039" lon="-1.76977">
        <ele>78</ele>
        <time>2022-01-01T12:33:27Z</time>
      </trkpt>
      <trkpt lat="47.13039" lon="-1.76994">
        <ele>79</ele>
        <time>2022-01-01T12:33:29Z</time>
      </trkpt>
      <trkpt lat="47.13038" lon="-1.77012">
        <ele>79</ele>
        <time>2022-01-01T12:33:31Z</time>
      </trkpt>
      <trkpt lat="47.13037" lon="-1.7703">
        <ele>79</ele>
        <time>2022-01-01T12:33:33Z</time>
      </trkpt>
      <trkpt lat="47.13035" lon="-1.77048">
        <ele>79</ele>
        <time>2022-01-01T12:33:35Z</time>
      </trkpt>
      <trkpt lat="47.13033" lon="-1.77065">
        <ele>79</ele>
        <time>2022-01-01T12:33:37Z</time>
      </trkpt>
      <trkpt lat="47.13032" lon="-1.77082">
        <ele>79</ele>
        <time>2022-01-01T12:33:39Z</time>
      </trkpt>
      <trkpt lat="47.1303" lon="-1.771">
        <ele>79</ele>
        <time>2022-01-01T12:33:41Z</time>
      </trkpt>
      <trkpt lat="47.13028" lon="-1.77118">
        <ele>79</ele>
        <time>2022-01-01T12:33:43Z</time>
      </trkpt>
      <trkpt lat="47.13025" lon="-1.77135">
        <ele>79</ele>
        <time>2022-01-01T12:33:45Z</time>
      </trkpt>
      <trkpt lat="47.13023" lon="-1.77153">
        <ele>80</ele>
        <time>2022-01-01T12:33:47Z</time>
      </trkpt>
      <trkpt lat="47.13019" lon="-1.7717">
        <ele>80</ele>
        <time>2022-01-01T12:33:49Z</time>
      </trkpt>
      <trkpt lat="47.13015" lon="-1.77188">
        <ele>80</ele>
        <time>2022-01-01T12:33:51Z</time>
      </trkpt>
      <trkpt lat="47.13011" lon="-1.77206">
        <ele>80</ele>
        <time>2022-01-01T12:33:53Z</time>
      </trkpt>
      <trkpt lat="47.13006" lon="-1.77223">
        <ele>80</ele>
        <time>2022-01-01T12:33:55Z</time>
      </trkpt>
      <trkpt lat="47.13002" lon="-1.77241">
        <ele>81</ele>
        <time>2022-01-01T12:33:57Z</time>
      </trkpt>
      <trkpt lat="47.12997" lon="-1.77259">
        <ele>81</ele>
        <time>2022-01-01T12:33:59Z</time>
      </trkpt>
      <trkpt lat="47.12991" lon="-1.77276">
        <ele>81</ele>
        <time>2022-01-01T12:34:01Z</time>
      </trkpt>
      <trkpt lat="47.12986" lon="-1.77293">
        <ele>81</ele>
        <time>2022-01-01T12:34:03Z</time>
      </trkpt>
      <trkpt lat="47.1298" lon="-1.7731">
        <ele>81</ele>
        <time>2022-01-01T12:34:05Z</time>
      </trkpt>
      <trkpt lat="47.12974" lon="-1.77327">
        <ele>81</ele>
        <time>2022-01-01T12:34:07Z</time>
      </trkpt>
      <trkpt lat="47.12967" lon="-1.77344">
        <ele>81</ele>
        <time>2022-01-01T12:34:09Z</time>
      </trkpt>
      <trkpt lat="47.12961" lon="-1.7736">
        <ele>81</ele>
        <time>2022-01-01T12:34:11Z</time>
      </trkpt>
      <trkpt lat="47.12954" lon="-1.77376">
        <ele>81</ele>
        <time>2022-01-01T12:34:13Z</time>
      </trkpt>
      <trkpt lat="47.12948" lon="-1.77391">
        <ele>81</ele>
        <time>2022-01-01T12:34:15Z</time>
      </trkpt>
      <trkpt lat="47.12941" lon="-1.77407">
        <ele>81</ele>
        <time>2022-01-01T12:34:17Z</time>
      </trkpt>
      <trkpt lat="47.12934" lon="-1.77423">
        <ele>81</ele>
        <time>2022-01-01T12:34:19Z</time>
      </trkpt>
      <trkpt lat="47.12928" lon="-1.7744">
        <ele>81</ele>
        <time>2022-01-01T12:34:21Z</time>
      </trkpt>
      <trkpt lat="47.12923" lon="-1.77457">
        <ele>81</ele>
        <time>2022-01-01T12:34:23Z</time>
      </trkpt>
      <trkpt lat="47.12917" lon="-1.77474">
        <ele>81</ele>
        <time>2022-01-01T12:34:25Z</time>
      </trkpt>
      <trkpt lat="47.12913" lon="-1.77491">
        <ele>81</ele>
        <time>2022-01-01T12:34:27Z</time>
      </trkpt>
      <trkpt lat="47.12908" lon="-1.77508">
        <ele>81</ele>
        <time>2022-01-01T12:34:29Z</time>
      </trkpt>
      <trkpt lat="47.12903" lon="-1.77525">
        <ele>81</ele>
        <time>2022-01-01T12:34:31Z</time>
      </trkpt>
      <trkpt lat="47.12899" lon="-1.77541">
        <ele>81</ele>
        <time>2022-01-01T12:34:33Z</time>
      </trkpt>
      <trkpt lat="47.12894" lon="-1.77558">
        <ele>81</ele>
        <time>2022-01-01T12:34:35Z</time>
      </trkpt>
      <trkpt lat="47.12891" lon="-1.77575">
        <ele>81</ele>
        <time>2022-01-01T12:34:37Z</time>
      </trkpt>
      <trkpt lat="47.12886" lon="-1.77592">
        <ele>81</ele>
        <time>2022-01-01T12:34:39Z</time>
      </trkpt>
      <trkpt lat="47.12881" lon="-1.77609">
        <ele>82</ele>
        <time>2022-01-01T12:34:41Z</time>
      </trkpt>
      <trkpt lat="47.12877" lon="-1.77626">
        <ele>81</ele>
        <time>2022-01-01T12:34:43Z</time>
      </trkpt>
      <trkpt lat="47.12872" lon="-1.77643">
        <ele>81</ele>
        <time>2022-01-01T12:34:45Z</time>
      </trkpt>
      <trkpt lat="47.12869" lon="-1.77659">
        <ele>82</ele>
        <time>2022-01-01T12:34:47Z</time>
      </trkpt>
      <trkpt lat="47.12864" lon="-1.77676">
        <ele>82</ele>
        <time>2022-01-01T12:34:49Z</time>
      </trkpt>
      <trkpt lat="47.1286" lon="-1.77692">
        <ele>82</ele>
        <time>2022-01-01T12:34:51Z</time>
      </trkpt>
      <trkpt lat="47.12856" lon="-1.77709">
        <ele>81</ele>
        <time>2022-01-01T12:34:53Z</time>
      </trkpt>
      <trkpt lat="47.12851" lon="-1.77727">
        <ele>81</ele>
        <time>2022-01-01T12:34:55Z</time>
      </trkpt>
      <trkpt lat="47.12847" lon="-1.77745">
        <ele>82</ele>
        <time>2022-01-01T12:34:57Z</time>
      </trkpt>
      <trkpt lat="47.12842" lon="-1.77763">
        <ele>81</ele>
        <time>2022-01-01T12:34:59Z</time>
      </trkpt>
      <trkpt lat="47.12836" lon="-1.77779">
        <ele>81</ele>
        <time>2022-01-01T12:35:01Z</time>
      </trkpt>
      <trkpt lat="47.12831" lon="-1.77795">
        <ele>82</ele>
        <time>2022-01-01T12:35:03Z</time>
      </trkpt>
      <trkpt lat="47.12824" lon="-1.77811">
        <ele>82</ele>
        <time>2022-01-01T12:35:05Z</time>
      </trkpt>
      <trkpt lat="47.12818" lon="-1.77828">
        <ele>82</ele>
        <time>2022-01-01T12:35:07Z</time>
      </trkpt>
      <trkpt lat="47.12812" lon="-1.77845">
        <ele>82</ele>
        <time>2022-01-01T12:35:09Z</time>
      </trkpt>
      <trkpt lat="47.12805" lon="-1.77861">
        <ele>83</ele>
        <time>2022-01-01T12:35:11Z</time>
      </trkpt>
      <trkpt lat="47.128" lon="-1.77878">
        <ele>83</ele>
        <time>2022-01-01T12:35:13Z</time>
      </trkpt>
      <trkpt lat="47.12795" lon="-1.77895">
        <ele>83</ele>
        <time>2022-01-01T12:35:15Z</time>
      </trkpt>
      <trkpt lat="47.1279" lon="-1.77913">
        <ele>82</ele>
        <time>2022-01-01T12:35:17Z</time>
      </trkpt>
      <trkpt lat="47.12785" lon="-1.77931">
        <ele>82</ele>
        <time>2022-01-01T12:35:19Z</time>
      </trkpt>
      <trkpt lat="47.1278" lon="-1.77948">
        <ele>82</ele>
        <time>2022-01-01T12:35:21Z</time>
      </trkpt>
      <trkpt lat="47.12774" lon="-1.77966">
        <ele>82</ele>
        <time>2022-01-01T12:35:23Z</time>
      </trkpt>
      <trkpt lat="47.1277" lon="-1.77984">
        <ele>81</ele>
        <time>2022-01-01T12:35:25Z</time>
      </trkpt>
      <trkpt lat="47.12764" lon="-1.78001">
        <ele>81</ele>
        <time>2022-01-01T12:35:27Z</time>
      </trkpt>
      <trkpt lat="47.12759" lon="-1.78019">
        <ele>81</ele>
        <time>2022-01-01T12:35:29Z</time>
      </trkpt>
      <trkpt lat="47.12753" lon="-1.78036">
        <ele>81</ele>
        <time>2022-01-01T12:35:31Z</time>
      </trkpt>
      <trkpt lat="47.12745" lon="-1.78053">
        <ele>80</ele>
        <time>2022-01-01T12:35:33Z</time>
      </trkpt>
      <trkpt lat="47.12737" lon="-1.78067">
        <ele>80</ele>
        <time>2022-01-01T12:35:35Z</time>
      </trkpt>
      <trkpt lat="47.12727" lon="-1.78081">
        <ele>80</ele>
        <time>2022-01-01T12:35:37Z</time>
      </trkpt>
      <trkpt lat="47.12717" lon="-1.78095">
        <ele>80</ele>
        <time>2022-01-01T12:35:39Z</time>
      </trkpt>
      <trkpt lat="47.12708" lon="-1.78109">
        <ele>80</ele>
        <time>2022-01-01T12:35:41Z</time>
      </trkpt>
      <trkpt lat="47.12698" lon="-1.78122">
        <ele>80</ele>
        <time>2022-01-01T12:35:43Z</time>
      </trkpt>
      <trkpt lat="47.12689" lon="-1.78136">
        <ele>80</ele>
        <time>2022-01-01T12:35:45Z</time>
      </trkpt>
      <trkpt lat="47.12679" lon="-1.7815">
        <ele>81</ele>
        <time>2022-01-01T12:35:47Z</time>
      </trkpt>
      <trkpt lat="47.12669" lon="-1.78163">
        <ele>80</ele>
        <time>2022-01-01T12:35:49Z</time>
      </trkpt>
      <trkpt lat="47.12659" lon="-1.78176">
        <ele>80</ele>
        <time>2022-01-01T12:35:51Z</time>
      </trkpt>
      <trkpt lat="47.12649" lon="-1.7819">
        <ele>80</ele>
        <time>2022-01-01T12:35:53Z</time>
      </trkpt>
      <trkpt lat="47.1264" lon="-1.78204">
        <ele>80</ele>
        <time>2022-01-01T12:35:55Z</time>
      </trkpt>
      <trkpt lat="47.12631" lon="-1.78219">
        <ele>80</ele>
        <time>2022-01-01T12:35:57Z</time>
      </trkpt>
      <trkpt lat="47.12624" lon="-1.78235">
        <ele>80</ele>
        <time>2022-01-01T12:35:59Z</time>
      </trkpt>
      <trkpt lat="47.12619" lon="-1.78253">
        <ele>80</ele>
        <time>2022-01-01T12:36:01Z</time>
      </trkpt>
      <trkpt lat="47.12615" lon="-1.78272">
        <ele>80</ele>
        <time>2022-01-01T12:36:03Z</time>
      </trkpt>
      <trkpt lat="47.12611" lon="-1.7829">
        <ele>80</ele>
        <time>2022-01-01T12:36:05Z</time>
      </trkpt>
      <trkpt lat="47.12607" lon="-1.78309">
        <ele>80</ele>
        <time>2022-01-01T12:36:07Z</time>
      </trkpt>
      <trkpt lat="47.12602" lon="-1.78328">
        <ele>79</ele>
        <time>2022-01-01T12:36:09Z</time>
      </trkpt>
      <trkpt lat="47.12598" lon="-1.78347">
        <ele>79</ele>
        <time>2022-01-01T12:36:11Z</time>
      </trkpt>
      <trkpt lat="47.12593" lon="-1.78365">
        <ele>79</ele>
        <time>2022-01-01T12:36:13Z</time>
      </trkpt>
      <trkpt lat="47.12589" lon="-1.78385">
        <ele>79</ele>
        <time>2022-01-01T12:36:15Z</time>
      </trkpt>
      <trkpt lat="47.12584" lon="-1.78403">
        <ele>78</ele>
        <time>2022-01-01T12:36:17Z</time>
      </trkpt>
      <trkpt lat="47.1258" lon="-1.78422">
        <ele>78</ele>
        <time>2022-01-01T12:36:19Z</time>
      </trkpt>
      <trkpt lat="47.12576" lon="-1.78441">
        <ele>79</ele>
        <time>2022-01-01T12:36:21Z</time>
      </trkpt>
      <trkpt lat="47.12571" lon="-1.7846">
        <ele>78</ele>
        <time>2022-01-01T12:36:23Z</time>
      </trkpt>
      <trkpt lat="47.12567" lon="-1.78479">
        <ele>78</ele>
        <time>2022-01-01T12:36:25Z</time>
      </trkpt>
      <trkpt lat="47.12562" lon="-1.78498">
        <ele>78</ele>
        <time>2022-01-01T12:36:27Z</time>
      </trkpt>
      <trkpt lat="47.12558" lon="-1.78517">
        <ele>77</ele>
        <time>2022-01-01T12:36:29Z</time>
      </trkpt>
      <trkpt lat="47.12553" lon="-1.78536">
        <ele>77</ele>
        <time>2022-01-01T12:36:31Z</time>
      </trkpt>
      <trkpt lat="47.12549" lon="-1.78556">
        <ele>77</ele>
        <time>2022-01-01T12:36:33Z</time>
      </trkpt>
      <trkpt lat="47.12544" lon="-1.78575">
        <ele>76</ele>
        <time>2022-01-01T12:36:35Z</time>
      </trkpt>
      <trkpt lat="47.12539" lon="-1.78595">
        <ele>76</ele>
        <time>2022-01-01T12:36:37Z</time>
      </trkpt>
      <trkpt lat="47.12534" lon="-1.78614">
        <ele>76</ele>
        <time>2022-01-01T12:36:39Z</time>
      </trkpt>
      <trkpt lat="47.12528" lon="-1.78633">
        <ele>76</ele>
        <time>2022-01-01T12:36:41Z</time>
      </trkpt>
      <trkpt lat="47.12522" lon="-1.78651">
        <ele>76</ele>
        <time>2022-01-01T12:36:43Z</time>
      </trkpt>
      <trkpt lat="47.12516" lon="-1.78669">
        <ele>76</ele>
        <time>2022-01-01T12:36:45Z</time>
      </trkpt>
      <trkpt lat="47.12509" lon="-1.78687">
        <ele>76</ele>
        <time>2022-01-01T12:36:47Z</time>
      </trkpt>
      <trkpt lat="47.12502" lon="-1.78705">
        <ele>75</ele>
        <time>2022-01-01T12:36:49Z</time>
      </trkpt>
      <trkpt lat="47.12497" lon="-1.78724">
        <ele>75</ele>
        <time>2022-01-01T12:36:51Z</time>
      </trkpt>
      <trkpt lat="47.12492" lon="-1.78743">
        <ele>76</ele>
        <time>2022-01-01T12:36:53Z</time>
      </trkpt>
      <trkpt lat="47.12487" lon="-1.78761">
        <ele>76</ele>
        <time>2022-01-01T12:36:55Z</time>
      </trkpt>
      <trkpt lat="47.12483" lon="-1.7878">
        <ele>76</ele>
        <time>2022-01-01T12:36:57Z</time>
      </trkpt>
      <trkpt lat="47.12479" lon="-1.78799">
        <ele>76</ele>
        <time>2022-01-01T12:36:59Z</time>
      </trkpt>
      <trkpt lat="47.12473" lon="-1.78827">
        <ele>76</ele>
        <time>2022-01-01T12:37:02Z</time>
      </trkpt>
      <trkpt lat="47.1247" lon="-1.78846">
        <ele>75</ele>
        <time>2022-01-01T12:37:04Z</time>
      </trkpt>
      <trkpt lat="47.12468" lon="-1.78866">
        <ele>75</ele>
        <time>2022-01-01T12:37:06Z</time>
      </trkpt>
      <trkpt lat="47.12467" lon="-1.78895">
        <ele>75</ele>
        <time>2022-01-01T12:37:09Z</time>
      </trkpt>
      <trkpt lat="47.12465" lon="-1.78915">
        <ele>75</ele>
        <time>2022-01-01T12:37:11Z</time>
      </trkpt>
      <trkpt lat="47.12461" lon="-1.78934">
        <ele>76</ele>
        <time>2022-01-01T12:37:13Z</time>
      </trkpt>
      <trkpt lat="47.12454" lon="-1.78963">
        <ele>75</ele>
        <time>2022-01-01T12:37:16Z</time>
      </trkpt>
      <trkpt lat="47.12447" lon="-1.78991">
        <ele>75</ele>
        <time>2022-01-01T12:37:19Z</time>
      </trkpt>
      <trkpt lat="47.12442" lon="-1.79008">
        <ele>75</ele>
        <time>2022-01-01T12:37:21Z</time>
      </trkpt>
      <trkpt lat="47.12438" lon="-1.79026">
        <ele>75</ele>
        <time>2022-01-01T12:37:23Z</time>
      </trkpt>
      <trkpt lat="47.12433" lon="-1.79044">
        <ele>75</ele>
        <time>2022-01-01T12:37:25Z</time>
      </trkpt>
      <trkpt lat="47.12428" lon="-1.79071">
        <ele>75</ele>
        <time>2022-01-01T12:37:28Z</time>
      </trkpt>
      <trkpt lat="47.12422" lon="-1.79098">
        <ele>75</ele>
        <time>2022-01-01T12:37:31Z</time>
      </trkpt>
      <trkpt lat="47.12419" lon="-1.79117">
        <ele>75</ele>
        <time>2022-01-01T12:37:33Z</time>
      </trkpt>
      <trkpt lat="47.12418" lon="-1.79135">
        <ele>75</ele>
        <time>2022-01-01T12:37:35Z</time>
      </trkpt>
      <trkpt lat="47.12418" lon="-1.79154">
        <ele>75</ele>
        <time>2022-01-01T12:37:37Z</time>
      </trkpt>
      <trkpt lat="47.12419" lon="-1.79174">
        <ele>75</ele>
        <time>2022-01-01T12:37:39Z</time>
      </trkpt>
      <trkpt lat="47.12421" lon="-1.79192">
        <ele>75</ele>
        <time>2022-01-01T12:37:41Z</time>
      </trkpt>
      <trkpt lat="47.12423" lon="-1.79212">
        <ele>74</ele>
        <time>2022-01-01T12:37:43Z</time>
      </trkpt>
      <trkpt lat="47.12424" lon="-1.79231">
        <ele>74</ele>
        <time>2022-01-01T12:37:45Z</time>
      </trkpt>
      <trkpt lat="47.12424" lon="-1.7925">
        <ele>74</ele>
        <time>2022-01-01T12:37:47Z</time>
      </trkpt>
      <trkpt lat="47.12421" lon="-1.79269">
        <ele>74</ele>
        <time>2022-01-01T12:37:49Z</time>
      </trkpt>
      <trkpt lat="47.12415" lon="-1.79286">
        <ele>74</ele>
        <time>2022-01-01T12:37:51Z</time>
      </trkpt>
      <trkpt lat="47.12408" lon="-1.79303">
        <ele>74</ele>
        <time>2022-01-01T12:37:53Z</time>
      </trkpt>
      <trkpt lat="47.12401" lon="-1.79319">
        <ele>74</ele>
        <time>2022-01-01T12:37:55Z</time>
      </trkpt>
      <trkpt lat="47.12393" lon="-1.79335">
        <ele>74</ele>
        <time>2022-01-01T12:37:57Z</time>
      </trkpt>
      <trkpt lat="47.12386" lon="-1.7935">
        <ele>74</ele>
        <time>2022-01-01T12:37:59Z</time>
      </trkpt>
      <trkpt lat="47.12379" lon="-1.79365">
        <ele>74</ele>
        <time>2022-01-01T12:38:01Z</time>
      </trkpt>
      <trkpt lat="47.12372" lon="-1.79381">
        <ele>74</ele>
        <time>2022-01-01T12:38:03Z</time>
      </trkpt>
      <trkpt lat="47.12365" lon="-1.79397">
        <ele>74</ele>
        <time>2022-01-01T12:38:05Z</time>
      </trkpt>
      <trkpt lat="47.12359" lon="-1.79414">
        <ele>74</ele>
        <time>2022-01-01T12:38:07Z</time>
      </trkpt>
      <trkpt lat="47.12354" lon="-1.79432">
        <ele>74</ele>
        <time>2022-01-01T12:38:09Z</time>
      </trkpt>
      <trkpt lat="47.1235" lon="-1.7945">
        <ele>74</ele>
        <time>2022-01-01T12:38:11Z</time>
      </trkpt>
      <trkpt lat="47.12346" lon="-1.79469">
        <ele>74</ele>
        <time>2022-01-01T12:38:13Z</time>
      </trkpt>
      <trkpt lat="47.12344" lon="-1.79488">
        <ele>74</ele>
        <time>2022-01-01T12:38:15Z</time>
      </trkpt>
      <trkpt lat="47.12341" lon="-1.79507">
        <ele>74</ele>
        <time>2022-01-01T12:38:17Z</time>
      </trkpt>
      <trkpt lat="47.12339" lon="-1.79526">
        <ele>74</ele>
        <time>2022-01-01T12:38:19Z</time>
      </trkpt>
      <trkpt lat="47.12336" lon="-1.79544">
        <ele>74</ele>
        <time>2022-01-01T12:38:21Z</time>
      </trkpt>
      <trkpt lat="47.12332" lon="-1.79563">
        <ele>74</ele>
        <time>2022-01-01T12:38:23Z</time>
      </trkpt>
      <trkpt lat="47.12327" lon="-1.7958">
        <ele>74</ele>
        <time>2022-01-01T12:38:25Z</time>
      </trkpt>
      <trkpt lat="47.12318" lon="-1.79592">
        <ele>75</ele>
        <time>2022-01-01T12:38:27Z</time>
      </trkpt>
      <trkpt lat="47.12305" lon="-1.79596">
        <ele>75</ele>
        <time>2022-01-01T12:38:29Z</time>
      </trkpt>
      <trkpt lat="47.12293" lon="-1.79597">
        <ele>75</ele>
        <time>2022-01-01T12:38:31Z</time>
      </trkpt>
      <trkpt lat="47.1228" lon="-1.79596">
        <ele>74</ele>
        <time>2022-01-01T12:38:33Z</time>
      </trkpt>
      <trkpt lat="47.12268" lon="-1.79595">
        <ele>74</ele>
        <time>2022-01-01T12:38:35Z</time>
      </trkpt>
      <trkpt lat="47.12255" lon="-1.79595">
        <ele>74</ele>
        <time>2022-01-01T12:38:37Z</time>
      </trkpt>
      <trkpt lat="47.12243" lon="-1.79595">
        <ele>74</ele>
        <time>2022-01-01T12:38:39Z</time>
      </trkpt>
      <trkpt lat="47.1223" lon="-1.79595">
        <ele>74</ele>
        <time>2022-01-01T12:38:41Z</time>
      </trkpt>
      <trkpt lat="47.12218" lon="-1.79595">
        <ele>74</ele>
        <time>2022-01-01T12:38:43Z</time>
      </trkpt>
      <trkpt lat="47.12205" lon="-1.79594">
        <ele>73</ele>
        <time>2022-01-01T12:38:45Z</time>
      </trkpt>
      <trkpt lat="47.12193" lon="-1.79594">
        <ele>73</ele>
        <time>2022-01-01T12:38:47Z</time>
      </trkpt>
      <trkpt lat="47.1218" lon="-1.79594">
        <ele>73</ele>
        <time>2022-01-01T12:38:49Z</time>
      </trkpt>
      <trkpt lat="47.12168" lon="-1.79593">
        <ele>73</ele>
        <time>2022-01-01T12:38:51Z</time>
      </trkpt>
      <trkpt lat="47.12155" lon="-1.79593">
        <ele>72</ele>
        <time>2022-01-01T12:38:53Z</time>
      </trkpt>
      <trkpt lat="47.12142" lon="-1.79594">
        <ele>72</ele>
        <time>2022-01-01T12:38:55Z</time>
      </trkpt>
      <trkpt lat="47.12128" lon="-1.79595">
        <ele>72</ele>
        <time>2022-01-01T12:38:57Z</time>
      </trkpt>
      <trkpt lat="47.12115" lon="-1.79597">
        <ele>71</ele>
        <time>2022-01-01T12:38:59Z</time>
      </trkpt>
      <trkpt lat="47.12102" lon="-1.79599">
        <ele>71</ele>
        <time>2022-01-01T12:39:01Z</time>
      </trkpt>
      <trkpt lat="47.12089" lon="-1.79605">
        <ele>71</ele>
        <time>2022-01-01T12:39:03Z</time>
      </trkpt>
      <trkpt lat="47.12077" lon="-1.79615">
        <ele>71</ele>
        <time>2022-01-01T12:39:05Z</time>
      </trkpt>
      <trkpt lat="47.12065" lon="-1.79627">
        <ele>71</ele>
        <time>2022-01-01T12:39:07Z</time>
      </trkpt>
      <trkpt lat="47.12054" lon="-1.79639">
        <ele>71</ele>
        <time>2022-01-01T12:39:09Z</time>
      </trkpt>
      <trkpt lat="47.12043" lon="-1.7965">
        <ele>71</ele>
        <time>2022-01-01T12:39:11Z</time>
      </trkpt>
      <trkpt lat="47.12031" lon="-1.79662">
        <ele>71</ele>
        <time>2022-01-01T12:39:13Z</time>
      </trkpt>
      <trkpt lat="47.1202" lon="-1.79673">
        <ele>71</ele>
        <time>2022-01-01T12:39:15Z</time>
      </trkpt>
      <trkpt lat="47.12008" lon="-1.79685">
        <ele>71</ele>
        <time>2022-01-01T12:39:17Z</time>
      </trkpt>
      <trkpt lat="47.11997" lon="-1.79696">
        <ele>71</ele>
        <time>2022-01-01T12:39:19Z</time>
      </trkpt>
      <trkpt lat="47.11986" lon="-1.79708">
        <ele>71</ele>
        <time>2022-01-01T12:39:21Z</time>
      </trkpt>
      <trkpt lat="47.11975" lon="-1.79719">
        <ele>71</ele>
        <time>2022-01-01T12:39:23Z</time>
      </trkpt>
      <trkpt lat="47.11964" lon="-1.79731">
        <ele>70</ele>
        <time>2022-01-01T12:39:25Z</time>
      </trkpt>
      <trkpt lat="47.11955" lon="-1.79744">
        <ele>70</ele>
        <time>2022-01-01T12:39:27Z</time>
      </trkpt>
      <trkpt lat="47.11945" lon="-1.79757">
        <ele>71</ele>
        <time>2022-01-01T12:39:29Z</time>
      </trkpt>
      <trkpt lat="47.11935" lon="-1.7977">
        <ele>71</ele>
        <time>2022-01-01T12:39:31Z</time>
      </trkpt>
      <trkpt lat="47.11924" lon="-1.79783">
        <ele>71</ele>
        <time>2022-01-01T12:39:33Z</time>
      </trkpt>
      <trkpt lat="47.11914" lon="-1.79796">
        <ele>71</ele>
        <time>2022-01-01T12:39:35Z</time>
      </trkpt>
      <trkpt lat="47.11904" lon="-1.79809">
        <ele>71</ele>
        <time>2022-01-01T12:39:37Z</time>
      </trkpt>
      <trkpt lat="47.11893" lon="-1.79822">
        <ele>71</ele>
        <time>2022-01-01T12:39:39Z</time>
      </trkpt>
      <trkpt lat="47.11883" lon="-1.79834">
        <ele>71</ele>
        <time>2022-01-01T12:39:41Z</time>
      </trkpt>
      <trkpt lat="47.11872" lon="-1.79846">
        <ele>71</ele>
        <time>2022-01-01T12:39:43Z</time>
      </trkpt>
      <trkpt lat="47.11861" lon="-1.79857">
        <ele>70</ele>
        <time>2022-01-01T12:39:45Z</time>
      </trkpt>
      <trkpt lat="47.1185" lon="-1.79869">
        <ele>70</ele>
        <time>2022-01-01T12:39:47Z</time>
      </trkpt>
      <trkpt lat="47.11839" lon="-1.79881">
        <ele>70</ele>
        <time>2022-01-01T12:39:49Z</time>
      </trkpt>
      <trkpt lat="47.11828" lon="-1.79892">
        <ele>70</ele>
        <time>2022-01-01T12:39:51Z</time>
      </trkpt>
      <trkpt lat="47.11818" lon="-1.79903">
        <ele>70</ele>
        <time>2022-01-01T12:39:53Z</time>
      </trkpt>
      <trkpt lat="47.11808" lon="-1.79915">
        <ele>70</ele>
        <time>2022-01-01T12:39:55Z</time>
      </trkpt>
      <trkpt lat="47.11798" lon="-1.79926">
        <ele>70</ele>
        <time>2022-01-01T12:39:57Z</time>
      </trkpt>
      <trkpt lat="47.11788" lon="-1.79936">
        <ele>70</ele>
        <time>2022-01-01T12:39:59Z</time>
      </trkpt>
      <trkpt lat="47.11779" lon="-1.79946">
        <ele>70</ele>
        <time>2022-01-01T12:40:01Z</time>
      </trkpt>
      <trkpt lat="47.11771" lon="-1.79954">
        <ele>70</ele>
        <time>2022-01-01T12:40:03Z</time>
      </trkpt>
      <trkpt lat="47.11765" lon="-1.79963">
        <ele>70</ele>
        <time>2022-01-01T12:40:06Z</time>
      </trkpt>
      <trkpt lat="47.11758" lon="-1.79975">
        <ele>71</ele>
        <time>2022-01-01T12:40:12Z</time>
      </trkpt>
      <trkpt lat="47.11748" lon="-1.79977">
        <ele>71</ele>
        <time>2022-01-01T12:40:14Z</time>
      </trkpt>
      <trkpt lat="47.11736" lon="-1.79976">
        <ele>72</ele>
        <time>2022-01-01T12:40:16Z</time>
      </trkpt>
      <trkpt lat="47.11723" lon="-1.79974">
        <ele>72</ele>
        <time>2022-01-01T12:40:18Z</time>
      </trkpt>
      <trkpt lat="47.1171" lon="-1.79972">
        <ele>71</ele>
        <time>2022-01-01T12:40:20Z</time>
      </trkpt>
      <trkpt lat="47.11697" lon="-1.7997">
        <ele>71</ele>
        <time>2022-01-01T12:40:22Z</time>
      </trkpt>
      <trkpt lat="47.11685" lon="-1.79968">
        <ele>70</ele>
        <time>2022-01-01T12:40:24Z</time>
      </trkpt>
      <trkpt lat="47.11672" lon="-1.79966">
        <ele>70</ele>
        <time>2022-01-01T12:40:26Z</time>
      </trkpt>
      <trkpt lat="47.1166" lon="-1.79964">
        <ele>70</ele>
        <time>2022-01-01T12:40:28Z</time>
      </trkpt>
      <trkpt lat="47.11648" lon="-1.79963">
        <ele>69</ele>
        <time>2022-01-01T12:40:30Z</time>
      </trkpt>
      <trkpt lat="47.11636" lon="-1.79961">
        <ele>69</ele>
        <time>2022-01-01T12:40:32Z</time>
      </trkpt>
      <trkpt lat="47.11623" lon="-1.79958">
        <ele>68</ele>
        <time>2022-01-01T12:40:34Z</time>
      </trkpt>
      <trkpt lat="47.11611" lon="-1.79956">
        <ele>68</ele>
        <time>2022-01-01T12:40:36Z</time>
      </trkpt>
      <trkpt lat="47.11599" lon="-1.79954">
        <ele>68</ele>
        <time>2022-01-01T12:40:38Z</time>
      </trkpt>
      <trkpt lat="47.11586" lon="-1.79953">
        <ele>67</ele>
        <time>2022-01-01T12:40:40Z</time>
      </trkpt>
      <trkpt lat="47.11573" lon="-1.79952">
        <ele>66</ele>
        <time>2022-01-01T12:40:42Z</time>
      </trkpt>
      <trkpt lat="47.11561" lon="-1.79955">
        <ele>66</ele>
        <time>2022-01-01T12:40:44Z</time>
      </trkpt>
      <trkpt lat="47.11549" lon="-1.7996">
        <ele>66</ele>
        <time>2022-01-01T12:40:46Z</time>
      </trkpt>
      <trkpt lat="47.11537" lon="-1.79967">
        <ele>67</ele>
        <time>2022-01-01T12:40:48Z</time>
      </trkpt>
      <trkpt lat="47.11526" lon="-1.79977">
        <ele>67</ele>
        <time>2022-01-01T12:40:50Z</time>
      </trkpt>
      <trkpt lat="47.11516" lon="-1.79988">
        <ele>67</ele>
        <time>2022-01-01T12:40:52Z</time>
      </trkpt>
      <trkpt lat="47.11507" lon="-1.80001">
        <ele>67</ele>
        <time>2022-01-01T12:40:54Z</time>
      </trkpt>
      <trkpt lat="47.11497" lon="-1.80014">
        <ele>67</ele>
        <time>2022-01-01T12:40:56Z</time>
      </trkpt>
      <trkpt lat="47.11488" lon="-1.80027">
        <ele>67</ele>
        <time>2022-01-01T12:40:58Z</time>
      </trkpt>
      <trkpt lat="47.11478" lon="-1.80039">
        <ele>67</ele>
        <time>2022-01-01T12:41:00Z</time>
      </trkpt>
      <trkpt lat="47.11469" lon="-1.80052">
        <ele>67</ele>
        <time>2022-01-01T12:41:02Z</time>
      </trkpt>
      <trkpt lat="47.11459" lon="-1.80065">
        <ele>67</ele>
        <time>2022-01-01T12:41:04Z</time>
      </trkpt>
      <trkpt lat="47.11449" lon="-1.80079">
        <ele>67</ele>
        <time>2022-01-01T12:41:06Z</time>
      </trkpt>
      <trkpt lat="47.11439" lon="-1.80092">
        <ele>67</ele>
        <time>2022-01-01T12:41:08Z</time>
      </trkpt>
      <trkpt lat="47.11428" lon="-1.80105">
        <ele>66</ele>
        <time>2022-01-01T12:41:10Z</time>
      </trkpt>
      <trkpt lat="47.11418" lon="-1.80119">
        <ele>66</ele>
        <time>2022-01-01T12:41:12Z</time>
      </trkpt>
      <trkpt lat="47.11408" lon="-1.80132">
        <ele>66</ele>
        <time>2022-01-01T12:41:14Z</time>
      </trkpt>
      <trkpt lat="47.11398" lon="-1.80146">
        <ele>66</ele>
        <time>2022-01-01T12:41:16Z</time>
      </trkpt>
      <trkpt lat="47.11388" lon="-1.8016">
        <ele>66</ele>
        <time>2022-01-01T12:41:18Z</time>
      </trkpt>
      <trkpt lat="47.11377" lon="-1.80174">
        <ele>66</ele>
        <time>2022-01-01T12:41:20Z</time>
      </trkpt>
      <trkpt lat="47.11366" lon="-1.80188">
        <ele>65</ele>
        <time>2022-01-01T12:41:22Z</time>
      </trkpt>
      <trkpt lat="47.11355" lon="-1.80202">
        <ele>65</ele>
        <time>2022-01-01T12:41:24Z</time>
      </trkpt>
      <trkpt lat="47.11345" lon="-1.80216">
        <ele>65</ele>
        <time>2022-01-01T12:41:26Z</time>
      </trkpt>
      <trkpt lat="47.11334" lon="-1.80231">
        <ele>65</ele>
        <time>2022-01-01T12:41:28Z</time>
      </trkpt>
      <trkpt lat="47.11324" lon="-1.80246">
        <ele>64</ele>
        <time>2022-01-01T12:41:30Z</time>
      </trkpt>
      <trkpt lat="47.11314" lon="-1.80262">
        <ele>64</ele>
        <time>2022-01-01T12:41:32Z</time>
      </trkpt>
      <trkpt lat="47.11304" lon="-1.80275">
        <ele>64</ele>
        <time>2022-01-01T12:41:34Z</time>
      </trkpt>
      <trkpt lat="47.11294" lon="-1.80289">
        <ele>63</ele>
        <time>2022-01-01T12:41:36Z</time>
      </trkpt>
      <trkpt lat="47.11283" lon="-1.80304">
        <ele>63</ele>
        <time>2022-01-01T12:41:38Z</time>
      </trkpt>
      <trkpt lat="47.11273" lon="-1.8032">
        <ele>63</ele>
        <time>2022-01-01T12:41:40Z</time>
      </trkpt>
      <trkpt lat="47.11262" lon="-1.80333">
        <ele>63</ele>
        <time>2022-01-01T12:41:42Z</time>
      </trkpt>
      <trkpt lat="47.11252" lon="-1.80347">
        <ele>63</ele>
        <time>2022-01-01T12:41:44Z</time>
      </trkpt>
      <trkpt lat="47.11242" lon="-1.8036">
        <ele>63</ele>
        <time>2022-01-01T12:41:46Z</time>
      </trkpt>
      <trkpt lat="47.11232" lon="-1.80373">
        <ele>63</ele>
        <time>2022-01-01T12:41:48Z</time>
      </trkpt>
      <trkpt lat="47.11222" lon="-1.80385">
        <ele>64</ele>
        <time>2022-01-01T12:41:50Z</time>
      </trkpt>
      <trkpt lat="47.11211" lon="-1.80397">
        <ele>64</ele>
        <time>2022-01-01T12:41:52Z</time>
      </trkpt>
      <trkpt lat="47.112" lon="-1.8041">
        <ele>64</ele>
        <time>2022-01-01T12:41:54Z</time>
      </trkpt>
      <trkpt lat="47.11188" lon="-1.80421">
        <ele>64</ele>
        <time>2022-01-01T12:41:56Z</time>
      </trkpt>
      <trkpt lat="47.11176" lon="-1.80431">
        <ele>64</ele>
        <time>2022-01-01T12:41:58Z</time>
      </trkpt>
      <trkpt lat="47.11163" lon="-1.8044">
        <ele>64</ele>
        <time>2022-01-01T12:42:00Z</time>
      </trkpt>
      <trkpt lat="47.11152" lon="-1.80448">
        <ele>64</ele>
        <time>2022-01-01T12:42:02Z</time>
      </trkpt>
      <trkpt lat="47.1114" lon="-1.80456">
        <ele>64</ele>
        <time>2022-01-01T12:42:04Z</time>
      </trkpt>
      <trkpt lat="47.11128" lon="-1.80465">
        <ele>64</ele>
        <time>2022-01-01T12:42:06Z</time>
      </trkpt>
      <trkpt lat="47.11116" lon="-1.80473">
        <ele>64</ele>
        <time>2022-01-01T12:42:08Z</time>
      </trkpt>
      <trkpt lat="47.11104" lon="-1.80481">
        <ele>64</ele>
        <time>2022-01-01T12:42:10Z</time>
      </trkpt>
      <trkpt lat="47.11092" lon="-1.80488">
        <ele>63</ele>
        <time>2022-01-01T12:42:12Z</time>
      </trkpt>
      <trkpt lat="47.11081" lon="-1.80496">
        <ele>64</ele>
        <time>2022-01-01T12:42:14Z</time>
      </trkpt>
      <trkpt lat="47.11069" lon="-1.80503">
        <ele>64</ele>
        <time>2022-01-01T12:42:16Z</time>
      </trkpt>
      <trkpt lat="47.11058" lon="-1.8051">
        <ele>64</ele>
        <time>2022-01-01T12:42:18Z</time>
      </trkpt>
      <trkpt lat="47.11047" lon="-1.80518">
        <ele>64</ele>
        <time>2022-01-01T12:42:20Z</time>
      </trkpt>
      <trkpt lat="47.11035" lon="-1.80526">
        <ele>64</ele>
        <time>2022-01-01T12:42:22Z</time>
      </trkpt>
      <trkpt lat="47.11024" lon="-1.80533">
        <ele>64</ele>
        <time>2022-01-01T12:42:24Z</time>
      </trkpt>
      <trkpt lat="47.11012" lon="-1.80541">
        <ele>64</ele>
        <time>2022-01-01T12:42:26Z</time>
      </trkpt>
      <trkpt lat="47.11" lon="-1.80548">
        <ele>64</ele>
        <time>2022-01-01T12:42:28Z</time>
      </trkpt>
      <trkpt lat="47.10989" lon="-1.80556">
        <ele>64</ele>
        <time>2022-01-01T12:42:30Z</time>
      </trkpt>
      <trkpt lat="47.10978" lon="-1.80564">
        <ele>64</ele>
        <time>2022-01-01T12:42:32Z</time>
      </trkpt>
      <trkpt lat="47.10966" lon="-1.80572">
        <ele>63</ele>
        <time>2022-01-01T12:42:34Z</time>
      </trkpt>
      <trkpt lat="47.10954" lon="-1.80579">
        <ele>63</ele>
        <time>2022-01-01T12:42:36Z</time>
      </trkpt>
      <trkpt lat="47.10942" lon="-1.80587">
        <ele>63</ele>
        <time>2022-01-01T12:42:38Z</time>
      </trkpt>
      <trkpt lat="47.1093" lon="-1.80595">
        <ele>63</ele>
        <time>2022-01-01T12:42:40Z</time>
      </trkpt>
      <trkpt lat="47.10918" lon="-1.80603">
        <ele>63</ele>
        <time>2022-01-01T12:42:42Z</time>
      </trkpt>
      <trkpt lat="47.10906" lon="-1.8061">
        <ele>63</ele>
        <time>2022-01-01T12:42:44Z</time>
      </trkpt>
      <trkpt lat="47.10894" lon="-1.80618">
        <ele>62</ele>
        <time>2022-01-01T12:42:46Z</time>
      </trkpt>
      <trkpt lat="47.10882" lon="-1.80626">
        <ele>62</ele>
        <time>2022-01-01T12:42:48Z</time>
      </trkpt>
      <trkpt lat="47.10871" lon="-1.80633">
        <ele>63</ele>
        <time>2022-01-01T12:42:50Z</time>
      </trkpt>
      <trkpt lat="47.10859" lon="-1.80638">
        <ele>63</ele>
        <time>2022-01-01T12:42:52Z</time>
      </trkpt>
      <trkpt lat="47.10848" lon="-1.80643">
        <ele>63</ele>
        <time>2022-01-01T12:42:54Z</time>
      </trkpt>
      <trkpt lat="47.10836" lon="-1.80648">
        <ele>63</ele>
        <time>2022-01-01T12:42:56Z</time>
      </trkpt>
      <trkpt lat="47.10823" lon="-1.80652">
        <ele>63</ele>
        <time>2022-01-01T12:42:58Z</time>
      </trkpt>
      <trkpt lat="47.10809" lon="-1.80657">
        <ele>62</ele>
        <time>2022-01-01T12:43:00Z</time>
      </trkpt>
      <trkpt lat="47.10796" lon="-1.80663">
        <ele>62</ele>
        <time>2022-01-01T12:43:02Z</time>
      </trkpt>
      <trkpt lat="47.10783" lon="-1.80668">
        <ele>62</ele>
        <time>2022-01-01T12:43:04Z</time>
      </trkpt>
      <trkpt lat="47.1077" lon="-1.80672">
        <ele>62</ele>
        <time>2022-01-01T12:43:06Z</time>
      </trkpt>
      <trkpt lat="47.10757" lon="-1.80676">
        <ele>62</ele>
        <time>2022-01-01T12:43:08Z</time>
      </trkpt>
      <trkpt lat="47.10744" lon="-1.80679">
        <ele>62</ele>
        <time>2022-01-01T12:43:10Z</time>
      </trkpt>
      <trkpt lat="47.10731" lon="-1.80682">
        <ele>61</ele>
        <time>2022-01-01T12:43:12Z</time>
      </trkpt>
      <trkpt lat="47.10718" lon="-1.80684">
        <ele>61</ele>
        <time>2022-01-01T12:43:14Z</time>
      </trkpt>
      <trkpt lat="47.10705" lon="-1.80686">
        <ele>61</ele>
        <time>2022-01-01T12:43:16Z</time>
      </trkpt>
      <trkpt lat="47.10692" lon="-1.80687">
        <ele>61</ele>
        <time>2022-01-01T12:43:18Z</time>
      </trkpt>
      <trkpt lat="47.10679" lon="-1.80688">
        <ele>61</ele>
        <time>2022-01-01T12:43:20Z</time>
      </trkpt>
      <trkpt lat="47.10667" lon="-1.80689">
        <ele>61</ele>
        <time>2022-01-01T12:43:22Z</time>
      </trkpt>
      <trkpt lat="47.10654" lon="-1.8069">
        <ele>62</ele>
        <time>2022-01-01T12:43:24Z</time>
      </trkpt>
      <trkpt lat="47.10642" lon="-1.80692">
        <ele>61</ele>
        <time>2022-01-01T12:43:26Z</time>
      </trkpt>
      <trkpt lat="47.10629" lon="-1.80695">
        <ele>61</ele>
        <time>2022-01-01T12:43:28Z</time>
      </trkpt>
      <trkpt lat="47.10617" lon="-1.80699">
        <ele>62</ele>
        <time>2022-01-01T12:43:30Z</time>
      </trkpt>
      <trkpt lat="47.10604" lon="-1.80704">
        <ele>61</ele>
        <time>2022-01-01T12:43:32Z</time>
      </trkpt>
      <trkpt lat="47.10592" lon="-1.8071">
        <ele>61</ele>
        <time>2022-01-01T12:43:34Z</time>
      </trkpt>
      <trkpt lat="47.1058" lon="-1.80719">
        <ele>61</ele>
        <time>2022-01-01T12:43:36Z</time>
      </trkpt>
      <trkpt lat="47.1057" lon="-1.80729">
        <ele>61</ele>
        <time>2022-01-01T12:43:38Z</time>
      </trkpt>
      <trkpt lat="47.10559" lon="-1.80741">
        <ele>60</ele>
        <time>2022-01-01T12:43:40Z</time>
      </trkpt>
      <trkpt lat="47.10549" lon="-1.80753">
        <ele>60</ele>
        <time>2022-01-01T12:43:42Z</time>
      </trkpt>
      <trkpt lat="47.10539" lon="-1.80765">
        <ele>60</ele>
        <time>2022-01-01T12:43:44Z</time>
      </trkpt>
      <trkpt lat="47.10529" lon="-1.80777">
        <ele>60</ele>
        <time>2022-01-01T12:43:46Z</time>
      </trkpt>
      <trkpt lat="47.1052" lon="-1.8079">
        <ele>59</ele>
        <time>2022-01-01T12:43:48Z</time>
      </trkpt>
      <trkpt lat="47.1051" lon="-1.80804">
        <ele>59</ele>
        <time>2022-01-01T12:43:50Z</time>
      </trkpt>
      <trkpt lat="47.10498" lon="-1.80813">
        <ele>58</ele>
        <time>2022-01-01T12:43:52Z</time>
      </trkpt>
      <trkpt lat="47.10486" lon="-1.80822">
        <ele>58</ele>
        <time>2022-01-01T12:43:54Z</time>
      </trkpt>
      <trkpt lat="47.10476" lon="-1.80836">
        <ele>58</ele>
        <time>2022-01-01T12:43:56Z</time>
      </trkpt>
      <trkpt lat="47.10467" lon="-1.8085">
        <ele>58</ele>
        <time>2022-01-01T12:43:58Z</time>
      </trkpt>
      <trkpt lat="47.10459" lon="-1.80865">
        <ele>59</ele>
        <time>2022-01-01T12:44:00Z</time>
      </trkpt>
      <trkpt lat="47.10451" lon="-1.80878">
        <ele>59</ele>
        <time>2022-01-01T12:44:02Z</time>
      </trkpt>
      <trkpt lat="47.10442" lon="-1.80892">
        <ele>59</ele>
        <time>2022-01-01T12:44:04Z</time>
      </trkpt>
      <trkpt lat="47.10433" lon="-1.80905">
        <ele>59</ele>
        <time>2022-01-01T12:44:06Z</time>
      </trkpt>
      <trkpt lat="47.10425" lon="-1.80917">
        <ele>59</ele>
        <time>2022-01-01T12:44:08Z</time>
      </trkpt>
      <trkpt lat="47.10417" lon="-1.8093">
        <ele>59</ele>
        <time>2022-01-01T12:44:10Z</time>
      </trkpt>
      <trkpt lat="47.10409" lon="-1.80944">
        <ele>59</ele>
        <time>2022-01-01T12:44:12Z</time>
      </trkpt>
      <trkpt lat="47.10402" lon="-1.80957">
        <ele>59</ele>
        <time>2022-01-01T12:44:14Z</time>
      </trkpt>
      <trkpt lat="47.10394" lon="-1.8097">
        <ele>59</ele>
        <time>2022-01-01T12:44:16Z</time>
      </trkpt>
      <trkpt lat="47.10388" lon="-1.8098">
        <ele>59</ele>
        <time>2022-01-01T12:44:18Z</time>
      </trkpt>
      <trkpt lat="47.10378" lon="-1.80995">
        <ele>60</ele>
        <time>2022-01-01T12:44:21Z</time>
      </trkpt>
      <trkpt lat="47.10372" lon="-1.81009">
        <ele>60</ele>
        <time>2022-01-01T12:44:23Z</time>
      </trkpt>
      <trkpt lat="47.10368" lon="-1.81023">
        <ele>61</ele>
        <time>2022-01-01T12:44:25Z</time>
      </trkpt>
      <trkpt lat="47.10362" lon="-1.81036">
        <ele>61</ele>
        <time>2022-01-01T12:44:27Z</time>
      </trkpt>
      <trkpt lat="47.1035" lon="-1.8104">
        <ele>61</ele>
        <time>2022-01-01T12:44:30Z</time>
      </trkpt>
      <trkpt lat="47.10342" lon="-1.81027">
        <ele>61</ele>
        <time>2022-01-01T12:44:32Z</time>
      </trkpt>
      <trkpt lat="47.10332" lon="-1.81015">
        <ele>61</ele>
        <time>2022-01-01T12:44:34Z</time>
      </trkpt>
      <trkpt lat="47.10319" lon="-1.8101">
        <ele>61</ele>
        <time>2022-01-01T12:44:36Z</time>
      </trkpt>
      <trkpt lat="47.10306" lon="-1.81009">
        <ele>62</ele>
        <time>2022-01-01T12:44:38Z</time>
      </trkpt>
      <trkpt lat="47.10292" lon="-1.81008">
        <ele>61</ele>
        <time>2022-01-01T12:44:40Z</time>
      </trkpt>
      <trkpt lat="47.10278" lon="-1.81006">
        <ele>61</ele>
        <time>2022-01-01T12:44:42Z</time>
      </trkpt>
      <trkpt lat="47.10264" lon="-1.81007">
        <ele>60</ele>
        <time>2022-01-01T12:44:44Z</time>
      </trkpt>
      <trkpt lat="47.1025" lon="-1.81008">
        <ele>60</ele>
        <time>2022-01-01T12:44:46Z</time>
      </trkpt>
      <trkpt lat="47.10235" lon="-1.8101">
        <ele>59</ele>
        <time>2022-01-01T12:44:48Z</time>
      </trkpt>
      <trkpt lat="47.10221" lon="-1.8101">
        <ele>60</ele>
        <time>2022-01-01T12:44:50Z</time>
      </trkpt>
      <trkpt lat="47.10208" lon="-1.81005">
        <ele>60</ele>
        <time>2022-01-01T12:44:52Z</time>
      </trkpt>
      <trkpt lat="47.10194" lon="-1.80998">
        <ele>59</ele>
        <time>2022-01-01T12:44:54Z</time>
      </trkpt>
      <trkpt lat="47.10181" lon="-1.80992">
        <ele>59</ele>
        <time>2022-01-01T12:44:56Z</time>
      </trkpt>
      <trkpt lat="47.10168" lon="-1.80986">
        <ele>59</ele>
        <time>2022-01-01T12:44:58Z</time>
      </trkpt>
      <trkpt lat="47.10156" lon="-1.8098">
        <ele>58</ele>
        <time>2022-01-01T12:45:00Z</time>
      </trkpt>
      <trkpt lat="47.10144" lon="-1.80974">
        <ele>58</ele>
        <time>2022-01-01T12:45:02Z</time>
      </trkpt>
      <trkpt lat="47.10131" lon="-1.80971">
        <ele>57</ele>
        <time>2022-01-01T12:45:04Z</time>
      </trkpt>
      <trkpt lat="47.10119" lon="-1.8097">
        <ele>56</ele>
        <time>2022-01-01T12:45:06Z</time>
      </trkpt>
      <trkpt lat="47.10106" lon="-1.8097">
        <ele>55</ele>
        <time>2022-01-01T12:45:08Z</time>
      </trkpt>
      <trkpt lat="47.10093" lon="-1.80971">
        <ele>55</ele>
        <time>2022-01-01T12:45:10Z</time>
      </trkpt>
      <trkpt lat="47.10081" lon="-1.80971">
        <ele>55</ele>
        <time>2022-01-01T12:45:12Z</time>
      </trkpt>
      <trkpt lat="47.10068" lon="-1.80971">
        <ele>55</ele>
        <time>2022-01-01T12:45:14Z</time>
      </trkpt>
      <trkpt lat="47.10056" lon="-1.80971">
        <ele>55</ele>
        <time>2022-01-01T12:45:16Z</time>
      </trkpt>
      <trkpt lat="47.10044" lon="-1.80972">
        <ele>55</ele>
        <time>2022-01-01T12:45:18Z</time>
      </trkpt>
      <trkpt lat="47.10031" lon="-1.80973">
        <ele>55</ele>
        <time>2022-01-01T12:45:20Z</time>
      </trkpt>
      <trkpt lat="47.1002" lon="-1.80976">
        <ele>55</ele>
        <time>2022-01-01T12:45:22Z</time>
      </trkpt>
      <trkpt lat="47.10008" lon="-1.80977">
        <ele>55</ele>
        <time>2022-01-01T12:45:24Z</time>
      </trkpt>
      <trkpt lat="47.09996" lon="-1.80977">
        <ele>56</ele>
        <time>2022-01-01T12:45:26Z</time>
      </trkpt>
      <trkpt lat="47.09985" lon="-1.80977">
        <ele>56</ele>
        <time>2022-01-01T12:45:28Z</time>
      </trkpt>
      <trkpt lat="47.09974" lon="-1.80977">
        <ele>57</ele>
        <time>2022-01-01T12:45:30Z</time>
      </trkpt>
      <trkpt lat="47.09963" lon="-1.80977">
        <ele>57</ele>
        <time>2022-01-01T12:45:32Z</time>
      </trkpt>
      <trkpt lat="47.09951" lon="-1.80977">
        <ele>57</ele>
        <time>2022-01-01T12:45:34Z</time>
      </trkpt>
      <trkpt lat="47.0994" lon="-1.80979">
        <ele>57</ele>
        <time>2022-01-01T12:45:36Z</time>
      </trkpt>
      <trkpt lat="47.09929" lon="-1.8098">
        <ele>58</ele>
        <time>2022-01-01T12:45:38Z</time>
      </trkpt>
      <trkpt lat="47.09917" lon="-1.80982">
        <ele>58</ele>
        <time>2022-01-01T12:45:40Z</time>
      </trkpt>
      <trkpt lat="47.09906" lon="-1.80983">
        <ele>58</ele>
        <time>2022-01-01T12:45:42Z</time>
      </trkpt>
      <trkpt lat="47.09895" lon="-1.80983">
        <ele>59</ele>
        <time>2022-01-01T12:45:44Z</time>
      </trkpt>
      <trkpt lat="47.09883" lon="-1.80984">
        <ele>59</ele>
        <time>2022-01-01T12:45:46Z</time>
      </trkpt>
      <trkpt lat="47.09872" lon="-1.80984">
        <ele>59</ele>
        <time>2022-01-01T12:45:48Z</time>
      </trkpt>
      <trkpt lat="47.0986" lon="-1.80985">
        <ele>59</ele>
        <time>2022-01-01T12:45:50Z</time>
      </trkpt>
      <trkpt lat="47.09849" lon="-1.80986">
        <ele>60</ele>
        <time>2022-01-01T12:45:52Z</time>
      </trkpt>
      <trkpt lat="47.09837" lon="-1.80987">
        <ele>60</ele>
        <time>2022-01-01T12:45:54Z</time>
      </trkpt>
      <trkpt lat="47.09826" lon="-1.80987">
        <ele>60</ele>
        <time>2022-01-01T12:45:56Z</time>
      </trkpt>
      <trkpt lat="47.09816" lon="-1.80988">
        <ele>61</ele>
        <time>2022-01-01T12:45:58Z</time>
      </trkpt>
      <trkpt lat="47.09806" lon="-1.80989">
        <ele>61</ele>
        <time>2022-01-01T12:46:00Z</time>
      </trkpt>
      <trkpt lat="47.09795" lon="-1.80988">
        <ele>61</ele>
        <time>2022-01-01T12:46:02Z</time>
      </trkpt>
      <trkpt lat="47.09783" lon="-1.80987">
        <ele>60</ele>
        <time>2022-01-01T12:46:04Z</time>
      </trkpt>
      <trkpt lat="47.09771" lon="-1.80986">
        <ele>61</ele>
        <time>2022-01-01T12:46:06Z</time>
      </trkpt>
      <trkpt lat="47.0976" lon="-1.80984">
        <ele>60</ele>
        <time>2022-01-01T12:46:08Z</time>
      </trkpt>
      <trkpt lat="47.09748" lon="-1.80979">
        <ele>61</ele>
        <time>2022-01-01T12:46:10Z</time>
      </trkpt>
      <trkpt lat="47.09735" lon="-1.80974">
        <ele>60</ele>
        <time>2022-01-01T12:46:12Z</time>
      </trkpt>
      <trkpt lat="47.09722" lon="-1.80971">
        <ele>60</ele>
        <time>2022-01-01T12:46:14Z</time>
      </trkpt>
      <trkpt lat="47.09708" lon="-1.80969">
        <ele>59</ele>
        <time>2022-01-01T12:46:16Z</time>
      </trkpt>
      <trkpt lat="47.09694" lon="-1.80967">
        <ele>58</ele>
        <time>2022-01-01T12:46:18Z</time>
      </trkpt>
      <trkpt lat="47.0968" lon="-1.80964">
        <ele>58</ele>
        <time>2022-01-01T12:46:20Z</time>
      </trkpt>
      <trkpt lat="47.09665" lon="-1.80961">
        <ele>57</ele>
        <time>2022-01-01T12:46:22Z</time>
      </trkpt>
      <trkpt lat="47.0965" lon="-1.80958">
        <ele>57</ele>
        <time>2022-01-01T12:46:24Z</time>
      </trkpt>
      <trkpt lat="47.09636" lon="-1.80954">
        <ele>57</ele>
        <time>2022-01-01T12:46:26Z</time>
      </trkpt>
      <trkpt lat="47.09622" lon="-1.80952">
        <ele>57</ele>
        <time>2022-01-01T12:46:28Z</time>
      </trkpt>
      <trkpt lat="47.09609" lon="-1.80949">
        <ele>56</ele>
        <time>2022-01-01T12:46:30Z</time>
      </trkpt>
      <trkpt lat="47.09596" lon="-1.80947">
        <ele>56</ele>
        <time>2022-01-01T12:46:32Z</time>
      </trkpt>
      <trkpt lat="47.09582" lon="-1.80942">
        <ele>56</ele>
        <time>2022-01-01T12:46:34Z</time>
      </trkpt>
      <trkpt lat="47.09568" lon="-1.80939">
        <ele>55</ele>
        <time>2022-01-01T12:46:36Z</time>
      </trkpt>
      <trkpt lat="47.09554" lon="-1.80936">
        <ele>56</ele>
        <time>2022-01-01T12:46:38Z</time>
      </trkpt>
      <trkpt lat="47.0954" lon="-1.80933">
        <ele>56</ele>
        <time>2022-01-01T12:46:40Z</time>
      </trkpt>
      <trkpt lat="47.09526" lon="-1.80931">
        <ele>56</ele>
        <time>2022-01-01T12:46:42Z</time>
      </trkpt>
      <trkpt lat="47.09513" lon="-1.80927">
        <ele>56</ele>
        <time>2022-01-01T12:46:44Z</time>
      </trkpt>
      <trkpt lat="47.09499" lon="-1.80926">
        <ele>56</ele>
        <time>2022-01-01T12:46:46Z</time>
      </trkpt>
      <trkpt lat="47.09486" lon="-1.80926">
        <ele>56</ele>
        <time>2022-01-01T12:46:48Z</time>
      </trkpt>
      <trkpt lat="47.09473" lon="-1.80929">
        <ele>55</ele>
        <time>2022-01-01T12:46:50Z</time>
      </trkpt>
      <trkpt lat="47.0946" lon="-1.80936">
        <ele>55</ele>
        <time>2022-01-01T12:46:52Z</time>
      </trkpt>
      <trkpt lat="47.09448" lon="-1.80943">
        <ele>56</ele>
        <time>2022-01-01T12:46:54Z</time>
      </trkpt>
      <trkpt lat="47.09435" lon="-1.80951">
        <ele>56</ele>
        <time>2022-01-01T12:46:56Z</time>
      </trkpt>
      <trkpt lat="47.09423" lon="-1.80959">
        <ele>56</ele>
        <time>2022-01-01T12:46:58Z</time>
      </trkpt>
      <trkpt lat="47.09411" lon="-1.80966">
        <ele>56</ele>
        <time>2022-01-01T12:47:00Z</time>
      </trkpt>
      <trkpt lat="47.09399" lon="-1.80973">
        <ele>56</ele>
        <time>2022-01-01T12:47:02Z</time>
      </trkpt>
      <trkpt lat="47.09386" lon="-1.80981">
        <ele>56</ele>
        <time>2022-01-01T12:47:04Z</time>
      </trkpt>
      <trkpt lat="47.09374" lon="-1.80989">
        <ele>55</ele>
        <time>2022-01-01T12:47:06Z</time>
      </trkpt>
      <trkpt lat="47.0936" lon="-1.80997">
        <ele>55</ele>
        <time>2022-01-01T12:47:08Z</time>
      </trkpt>
      <trkpt lat="47.09347" lon="-1.81004">
        <ele>54</ele>
        <time>2022-01-01T12:47:10Z</time>
      </trkpt>
      <trkpt lat="47.09333" lon="-1.81013">
        <ele>54</ele>
        <time>2022-01-01T12:47:12Z</time>
      </trkpt>
      <trkpt lat="47.0932" lon="-1.81021">
        <ele>53</ele>
        <time>2022-01-01T12:47:14Z</time>
      </trkpt>
      <trkpt lat="47.09306" lon="-1.81029">
        <ele>54</ele>
        <time>2022-01-01T12:47:16Z</time>
      </trkpt>
      <trkpt lat="47.09293" lon="-1.81038">
        <ele>54</ele>
        <time>2022-01-01T12:47:18Z</time>
      </trkpt>
      <trkpt lat="47.09279" lon="-1.81046">
        <ele>54</ele>
        <time>2022-01-01T12:47:20Z</time>
      </trkpt>
      <trkpt lat="47.09266" lon="-1.81054">
        <ele>54</ele>
        <time>2022-01-01T12:47:22Z</time>
      </trkpt>
      <trkpt lat="47.09253" lon="-1.81061">
        <ele>54</ele>
        <time>2022-01-01T12:47:24Z</time>
      </trkpt>
      <trkpt lat="47.09241" lon="-1.8107">
        <ele>53</ele>
        <time>2022-01-01T12:47:26Z</time>
      </trkpt>
      <trkpt lat="47.09231" lon="-1.81081">
        <ele>53</ele>
        <time>2022-01-01T12:47:28Z</time>
      </trkpt>
      <trkpt lat="47.09224" lon="-1.81088">
        <ele>53</ele>
        <time>2022-01-01T12:47:30Z</time>
      </trkpt>
      <trkpt lat="47.09214" lon="-1.81087">
        <ele>54</ele>
        <time>2022-01-01T12:47:32Z</time>
      </trkpt>
      <trkpt lat="47.09203" lon="-1.81079">
        <ele>53</ele>
        <time>2022-01-01T12:47:34Z</time>
      </trkpt>
      <trkpt lat="47.09191" lon="-1.81069">
        <ele>52</ele>
        <time>2022-01-01T12:47:36Z</time>
      </trkpt>
      <trkpt lat="47.09179" lon="-1.81059">
        <ele>52</ele>
        <time>2022-01-01T12:47:38Z</time>
      </trkpt>
      <trkpt lat="47.09168" lon="-1.81051">
        <ele>52</ele>
        <time>2022-01-01T12:47:40Z</time>
      </trkpt>
      <trkpt lat="47.09156" lon="-1.81042">
        <ele>52</ele>
        <time>2022-01-01T12:47:42Z</time>
      </trkpt>
      <trkpt lat="47.09144" lon="-1.81033">
        <ele>52</ele>
        <time>2022-01-01T12:47:44Z</time>
      </trkpt>
      <trkpt lat="47.09133" lon="-1.81024">
        <ele>52</ele>
        <time>2022-01-01T12:47:46Z</time>
      </trkpt>
      <trkpt lat="47.09121" lon="-1.81015">
        <ele>51</ele>
        <time>2022-01-01T12:47:48Z</time>
      </trkpt>
      <trkpt lat="47.09109" lon="-1.81007">
        <ele>51</ele>
        <time>2022-01-01T12:47:50Z</time>
      </trkpt>
      <trkpt lat="47.09097" lon="-1.80998">
        <ele>51</ele>
        <time>2022-01-01T12:47:52Z</time>
      </trkpt>
      <trkpt lat="47.09084" lon="-1.80989">
        <ele>51</ele>
        <time>2022-01-01T12:47:54Z</time>
      </trkpt>
      <trkpt lat="47.09073" lon="-1.8098">
        <ele>51</ele>
        <time>2022-01-01T12:47:56Z</time>
      </trkpt>
      <trkpt lat="47.09061" lon="-1.80972">
        <ele>51</ele>
        <time>2022-01-01T12:47:58Z</time>
      </trkpt>
      <trkpt lat="47.09049" lon="-1.80962">
        <ele>51</ele>
        <time>2022-01-01T12:48:00Z</time>
      </trkpt>
      <trkpt lat="47.09038" lon="-1.80954">
        <ele>52</ele>
        <time>2022-01-01T12:48:02Z</time>
      </trkpt>
      <trkpt lat="47.09026" lon="-1.80945">
        <ele>52</ele>
        <time>2022-01-01T12:48:04Z</time>
      </trkpt>
      <trkpt lat="47.09015" lon="-1.80937">
        <ele>52</ele>
        <time>2022-01-01T12:48:06Z</time>
      </trkpt>
      <trkpt lat="47.09003" lon="-1.80928">
        <ele>52</ele>
        <time>2022-01-01T12:48:08Z</time>
      </trkpt>
      <trkpt lat="47.08992" lon="-1.8092">
        <ele>52</ele>
        <time>2022-01-01T12:48:10Z</time>
      </trkpt>
      <trkpt lat="47.08981" lon="-1.80912">
        <ele>52</ele>
        <time>2022-01-01T12:48:12Z</time>
      </trkpt>
      <trkpt lat="47.08969" lon="-1.80904">
        <ele>53</ele>
        <time>2022-01-01T12:48:14Z</time>
      </trkpt>
      <trkpt lat="47.08958" lon="-1.80895">
        <ele>53</ele>
        <time>2022-01-01T12:48:16Z</time>
      </trkpt>
      <trkpt lat="47.08947" lon="-1.80886">
        <ele>53</ele>
        <time>2022-01-01T12:48:18Z</time>
      </trkpt>
      <trkpt lat="47.08936" lon="-1.80877">
        <ele>53</ele>
        <time>2022-01-01T12:48:20Z</time>
      </trkpt>
      <trkpt lat="47.08925" lon="-1.80867">
        <ele>53</ele>
        <time>2022-01-01T12:48:22Z</time>
      </trkpt>
      <trkpt lat="47.08916" lon="-1.80856">
        <ele>53</ele>
        <time>2022-01-01T12:48:24Z</time>
      </trkpt>
      <trkpt lat="47.08907" lon="-1.80843">
        <ele>54</ele>
        <time>2022-01-01T12:48:26Z</time>
      </trkpt>
      <trkpt lat="47.08899" lon="-1.80829">
        <ele>54</ele>
        <time>2022-01-01T12:48:28Z</time>
      </trkpt>
      <trkpt lat="47.08891" lon="-1.80815">
        <ele>54</ele>
        <time>2022-01-01T12:48:30Z</time>
      </trkpt>
      <trkpt lat="47.08883" lon="-1.80801">
        <ele>55</ele>
        <time>2022-01-01T12:48:32Z</time>
      </trkpt>
      <trkpt lat="47.08876" lon="-1.80788">
        <ele>56</ele>
        <time>2022-01-01T12:48:34Z</time>
      </trkpt>
      <trkpt lat="47.08869" lon="-1.80774">
        <ele>57</ele>
        <time>2022-01-01T12:48:36Z</time>
      </trkpt>
      <trkpt lat="47.08862" lon="-1.80761">
        <ele>58</ele>
        <time>2022-01-01T12:48:38Z</time>
      </trkpt>
      <trkpt lat="47.08855" lon="-1.80749">
        <ele>60</ele>
        <time>2022-01-01T12:48:40Z</time>
      </trkpt>
      <trkpt lat="47.08848" lon="-1.80736">
        <ele>60</ele>
        <time>2022-01-01T12:48:42Z</time>
      </trkpt>
      <trkpt lat="47.0884" lon="-1.80723">
        <ele>60</ele>
        <time>2022-01-01T12:48:44Z</time>
      </trkpt>
      <trkpt lat="47.08833" lon="-1.8071">
        <ele>61</ele>
        <time>2022-01-01T12:48:46Z</time>
      </trkpt>
      <trkpt lat="47.08826" lon="-1.80696">
        <ele>61</ele>
        <time>2022-01-01T12:48:48Z</time>
      </trkpt>
      <trkpt lat="47.08819" lon="-1.80683">
        <ele>61</ele>
        <time>2022-01-01T12:48:50Z</time>
      </trkpt>
      <trkpt lat="47.08811" lon="-1.8067">
        <ele>61</ele>
        <time>2022-01-01T12:48:52Z</time>
      </trkpt>
      <trkpt lat="47.08804" lon="-1.80657">
        <ele>62</ele>
        <time>2022-01-01T12:48:54Z</time>
      </trkpt>
      <trkpt lat="47.08796" lon="-1.80644">
        <ele>62</ele>
        <time>2022-01-01T12:48:56Z</time>
      </trkpt>
      <trkpt lat="47.08789" lon="-1.80632">
        <ele>62</ele>
        <time>2022-01-01T12:48:58Z</time>
      </trkpt>
      <trkpt lat="47.08781" lon="-1.8062">
        <ele>62</ele>
        <time>2022-01-01T12:49:00Z</time>
      </trkpt>
      <trkpt lat="47.08773" lon="-1.80609">
        <ele>62</ele>
        <time>2022-01-01T12:49:02Z</time>
      </trkpt>
      <trkpt lat="47.08764" lon="-1.80599">
        <ele>62</ele>
        <time>2022-01-01T12:49:04Z</time>
      </trkpt>
      <trkpt lat="47.08754" lon="-1.8059">
        <ele>62</ele>
        <time>2022-01-01T12:49:06Z</time>
      </trkpt>
      <trkpt lat="47.08745" lon="-1.80581">
        <ele>63</ele>
        <time>2022-01-01T12:49:08Z</time>
      </trkpt>
      <trkpt lat="47.08735" lon="-1.80573">
        <ele>63</ele>
        <time>2022-01-01T12:49:10Z</time>
      </trkpt>
      <trkpt lat="47.08725" lon="-1.80565">
        <ele>62</ele>
        <time>2022-01-01T12:49:12Z</time>
      </trkpt>
      <trkpt lat="47.08715" lon="-1.80558">
        <ele>62</ele>
        <time>2022-01-01T12:49:14Z</time>
      </trkpt>
      <trkpt lat="47.08706" lon="-1.8055">
        <ele>63</ele>
        <time>2022-01-01T12:49:16Z</time>
      </trkpt>
      <trkpt lat="47.08697" lon="-1.80543">
        <ele>63</ele>
        <time>2022-01-01T12:49:18Z</time>
      </trkpt>
      <trkpt lat="47.08682" lon="-1.80532">
        <ele>63</ele>
        <time>2022-01-01T12:49:21Z</time>
      </trkpt>
      <trkpt lat="47.08673" lon="-1.80526">
        <ele>63</ele>
        <time>2022-01-01T12:49:23Z</time>
      </trkpt>
      <trkpt lat="47.08657" lon="-1.80518">
        <ele>63</ele>
        <time>2022-01-01T12:49:26Z</time>
      </trkpt>
      <trkpt lat="47.08647" lon="-1.80513">
        <ele>63</ele>
        <time>2022-01-01T12:49:28Z</time>
      </trkpt>
      <trkpt lat="47.08638" lon="-1.8051">
        <ele>63</ele>
        <time>2022-01-01T12:49:30Z</time>
      </trkpt>
      <trkpt lat="47.08628" lon="-1.80507">
        <ele>63</ele>
        <time>2022-01-01T12:49:32Z</time>
      </trkpt>
      <trkpt lat="47.08612" lon="-1.80504">
        <ele>63</ele>
        <time>2022-01-01T12:49:35Z</time>
      </trkpt>
      <trkpt lat="47.08596" lon="-1.80501">
        <ele>64</ele>
        <time>2022-01-01T12:49:38Z</time>
      </trkpt>
      <trkpt lat="47.08586" lon="-1.80498">
        <ele>64</ele>
        <time>2022-01-01T12:49:40Z</time>
      </trkpt>
      <trkpt lat="47.08572" lon="-1.80494">
        <ele>64</ele>
        <time>2022-01-01T12:49:43Z</time>
      </trkpt>
      <trkpt lat="47.08557" lon="-1.8049">
        <ele>64</ele>
        <time>2022-01-01T12:49:46Z</time>
      </trkpt>
      <trkpt lat="47.08547" lon="-1.80487">
        <ele>65</ele>
        <time>2022-01-01T12:49:48Z</time>
      </trkpt>
      <trkpt lat="47.08537" lon="-1.80485">
        <ele>65</ele>
        <time>2022-01-01T12:49:50Z</time>
      </trkpt>
      <trkpt lat="47.08526" lon="-1.80482">
        <ele>65</ele>
        <time>2022-01-01T12:49:52Z</time>
      </trkpt>
      <trkpt lat="47.08516" lon="-1.8048">
        <ele>65</ele>
        <time>2022-01-01T12:49:54Z</time>
      </trkpt>
      <trkpt lat="47.08507" lon="-1.80477">
        <ele>66</ele>
        <time>2022-01-01T12:49:56Z</time>
      </trkpt>
      <trkpt lat="47.08491" lon="-1.80473">
        <ele>65</ele>
        <time>2022-01-01T12:49:59Z</time>
      </trkpt>
      <trkpt lat="47.0848" lon="-1.80471">
        <ele>65</ele>
        <time>2022-01-01T12:50:01Z</time>
      </trkpt>
      <trkpt lat="47.08469" lon="-1.8047">
        <ele>65</ele>
        <time>2022-01-01T12:50:03Z</time>
      </trkpt>
      <trkpt lat="47.08453" lon="-1.80469">
        <ele>66</ele>
        <time>2022-01-01T12:50:06Z</time>
      </trkpt>
      <trkpt lat="47.08442" lon="-1.80469">
        <ele>66</ele>
        <time>2022-01-01T12:50:08Z</time>
      </trkpt>
      <trkpt lat="47.08431" lon="-1.80469">
        <ele>66</ele>
        <time>2022-01-01T12:50:10Z</time>
      </trkpt>
      <trkpt lat="47.0842" lon="-1.8047">
        <ele>65</ele>
        <time>2022-01-01T12:50:12Z</time>
      </trkpt>
      <trkpt lat="47.08409" lon="-1.8047">
        <ele>66</ele>
        <time>2022-01-01T12:50:14Z</time>
      </trkpt>
      <trkpt lat="47.08397" lon="-1.80469">
        <ele>66</ele>
        <time>2022-01-01T12:50:16Z</time>
      </trkpt>
      <trkpt lat="47.08386" lon="-1.80469">
        <ele>67</ele>
        <time>2022-01-01T12:50:18Z</time>
      </trkpt>
      <trkpt lat="47.08375" lon="-1.80469">
        <ele>67</ele>
        <time>2022-01-01T12:50:20Z</time>
      </trkpt>
      <trkpt lat="47.08363" lon="-1.8047">
        <ele>67</ele>
        <time>2022-01-01T12:50:22Z</time>
      </trkpt>
      <trkpt lat="47.08352" lon="-1.8047">
        <ele>67</ele>
        <time>2022-01-01T12:50:24Z</time>
      </trkpt>
      <trkpt lat="47.0834" lon="-1.80472">
        <ele>67</ele>
        <time>2022-01-01T12:50:26Z</time>
      </trkpt>
      <trkpt lat="47.08329" lon="-1.80474">
        <ele>67</ele>
        <time>2022-01-01T12:50:28Z</time>
      </trkpt>
      <trkpt lat="47.08317" lon="-1.80476">
        <ele>67</ele>
        <time>2022-01-01T12:50:30Z</time>
      </trkpt>
      <trkpt lat="47.08306" lon="-1.8048">
        <ele>67</ele>
        <time>2022-01-01T12:50:32Z</time>
      </trkpt>
      <trkpt lat="47.08295" lon="-1.80484">
        <ele>67</ele>
        <time>2022-01-01T12:50:34Z</time>
      </trkpt>
      <trkpt lat="47.08283" lon="-1.80488">
        <ele>67</ele>
        <time>2022-01-01T12:50:36Z</time>
      </trkpt>
      <trkpt lat="47.0827" lon="-1.80492">
        <ele>67</ele>
        <time>2022-01-01T12:50:38Z</time>
      </trkpt>
      <trkpt lat="47.08257" lon="-1.80496">
        <ele>67</ele>
        <time>2022-01-01T12:50:40Z</time>
      </trkpt>
      <trkpt lat="47.08244" lon="-1.80501">
        <ele>67</ele>
        <time>2022-01-01T12:50:42Z</time>
      </trkpt>
      <trkpt lat="47.08231" lon="-1.80505">
        <ele>66</ele>
        <time>2022-01-01T12:50:44Z</time>
      </trkpt>
      <trkpt lat="47.08218" lon="-1.8051">
        <ele>66</ele>
        <time>2022-01-01T12:50:46Z</time>
      </trkpt>
      <trkpt lat="47.08204" lon="-1.80516">
        <ele>66</ele>
        <time>2022-01-01T12:50:48Z</time>
      </trkpt>
      <trkpt lat="47.08192" lon="-1.80522">
        <ele>66</ele>
        <time>2022-01-01T12:50:50Z</time>
      </trkpt>
      <trkpt lat="47.08178" lon="-1.80529">
        <ele>66</ele>
        <time>2022-01-01T12:50:52Z</time>
      </trkpt>
      <trkpt lat="47.08165" lon="-1.80535">
        <ele>66</ele>
        <time>2022-01-01T12:50:54Z</time>
      </trkpt>
      <trkpt lat="47.08151" lon="-1.80541">
        <ele>65</ele>
        <time>2022-01-01T12:50:56Z</time>
      </trkpt>
      <trkpt lat="47.08137" lon="-1.80546">
        <ele>65</ele>
        <time>2022-01-01T12:50:58Z</time>
      </trkpt>
      <trkpt lat="47.08123" lon="-1.80551">
        <ele>64</ele>
        <time>2022-01-01T12:51:00Z</time>
      </trkpt>
      <trkpt lat="47.08108" lon="-1.80555">
        <ele>64</ele>
        <time>2022-01-01T12:51:02Z</time>
      </trkpt>
      <trkpt lat="47.08094" lon="-1.80559">
        <ele>64</ele>
        <time>2022-01-01T12:51:04Z</time>
      </trkpt>
      <trkpt lat="47.08079" lon="-1.80563">
        <ele>63</ele>
        <time>2022-01-01T12:51:06Z</time>
      </trkpt>
      <trkpt lat="47.08063" lon="-1.80566">
        <ele>63</ele>
        <time>2022-01-01T12:51:08Z</time>
      </trkpt>
      <trkpt lat="47.08048" lon="-1.80571">
        <ele>62</ele>
        <time>2022-01-01T12:51:10Z</time>
      </trkpt>
      <trkpt lat="47.08034" lon="-1.80574">
        <ele>62</ele>
        <time>2022-01-01T12:51:12Z</time>
      </trkpt>
      <trkpt lat="47.08021" lon="-1.80577">
        <ele>63</ele>
        <time>2022-01-01T12:51:14Z</time>
      </trkpt>
      <trkpt lat="47.08007" lon="-1.80579">
        <ele>63</ele>
        <time>2022-01-01T12:51:16Z</time>
      </trkpt>
      <trkpt lat="47.07993" lon="-1.80581">
        <ele>62</ele>
        <time>2022-01-01T12:51:18Z</time>
      </trkpt>
      <trkpt lat="47.07979" lon="-1.8058">
        <ele>62</ele>
        <time>2022-01-01T12:51:20Z</time>
      </trkpt>
      <trkpt lat="47.07965" lon="-1.80578">
        <ele>61</ele>
        <time>2022-01-01T12:51:22Z</time>
      </trkpt>
      <trkpt lat="47.07952" lon="-1.80573">
        <ele>61</ele>
        <time>2022-01-01T12:51:24Z</time>
      </trkpt>
      <trkpt lat="47.0794" lon="-1.80563">
        <ele>61</ele>
        <time>2022-01-01T12:51:26Z</time>
      </trkpt>
      <trkpt lat="47.07931" lon="-1.8055">
        <ele>62</ele>
        <time>2022-01-01T12:51:28Z</time>
      </trkpt>
      <trkpt lat="47.07923" lon="-1.80535">
        <ele>63</ele>
        <time>2022-01-01T12:51:30Z</time>
      </trkpt>
      <trkpt lat="47.07916" lon="-1.80518">
        <ele>63</ele>
        <time>2022-01-01T12:51:32Z</time>
      </trkpt>
      <trkpt lat="47.07909" lon="-1.80501">
        <ele>63</ele>
        <time>2022-01-01T12:51:34Z</time>
      </trkpt>
      <trkpt lat="47.07904" lon="-1.80484">
        <ele>63</ele>
        <time>2022-01-01T12:51:36Z</time>
      </trkpt>
      <trkpt lat="47.07901" lon="-1.80464">
        <ele>63</ele>
        <time>2022-01-01T12:51:38Z</time>
      </trkpt>
      <trkpt lat="47.079" lon="-1.80445">
        <ele>63</ele>
        <time>2022-01-01T12:51:40Z</time>
      </trkpt>
      <trkpt lat="47.079" lon="-1.80424">
        <ele>63</ele>
        <time>2022-01-01T12:51:42Z</time>
      </trkpt>
      <trkpt lat="47.079" lon="-1.80404">
        <ele>63</ele>
        <time>2022-01-01T12:51:44Z</time>
      </trkpt>
      <trkpt lat="47.07901" lon="-1.80385">
        <ele>63</ele>
        <time>2022-01-01T12:51:46Z</time>
      </trkpt>
      <trkpt lat="47.07901" lon="-1.80366">
        <ele>63</ele>
        <time>2022-01-01T12:51:48Z</time>
      </trkpt>
      <trkpt lat="47.07901" lon="-1.80347">
        <ele>63</ele>
        <time>2022-01-01T12:51:50Z</time>
      </trkpt>
      <trkpt lat="47.07901" lon="-1.80328">
        <ele>63</ele>
        <time>2022-01-01T12:51:52Z</time>
      </trkpt>
      <trkpt lat="47.07901" lon="-1.80308">
        <ele>63</ele>
        <time>2022-01-01T12:51:54Z</time>
      </trkpt>
      <trkpt lat="47.07901" lon="-1.8029">
        <ele>63</ele>
        <time>2022-01-01T12:51:56Z</time>
      </trkpt>
      <trkpt lat="47.07901" lon="-1.80271">
        <ele>63</ele>
        <time>2022-01-01T12:51:58Z</time>
      </trkpt>
      <trkpt lat="47.07901" lon="-1.80252">
        <ele>63</ele>
        <time>2022-01-01T12:52:00Z</time>
      </trkpt>
      <trkpt lat="47.07901" lon="-1.80233">
        <ele>63</ele>
        <time>2022-01-01T12:52:02Z</time>
      </trkpt>
      <trkpt lat="47.079" lon="-1.80215">
        <ele>64</ele>
        <time>2022-01-01T12:52:04Z</time>
      </trkpt>
      <trkpt lat="47.079" lon="-1.80196">
        <ele>64</ele>
        <time>2022-01-01T12:52:06Z</time>
      </trkpt>
      <trkpt lat="47.079" lon="-1.80177">
        <ele>64</ele>
        <time>2022-01-01T12:52:08Z</time>
      </trkpt>
      <trkpt lat="47.07899" lon="-1.80159">
        <ele>64</ele>
        <time>2022-01-01T12:52:10Z</time>
      </trkpt>
      <trkpt lat="47.07899" lon="-1.8014">
        <ele>64</ele>
        <time>2022-01-01T12:52:12Z</time>
      </trkpt>
      <trkpt lat="47.07898" lon="-1.80121">
        <ele>64</ele>
        <time>2022-01-01T12:52:14Z</time>
      </trkpt>
      <trkpt lat="47.07898" lon="-1.80102">
        <ele>64</ele>
        <time>2022-01-01T12:52:16Z</time>
      </trkpt>
      <trkpt lat="47.07898" lon="-1.80084">
        <ele>63</ele>
        <time>2022-01-01T12:52:18Z</time>
      </trkpt>
      <trkpt lat="47.07898" lon="-1.80065">
        <ele>63</ele>
        <time>2022-01-01T12:52:20Z</time>
      </trkpt>
      <trkpt lat="47.07897" lon="-1.80046">
        <ele>63</ele>
        <time>2022-01-01T12:52:22Z</time>
      </trkpt>
      <trkpt lat="47.07894" lon="-1.80028">
        <ele>62</ele>
        <time>2022-01-01T12:52:24Z</time>
      </trkpt>
      <trkpt lat="47.07889" lon="-1.80012">
        <ele>63</ele>
        <time>2022-01-01T12:52:26Z</time>
      </trkpt>
      <trkpt lat="47.07887" lon="-1.79995">
        <ele>63</ele>
        <time>2022-01-01T12:52:28Z</time>
      </trkpt>
      <trkpt lat="47.07892" lon="-1.79978">
        <ele>63</ele>
        <time>2022-01-01T12:52:30Z</time>
      </trkpt>
      <trkpt lat="47.07899" lon="-1.79962">
        <ele>62</ele>
        <time>2022-01-01T12:52:32Z</time>
      </trkpt>
      <trkpt lat="47.07904" lon="-1.79943">
        <ele>62</ele>
        <time>2022-01-01T12:52:34Z</time>
      </trkpt>
      <trkpt lat="47.07908" lon="-1.79925">
        <ele>62</ele>
        <time>2022-01-01T12:52:36Z</time>
      </trkpt>
      <trkpt lat="47.07914" lon="-1.79908">
        <ele>62</ele>
        <time>2022-01-01T12:52:38Z</time>
      </trkpt>
      <trkpt lat="47.0792" lon="-1.79891">
        <ele>62</ele>
        <time>2022-01-01T12:52:40Z</time>
      </trkpt>
      <trkpt lat="47.07926" lon="-1.79875">
        <ele>62</ele>
        <time>2022-01-01T12:52:42Z</time>
      </trkpt>
      <trkpt lat="47.07933" lon="-1.79857">
        <ele>62</ele>
        <time>2022-01-01T12:52:44Z</time>
      </trkpt>
      <trkpt lat="47.07939" lon="-1.79841">
        <ele>62</ele>
        <time>2022-01-01T12:52:46Z</time>
      </trkpt>
      <trkpt lat="47.07945" lon="-1.79823">
        <ele>62</ele>
        <time>2022-01-01T12:52:48Z</time>
      </trkpt>
      <trkpt lat="47.07951" lon="-1.79806">
        <ele>62</ele>
        <time>2022-01-01T12:52:50Z</time>
      </trkpt>
      <trkpt lat="47.07955" lon="-1.79788">
        <ele>62</ele>
        <time>2022-01-01T12:52:52Z</time>
      </trkpt>
      <trkpt lat="47.07957" lon="-1.7977">
        <ele>62</ele>
        <time>2022-01-01T12:52:54Z</time>
      </trkpt>
      <trkpt lat="47.07959" lon="-1.79753">
        <ele>63</ele>
        <time>2022-01-01T12:52:56Z</time>
      </trkpt>
      <trkpt lat="47.0796" lon="-1.79735">
        <ele>63</ele>
        <time>2022-01-01T12:52:58Z</time>
      </trkpt>
      <trkpt lat="47.07962" lon="-1.79717">
        <ele>63</ele>
        <time>2022-01-01T12:53:00Z</time>
      </trkpt>
      <trkpt lat="47.07963" lon="-1.79699">
        <ele>64</ele>
        <time>2022-01-01T12:53:02Z</time>
      </trkpt>
      <trkpt lat="47.07964" lon="-1.79682">
        <ele>64</ele>
        <time>2022-01-01T12:53:04Z</time>
      </trkpt>
      <trkpt lat="47.07965" lon="-1.79664">
        <ele>64</ele>
        <time>2022-01-01T12:53:06Z</time>
      </trkpt>
      <trkpt lat="47.07966" lon="-1.79646">
        <ele>64</ele>
        <time>2022-01-01T12:53:08Z</time>
      </trkpt>
      <trkpt lat="47.07965" lon="-1.79627">
        <ele>64</ele>
        <time>2022-01-01T12:53:10Z</time>
      </trkpt>
      <trkpt lat="47.07965" lon="-1.79609">
        <ele>64</ele>
        <time>2022-01-01T12:53:12Z</time>
      </trkpt>
      <trkpt lat="47.07964" lon="-1.7959">
        <ele>64</ele>
        <time>2022-01-01T12:53:14Z</time>
      </trkpt>
      <trkpt lat="47.07962" lon="-1.79572">
        <ele>64</ele>
        <time>2022-01-01T12:53:16Z</time>
      </trkpt>
      <trkpt lat="47.07959" lon="-1.79553">
        <ele>63</ele>
        <time>2022-01-01T12:53:18Z</time>
      </trkpt>
      <trkpt lat="47.07956" lon="-1.79534">
        <ele>63</ele>
        <time>2022-01-01T12:53:20Z</time>
      </trkpt>
      <trkpt lat="47.07952" lon="-1.79515">
        <ele>63</ele>
        <time>2022-01-01T12:53:22Z</time>
      </trkpt>
      <trkpt lat="47.07948" lon="-1.79497">
        <ele>63</ele>
        <time>2022-01-01T12:53:24Z</time>
      </trkpt>
      <trkpt lat="47.07943" lon="-1.79478">
        <ele>63</ele>
        <time>2022-01-01T12:53:26Z</time>
      </trkpt>
      <trkpt lat="47.07938" lon="-1.79459">
        <ele>63</ele>
        <time>2022-01-01T12:53:28Z</time>
      </trkpt>
      <trkpt lat="47.07933" lon="-1.79441">
        <ele>62</ele>
        <time>2022-01-01T12:53:30Z</time>
      </trkpt>
      <trkpt lat="47.07928" lon="-1.79422">
        <ele>62</ele>
        <time>2022-01-01T12:53:32Z</time>
      </trkpt>
      <trkpt lat="47.07923" lon="-1.79403">
        <ele>62</ele>
        <time>2022-01-01T12:53:34Z</time>
      </trkpt>
      <trkpt lat="47.07918" lon="-1.79384">
        <ele>61</ele>
        <time>2022-01-01T12:53:36Z</time>
      </trkpt>
      <trkpt lat="47.07913" lon="-1.79364">
        <ele>60</ele>
        <time>2022-01-01T12:53:38Z</time>
      </trkpt>
      <trkpt lat="47.07907" lon="-1.79345">
        <ele>60</ele>
        <time>2022-01-01T12:53:40Z</time>
      </trkpt>
      <trkpt lat="47.07902" lon="-1.79325">
        <ele>60</ele>
        <time>2022-01-01T12:53:42Z</time>
      </trkpt>
      <trkpt lat="47.07897" lon="-1.79305">
        <ele>59</ele>
        <time>2022-01-01T12:53:44Z</time>
      </trkpt>
      <trkpt lat="47.07892" lon="-1.79285">
        <ele>59</ele>
        <time>2022-01-01T12:53:46Z</time>
      </trkpt>
      <trkpt lat="47.07887" lon="-1.79265">
        <ele>58</ele>
        <time>2022-01-01T12:53:48Z</time>
      </trkpt>
      <trkpt lat="47.07882" lon="-1.79245">
        <ele>58</ele>
        <time>2022-01-01T12:53:50Z</time>
      </trkpt>
      <trkpt lat="47.07877" lon="-1.79225">
        <ele>57</ele>
        <time>2022-01-01T12:53:52Z</time>
      </trkpt>
      <trkpt lat="47.07871" lon="-1.79205">
        <ele>56</ele>
        <time>2022-01-01T12:53:54Z</time>
      </trkpt>
      <trkpt lat="47.07866" lon="-1.79184">
        <ele>56</ele>
        <time>2022-01-01T12:53:56Z</time>
      </trkpt>
      <trkpt lat="47.0786" lon="-1.79162">
        <ele>55</ele>
        <time>2022-01-01T12:53:58Z</time>
      </trkpt>
      <trkpt lat="47.07854" lon="-1.7914">
        <ele>54</ele>
        <time>2022-01-01T12:54:00Z</time>
      </trkpt>
      <trkpt lat="47.07848" lon="-1.79118">
        <ele>54</ele>
        <time>2022-01-01T12:54:02Z</time>
      </trkpt>
      <trkpt lat="47.07843" lon="-1.79098">
        <ele>54</ele>
        <time>2022-01-01T12:54:04Z</time>
      </trkpt>
      <trkpt lat="47.07838" lon="-1.79078">
        <ele>54</ele>
        <time>2022-01-01T12:54:06Z</time>
      </trkpt>
      <trkpt lat="47.07832" lon="-1.79059">
        <ele>54</ele>
        <time>2022-01-01T12:54:08Z</time>
      </trkpt>
      <trkpt lat="47.07827" lon="-1.7904">
        <ele>54</ele>
        <time>2022-01-01T12:54:10Z</time>
      </trkpt>
      <trkpt lat="47.07822" lon="-1.79021">
        <ele>54</ele>
        <time>2022-01-01T12:54:12Z</time>
      </trkpt>
      <trkpt lat="47.07817" lon="-1.79001">
        <ele>54</ele>
        <time>2022-01-01T12:54:14Z</time>
      </trkpt>
      <trkpt lat="47.07813" lon="-1.78982">
        <ele>54</ele>
        <time>2022-01-01T12:54:16Z</time>
      </trkpt>
      <trkpt lat="47.07808" lon="-1.78963">
        <ele>54</ele>
        <time>2022-01-01T12:54:18Z</time>
      </trkpt>
      <trkpt lat="47.07803" lon="-1.78945">
        <ele>54</ele>
        <time>2022-01-01T12:54:20Z</time>
      </trkpt>
      <trkpt lat="47.07799" lon="-1.78929">
        <ele>55</ele>
        <time>2022-01-01T12:54:22Z</time>
      </trkpt>
      <trkpt lat="47.07795" lon="-1.78915">
        <ele>56</ele>
        <time>2022-01-01T12:54:24Z</time>
      </trkpt>
      <trkpt lat="47.07791" lon="-1.789">
        <ele>56</ele>
        <time>2022-01-01T12:54:26Z</time>
      </trkpt>
      <trkpt lat="47.07788" lon="-1.78885">
        <ele>57</ele>
        <time>2022-01-01T12:54:28Z</time>
      </trkpt>
      <trkpt lat="47.07785" lon="-1.78871">
        <ele>58</ele>
        <time>2022-01-01T12:54:30Z</time>
      </trkpt>
      <trkpt lat="47.07781" lon="-1.78857">
        <ele>58</ele>
        <time>2022-01-01T12:54:32Z</time>
      </trkpt>
      <trkpt lat="47.07777" lon="-1.78843">
        <ele>59</ele>
        <time>2022-01-01T12:54:34Z</time>
      </trkpt>
      <trkpt lat="47.07773" lon="-1.78828">
        <ele>59</ele>
        <time>2022-01-01T12:54:36Z</time>
      </trkpt>
      <trkpt lat="47.0777" lon="-1.78814">
        <ele>59</ele>
        <time>2022-01-01T12:54:38Z</time>
      </trkpt>
      <trkpt lat="47.07766" lon="-1.78801">
        <ele>60</ele>
        <time>2022-01-01T12:54:40Z</time>
      </trkpt>
      <trkpt lat="47.07762" lon="-1.78787">
        <ele>60</ele>
        <time>2022-01-01T12:54:42Z</time>
      </trkpt>
      <trkpt lat="47.07757" lon="-1.78773">
        <ele>61</ele>
        <time>2022-01-01T12:54:44Z</time>
      </trkpt>
      <trkpt lat="47.07752" lon="-1.7876">
        <ele>61</ele>
        <time>2022-01-01T12:54:46Z</time>
      </trkpt>
      <trkpt lat="47.07747" lon="-1.78747">
        <ele>62</ele>
        <time>2022-01-01T12:54:48Z</time>
      </trkpt>
      <trkpt lat="47.07741" lon="-1.78734">
        <ele>62</ele>
        <time>2022-01-01T12:54:50Z</time>
      </trkpt>
      <trkpt lat="47.07735" lon="-1.78721">
        <ele>63</ele>
        <time>2022-01-01T12:54:52Z</time>
      </trkpt>
      <trkpt lat="47.07729" lon="-1.78708">
        <ele>63</ele>
        <time>2022-01-01T12:54:54Z</time>
      </trkpt>
      <trkpt lat="47.07724" lon="-1.78696">
        <ele>64</ele>
        <time>2022-01-01T12:54:56Z</time>
      </trkpt>
      <trkpt lat="47.07717" lon="-1.78684">
        <ele>65</ele>
        <time>2022-01-01T12:54:58Z</time>
      </trkpt>
      <trkpt lat="47.07711" lon="-1.78671">
        <ele>65</ele>
        <time>2022-01-01T12:55:00Z</time>
      </trkpt>
      <trkpt lat="47.07705" lon="-1.78659">
        <ele>66</ele>
        <time>2022-01-01T12:55:02Z</time>
      </trkpt>
      <trkpt lat="47.07699" lon="-1.78647">
        <ele>66</ele>
        <time>2022-01-01T12:55:04Z</time>
      </trkpt>
      <trkpt lat="47.07693" lon="-1.78636">
        <ele>66</ele>
        <time>2022-01-01T12:55:06Z</time>
      </trkpt>
      <trkpt lat="47.07688" lon="-1.78623">
        <ele>66</ele>
        <time>2022-01-01T12:55:08Z</time>
      </trkpt>
      <trkpt lat="47.07682" lon="-1.78611">
        <ele>67</ele>
        <time>2022-01-01T12:55:10Z</time>
      </trkpt>
      <trkpt lat="47.07676" lon="-1.78597">
        <ele>67</ele>
        <time>2022-01-01T12:55:12Z</time>
      </trkpt>
      <trkpt lat="47.0767" lon="-1.78584">
        <ele>67</ele>
        <time>2022-01-01T12:55:14Z</time>
      </trkpt>
      <trkpt lat="47.07665" lon="-1.7857">
        <ele>66</ele>
        <time>2022-01-01T12:55:16Z</time>
      </trkpt>
      <trkpt lat="47.0766" lon="-1.78557">
        <ele>66</ele>
        <time>2022-01-01T12:55:18Z</time>
      </trkpt>
      <trkpt lat="47.07655" lon="-1.78542">
        <ele>66</ele>
        <time>2022-01-01T12:55:20Z</time>
      </trkpt>
      <trkpt lat="47.07652" lon="-1.78527">
        <ele>67</ele>
        <time>2022-01-01T12:55:22Z</time>
      </trkpt>
      <trkpt lat="47.07647" lon="-1.78512">
        <ele>67</ele>
        <time>2022-01-01T12:55:24Z</time>
      </trkpt>
      <trkpt lat="47.07643" lon="-1.78497">
        <ele>67</ele>
        <time>2022-01-01T12:55:26Z</time>
      </trkpt>
      <trkpt lat="47.07639" lon="-1.78481">
        <ele>66</ele>
        <time>2022-01-01T12:55:28Z</time>
      </trkpt>
      <trkpt lat="47.07634" lon="-1.78465">
        <ele>66</ele>
        <time>2022-01-01T12:55:30Z</time>
      </trkpt>
      <trkpt lat="47.07628" lon="-1.7845">
        <ele>66</ele>
        <time>2022-01-01T12:55:32Z</time>
      </trkpt>
      <trkpt lat="47.07623" lon="-1.78435">
        <ele>66</ele>
        <time>2022-01-01T12:55:34Z</time>
      </trkpt>
      <trkpt lat="47.07616" lon="-1.78421">
        <ele>66</ele>
        <time>2022-01-01T12:55:36Z</time>
      </trkpt>
      <trkpt lat="47.07609" lon="-1.78405">
        <ele>66</ele>
        <time>2022-01-01T12:55:38Z</time>
      </trkpt>
      <trkpt lat="47.07601" lon="-1.78391">
        <ele>66</ele>
        <time>2022-01-01T12:55:40Z</time>
      </trkpt>
      <trkpt lat="47.07594" lon="-1.78377">
        <ele>65</ele>
        <time>2022-01-01T12:55:42Z</time>
      </trkpt>
      <trkpt lat="47.07586" lon="-1.78362">
        <ele>65</ele>
        <time>2022-01-01T12:55:44Z</time>
      </trkpt>
      <trkpt lat="47.07579" lon="-1.78348">
        <ele>65</ele>
        <time>2022-01-01T12:55:46Z</time>
      </trkpt>
      <trkpt lat="47.07572" lon="-1.78335">
        <ele>66</ele>
        <time>2022-01-01T12:55:48Z</time>
      </trkpt>
      <trkpt lat="47.07564" lon="-1.78321">
        <ele>66</ele>
        <time>2022-01-01T12:55:50Z</time>
      </trkpt>
      <trkpt lat="47.07557" lon="-1.78307">
        <ele>66</ele>
        <time>2022-01-01T12:55:52Z</time>
      </trkpt>
      <trkpt lat="47.07549" lon="-1.78293">
        <ele>67</ele>
        <time>2022-01-01T12:55:54Z</time>
      </trkpt>
      <trkpt lat="47.07542" lon="-1.7828">
        <ele>67</ele>
        <time>2022-01-01T12:55:56Z</time>
      </trkpt>
      <trkpt lat="47.07535" lon="-1.78266">
        <ele>67</ele>
        <time>2022-01-01T12:55:58Z</time>
      </trkpt>
      <trkpt lat="47.07528" lon="-1.78252">
        <ele>67</ele>
        <time>2022-01-01T12:56:00Z</time>
      </trkpt>
      <trkpt lat="47.0752" lon="-1.78239">
        <ele>67</ele>
        <time>2022-01-01T12:56:02Z</time>
      </trkpt>
      <trkpt lat="47.07512" lon="-1.78225">
        <ele>66</ele>
        <time>2022-01-01T12:56:04Z</time>
      </trkpt>
      <trkpt lat="47.07505" lon="-1.78211">
        <ele>66</ele>
        <time>2022-01-01T12:56:06Z</time>
      </trkpt>
      <trkpt lat="47.07496" lon="-1.78199">
        <ele>66</ele>
        <time>2022-01-01T12:56:08Z</time>
      </trkpt>
      <trkpt lat="47.07487" lon="-1.78186">
        <ele>66</ele>
        <time>2022-01-01T12:56:10Z</time>
      </trkpt>
      <trkpt lat="47.07478" lon="-1.78174">
        <ele>66</ele>
        <time>2022-01-01T12:56:12Z</time>
      </trkpt>
      <trkpt lat="47.07469" lon="-1.78163">
        <ele>66</ele>
        <time>2022-01-01T12:56:14Z</time>
      </trkpt>
      <trkpt lat="47.07459" lon="-1.78154">
        <ele>66</ele>
        <time>2022-01-01T12:56:16Z</time>
      </trkpt>
      <trkpt lat="47.07449" lon="-1.78144">
        <ele>66</ele>
        <time>2022-01-01T12:56:18Z</time>
      </trkpt>
      <trkpt lat="47.0744" lon="-1.78136">
        <ele>67</ele>
        <time>2022-01-01T12:56:20Z</time>
      </trkpt>
      <trkpt lat="47.07429" lon="-1.78128">
        <ele>67</ele>
        <time>2022-01-01T12:56:22Z</time>
      </trkpt>
      <trkpt lat="47.07419" lon="-1.78119">
        <ele>67</ele>
        <time>2022-01-01T12:56:24Z</time>
      </trkpt>
      <trkpt lat="47.07409" lon="-1.78108">
        <ele>67</ele>
        <time>2022-01-01T12:56:26Z</time>
      </trkpt>
      <trkpt lat="47.07399" lon="-1.78098">
        <ele>67</ele>
        <time>2022-01-01T12:56:28Z</time>
      </trkpt>
      <trkpt lat="47.07389" lon="-1.78088">
        <ele>67</ele>
        <time>2022-01-01T12:56:30Z</time>
      </trkpt>
      <trkpt lat="47.0738" lon="-1.78077">
        <ele>67</ele>
        <time>2022-01-01T12:56:32Z</time>
      </trkpt>
      <trkpt lat="47.07371" lon="-1.78065">
        <ele>67</ele>
        <time>2022-01-01T12:56:34Z</time>
      </trkpt>
      <trkpt lat="47.07362" lon="-1.78054">
        <ele>67</ele>
        <time>2022-01-01T12:56:36Z</time>
      </trkpt>
      <trkpt lat="47.07353" lon="-1.78043">
        <ele>67</ele>
        <time>2022-01-01T12:56:38Z</time>
      </trkpt>
      <trkpt lat="47.07343" lon="-1.78031">
        <ele>67</ele>
        <time>2022-01-01T12:56:40Z</time>
      </trkpt>
      <trkpt lat="47.07334" lon="-1.7802">
        <ele>68</ele>
        <time>2022-01-01T12:56:42Z</time>
      </trkpt>
      <trkpt lat="47.07324" lon="-1.78009">
        <ele>68</ele>
        <time>2022-01-01T12:56:44Z</time>
      </trkpt>
      <trkpt lat="47.07315" lon="-1.77997">
        <ele>68</ele>
        <time>2022-01-01T12:56:46Z</time>
      </trkpt>
      <trkpt lat="47.07306" lon="-1.77986">
        <ele>68</ele>
        <time>2022-01-01T12:56:48Z</time>
      </trkpt>
      <trkpt lat="47.07297" lon="-1.77976">
        <ele>69</ele>
        <time>2022-01-01T12:56:50Z</time>
      </trkpt>
      <trkpt lat="47.07288" lon="-1.77965">
        <ele>69</ele>
        <time>2022-01-01T12:56:52Z</time>
      </trkpt>
      <trkpt lat="47.07279" lon="-1.77954">
        <ele>69</ele>
        <time>2022-01-01T12:56:54Z</time>
      </trkpt>
      <trkpt lat="47.0727" lon="-1.77943">
        <ele>70</ele>
        <time>2022-01-01T12:56:56Z</time>
      </trkpt>
      <trkpt lat="47.07261" lon="-1.77931">
        <ele>70</ele>
        <time>2022-01-01T12:56:58Z</time>
      </trkpt>
      <trkpt lat="47.07252" lon="-1.77921">
        <ele>70</ele>
        <time>2022-01-01T12:57:00Z</time>
      </trkpt>
      <trkpt lat="47.07243" lon="-1.77909">
        <ele>70</ele>
        <time>2022-01-01T12:57:02Z</time>
      </trkpt>
      <trkpt lat="47.07234" lon="-1.77897">
        <ele>71</ele>
        <time>2022-01-01T12:57:04Z</time>
      </trkpt>
      <trkpt lat="47.07225" lon="-1.77887">
        <ele>72</ele>
        <time>2022-01-01T12:57:06Z</time>
      </trkpt>
      <trkpt lat="47.07215" lon="-1.77875">
        <ele>73</ele>
        <time>2022-01-01T12:57:08Z</time>
      </trkpt>
      <trkpt lat="47.07205" lon="-1.77863">
        <ele>73</ele>
        <time>2022-01-01T12:57:10Z</time>
      </trkpt>
      <trkpt lat="47.07194" lon="-1.77852">
        <ele>71</ele>
        <time>2022-01-01T12:57:12Z</time>
      </trkpt>
      <trkpt lat="47.07184" lon="-1.7784">
        <ele>71</ele>
        <time>2022-01-01T12:57:14Z</time>
      </trkpt>
      <trkpt lat="47.07175" lon="-1.77829">
        <ele>71</ele>
        <time>2022-01-01T12:57:16Z</time>
      </trkpt>
      <trkpt lat="47.07166" lon="-1.77817">
        <ele>71</ele>
        <time>2022-01-01T12:57:18Z</time>
      </trkpt>
      <trkpt lat="47.07157" lon="-1.77806">
        <ele>71</ele>
        <time>2022-01-01T12:57:20Z</time>
      </trkpt>
      <trkpt lat="47.07148" lon="-1.77793">
        <ele>71</ele>
        <time>2022-01-01T12:57:22Z</time>
      </trkpt>
      <trkpt lat="47.0714" lon="-1.7778">
        <ele>70</ele>
        <time>2022-01-01T12:57:24Z</time>
      </trkpt>
      <trkpt lat="47.07132" lon="-1.77767">
        <ele>70</ele>
        <time>2022-01-01T12:57:26Z</time>
      </trkpt>
      <trkpt lat="47.07126" lon="-1.77753">
        <ele>70</ele>
        <time>2022-01-01T12:57:28Z</time>
      </trkpt>
      <trkpt lat="47.07119" lon="-1.77739">
        <ele>70</ele>
        <time>2022-01-01T12:57:30Z</time>
      </trkpt>
      <trkpt lat="47.07113" lon="-1.77723">
        <ele>70</ele>
        <time>2022-01-01T12:57:32Z</time>
      </trkpt>
      <trkpt lat="47.07107" lon="-1.77709">
        <ele>70</ele>
        <time>2022-01-01T12:57:34Z</time>
      </trkpt>
      <trkpt lat="47.07101" lon="-1.77693">
        <ele>70</ele>
        <time>2022-01-01T12:57:36Z</time>
      </trkpt>
      <trkpt lat="47.07095" lon="-1.77678">
        <ele>70</ele>
        <time>2022-01-01T12:57:38Z</time>
      </trkpt>
      <trkpt lat="47.07089" lon="-1.77663">
        <ele>70</ele>
        <time>2022-01-01T12:57:40Z</time>
      </trkpt>
      <trkpt lat="47.07083" lon="-1.77647">
        <ele>70</ele>
        <time>2022-01-01T12:57:42Z</time>
      </trkpt>
      <trkpt lat="47.07077" lon="-1.77632">
        <ele>70</ele>
        <time>2022-01-01T12:57:44Z</time>
      </trkpt>
      <trkpt lat="47.07071" lon="-1.77617">
        <ele>70</ele>
        <time>2022-01-01T12:57:46Z</time>
      </trkpt>
      <trkpt lat="47.07065" lon="-1.77603">
        <ele>70</ele>
        <time>2022-01-01T12:57:48Z</time>
      </trkpt>
      <trkpt lat="47.07059" lon="-1.77589">
        <ele>70</ele>
        <time>2022-01-01T12:57:50Z</time>
      </trkpt>
      <trkpt lat="47.07054" lon="-1.77573">
        <ele>70</ele>
        <time>2022-01-01T12:57:52Z</time>
      </trkpt>
      <trkpt lat="47.07048" lon="-1.77558">
        <ele>70</ele>
        <time>2022-01-01T12:57:54Z</time>
      </trkpt>
      <trkpt lat="47.07042" lon="-1.77544">
        <ele>70</ele>
        <time>2022-01-01T12:57:56Z</time>
      </trkpt>
      <trkpt lat="47.07036" lon="-1.7753">
        <ele>71</ele>
        <time>2022-01-01T12:57:58Z</time>
      </trkpt>
      <trkpt lat="47.0703" lon="-1.77515">
        <ele>71</ele>
        <time>2022-01-01T12:58:00Z</time>
      </trkpt>
      <trkpt lat="47.07024" lon="-1.775">
        <ele>72</ele>
        <time>2022-01-01T12:58:02Z</time>
      </trkpt>
      <trkpt lat="47.07018" lon="-1.77485">
        <ele>72</ele>
        <time>2022-01-01T12:58:04Z</time>
      </trkpt>
      <trkpt lat="47.07012" lon="-1.7747">
        <ele>73</ele>
        <time>2022-01-01T12:58:06Z</time>
      </trkpt>
      <trkpt lat="47.07005" lon="-1.77456">
        <ele>73</ele>
        <time>2022-01-01T12:58:08Z</time>
      </trkpt>
      <trkpt lat="47.06998" lon="-1.77443">
        <ele>72</ele>
        <time>2022-01-01T12:58:10Z</time>
      </trkpt>
      <trkpt lat="47.0699" lon="-1.7743">
        <ele>73</ele>
        <time>2022-01-01T12:58:12Z</time>
      </trkpt>
      <trkpt lat="47.06983" lon="-1.77418">
        <ele>73</ele>
        <time>2022-01-01T12:58:14Z</time>
      </trkpt>
      <trkpt lat="47.06975" lon="-1.77406">
        <ele>73</ele>
        <time>2022-01-01T12:58:16Z</time>
      </trkpt>
      <trkpt lat="47.06966" lon="-1.77394">
        <ele>73</ele>
        <time>2022-01-01T12:58:18Z</time>
      </trkpt>
      <trkpt lat="47.06958" lon="-1.77382">
        <ele>73</ele>
        <time>2022-01-01T12:58:20Z</time>
      </trkpt>
      <trkpt lat="47.06949" lon="-1.7737">
        <ele>73</ele>
        <time>2022-01-01T12:58:22Z</time>
      </trkpt>
      <trkpt lat="47.06941" lon="-1.77358">
        <ele>73</ele>
        <time>2022-01-01T12:58:24Z</time>
      </trkpt>
      <trkpt lat="47.06932" lon="-1.77346">
        <ele>73</ele>
        <time>2022-01-01T12:58:26Z</time>
      </trkpt>
      <trkpt lat="47.06924" lon="-1.77334">
        <ele>73</ele>
        <time>2022-01-01T12:58:28Z</time>
      </trkpt>
      <trkpt lat="47.06915" lon="-1.77322">
        <ele>73</ele>
        <time>2022-01-01T12:58:30Z</time>
      </trkpt>
      <trkpt lat="47.06906" lon="-1.7731">
        <ele>73</ele>
        <time>2022-01-01T12:58:32Z</time>
      </trkpt>
      <trkpt lat="47.06898" lon="-1.77298">
        <ele>74</ele>
        <time>2022-01-01T12:58:34Z</time>
      </trkpt>
      <trkpt lat="47.0689" lon="-1.77285">
        <ele>74</ele>
        <time>2022-01-01T12:58:36Z</time>
      </trkpt>
      <trkpt lat="47.06881" lon="-1.77273">
        <ele>73</ele>
        <time>2022-01-01T12:58:38Z</time>
      </trkpt>
      <trkpt lat="47.06872" lon="-1.77261">
        <ele>74</ele>
        <time>2022-01-01T12:58:40Z</time>
      </trkpt>
      <trkpt lat="47.06863" lon="-1.77249">
        <ele>74</ele>
        <time>2022-01-01T12:58:42Z</time>
      </trkpt>
      <trkpt lat="47.06855" lon="-1.77236">
        <ele>74</ele>
        <time>2022-01-01T12:58:44Z</time>
      </trkpt>
      <trkpt lat="47.06846" lon="-1.77224">
        <ele>74</ele>
        <time>2022-01-01T12:58:46Z</time>
      </trkpt>
      <trkpt lat="47.06838" lon="-1.77211">
        <ele>73</ele>
        <time>2022-01-01T12:58:48Z</time>
      </trkpt>
      <trkpt lat="47.06828" lon="-1.77199">
        <ele>74</ele>
        <time>2022-01-01T12:58:50Z</time>
      </trkpt>
      <trkpt lat="47.06819" lon="-1.77186">
        <ele>74</ele>
        <time>2022-01-01T12:58:52Z</time>
      </trkpt>
      <trkpt lat="47.06811" lon="-1.77174">
        <ele>73</ele>
        <time>2022-01-01T12:58:54Z</time>
      </trkpt>
      <trkpt lat="47.06803" lon="-1.7716">
        <ele>74</ele>
        <time>2022-01-01T12:58:56Z</time>
      </trkpt>
      <trkpt lat="47.06795" lon="-1.77147">
        <ele>74</ele>
        <time>2022-01-01T12:58:58Z</time>
      </trkpt>
      <trkpt lat="47.06787" lon="-1.77133">
        <ele>73</ele>
        <time>2022-01-01T12:59:00Z</time>
      </trkpt>
      <trkpt lat="47.06778" lon="-1.77119">
        <ele>73</ele>
        <time>2022-01-01T12:59:02Z</time>
      </trkpt>
      <trkpt lat="47.0677" lon="-1.77106">
        <ele>74</ele>
        <time>2022-01-01T12:59:04Z</time>
      </trkpt>
      <trkpt lat="47.06762" lon="-1.77093">
        <ele>73</ele>
        <time>2022-01-01T12:59:06Z</time>
      </trkpt>
      <trkpt lat="47.06754" lon="-1.7708">
        <ele>74</ele>
        <time>2022-01-01T12:59:08Z</time>
      </trkpt>
      <trkpt lat="47.06747" lon="-1.77067">
        <ele>73</ele>
        <time>2022-01-01T12:59:10Z</time>
      </trkpt>
      <trkpt lat="47.06738" lon="-1.77053">
        <ele>74</ele>
        <time>2022-01-01T12:59:12Z</time>
      </trkpt>
      <trkpt lat="47.06731" lon="-1.7704">
        <ele>74</ele>
        <time>2022-01-01T12:59:14Z</time>
      </trkpt>
      <trkpt lat="47.06723" lon="-1.77027">
        <ele>74</ele>
        <time>2022-01-01T12:59:16Z</time>
      </trkpt>
      <trkpt lat="47.06715" lon="-1.77014">
        <ele>74</ele>
        <time>2022-01-01T12:59:18Z</time>
      </trkpt>
      <trkpt lat="47.06708" lon="-1.77">
        <ele>74</ele>
        <time>2022-01-01T12:59:20Z</time>
      </trkpt>
      <trkpt lat="47.06699" lon="-1.76987">
        <ele>74</ele>
        <time>2022-01-01T12:59:22Z</time>
      </trkpt>
      <trkpt lat="47.06691" lon="-1.76974">
        <ele>74</ele>
        <time>2022-01-01T12:59:24Z</time>
      </trkpt>
      <trkpt lat="47.06683" lon="-1.76961">
        <ele>75</ele>
        <time>2022-01-01T12:59:26Z</time>
      </trkpt>
      <trkpt lat="47.06675" lon="-1.76948">
        <ele>75</ele>
        <time>2022-01-01T12:59:28Z</time>
      </trkpt>
      <trkpt lat="47.06667" lon="-1.76935">
        <ele>75</ele>
        <time>2022-01-01T12:59:30Z</time>
      </trkpt>
      <trkpt lat="47.06659" lon="-1.76921">
        <ele>75</ele>
        <time>2022-01-01T12:59:32Z</time>
      </trkpt>
      <trkpt lat="47.06651" lon="-1.76908">
        <ele>76</ele>
        <time>2022-01-01T12:59:34Z</time>
      </trkpt>
      <trkpt lat="47.06644" lon="-1.76895">
        <ele>76</ele>
        <time>2022-01-01T12:59:36Z</time>
      </trkpt>
      <trkpt lat="47.06636" lon="-1.76882">
        <ele>76</ele>
        <time>2022-01-01T12:59:38Z</time>
      </trkpt>
      <trkpt lat="47.06628" lon="-1.76869">
        <ele>76</ele>
        <time>2022-01-01T12:59:40Z</time>
      </trkpt>
      <trkpt lat="47.0662" lon="-1.76856">
        <ele>76</ele>
        <time>2022-01-01T12:59:42Z</time>
      </trkpt>
      <trkpt lat="47.06612" lon="-1.76842">
        <ele>76</ele>
        <time>2022-01-01T12:59:44Z</time>
      </trkpt>
      <trkpt lat="47.06604" lon="-1.76828">
        <ele>77</ele>
        <time>2022-01-01T12:59:46Z</time>
      </trkpt>
      <trkpt lat="47.06596" lon="-1.76815">
        <ele>77</ele>
        <time>2022-01-01T12:59:48Z</time>
      </trkpt>
      <trkpt lat="47.06588" lon="-1.76801">
        <ele>78</ele>
        <time>2022-01-01T12:59:50Z</time>
      </trkpt>
      <trkpt lat="47.0658" lon="-1.76787">
        <ele>78</ele>
        <time>2022-01-01T12:59:52Z</time>
      </trkpt>
      <trkpt lat="47.06571" lon="-1.76773">
        <ele>78</ele>
        <time>2022-01-01T12:59:54Z</time>
      </trkpt>
      <trkpt lat="47.06564" lon="-1.76759">
        <ele>78</ele>
        <time>2022-01-01T12:59:56Z</time>
      </trkpt>
      <trkpt lat="47.06557" lon="-1.76747">
        <ele>78</ele>
        <time>2022-01-01T12:59:58Z</time>
      </trkpt>
      <trkpt lat="47.06549" lon="-1.76735">
        <ele>79</ele>
        <time>2022-01-01T13:00:00Z</time>
      </trkpt>
      <trkpt lat="47.06542" lon="-1.76722">
        <ele>78</ele>
        <time>2022-01-01T13:00:02Z</time>
      </trkpt>
      <trkpt lat="47.06535" lon="-1.7671">
        <ele>78</ele>
        <time>2022-01-01T13:00:04Z</time>
      </trkpt>
      <trkpt lat="47.06527" lon="-1.76697">
        <ele>79</ele>
        <time>2022-01-01T13:00:06Z</time>
      </trkpt>
      <trkpt lat="47.0652" lon="-1.76685">
        <ele>79</ele>
        <time>2022-01-01T13:00:08Z</time>
      </trkpt>
      <trkpt lat="47.06512" lon="-1.76672">
        <ele>79</ele>
        <time>2022-01-01T13:00:10Z</time>
      </trkpt>
      <trkpt lat="47.06504" lon="-1.76659">
        <ele>79</ele>
        <time>2022-01-01T13:00:12Z</time>
      </trkpt>
      <trkpt lat="47.06496" lon="-1.76646">
        <ele>79</ele>
        <time>2022-01-01T13:00:14Z</time>
      </trkpt>
      <trkpt lat="47.06489" lon="-1.76631">
        <ele>79</ele>
        <time>2022-01-01T13:00:16Z</time>
      </trkpt>
      <trkpt lat="47.06481" lon="-1.76617">
        <ele>79</ele>
        <time>2022-01-01T13:00:18Z</time>
      </trkpt>
      <trkpt lat="47.06473" lon="-1.76602">
        <ele>78</ele>
        <time>2022-01-01T13:00:20Z</time>
      </trkpt>
      <trkpt lat="47.06466" lon="-1.76587">
        <ele>78</ele>
        <time>2022-01-01T13:00:22Z</time>
      </trkpt>
      <trkpt lat="47.06459" lon="-1.76571">
        <ele>78</ele>
        <time>2022-01-01T13:00:24Z</time>
      </trkpt>
      <trkpt lat="47.06452" lon="-1.76553">
        <ele>78</ele>
        <time>2022-01-01T13:00:26Z</time>
      </trkpt>
      <trkpt lat="47.06446" lon="-1.76537">
        <ele>78</ele>
        <time>2022-01-01T13:00:28Z</time>
      </trkpt>
      <trkpt lat="47.0644" lon="-1.76521">
        <ele>77</ele>
        <time>2022-01-01T13:00:30Z</time>
      </trkpt>
      <trkpt lat="47.06433" lon="-1.76505">
        <ele>77</ele>
        <time>2022-01-01T13:00:32Z</time>
      </trkpt>
      <trkpt lat="47.06427" lon="-1.76489">
        <ele>77</ele>
        <time>2022-01-01T13:00:34Z</time>
      </trkpt>
      <trkpt lat="47.0642" lon="-1.76474">
        <ele>77</ele>
        <time>2022-01-01T13:00:36Z</time>
      </trkpt>
      <trkpt lat="47.06413" lon="-1.76459">
        <ele>77</ele>
        <time>2022-01-01T13:00:38Z</time>
      </trkpt>
      <trkpt lat="47.06406" lon="-1.76444">
        <ele>77</ele>
        <time>2022-01-01T13:00:40Z</time>
      </trkpt>
      <trkpt lat="47.06397" lon="-1.76431">
        <ele>76</ele>
        <time>2022-01-01T13:00:42Z</time>
      </trkpt>
      <trkpt lat="47.06387" lon="-1.76419">
        <ele>76</ele>
        <time>2022-01-01T13:00:44Z</time>
      </trkpt>
      <trkpt lat="47.06376" lon="-1.76409">
        <ele>76</ele>
        <time>2022-01-01T13:00:46Z</time>
      </trkpt>
      <trkpt lat="47.06365" lon="-1.76402">
        <ele>76</ele>
        <time>2022-01-01T13:00:48Z</time>
      </trkpt>
      <trkpt lat="47.06353" lon="-1.76396">
        <ele>76</ele>
        <time>2022-01-01T13:00:50Z</time>
      </trkpt>
      <trkpt lat="47.06341" lon="-1.76391">
        <ele>76</ele>
        <time>2022-01-01T13:00:52Z</time>
      </trkpt>
      <trkpt lat="47.0633" lon="-1.76386">
        <ele>75</ele>
        <time>2022-01-01T13:00:54Z</time>
      </trkpt>
      <trkpt lat="47.06319" lon="-1.7638">
        <ele>75</ele>
        <time>2022-01-01T13:00:56Z</time>
      </trkpt>
      <trkpt lat="47.06309" lon="-1.7637">
        <ele>75</ele>
        <time>2022-01-01T13:00:58Z</time>
      </trkpt>
      <trkpt lat="47.06302" lon="-1.7636">
        <ele>76</ele>
        <time>2022-01-01T13:01:00Z</time>
      </trkpt>
      <trkpt lat="47.06297" lon="-1.76342">
        <ele>77</ele>
        <time>2022-01-01T13:01:03Z</time>
      </trkpt>
      <trkpt lat="47.06294" lon="-1.76326">
        <ele>77</ele>
        <time>2022-01-01T13:01:05Z</time>
      </trkpt>
      <trkpt lat="47.06294" lon="-1.76307">
        <ele>77</ele>
        <time>2022-01-01T13:01:07Z</time>
      </trkpt>
      <trkpt lat="47.06297" lon="-1.76287">
        <ele>77</ele>
        <time>2022-01-01T13:01:09Z</time>
      </trkpt>
      <trkpt lat="47.06299" lon="-1.76268">
        <ele>78</ele>
        <time>2022-01-01T13:01:11Z</time>
      </trkpt>
      <trkpt lat="47.06299" lon="-1.76248">
        <ele>78</ele>
        <time>2022-01-01T13:01:13Z</time>
      </trkpt>
      <trkpt lat="47.06298" lon="-1.76228">
        <ele>78</ele>
        <time>2022-01-01T13:01:15Z</time>
      </trkpt>
      <trkpt lat="47.06295" lon="-1.76209">
        <ele>78</ele>
        <time>2022-01-01T13:01:17Z</time>
      </trkpt>
      <trkpt lat="47.0629" lon="-1.76191">
        <ele>78</ele>
        <time>2022-01-01T13:01:19Z</time>
      </trkpt>
      <trkpt lat="47.06284" lon="-1.76174">
        <ele>78</ele>
        <time>2022-01-01T13:01:21Z</time>
      </trkpt>
      <trkpt lat="47.06276" lon="-1.76159">
        <ele>78</ele>
        <time>2022-01-01T13:01:23Z</time>
      </trkpt>
      <trkpt lat="47.06267" lon="-1.76145">
        <ele>78</ele>
        <time>2022-01-01T13:01:25Z</time>
      </trkpt>
      <trkpt lat="47.06257" lon="-1.76132">
        <ele>77</ele>
        <time>2022-01-01T13:01:27Z</time>
      </trkpt>
      <trkpt lat="47.06246" lon="-1.76118">
        <ele>77</ele>
        <time>2022-01-01T13:01:29Z</time>
      </trkpt>
      <trkpt lat="47.06235" lon="-1.76105">
        <ele>77</ele>
        <time>2022-01-01T13:01:31Z</time>
      </trkpt>
      <trkpt lat="47.06224" lon="-1.76092">
        <ele>77</ele>
        <time>2022-01-01T13:01:33Z</time>
      </trkpt>
      <trkpt lat="47.06213" lon="-1.76079">
        <ele>77</ele>
        <time>2022-01-01T13:01:35Z</time>
      </trkpt>
      <trkpt lat="47.06203" lon="-1.76066">
        <ele>77</ele>
        <time>2022-01-01T13:01:37Z</time>
      </trkpt>
      <trkpt lat="47.06192" lon="-1.76054">
        <ele>77</ele>
        <time>2022-01-01T13:01:39Z</time>
      </trkpt>
      <trkpt lat="47.06181" lon="-1.76041">
        <ele>77</ele>
        <time>2022-01-01T13:01:41Z</time>
      </trkpt>
      <trkpt lat="47.0617" lon="-1.76029">
        <ele>77</ele>
        <time>2022-01-01T13:01:43Z</time>
      </trkpt>
      <trkpt lat="47.06159" lon="-1.76016">
        <ele>76</ele>
        <time>2022-01-01T13:01:45Z</time>
      </trkpt>
      <trkpt lat="47.06148" lon="-1.76002">
        <ele>76</ele>
        <time>2022-01-01T13:01:47Z</time>
      </trkpt>
      <trkpt lat="47.06137" lon="-1.75988">
        <ele>75</ele>
        <time>2022-01-01T13:01:49Z</time>
      </trkpt>
      <trkpt lat="47.06126" lon="-1.75975">
        <ele>74</ele>
        <time>2022-01-01T13:01:51Z</time>
      </trkpt>
      <trkpt lat="47.06115" lon="-1.75962">
        <ele>73</ele>
        <time>2022-01-01T13:01:53Z</time>
      </trkpt>
      <trkpt lat="47.06103" lon="-1.75949">
        <ele>73</ele>
        <time>2022-01-01T13:01:55Z</time>
      </trkpt>
      <trkpt lat="47.06092" lon="-1.75935">
        <ele>73</ele>
        <time>2022-01-01T13:01:57Z</time>
      </trkpt>
      <trkpt lat="47.0608" lon="-1.75922">
        <ele>72</ele>
        <time>2022-01-01T13:01:59Z</time>
      </trkpt>
      <trkpt lat="47.06069" lon="-1.75908">
        <ele>72</ele>
        <time>2022-01-01T13:02:01Z</time>
      </trkpt>
      <trkpt lat="47.06057" lon="-1.75894">
        <ele>72</ele>
        <time>2022-01-01T13:02:03Z</time>
      </trkpt>
      <trkpt lat="47.06045" lon="-1.7588">
        <ele>71</ele>
        <time>2022-01-01T13:02:05Z</time>
      </trkpt>
      <trkpt lat="47.06034" lon="-1.75866">
        <ele>71</ele>
        <time>2022-01-01T13:02:07Z</time>
      </trkpt>
      <trkpt lat="47.06023" lon="-1.75853">
        <ele>71</ele>
        <time>2022-01-01T13:02:09Z</time>
      </trkpt>
      <trkpt lat="47.06011" lon="-1.7584">
        <ele>70</ele>
        <time>2022-01-01T13:02:11Z</time>
      </trkpt>
      <trkpt lat="47.06" lon="-1.75826">
        <ele>70</ele>
        <time>2022-01-01T13:02:13Z</time>
      </trkpt>
      <trkpt lat="47.05988" lon="-1.75812">
        <ele>70</ele>
        <time>2022-01-01T13:02:15Z</time>
      </trkpt>
      <trkpt lat="47.05971" lon="-1.75792">
        <ele>70</ele>
        <time>2022-01-01T13:02:18Z</time>
      </trkpt>
      <trkpt lat="47.05962" lon="-1.75777">
        <ele>70</ele>
        <time>2022-01-01T13:02:20Z</time>
      </trkpt>
      <trkpt lat="47.05953" lon="-1.75761">
        <ele>70</ele>
        <time>2022-01-01T13:02:22Z</time>
      </trkpt>
      <trkpt lat="47.05944" lon="-1.75745">
        <ele>70</ele>
        <time>2022-01-01T13:02:24Z</time>
      </trkpt>
      <trkpt lat="47.05937" lon="-1.75729">
        <ele>70</ele>
        <time>2022-01-01T13:02:26Z</time>
      </trkpt>
      <trkpt lat="47.0593" lon="-1.75711">
        <ele>70</ele>
        <time>2022-01-01T13:02:28Z</time>
      </trkpt>
      <trkpt lat="47.05924" lon="-1.75692">
        <ele>70</ele>
        <time>2022-01-01T13:02:30Z</time>
      </trkpt>
      <trkpt lat="47.05917" lon="-1.75674">
        <ele>70</ele>
        <time>2022-01-01T13:02:32Z</time>
      </trkpt>
      <trkpt lat="47.05911" lon="-1.75656">
        <ele>70</ele>
        <time>2022-01-01T13:02:34Z</time>
      </trkpt>
      <trkpt lat="47.05905" lon="-1.75638">
        <ele>70</ele>
        <time>2022-01-01T13:02:36Z</time>
      </trkpt>
      <trkpt lat="47.05899" lon="-1.7562">
        <ele>70</ele>
        <time>2022-01-01T13:02:38Z</time>
      </trkpt>
      <trkpt lat="47.0589" lon="-1.75594">
        <ele>70</ele>
        <time>2022-01-01T13:02:41Z</time>
      </trkpt>
      <trkpt lat="47.05881" lon="-1.75567">
        <ele>69</ele>
        <time>2022-01-01T13:02:44Z</time>
      </trkpt>
      <trkpt lat="47.05875" lon="-1.75549">
        <ele>70</ele>
        <time>2022-01-01T13:02:46Z</time>
      </trkpt>
      <trkpt lat="47.05869" lon="-1.75531">
        <ele>70</ele>
        <time>2022-01-01T13:02:48Z</time>
      </trkpt>
      <trkpt lat="47.05863" lon="-1.75514">
        <ele>69</ele>
        <time>2022-01-01T13:02:50Z</time>
      </trkpt>
      <trkpt lat="47.05857" lon="-1.75496">
        <ele>69</ele>
        <time>2022-01-01T13:02:52Z</time>
      </trkpt>
      <trkpt lat="47.05851" lon="-1.75479">
        <ele>69</ele>
        <time>2022-01-01T13:02:54Z</time>
      </trkpt>
      <trkpt lat="47.05845" lon="-1.75461">
        <ele>69</ele>
        <time>2022-01-01T13:02:56Z</time>
      </trkpt>
      <trkpt lat="47.05839" lon="-1.75443">
        <ele>69</ele>
        <time>2022-01-01T13:02:58Z</time>
      </trkpt>
      <trkpt lat="47.05833" lon="-1.75426">
        <ele>69</ele>
        <time>2022-01-01T13:03:00Z</time>
      </trkpt>
      <trkpt lat="47.05826" lon="-1.75409">
        <ele>69</ele>
        <time>2022-01-01T13:03:02Z</time>
      </trkpt>
      <trkpt lat="47.05819" lon="-1.75393">
        <ele>69</ele>
        <time>2022-01-01T13:03:04Z</time>
      </trkpt>
      <trkpt lat="47.05813" lon="-1.75377">
        <ele>69</ele>
        <time>2022-01-01T13:03:06Z</time>
      </trkpt>
      <trkpt lat="47.05806" lon="-1.75361">
        <ele>69</ele>
        <time>2022-01-01T13:03:08Z</time>
      </trkpt>
      <trkpt lat="47.05798" lon="-1.75344">
        <ele>69</ele>
        <time>2022-01-01T13:03:10Z</time>
      </trkpt>
      <trkpt lat="47.05791" lon="-1.75328">
        <ele>69</ele>
        <time>2022-01-01T13:03:12Z</time>
      </trkpt>
      <trkpt lat="47.05784" lon="-1.75311">
        <ele>69</ele>
        <time>2022-01-01T13:03:14Z</time>
      </trkpt>
      <trkpt lat="47.05777" lon="-1.75296">
        <ele>68</ele>
        <time>2022-01-01T13:03:16Z</time>
      </trkpt>
      <trkpt lat="47.05769" lon="-1.7528">
        <ele>68</ele>
        <time>2022-01-01T13:03:18Z</time>
      </trkpt>
      <trkpt lat="47.05762" lon="-1.75264">
        <ele>68</ele>
        <time>2022-01-01T13:03:20Z</time>
      </trkpt>
      <trkpt lat="47.05755" lon="-1.75247">
        <ele>68</ele>
        <time>2022-01-01T13:03:22Z</time>
      </trkpt>
      <trkpt lat="47.05747" lon="-1.7523">
        <ele>68</ele>
        <time>2022-01-01T13:03:24Z</time>
      </trkpt>
      <trkpt lat="47.0574" lon="-1.75214">
        <ele>68</ele>
        <time>2022-01-01T13:03:26Z</time>
      </trkpt>
      <trkpt lat="47.05733" lon="-1.75197">
        <ele>67</ele>
        <time>2022-01-01T13:03:28Z</time>
      </trkpt>
      <trkpt lat="47.05725" lon="-1.7518">
        <ele>67</ele>
        <time>2022-01-01T13:03:30Z</time>
      </trkpt>
      <trkpt lat="47.05718" lon="-1.75164">
        <ele>67</ele>
        <time>2022-01-01T13:03:32Z</time>
      </trkpt>
      <trkpt lat="47.0571" lon="-1.75147">
        <ele>66</ele>
        <time>2022-01-01T13:03:34Z</time>
      </trkpt>
      <trkpt lat="47.05702" lon="-1.7513">
        <ele>66</ele>
        <time>2022-01-01T13:03:36Z</time>
      </trkpt>
      <trkpt lat="47.05694" lon="-1.75111">
        <ele>65</ele>
        <time>2022-01-01T13:03:38Z</time>
      </trkpt>
      <trkpt lat="47.05685" lon="-1.75093">
        <ele>64</ele>
        <time>2022-01-01T13:03:40Z</time>
      </trkpt>
      <trkpt lat="47.05674" lon="-1.75076">
        <ele>64</ele>
        <time>2022-01-01T13:03:42Z</time>
      </trkpt>
      <trkpt lat="47.05661" lon="-1.75061">
        <ele>63</ele>
        <time>2022-01-01T13:03:44Z</time>
      </trkpt>
      <trkpt lat="47.05648" lon="-1.75047">
        <ele>62</ele>
        <time>2022-01-01T13:03:46Z</time>
      </trkpt>
      <trkpt lat="47.05634" lon="-1.75033">
        <ele>61</ele>
        <time>2022-01-01T13:03:48Z</time>
      </trkpt>
      <trkpt lat="47.05621" lon="-1.75019">
        <ele>61</ele>
        <time>2022-01-01T13:03:50Z</time>
      </trkpt>
      <trkpt lat="47.05607" lon="-1.75005">
        <ele>60</ele>
        <time>2022-01-01T13:03:52Z</time>
      </trkpt>
      <trkpt lat="47.05593" lon="-1.74992">
        <ele>59</ele>
        <time>2022-01-01T13:03:54Z</time>
      </trkpt>
      <trkpt lat="47.05579" lon="-1.74978">
        <ele>59</ele>
        <time>2022-01-01T13:03:56Z</time>
      </trkpt>
      <trkpt lat="47.05565" lon="-1.74964">
        <ele>58</ele>
        <time>2022-01-01T13:03:58Z</time>
      </trkpt>
      <trkpt lat="47.05551" lon="-1.7495">
        <ele>58</ele>
        <time>2022-01-01T13:04:00Z</time>
      </trkpt>
      <trkpt lat="47.05536" lon="-1.74935">
        <ele>57</ele>
        <time>2022-01-01T13:04:02Z</time>
      </trkpt>
      <trkpt lat="47.05522" lon="-1.74921">
        <ele>56</ele>
        <time>2022-01-01T13:04:04Z</time>
      </trkpt>
      <trkpt lat="47.05508" lon="-1.74907">
        <ele>56</ele>
        <time>2022-01-01T13:04:06Z</time>
      </trkpt>
      <trkpt lat="47.05494" lon="-1.74893">
        <ele>55</ele>
        <time>2022-01-01T13:04:08Z</time>
      </trkpt>
      <trkpt lat="47.0548" lon="-1.74879">
        <ele>55</ele>
        <time>2022-01-01T13:04:10Z</time>
      </trkpt>
      <trkpt lat="47.05465" lon="-1.74866">
        <ele>55</ele>
        <time>2022-01-01T13:04:12Z</time>
      </trkpt>
      <trkpt lat="47.05451" lon="-1.74854">
        <ele>54</ele>
        <time>2022-01-01T13:04:14Z</time>
      </trkpt>
      <trkpt lat="47.05437" lon="-1.74842">
        <ele>55</ele>
        <time>2022-01-01T13:04:16Z</time>
      </trkpt>
      <trkpt lat="47.05423" lon="-1.74832">
        <ele>55</ele>
        <time>2022-01-01T13:04:18Z</time>
      </trkpt>
      <trkpt lat="47.05408" lon="-1.74821">
        <ele>55</ele>
        <time>2022-01-01T13:04:20Z</time>
      </trkpt>
      <trkpt lat="47.05394" lon="-1.7481">
        <ele>56</ele>
        <time>2022-01-01T13:04:22Z</time>
      </trkpt>
      <trkpt lat="47.0538" lon="-1.74798">
        <ele>56</ele>
        <time>2022-01-01T13:04:24Z</time>
      </trkpt>
      <trkpt lat="47.05366" lon="-1.74786">
        <ele>56</ele>
        <time>2022-01-01T13:04:26Z</time>
      </trkpt>
      <trkpt lat="47.05354" lon="-1.74772">
        <ele>55</ele>
        <time>2022-01-01T13:04:28Z</time>
      </trkpt>
      <trkpt lat="47.05343" lon="-1.74756">
        <ele>55</ele>
        <time>2022-01-01T13:04:30Z</time>
      </trkpt>
      <trkpt lat="47.05333" lon="-1.74739">
        <ele>55</ele>
        <time>2022-01-01T13:04:32Z</time>
      </trkpt>
      <trkpt lat="47.05324" lon="-1.74722">
        <ele>55</ele>
        <time>2022-01-01T13:04:34Z</time>
      </trkpt>
      <trkpt lat="47.05316" lon="-1.74705">
        <ele>56</ele>
        <time>2022-01-01T13:04:36Z</time>
      </trkpt>
      <trkpt lat="47.05308" lon="-1.74689">
        <ele>56</ele>
        <time>2022-01-01T13:04:38Z</time>
      </trkpt>
      <trkpt lat="47.05301" lon="-1.74672">
        <ele>56</ele>
        <time>2022-01-01T13:04:40Z</time>
      </trkpt>
      <trkpt lat="47.05293" lon="-1.74657">
        <ele>56</ele>
        <time>2022-01-01T13:04:42Z</time>
      </trkpt>
      <trkpt lat="47.05286" lon="-1.74642">
        <ele>57</ele>
        <time>2022-01-01T13:04:44Z</time>
      </trkpt>
      <trkpt lat="47.05279" lon="-1.74626">
        <ele>57</ele>
        <time>2022-01-01T13:04:46Z</time>
      </trkpt>
      <trkpt lat="47.05272" lon="-1.7461">
        <ele>57</ele>
        <time>2022-01-01T13:04:48Z</time>
      </trkpt>
      <trkpt lat="47.05265" lon="-1.74595">
        <ele>57</ele>
        <time>2022-01-01T13:04:50Z</time>
      </trkpt>
      <trkpt lat="47.05258" lon="-1.7458">
        <ele>57</ele>
        <time>2022-01-01T13:04:52Z</time>
      </trkpt>
      <trkpt lat="47.05252" lon="-1.74566">
        <ele>57</ele>
        <time>2022-01-01T13:04:54Z</time>
      </trkpt>
      <trkpt lat="47.05246" lon="-1.74552">
        <ele>58</ele>
        <time>2022-01-01T13:04:56Z</time>
      </trkpt>
      <trkpt lat="47.0524" lon="-1.74538">
        <ele>58</ele>
        <time>2022-01-01T13:04:58Z</time>
      </trkpt>
      <trkpt lat="47.05235" lon="-1.74524">
        <ele>58</ele>
        <time>2022-01-01T13:05:00Z</time>
      </trkpt>
      <trkpt lat="47.05231" lon="-1.74509">
        <ele>59</ele>
        <time>2022-01-01T13:05:02Z</time>
      </trkpt>
      <trkpt lat="47.05227" lon="-1.74493">
        <ele>59</ele>
        <time>2022-01-01T13:05:04Z</time>
      </trkpt>
      <trkpt lat="47.05224" lon="-1.74478">
        <ele>59</ele>
        <time>2022-01-01T13:05:06Z</time>
      </trkpt>
      <trkpt lat="47.05222" lon="-1.74462">
        <ele>59</ele>
        <time>2022-01-01T13:05:08Z</time>
      </trkpt>
      <trkpt lat="47.05221" lon="-1.74447">
        <ele>60</ele>
        <time>2022-01-01T13:05:10Z</time>
      </trkpt>
      <trkpt lat="47.05221" lon="-1.74431">
        <ele>60</ele>
        <time>2022-01-01T13:05:12Z</time>
      </trkpt>
      <trkpt lat="47.05221" lon="-1.74416">
        <ele>61</ele>
        <time>2022-01-01T13:05:14Z</time>
      </trkpt>
      <trkpt lat="47.05221" lon="-1.744">
        <ele>61</ele>
        <time>2022-01-01T13:05:16Z</time>
      </trkpt>
      <trkpt lat="47.05221" lon="-1.74384">
        <ele>62</ele>
        <time>2022-01-01T13:05:18Z</time>
      </trkpt>
      <trkpt lat="47.05222" lon="-1.74367">
        <ele>62</ele>
        <time>2022-01-01T13:05:20Z</time>
      </trkpt>
      <trkpt lat="47.05222" lon="-1.74352">
        <ele>63</ele>
        <time>2022-01-01T13:05:22Z</time>
      </trkpt>
      <trkpt lat="47.05223" lon="-1.74335">
        <ele>63</ele>
        <time>2022-01-01T13:05:24Z</time>
      </trkpt>
      <trkpt lat="47.05223" lon="-1.74319">
        <ele>63</ele>
        <time>2022-01-01T13:05:26Z</time>
      </trkpt>
      <trkpt lat="47.05224" lon="-1.74302">
        <ele>64</ele>
        <time>2022-01-01T13:05:28Z</time>
      </trkpt>
      <trkpt lat="47.05224" lon="-1.74286">
        <ele>64</ele>
        <time>2022-01-01T13:05:30Z</time>
      </trkpt>
      <trkpt lat="47.05224" lon="-1.7427">
        <ele>65</ele>
        <time>2022-01-01T13:05:32Z</time>
      </trkpt>
      <trkpt lat="47.05224" lon="-1.74254">
        <ele>65</ele>
        <time>2022-01-01T13:05:34Z</time>
      </trkpt>
      <trkpt lat="47.05224" lon="-1.74239">
        <ele>66</ele>
        <time>2022-01-01T13:05:36Z</time>
      </trkpt>
      <trkpt lat="47.05224" lon="-1.74223">
        <ele>66</ele>
        <time>2022-01-01T13:05:38Z</time>
      </trkpt>
      <trkpt lat="47.05225" lon="-1.74207">
        <ele>66</ele>
        <time>2022-01-01T13:05:40Z</time>
      </trkpt>
      <trkpt lat="47.05225" lon="-1.74191">
        <ele>67</ele>
        <time>2022-01-01T13:05:42Z</time>
      </trkpt>
      <trkpt lat="47.05226" lon="-1.74176">
        <ele>67</ele>
        <time>2022-01-01T13:05:44Z</time>
      </trkpt>
      <trkpt lat="47.05226" lon="-1.74161">
        <ele>67</ele>
        <time>2022-01-01T13:05:46Z</time>
      </trkpt>
      <trkpt lat="47.05226" lon="-1.74145">
        <ele>67</ele>
        <time>2022-01-01T13:05:48Z</time>
      </trkpt>
      <trkpt lat="47.05227" lon="-1.74129">
        <ele>67</ele>
        <time>2022-01-01T13:05:50Z</time>
      </trkpt>
      <trkpt lat="47.05227" lon="-1.74113">
        <ele>67</ele>
        <time>2022-01-01T13:05:52Z</time>
      </trkpt>
      <trkpt lat="47.05227" lon="-1.74097">
        <ele>68</ele>
        <time>2022-01-01T13:05:54Z</time>
      </trkpt>
      <trkpt lat="47.05228" lon="-1.74081">
        <ele>68</ele>
        <time>2022-01-01T13:05:56Z</time>
      </trkpt>
      <trkpt lat="47.05228" lon="-1.74064">
        <ele>68</ele>
        <time>2022-01-01T13:05:58Z</time>
      </trkpt>
      <trkpt lat="47.05229" lon="-1.74048">
        <ele>68</ele>
        <time>2022-01-01T13:06:00Z</time>
      </trkpt>
      <trkpt lat="47.05229" lon="-1.74031">
        <ele>68</ele>
        <time>2022-01-01T13:06:02Z</time>
      </trkpt>
      <trkpt lat="47.05229" lon="-1.74014">
        <ele>68</ele>
        <time>2022-01-01T13:06:04Z</time>
      </trkpt>
      <trkpt lat="47.05229" lon="-1.73997">
        <ele>69</ele>
        <time>2022-01-01T13:06:06Z</time>
      </trkpt>
      <trkpt lat="47.05229" lon="-1.7398">
        <ele>69</ele>
        <time>2022-01-01T13:06:08Z</time>
      </trkpt>
      <trkpt lat="47.05229" lon="-1.73964">
        <ele>69</ele>
        <time>2022-01-01T13:06:10Z</time>
      </trkpt>
      <trkpt lat="47.0523" lon="-1.73948">
        <ele>69</ele>
        <time>2022-01-01T13:06:12Z</time>
      </trkpt>
      <trkpt lat="47.0523" lon="-1.73931">
        <ele>69</ele>
        <time>2022-01-01T13:06:14Z</time>
      </trkpt>
      <trkpt lat="47.0523" lon="-1.73915">
        <ele>69</ele>
        <time>2022-01-01T13:06:16Z</time>
      </trkpt>
      <trkpt lat="47.05231" lon="-1.73898">
        <ele>69</ele>
        <time>2022-01-01T13:06:18Z</time>
      </trkpt>
      <trkpt lat="47.05231" lon="-1.73882">
        <ele>69</ele>
        <time>2022-01-01T13:06:20Z</time>
      </trkpt>
      <trkpt lat="47.05231" lon="-1.73866">
        <ele>69</ele>
        <time>2022-01-01T13:06:22Z</time>
      </trkpt>
      <trkpt lat="47.05232" lon="-1.73849">
        <ele>69</ele>
        <time>2022-01-01T13:06:24Z</time>
      </trkpt>
      <trkpt lat="47.05233" lon="-1.73832">
        <ele>69</ele>
        <time>2022-01-01T13:06:26Z</time>
      </trkpt>
      <trkpt lat="47.05233" lon="-1.73815">
        <ele>70</ele>
        <time>2022-01-01T13:06:28Z</time>
      </trkpt>
      <trkpt lat="47.05233" lon="-1.73797">
        <ele>70</ele>
        <time>2022-01-01T13:06:30Z</time>
      </trkpt>
      <trkpt lat="47.05233" lon="-1.7378">
        <ele>69</ele>
        <time>2022-01-01T13:06:32Z</time>
      </trkpt>
      <trkpt lat="47.05233" lon="-1.73764">
        <ele>69</ele>
        <time>2022-01-01T13:06:34Z</time>
      </trkpt>
      <trkpt lat="47.05234" lon="-1.73747">
        <ele>69</ele>
        <time>2022-01-01T13:06:36Z</time>
      </trkpt>
      <trkpt lat="47.05234" lon="-1.7373">
        <ele>69</ele>
        <time>2022-01-01T13:06:38Z</time>
      </trkpt>
      <trkpt lat="47.05235" lon="-1.73713">
        <ele>70</ele>
        <time>2022-01-01T13:06:40Z</time>
      </trkpt>
      <trkpt lat="47.05236" lon="-1.73697">
        <ele>70</ele>
        <time>2022-01-01T13:06:42Z</time>
      </trkpt>
      <trkpt lat="47.05237" lon="-1.73681">
        <ele>70</ele>
        <time>2022-01-01T13:06:44Z</time>
      </trkpt>
      <trkpt lat="47.0524" lon="-1.73665">
        <ele>70</ele>
        <time>2022-01-01T13:06:46Z</time>
      </trkpt>
      <trkpt lat="47.05243" lon="-1.73649">
        <ele>70</ele>
        <time>2022-01-01T13:06:48Z</time>
      </trkpt>
      <trkpt lat="47.05247" lon="-1.73633">
        <ele>70</ele>
        <time>2022-01-01T13:06:50Z</time>
      </trkpt>
      <trkpt lat="47.05252" lon="-1.73616">
        <ele>70</ele>
        <time>2022-01-01T13:06:52Z</time>
      </trkpt>
      <trkpt lat="47.05257" lon="-1.736">
        <ele>70</ele>
        <time>2022-01-01T13:06:54Z</time>
      </trkpt>
      <trkpt lat="47.05262" lon="-1.73584">
        <ele>69</ele>
        <time>2022-01-01T13:06:56Z</time>
      </trkpt>
      <trkpt lat="47.05268" lon="-1.73568">
        <ele>69</ele>
        <time>2022-01-01T13:06:58Z</time>
      </trkpt>
      <trkpt lat="47.05273" lon="-1.73552">
        <ele>68</ele>
        <time>2022-01-01T13:07:00Z</time>
      </trkpt>
      <trkpt lat="47.05279" lon="-1.73535">
        <ele>68</ele>
        <time>2022-01-01T13:07:02Z</time>
      </trkpt>
      <trkpt lat="47.05285" lon="-1.73517">
        <ele>68</ele>
        <time>2022-01-01T13:07:04Z</time>
      </trkpt>
      <trkpt lat="47.05291" lon="-1.735">
        <ele>68</ele>
        <time>2022-01-01T13:07:06Z</time>
      </trkpt>
      <trkpt lat="47.05296" lon="-1.73482">
        <ele>68</ele>
        <time>2022-01-01T13:07:08Z</time>
      </trkpt>
      <trkpt lat="47.05301" lon="-1.73464">
        <ele>69</ele>
        <time>2022-01-01T13:07:10Z</time>
      </trkpt>
      <trkpt lat="47.05304" lon="-1.73443">
        <ele>69</ele>
        <time>2022-01-01T13:07:12Z</time>
      </trkpt>
      <trkpt lat="47.05307" lon="-1.73424">
        <ele>69</ele>
        <time>2022-01-01T13:07:14Z</time>
      </trkpt>
      <trkpt lat="47.0531" lon="-1.73403">
        <ele>69</ele>
        <time>2022-01-01T13:07:16Z</time>
      </trkpt>
      <trkpt lat="47.05312" lon="-1.73384">
        <ele>69</ele>
        <time>2022-01-01T13:07:18Z</time>
      </trkpt>
      <trkpt lat="47.05315" lon="-1.73365">
        <ele>69</ele>
        <time>2022-01-01T13:07:20Z</time>
      </trkpt>
      <trkpt lat="47.05318" lon="-1.73346">
        <ele>69</ele>
        <time>2022-01-01T13:07:22Z</time>
      </trkpt>
      <trkpt lat="47.0532" lon="-1.73328">
        <ele>69</ele>
        <time>2022-01-01T13:07:24Z</time>
      </trkpt>
      <trkpt lat="47.05322" lon="-1.73309">
        <ele>69</ele>
        <time>2022-01-01T13:07:26Z</time>
      </trkpt>
      <trkpt lat="47.05323" lon="-1.7329">
        <ele>70</ele>
        <time>2022-01-01T13:07:28Z</time>
      </trkpt>
      <trkpt lat="47.05323" lon="-1.73272">
        <ele>70</ele>
        <time>2022-01-01T13:07:30Z</time>
      </trkpt>
      <trkpt lat="47.05321" lon="-1.73255">
        <ele>70</ele>
        <time>2022-01-01T13:07:32Z</time>
      </trkpt>
      <trkpt lat="47.05319" lon="-1.73239">
        <ele>71</ele>
        <time>2022-01-01T13:07:34Z</time>
      </trkpt>
      <trkpt lat="47.05316" lon="-1.73222">
        <ele>71</ele>
        <time>2022-01-01T13:07:36Z</time>
      </trkpt>
      <trkpt lat="47.05314" lon="-1.73205">
        <ele>71</ele>
        <time>2022-01-01T13:07:38Z</time>
      </trkpt>
      <trkpt lat="47.0531" lon="-1.73187">
        <ele>71</ele>
        <time>2022-01-01T13:07:40Z</time>
      </trkpt>
      <trkpt lat="47.05308" lon="-1.73171">
        <ele>72</ele>
        <time>2022-01-01T13:07:42Z</time>
      </trkpt>
      <trkpt lat="47.05305" lon="-1.73154">
        <ele>73</ele>
        <time>2022-01-01T13:07:44Z</time>
      </trkpt>
      <trkpt lat="47.05303" lon="-1.7314">
        <ele>73</ele>
        <time>2022-01-01T13:07:46Z</time>
      </trkpt>
      <trkpt lat="47.0531" lon="-1.73128">
        <ele>72</ele>
        <time>2022-01-01T13:07:48Z</time>
      </trkpt>
      <trkpt lat="47.0532" lon="-1.73119">
        <ele>73</ele>
        <time>2022-01-01T13:07:50Z</time>
      </trkpt>
      <trkpt lat="47.05328" lon="-1.73107">
        <ele>74</ele>
        <time>2022-01-01T13:07:52Z</time>
      </trkpt>
      <trkpt lat="47.05335" lon="-1.73094">
        <ele>74</ele>
        <time>2022-01-01T13:07:54Z</time>
      </trkpt>
      <trkpt lat="47.05343" lon="-1.73081">
        <ele>74</ele>
        <time>2022-01-01T13:07:56Z</time>
      </trkpt>
      <trkpt lat="47.05351" lon="-1.73068">
        <ele>73</ele>
        <time>2022-01-01T13:07:58Z</time>
      </trkpt>
      <trkpt lat="47.05359" lon="-1.73054">
        <ele>73</ele>
        <time>2022-01-01T13:08:00Z</time>
      </trkpt>
      <trkpt lat="47.05367" lon="-1.73041">
        <ele>73</ele>
        <time>2022-01-01T13:08:02Z</time>
      </trkpt>
      <trkpt lat="47.05376" lon="-1.73028">
        <ele>73</ele>
        <time>2022-01-01T13:08:04Z</time>
      </trkpt>
      <trkpt lat="47.05384" lon="-1.73015">
        <ele>73</ele>
        <time>2022-01-01T13:08:06Z</time>
      </trkpt>
      <trkpt lat="47.05392" lon="-1.73002">
        <ele>73</ele>
        <time>2022-01-01T13:08:08Z</time>
      </trkpt>
      <trkpt lat="47.05398" lon="-1.72988">
        <ele>73</ele>
        <time>2022-01-01T13:08:10Z</time>
      </trkpt>
      <trkpt lat="47.05405" lon="-1.72973">
        <ele>73</ele>
        <time>2022-01-01T13:08:12Z</time>
      </trkpt>
      <trkpt lat="47.05411" lon="-1.72958">
        <ele>73</ele>
        <time>2022-01-01T13:08:14Z</time>
      </trkpt>
      <trkpt lat="47.05418" lon="-1.72943">
        <ele>73</ele>
        <time>2022-01-01T13:08:16Z</time>
      </trkpt>
      <trkpt lat="47.05425" lon="-1.72928">
        <ele>73</ele>
        <time>2022-01-01T13:08:18Z</time>
      </trkpt>
      <trkpt lat="47.05432" lon="-1.72913">
        <ele>72</ele>
        <time>2022-01-01T13:08:20Z</time>
      </trkpt>
      <trkpt lat="47.0544" lon="-1.72899">
        <ele>72</ele>
        <time>2022-01-01T13:08:22Z</time>
      </trkpt>
      <trkpt lat="47.0545" lon="-1.72886">
        <ele>72</ele>
        <time>2022-01-01T13:08:24Z</time>
      </trkpt>
      <trkpt lat="47.05459" lon="-1.72874">
        <ele>72</ele>
        <time>2022-01-01T13:08:26Z</time>
      </trkpt>
      <trkpt lat="47.05469" lon="-1.7286">
        <ele>72</ele>
        <time>2022-01-01T13:08:28Z</time>
      </trkpt>
      <trkpt lat="47.05479" lon="-1.72846">
        <ele>72</ele>
        <time>2022-01-01T13:08:30Z</time>
      </trkpt>
      <trkpt lat="47.05488" lon="-1.72832">
        <ele>72</ele>
        <time>2022-01-01T13:08:32Z</time>
      </trkpt>
      <trkpt lat="47.05498" lon="-1.72817">
        <ele>72</ele>
        <time>2022-01-01T13:08:34Z</time>
      </trkpt>
      <trkpt lat="47.05507" lon="-1.72802">
        <ele>72</ele>
        <time>2022-01-01T13:08:36Z</time>
      </trkpt>
      <trkpt lat="47.05514" lon="-1.72784">
        <ele>71</ele>
        <time>2022-01-01T13:08:38Z</time>
      </trkpt>
      <trkpt lat="47.05518" lon="-1.72765">
        <ele>71</ele>
        <time>2022-01-01T13:08:40Z</time>
      </trkpt>
      <trkpt lat="47.0552" lon="-1.72745">
        <ele>72</ele>
        <time>2022-01-01T13:08:42Z</time>
      </trkpt>
      <trkpt lat="47.05522" lon="-1.72726">
        <ele>71</ele>
        <time>2022-01-01T13:08:44Z</time>
      </trkpt>
      <trkpt lat="47.05524" lon="-1.72709">
        <ele>72</ele>
        <time>2022-01-01T13:08:46Z</time>
      </trkpt>
      <trkpt lat="47.05527" lon="-1.72692">
        <ele>73</ele>
        <time>2022-01-01T13:08:48Z</time>
      </trkpt>
      <trkpt lat="47.0553" lon="-1.72677">
        <ele>73</ele>
        <time>2022-01-01T13:08:50Z</time>
      </trkpt>
      <trkpt lat="47.05535" lon="-1.7266">
        <ele>72</ele>
        <time>2022-01-01T13:08:53Z</time>
      </trkpt>
      <trkpt lat="47.05544" lon="-1.72656">
        <ele>73</ele>
        <time>2022-01-01T13:08:55Z</time>
      </trkpt>
      <trkpt lat="47.05556" lon="-1.72657">
        <ele>72</ele>
        <time>2022-01-01T13:08:57Z</time>
      </trkpt>
      <trkpt lat="47.05568" lon="-1.72655">
        <ele>72</ele>
        <time>2022-01-01T13:08:59Z</time>
      </trkpt>
      <trkpt lat="47.05577" lon="-1.72644">
        <ele>72</ele>
        <time>2022-01-01T13:09:01Z</time>
      </trkpt>
      <trkpt lat="47.05576" lon="-1.72625">
        <ele>72</ele>
        <time>2022-01-01T13:09:03Z</time>
      </trkpt>
      <trkpt lat="47.05571" lon="-1.72608">
        <ele>72</ele>
        <time>2022-01-01T13:09:05Z</time>
      </trkpt>
      <trkpt lat="47.05566" lon="-1.72589">
        <ele>72</ele>
        <time>2022-01-01T13:09:07Z</time>
      </trkpt>
      <trkpt lat="47.05562" lon="-1.7257">
        <ele>72</ele>
        <time>2022-01-01T13:09:09Z</time>
      </trkpt>
      <trkpt lat="47.05558" lon="-1.72551">
        <ele>72</ele>
        <time>2022-01-01T13:09:11Z</time>
      </trkpt>
      <trkpt lat="47.05554" lon="-1.72534">
        <ele>72</ele>
        <time>2022-01-01T13:09:13Z</time>
      </trkpt>
      <trkpt lat="47.0555" lon="-1.72516">
        <ele>72</ele>
        <time>2022-01-01T13:09:15Z</time>
      </trkpt>
      <trkpt lat="47.05546" lon="-1.72498">
        <ele>72</ele>
        <time>2022-01-01T13:09:17Z</time>
      </trkpt>
      <trkpt lat="47.05542" lon="-1.72479">
        <ele>73</ele>
        <time>2022-01-01T13:09:19Z</time>
      </trkpt>
      <trkpt lat="47.05537" lon="-1.72462">
        <ele>73</ele>
        <time>2022-01-01T13:09:21Z</time>
      </trkpt>
      <trkpt lat="47.05532" lon="-1.72445">
        <ele>73</ele>
        <time>2022-01-01T13:09:23Z</time>
      </trkpt>
      <trkpt lat="47.05527" lon="-1.72428">
        <ele>73</ele>
        <time>2022-01-01T13:09:25Z</time>
      </trkpt>
      <trkpt lat="47.05522" lon="-1.72411">
        <ele>73</ele>
        <time>2022-01-01T13:09:27Z</time>
      </trkpt>
      <trkpt lat="47.05517" lon="-1.72393">
        <ele>73</ele>
        <time>2022-01-01T13:09:29Z</time>
      </trkpt>
      <trkpt lat="47.05512" lon="-1.72375">
        <ele>73</ele>
        <time>2022-01-01T13:09:31Z</time>
      </trkpt>
      <trkpt lat="47.05507" lon="-1.72357">
        <ele>73</ele>
        <time>2022-01-01T13:09:33Z</time>
      </trkpt>
      <trkpt lat="47.05502" lon="-1.7234">
        <ele>73</ele>
        <time>2022-01-01T13:09:35Z</time>
      </trkpt>
      <trkpt lat="47.05498" lon="-1.72323">
        <ele>72</ele>
        <time>2022-01-01T13:09:37Z</time>
      </trkpt>
      <trkpt lat="47.05493" lon="-1.72306">
        <ele>72</ele>
        <time>2022-01-01T13:09:39Z</time>
      </trkpt>
      <trkpt lat="47.05489" lon="-1.72288">
        <ele>71</ele>
        <time>2022-01-01T13:09:41Z</time>
      </trkpt>
      <trkpt lat="47.05485" lon="-1.7227">
        <ele>71</ele>
        <time>2022-01-01T13:09:43Z</time>
      </trkpt>
      <trkpt lat="47.05481" lon="-1.72252">
        <ele>70</ele>
        <time>2022-01-01T13:09:45Z</time>
      </trkpt>
      <trkpt lat="47.05477" lon="-1.72232">
        <ele>70</ele>
        <time>2022-01-01T13:09:47Z</time>
      </trkpt>
      <trkpt lat="47.05473" lon="-1.72213">
        <ele>70</ele>
        <time>2022-01-01T13:09:49Z</time>
      </trkpt>
      <trkpt lat="47.05468" lon="-1.72192">
        <ele>70</ele>
        <time>2022-01-01T13:09:51Z</time>
      </trkpt>
      <trkpt lat="47.05463" lon="-1.72171">
        <ele>69</ele>
        <time>2022-01-01T13:09:53Z</time>
      </trkpt>
      <trkpt lat="47.05458" lon="-1.72149">
        <ele>68</ele>
        <time>2022-01-01T13:09:55Z</time>
      </trkpt>
      <trkpt lat="47.05454" lon="-1.72127">
        <ele>67</ele>
        <time>2022-01-01T13:09:57Z</time>
      </trkpt>
      <trkpt lat="47.05449" lon="-1.72105">
        <ele>67</ele>
        <time>2022-01-01T13:09:59Z</time>
      </trkpt>
      <trkpt lat="47.05444" lon="-1.72084">
        <ele>66</ele>
        <time>2022-01-01T13:10:01Z</time>
      </trkpt>
      <trkpt lat="47.05439" lon="-1.72063">
        <ele>66</ele>
        <time>2022-01-01T13:10:03Z</time>
      </trkpt>
      <trkpt lat="47.05433" lon="-1.72039">
        <ele>65</ele>
        <time>2022-01-01T13:10:05Z</time>
      </trkpt>
      <trkpt lat="47.05429" lon="-1.72016">
        <ele>64</ele>
        <time>2022-01-01T13:10:07Z</time>
      </trkpt>
      <trkpt lat="47.05423" lon="-1.71993">
        <ele>64</ele>
        <time>2022-01-01T13:10:09Z</time>
      </trkpt>
      <trkpt lat="47.05418" lon="-1.71971">
        <ele>64</ele>
        <time>2022-01-01T13:10:11Z</time>
      </trkpt>
      <trkpt lat="47.05414" lon="-1.71951">
        <ele>65</ele>
        <time>2022-01-01T13:10:13Z</time>
      </trkpt>
      <trkpt lat="47.05411" lon="-1.71933">
        <ele>65</ele>
        <time>2022-01-01T13:10:15Z</time>
      </trkpt>
      <trkpt lat="47.05406" lon="-1.71915">
        <ele>65</ele>
        <time>2022-01-01T13:10:17Z</time>
      </trkpt>
      <trkpt lat="47.05403" lon="-1.71896">
        <ele>65</ele>
        <time>2022-01-01T13:10:19Z</time>
      </trkpt>
      <trkpt lat="47.054" lon="-1.71876">
        <ele>65</ele>
        <time>2022-01-01T13:10:21Z</time>
      </trkpt>
      <trkpt lat="47.05395" lon="-1.71857">
        <ele>64</ele>
        <time>2022-01-01T13:10:23Z</time>
      </trkpt>
      <trkpt lat="47.05391" lon="-1.71837">
        <ele>64</ele>
        <time>2022-01-01T13:10:25Z</time>
      </trkpt>
      <trkpt lat="47.05386" lon="-1.71817">
        <ele>63</ele>
        <time>2022-01-01T13:10:27Z</time>
      </trkpt>
      <trkpt lat="47.05383" lon="-1.71797">
        <ele>63</ele>
        <time>2022-01-01T13:10:29Z</time>
      </trkpt>
      <trkpt lat="47.05382" lon="-1.71777">
        <ele>62</ele>
        <time>2022-01-01T13:10:31Z</time>
      </trkpt>
      <trkpt lat="47.05381" lon="-1.71757">
        <ele>62</ele>
        <time>2022-01-01T13:10:33Z</time>
      </trkpt>
      <trkpt lat="47.05382" lon="-1.71737">
        <ele>62</ele>
        <time>2022-01-01T13:10:35Z</time>
      </trkpt>
      <trkpt lat="47.05383" lon="-1.71716">
        <ele>62</ele>
        <time>2022-01-01T13:10:37Z</time>
      </trkpt>
      <trkpt lat="47.05385" lon="-1.71696">
        <ele>62</ele>
        <time>2022-01-01T13:10:39Z</time>
      </trkpt>
      <trkpt lat="47.05386" lon="-1.71676">
        <ele>62</ele>
        <time>2022-01-01T13:10:41Z</time>
      </trkpt>
      <trkpt lat="47.05388" lon="-1.71655">
        <ele>61</ele>
        <time>2022-01-01T13:10:43Z</time>
      </trkpt>
      <trkpt lat="47.05391" lon="-1.71634">
        <ele>61</ele>
        <time>2022-01-01T13:10:45Z</time>
      </trkpt>
      <trkpt lat="47.05393" lon="-1.71613">
        <ele>61</ele>
        <time>2022-01-01T13:10:47Z</time>
      </trkpt>
      <trkpt lat="47.05394" lon="-1.71593">
        <ele>61</ele>
        <time>2022-01-01T13:10:49Z</time>
      </trkpt>
      <trkpt lat="47.05396" lon="-1.71572">
        <ele>61</ele>
        <time>2022-01-01T13:10:51Z</time>
      </trkpt>
      <trkpt lat="47.05397" lon="-1.71552">
        <ele>61</ele>
        <time>2022-01-01T13:10:53Z</time>
      </trkpt>
      <trkpt lat="47.05399" lon="-1.71532">
        <ele>61</ele>
        <time>2022-01-01T13:10:55Z</time>
      </trkpt>
      <trkpt lat="47.05401" lon="-1.71512">
        <ele>61</ele>
        <time>2022-01-01T13:10:57Z</time>
      </trkpt>
      <trkpt lat="47.05403" lon="-1.71492">
        <ele>60</ele>
        <time>2022-01-01T13:10:59Z</time>
      </trkpt>
      <trkpt lat="47.05404" lon="-1.71474">
        <ele>61</ele>
        <time>2022-01-01T13:11:01Z</time>
      </trkpt>
      <trkpt lat="47.05406" lon="-1.71455">
        <ele>61</ele>
        <time>2022-01-01T13:11:03Z</time>
      </trkpt>
      <trkpt lat="47.05406" lon="-1.71436">
        <ele>61</ele>
        <time>2022-01-01T13:11:05Z</time>
      </trkpt>
      <trkpt lat="47.05406" lon="-1.71418">
        <ele>61</ele>
        <time>2022-01-01T13:11:07Z</time>
      </trkpt>
      <trkpt lat="47.05405" lon="-1.71399">
        <ele>61</ele>
        <time>2022-01-01T13:11:09Z</time>
      </trkpt>
      <trkpt lat="47.05403" lon="-1.7138">
        <ele>61</ele>
        <time>2022-01-01T13:11:11Z</time>
      </trkpt>
      <trkpt lat="47.05401" lon="-1.71361">
        <ele>61</ele>
        <time>2022-01-01T13:11:13Z</time>
      </trkpt>
      <trkpt lat="47.05399" lon="-1.71342">
        <ele>62</ele>
        <time>2022-01-01T13:11:15Z</time>
      </trkpt>
      <trkpt lat="47.05396" lon="-1.71322">
        <ele>62</ele>
        <time>2022-01-01T13:11:17Z</time>
      </trkpt>
      <trkpt lat="47.05393" lon="-1.71304">
        <ele>62</ele>
        <time>2022-01-01T13:11:19Z</time>
      </trkpt>
      <trkpt lat="47.05391" lon="-1.71286">
        <ele>62</ele>
        <time>2022-01-01T13:11:21Z</time>
      </trkpt>
      <trkpt lat="47.05389" lon="-1.71268">
        <ele>62</ele>
        <time>2022-01-01T13:11:23Z</time>
      </trkpt>
      <trkpt lat="47.05388" lon="-1.71249">
        <ele>61</ele>
        <time>2022-01-01T13:11:25Z</time>
      </trkpt>
      <trkpt lat="47.05388" lon="-1.71231">
        <ele>61</ele>
        <time>2022-01-01T13:11:27Z</time>
      </trkpt>
      <trkpt lat="47.05389" lon="-1.71211">
        <ele>61</ele>
        <time>2022-01-01T13:11:29Z</time>
      </trkpt>
      <trkpt lat="47.0539" lon="-1.71192">
        <ele>61</ele>
        <time>2022-01-01T13:11:31Z</time>
      </trkpt>
      <trkpt lat="47.05391" lon="-1.71173">
        <ele>61</ele>
        <time>2022-01-01T13:11:33Z</time>
      </trkpt>
      <trkpt lat="47.05393" lon="-1.71154">
        <ele>61</ele>
        <time>2022-01-01T13:11:35Z</time>
      </trkpt>
      <trkpt lat="47.05395" lon="-1.71136">
        <ele>61</ele>
        <time>2022-01-01T13:11:37Z</time>
      </trkpt>
      <trkpt lat="47.05397" lon="-1.71118">
        <ele>61</ele>
        <time>2022-01-01T13:11:39Z</time>
      </trkpt>
      <trkpt lat="47.05398" lon="-1.71099">
        <ele>60</ele>
        <time>2022-01-01T13:11:41Z</time>
      </trkpt>
      <trkpt lat="47.054" lon="-1.7108">
        <ele>60</ele>
        <time>2022-01-01T13:11:43Z</time>
      </trkpt>
      <trkpt lat="47.05402" lon="-1.71061">
        <ele>60</ele>
        <time>2022-01-01T13:11:45Z</time>
      </trkpt>
      <trkpt lat="47.05404" lon="-1.71042">
        <ele>60</ele>
        <time>2022-01-01T13:11:47Z</time>
      </trkpt>
      <trkpt lat="47.05405" lon="-1.71023">
        <ele>59</ele>
        <time>2022-01-01T13:11:49Z</time>
      </trkpt>
      <trkpt lat="47.05407" lon="-1.71004">
        <ele>59</ele>
        <time>2022-01-01T13:11:51Z</time>
      </trkpt>
      <trkpt lat="47.05409" lon="-1.70985">
        <ele>59</ele>
        <time>2022-01-01T13:11:53Z</time>
      </trkpt>
      <trkpt lat="47.05411" lon="-1.70965">
        <ele>58</ele>
        <time>2022-01-01T13:11:55Z</time>
      </trkpt>
      <trkpt lat="47.05413" lon="-1.70944">
        <ele>58</ele>
        <time>2022-01-01T13:11:57Z</time>
      </trkpt>
      <trkpt lat="47.05415" lon="-1.70923">
        <ele>58</ele>
        <time>2022-01-01T13:11:59Z</time>
      </trkpt>
      <trkpt lat="47.05416" lon="-1.70902">
        <ele>58</ele>
        <time>2022-01-01T13:12:01Z</time>
      </trkpt>
      <trkpt lat="47.05415" lon="-1.70881">
        <ele>59</ele>
        <time>2022-01-01T13:12:03Z</time>
      </trkpt>
      <trkpt lat="47.05414" lon="-1.7086">
        <ele>59</ele>
        <time>2022-01-01T13:12:05Z</time>
      </trkpt>
      <trkpt lat="47.05411" lon="-1.70841">
        <ele>59</ele>
        <time>2022-01-01T13:12:07Z</time>
      </trkpt>
      <trkpt lat="47.05408" lon="-1.70821">
        <ele>60</ele>
        <time>2022-01-01T13:12:09Z</time>
      </trkpt>
      <trkpt lat="47.05405" lon="-1.70803">
        <ele>60</ele>
        <time>2022-01-01T13:12:11Z</time>
      </trkpt>
      <trkpt lat="47.05402" lon="-1.70785">
        <ele>60</ele>
        <time>2022-01-01T13:12:13Z</time>
      </trkpt>
      <trkpt lat="47.05399" lon="-1.70766">
        <ele>60</ele>
        <time>2022-01-01T13:12:15Z</time>
      </trkpt>
      <trkpt lat="47.05396" lon="-1.70749">
        <ele>61</ele>
        <time>2022-01-01T13:12:17Z</time>
      </trkpt>
      <trkpt lat="47.05392" lon="-1.70731">
        <ele>61</ele>
        <time>2022-01-01T13:12:19Z</time>
      </trkpt>
      <trkpt lat="47.0539" lon="-1.70713">
        <ele>61</ele>
        <time>2022-01-01T13:12:21Z</time>
      </trkpt>
      <trkpt lat="47.05387" lon="-1.70695">
        <ele>61</ele>
        <time>2022-01-01T13:12:23Z</time>
      </trkpt>
      <trkpt lat="47.05384" lon="-1.70677">
        <ele>61</ele>
        <time>2022-01-01T13:12:25Z</time>
      </trkpt>
      <trkpt lat="47.05381" lon="-1.70659">
        <ele>61</ele>
        <time>2022-01-01T13:12:27Z</time>
      </trkpt>
      <trkpt lat="47.05378" lon="-1.7064">
        <ele>61</ele>
        <time>2022-01-01T13:12:29Z</time>
      </trkpt>
      <trkpt lat="47.05375" lon="-1.70623">
        <ele>62</ele>
        <time>2022-01-01T13:12:31Z</time>
      </trkpt>
      <trkpt lat="47.05372" lon="-1.70605">
        <ele>62</ele>
        <time>2022-01-01T13:12:33Z</time>
      </trkpt>
      <trkpt lat="47.05369" lon="-1.70586">
        <ele>62</ele>
        <time>2022-01-01T13:12:35Z</time>
      </trkpt>
      <trkpt lat="47.05366" lon="-1.70568">
        <ele>61</ele>
        <time>2022-01-01T13:12:37Z</time>
      </trkpt>
      <trkpt lat="47.05363" lon="-1.70549">
        <ele>61</ele>
        <time>2022-01-01T13:12:39Z</time>
      </trkpt>
      <trkpt lat="47.0536" lon="-1.70531">
        <ele>61</ele>
        <time>2022-01-01T13:12:41Z</time>
      </trkpt>
      <trkpt lat="47.05357" lon="-1.70513">
        <ele>61</ele>
        <time>2022-01-01T13:12:43Z</time>
      </trkpt>
      <trkpt lat="47.05354" lon="-1.70495">
        <ele>61</ele>
        <time>2022-01-01T13:12:45Z</time>
      </trkpt>
      <trkpt lat="47.05351" lon="-1.70476">
        <ele>61</ele>
        <time>2022-01-01T13:12:47Z</time>
      </trkpt>
      <trkpt lat="47.05347" lon="-1.70458">
        <ele>60</ele>
        <time>2022-01-01T13:12:49Z</time>
      </trkpt>
      <trkpt lat="47.05343" lon="-1.70439">
        <ele>60</ele>
        <time>2022-01-01T13:12:51Z</time>
      </trkpt>
      <trkpt lat="47.0534" lon="-1.70421">
        <ele>60</ele>
        <time>2022-01-01T13:12:53Z</time>
      </trkpt>
      <trkpt lat="47.05335" lon="-1.70403">
        <ele>60</ele>
        <time>2022-01-01T13:12:55Z</time>
      </trkpt>
      <trkpt lat="47.05331" lon="-1.70386">
        <ele>59</ele>
        <time>2022-01-01T13:12:57Z</time>
      </trkpt>
      <trkpt lat="47.05325" lon="-1.70369">
        <ele>59</ele>
        <time>2022-01-01T13:12:59Z</time>
      </trkpt>
      <trkpt lat="47.05319" lon="-1.70351">
        <ele>59</ele>
        <time>2022-01-01T13:13:01Z</time>
      </trkpt>
      <trkpt lat="47.05313" lon="-1.70334">
        <ele>58</ele>
        <time>2022-01-01T13:13:03Z</time>
      </trkpt>
      <trkpt lat="47.05307" lon="-1.70317">
        <ele>58</ele>
        <time>2022-01-01T13:13:05Z</time>
      </trkpt>
      <trkpt lat="47.053" lon="-1.703">
        <ele>57</ele>
        <time>2022-01-01T13:13:07Z</time>
      </trkpt>
      <trkpt lat="47.05293" lon="-1.70283">
        <ele>57</ele>
        <time>2022-01-01T13:13:09Z</time>
      </trkpt>
      <trkpt lat="47.05287" lon="-1.70266">
        <ele>57</ele>
        <time>2022-01-01T13:13:11Z</time>
      </trkpt>
      <trkpt lat="47.0528" lon="-1.70249">
        <ele>56</ele>
        <time>2022-01-01T13:13:13Z</time>
      </trkpt>
      <trkpt lat="47.05273" lon="-1.70231">
        <ele>56</ele>
        <time>2022-01-01T13:13:15Z</time>
      </trkpt>
      <trkpt lat="47.05267" lon="-1.70212">
        <ele>56</ele>
        <time>2022-01-01T13:13:17Z</time>
      </trkpt>
      <trkpt lat="47.0526" lon="-1.70194">
        <ele>55</ele>
        <time>2022-01-01T13:13:19Z</time>
      </trkpt>
      <trkpt lat="47.05253" lon="-1.70176">
        <ele>55</ele>
        <time>2022-01-01T13:13:21Z</time>
      </trkpt>
      <trkpt lat="47.05247" lon="-1.70158">
        <ele>54</ele>
        <time>2022-01-01T13:13:23Z</time>
      </trkpt>
      <trkpt lat="47.0524" lon="-1.7014">
        <ele>54</ele>
        <time>2022-01-01T13:13:25Z</time>
      </trkpt>
      <trkpt lat="47.05233" lon="-1.70122">
        <ele>54</ele>
        <time>2022-01-01T13:13:27Z</time>
      </trkpt>
      <trkpt lat="47.05226" lon="-1.70103">
        <ele>53</ele>
        <time>2022-01-01T13:13:29Z</time>
      </trkpt>
      <trkpt lat="47.05219" lon="-1.70084">
        <ele>53</ele>
        <time>2022-01-01T13:13:31Z</time>
      </trkpt>
      <trkpt lat="47.05212" lon="-1.70065">
        <ele>53</ele>
        <time>2022-01-01T13:13:33Z</time>
      </trkpt>
      <trkpt lat="47.05205" lon="-1.70046">
        <ele>52</ele>
        <time>2022-01-01T13:13:35Z</time>
      </trkpt>
      <trkpt lat="47.05198" lon="-1.70027">
        <ele>52</ele>
        <time>2022-01-01T13:13:37Z</time>
      </trkpt>
      <trkpt lat="47.05191" lon="-1.70008">
        <ele>52</ele>
        <time>2022-01-01T13:13:39Z</time>
      </trkpt>
      <trkpt lat="47.05185" lon="-1.69991">
        <ele>52</ele>
        <time>2022-01-01T13:13:41Z</time>
      </trkpt>
      <trkpt lat="47.05178" lon="-1.69974">
        <ele>52</ele>
        <time>2022-01-01T13:13:43Z</time>
      </trkpt>
      <trkpt lat="47.05171" lon="-1.69957">
        <ele>52</ele>
        <time>2022-01-01T13:13:45Z</time>
      </trkpt>
      <trkpt lat="47.05164" lon="-1.69939">
        <ele>53</ele>
        <time>2022-01-01T13:13:47Z</time>
      </trkpt>
      <trkpt lat="47.05158" lon="-1.69922">
        <ele>53</ele>
        <time>2022-01-01T13:13:49Z</time>
      </trkpt>
      <trkpt lat="47.05154" lon="-1.69903">
        <ele>53</ele>
        <time>2022-01-01T13:13:51Z</time>
      </trkpt>
      <trkpt lat="47.05154" lon="-1.69884">
        <ele>53</ele>
        <time>2022-01-01T13:13:53Z</time>
      </trkpt>
      <trkpt lat="47.05151" lon="-1.69864">
        <ele>52</ele>
        <time>2022-01-01T13:13:55Z</time>
      </trkpt>
      <trkpt lat="47.05146" lon="-1.69846">
        <ele>52</ele>
        <time>2022-01-01T13:13:57Z</time>
      </trkpt>
      <trkpt lat="47.05139" lon="-1.69828">
        <ele>52</ele>
        <time>2022-01-01T13:13:59Z</time>
      </trkpt>
      <trkpt lat="47.05132" lon="-1.69812">
        <ele>52</ele>
        <time>2022-01-01T13:14:01Z</time>
      </trkpt>
      <trkpt lat="47.05124" lon="-1.69799">
        <ele>52</ele>
        <time>2022-01-01T13:14:03Z</time>
      </trkpt>
      <trkpt lat="47.05115" lon="-1.69787">
        <ele>52</ele>
        <time>2022-01-01T13:14:05Z</time>
      </trkpt>
      <trkpt lat="47.05106" lon="-1.69776">
        <ele>52</ele>
        <time>2022-01-01T13:14:07Z</time>
      </trkpt>
      <trkpt lat="47.05097" lon="-1.69765">
        <ele>52</ele>
        <time>2022-01-01T13:14:09Z</time>
      </trkpt>
      <trkpt lat="47.05087" lon="-1.69753">
        <ele>52</ele>
        <time>2022-01-01T13:14:11Z</time>
      </trkpt>
      <trkpt lat="47.05078" lon="-1.69742">
        <ele>52</ele>
        <time>2022-01-01T13:14:13Z</time>
      </trkpt>
      <trkpt lat="47.05069" lon="-1.69731">
        <ele>52</ele>
        <time>2022-01-01T13:14:15Z</time>
      </trkpt>
      <trkpt lat="47.0506" lon="-1.6972">
        <ele>52</ele>
        <time>2022-01-01T13:14:17Z</time>
      </trkpt>
      <trkpt lat="47.0505" lon="-1.69708">
        <ele>52</ele>
        <time>2022-01-01T13:14:19Z</time>
      </trkpt>
      <trkpt lat="47.05041" lon="-1.69697">
        <ele>53</ele>
        <time>2022-01-01T13:14:21Z</time>
      </trkpt>
      <trkpt lat="47.05031" lon="-1.69686">
        <ele>52</ele>
        <time>2022-01-01T13:14:23Z</time>
      </trkpt>
      <trkpt lat="47.05022" lon="-1.69674">
        <ele>53</ele>
        <time>2022-01-01T13:14:25Z</time>
      </trkpt>
      <trkpt lat="47.05013" lon="-1.69662">
        <ele>53</ele>
        <time>2022-01-01T13:14:27Z</time>
      </trkpt>
      <trkpt lat="47.05004" lon="-1.69649">
        <ele>53</ele>
        <time>2022-01-01T13:14:29Z</time>
      </trkpt>
      <trkpt lat="47.04997" lon="-1.69636">
        <ele>54</ele>
        <time>2022-01-01T13:14:31Z</time>
      </trkpt>
      <trkpt lat="47.0499" lon="-1.6962">
        <ele>54</ele>
        <time>2022-01-01T13:14:33Z</time>
      </trkpt>
      <trkpt lat="47.04985" lon="-1.69604">
        <ele>54</ele>
        <time>2022-01-01T13:14:35Z</time>
      </trkpt>
      <trkpt lat="47.04981" lon="-1.69587">
        <ele>54</ele>
        <time>2022-01-01T13:14:37Z</time>
      </trkpt>
      <trkpt lat="47.04976" lon="-1.69568">
        <ele>54</ele>
        <time>2022-01-01T13:14:39Z</time>
      </trkpt>
      <trkpt lat="47.04972" lon="-1.6955">
        <ele>54</ele>
        <time>2022-01-01T13:14:41Z</time>
      </trkpt>
      <trkpt lat="47.04968" lon="-1.69532">
        <ele>54</ele>
        <time>2022-01-01T13:14:43Z</time>
      </trkpt>
      <trkpt lat="47.04963" lon="-1.69515">
        <ele>54</ele>
        <time>2022-01-01T13:14:45Z</time>
      </trkpt>
      <trkpt lat="47.04959" lon="-1.69497">
        <ele>54</ele>
        <time>2022-01-01T13:14:47Z</time>
      </trkpt>
      <trkpt lat="47.04952" lon="-1.69471">
        <ele>54</ele>
        <time>2022-01-01T13:14:50Z</time>
      </trkpt>
      <trkpt lat="47.04945" lon="-1.69446">
        <ele>55</ele>
        <time>2022-01-01T13:14:53Z</time>
      </trkpt>
      <trkpt lat="47.04941" lon="-1.69428">
        <ele>54</ele>
        <time>2022-01-01T13:14:55Z</time>
      </trkpt>
      <trkpt lat="47.04936" lon="-1.69411">
        <ele>55</ele>
        <time>2022-01-01T13:14:57Z</time>
      </trkpt>
      <trkpt lat="47.04932" lon="-1.69394">
        <ele>55</ele>
        <time>2022-01-01T13:14:59Z</time>
      </trkpt>
      <trkpt lat="47.04927" lon="-1.69377">
        <ele>55</ele>
        <time>2022-01-01T13:15:01Z</time>
      </trkpt>
      <trkpt lat="47.04923" lon="-1.69361">
        <ele>55</ele>
        <time>2022-01-01T13:15:03Z</time>
      </trkpt>
      <trkpt lat="47.04919" lon="-1.69344">
        <ele>55</ele>
        <time>2022-01-01T13:15:05Z</time>
      </trkpt>
      <trkpt lat="47.04914" lon="-1.69326">
        <ele>55</ele>
        <time>2022-01-01T13:15:07Z</time>
      </trkpt>
      <trkpt lat="47.0491" lon="-1.6931">
        <ele>56</ele>
        <time>2022-01-01T13:15:09Z</time>
      </trkpt>
      <trkpt lat="47.04903" lon="-1.69285">
        <ele>55</ele>
        <time>2022-01-01T13:15:12Z</time>
      </trkpt>
      <trkpt lat="47.04899" lon="-1.69269">
        <ele>55</ele>
        <time>2022-01-01T13:15:14Z</time>
      </trkpt>
      <trkpt lat="47.04894" lon="-1.69252">
        <ele>55</ele>
        <time>2022-01-01T13:15:16Z</time>
      </trkpt>
      <trkpt lat="47.04888" lon="-1.69228">
        <ele>55</ele>
        <time>2022-01-01T13:15:19Z</time>
      </trkpt>
      <trkpt lat="47.04884" lon="-1.69212">
        <ele>55</ele>
        <time>2022-01-01T13:15:21Z</time>
      </trkpt>
      <trkpt lat="47.0488" lon="-1.69196">
        <ele>55</ele>
        <time>2022-01-01T13:15:23Z</time>
      </trkpt>
      <trkpt lat="47.04876" lon="-1.69181">
        <ele>56</ele>
        <time>2022-01-01T13:15:25Z</time>
      </trkpt>
      <trkpt lat="47.04872" lon="-1.69166">
        <ele>55</ele>
        <time>2022-01-01T13:15:27Z</time>
      </trkpt>
      <trkpt lat="47.04868" lon="-1.69151">
        <ele>56</ele>
        <time>2022-01-01T13:15:29Z</time>
      </trkpt>
      <trkpt lat="47.04864" lon="-1.69135">
        <ele>56</ele>
        <time>2022-01-01T13:15:31Z</time>
      </trkpt>
      <trkpt lat="47.0486" lon="-1.69119">
        <ele>56</ele>
        <time>2022-01-01T13:15:33Z</time>
      </trkpt>
      <trkpt lat="47.04855" lon="-1.69104">
        <ele>56</ele>
        <time>2022-01-01T13:15:35Z</time>
      </trkpt>
      <trkpt lat="47.04851" lon="-1.69088">
        <ele>56</ele>
        <time>2022-01-01T13:15:37Z</time>
      </trkpt>
      <trkpt lat="47.04847" lon="-1.69072">
        <ele>56</ele>
        <time>2022-01-01T13:15:39Z</time>
      </trkpt>
      <trkpt lat="47.04843" lon="-1.69057">
        <ele>56</ele>
        <time>2022-01-01T13:15:41Z</time>
      </trkpt>
      <trkpt lat="47.04839" lon="-1.69041">
        <ele>56</ele>
        <time>2022-01-01T13:15:43Z</time>
      </trkpt>
      <trkpt lat="47.04834" lon="-1.69025">
        <ele>56</ele>
        <time>2022-01-01T13:15:45Z</time>
      </trkpt>
      <trkpt lat="47.0483" lon="-1.69009">
        <ele>55</ele>
        <time>2022-01-01T13:15:47Z</time>
      </trkpt>
      <trkpt lat="47.04826" lon="-1.68994">
        <ele>56</ele>
        <time>2022-01-01T13:15:49Z</time>
      </trkpt>
      <trkpt lat="47.04822" lon="-1.68978">
        <ele>56</ele>
        <time>2022-01-01T13:15:51Z</time>
      </trkpt>
      <trkpt lat="47.04818" lon="-1.68962">
        <ele>55</ele>
        <time>2022-01-01T13:15:53Z</time>
      </trkpt>
      <trkpt lat="47.04814" lon="-1.68946">
        <ele>55</ele>
        <time>2022-01-01T13:15:55Z</time>
      </trkpt>
      <trkpt lat="47.0481" lon="-1.6893">
        <ele>55</ele>
        <time>2022-01-01T13:15:57Z</time>
      </trkpt>
      <trkpt lat="47.04805" lon="-1.68914">
        <ele>55</ele>
        <time>2022-01-01T13:15:59Z</time>
      </trkpt>
      <trkpt lat="47.04801" lon="-1.68899">
        <ele>56</ele>
        <time>2022-01-01T13:16:01Z</time>
      </trkpt>
      <trkpt lat="47.04797" lon="-1.68883">
        <ele>56</ele>
        <time>2022-01-01T13:16:03Z</time>
      </trkpt>
      <trkpt lat="47.04793" lon="-1.68867">
        <ele>56</ele>
        <time>2022-01-01T13:16:05Z</time>
      </trkpt>
      <trkpt lat="47.04789" lon="-1.68852">
        <ele>56</ele>
        <time>2022-01-01T13:16:07Z</time>
      </trkpt>
      <trkpt lat="47.04785" lon="-1.68836">
        <ele>56</ele>
        <time>2022-01-01T13:16:09Z</time>
      </trkpt>
      <trkpt lat="47.04781" lon="-1.6882">
        <ele>57</ele>
        <time>2022-01-01T13:16:11Z</time>
      </trkpt>
      <trkpt lat="47.04777" lon="-1.68805">
        <ele>57</ele>
        <time>2022-01-01T13:16:13Z</time>
      </trkpt>
      <trkpt lat="47.04773" lon="-1.6879">
        <ele>57</ele>
        <time>2022-01-01T13:16:15Z</time>
      </trkpt>
      <trkpt lat="47.04769" lon="-1.68775">
        <ele>57</ele>
        <time>2022-01-01T13:16:17Z</time>
      </trkpt>
      <trkpt lat="47.04765" lon="-1.68759">
        <ele>58</ele>
        <time>2022-01-01T13:16:19Z</time>
      </trkpt>
      <trkpt lat="47.04761" lon="-1.68743">
        <ele>58</ele>
        <time>2022-01-01T13:16:21Z</time>
      </trkpt>
      <trkpt lat="47.04756" lon="-1.68727">
        <ele>58</ele>
        <time>2022-01-01T13:16:23Z</time>
      </trkpt>
      <trkpt lat="47.04753" lon="-1.68712">
        <ele>58</ele>
        <time>2022-01-01T13:16:25Z</time>
      </trkpt>
      <trkpt lat="47.04749" lon="-1.68696">
        <ele>58</ele>
        <time>2022-01-01T13:16:27Z</time>
      </trkpt>
      <trkpt lat="47.04744" lon="-1.68679">
        <ele>58</ele>
        <time>2022-01-01T13:16:29Z</time>
      </trkpt>
      <trkpt lat="47.0474" lon="-1.68664">
        <ele>58</ele>
        <time>2022-01-01T13:16:31Z</time>
      </trkpt>
      <trkpt lat="47.04736" lon="-1.68648">
        <ele>58</ele>
        <time>2022-01-01T13:16:33Z</time>
      </trkpt>
      <trkpt lat="47.04732" lon="-1.68632">
        <ele>58</ele>
        <time>2022-01-01T13:16:35Z</time>
      </trkpt>
      <trkpt lat="47.04728" lon="-1.68616">
        <ele>58</ele>
        <time>2022-01-01T13:16:37Z</time>
      </trkpt>
      <trkpt lat="47.04724" lon="-1.686">
        <ele>58</ele>
        <time>2022-01-01T13:16:39Z</time>
      </trkpt>
      <trkpt lat="47.0472" lon="-1.68584">
        <ele>58</ele>
        <time>2022-01-01T13:16:41Z</time>
      </trkpt>
      <trkpt lat="47.04716" lon="-1.68568">
        <ele>58</ele>
        <time>2022-01-01T13:16:43Z</time>
      </trkpt>
      <trkpt lat="47.04712" lon="-1.68552">
        <ele>58</ele>
        <time>2022-01-01T13:16:45Z</time>
      </trkpt>
      <trkpt lat="47.04707" lon="-1.68536">
        <ele>58</ele>
        <time>2022-01-01T13:16:47Z</time>
      </trkpt>
      <trkpt lat="47.04703" lon="-1.68519">
        <ele>58</ele>
        <time>2022-01-01T13:16:49Z</time>
      </trkpt>
      <trkpt lat="47.04699" lon="-1.68504">
        <ele>58</ele>
        <time>2022-01-01T13:16:51Z</time>
      </trkpt>
      <trkpt lat="47.04695" lon="-1.68488">
        <ele>58</ele>
        <time>2022-01-01T13:16:53Z</time>
      </trkpt>
      <trkpt lat="47.04691" lon="-1.68473">
        <ele>58</ele>
        <time>2022-01-01T13:16:55Z</time>
      </trkpt>
      <trkpt lat="47.04687" lon="-1.68457">
        <ele>58</ele>
        <time>2022-01-01T13:16:57Z</time>
      </trkpt>
      <trkpt lat="47.04683" lon="-1.68442">
        <ele>58</ele>
        <time>2022-01-01T13:16:59Z</time>
      </trkpt>
      <trkpt lat="47.04679" lon="-1.68426">
        <ele>58</ele>
        <time>2022-01-01T13:17:01Z</time>
      </trkpt>
      <trkpt lat="47.04674" lon="-1.68409">
        <ele>57</ele>
        <time>2022-01-01T13:17:03Z</time>
      </trkpt>
      <trkpt lat="47.0467" lon="-1.68392">
        <ele>57</ele>
        <time>2022-01-01T13:17:05Z</time>
      </trkpt>
      <trkpt lat="47.04665" lon="-1.68376">
        <ele>57</ele>
        <time>2022-01-01T13:17:07Z</time>
      </trkpt>
      <trkpt lat="47.04661" lon="-1.68359">
        <ele>56</ele>
        <time>2022-01-01T13:17:09Z</time>
      </trkpt>
      <trkpt lat="47.04657" lon="-1.68343">
        <ele>56</ele>
        <time>2022-01-01T13:17:11Z</time>
      </trkpt>
      <trkpt lat="47.04653" lon="-1.68326">
        <ele>56</ele>
        <time>2022-01-01T13:17:13Z</time>
      </trkpt>
      <trkpt lat="47.04649" lon="-1.68309">
        <ele>56</ele>
        <time>2022-01-01T13:17:15Z</time>
      </trkpt>
      <trkpt lat="47.04644" lon="-1.68292">
        <ele>56</ele>
        <time>2022-01-01T13:17:17Z</time>
      </trkpt>
      <trkpt lat="47.0464" lon="-1.68275">
        <ele>56</ele>
        <time>2022-01-01T13:17:19Z</time>
      </trkpt>
      <trkpt lat="47.04636" lon="-1.68258">
        <ele>55</ele>
        <time>2022-01-01T13:17:21Z</time>
      </trkpt>
      <trkpt lat="47.04631" lon="-1.6824">
        <ele>55</ele>
        <time>2022-01-01T13:17:23Z</time>
      </trkpt>
      <trkpt lat="47.04627" lon="-1.68223">
        <ele>55</ele>
        <time>2022-01-01T13:17:25Z</time>
      </trkpt>
      <trkpt lat="47.04622" lon="-1.68206">
        <ele>55</ele>
        <time>2022-01-01T13:17:27Z</time>
      </trkpt>
      <trkpt lat="47.04617" lon="-1.68188">
        <ele>55</ele>
        <time>2022-01-01T13:17:29Z</time>
      </trkpt>
      <trkpt lat="47.04613" lon="-1.68171">
        <ele>55</ele>
        <time>2022-01-01T13:17:31Z</time>
      </trkpt>
      <trkpt lat="47.04608" lon="-1.68153">
        <ele>54</ele>
        <time>2022-01-01T13:17:33Z</time>
      </trkpt>
      <trkpt lat="47.04604" lon="-1.68136">
        <ele>54</ele>
        <time>2022-01-01T13:17:35Z</time>
      </trkpt>
      <trkpt lat="47.046" lon="-1.68119">
        <ele>54</ele>
        <time>2022-01-01T13:17:37Z</time>
      </trkpt>
      <trkpt lat="47.04595" lon="-1.68102">
        <ele>55</ele>
        <time>2022-01-01T13:17:39Z</time>
      </trkpt>
      <trkpt lat="47.04591" lon="-1.68086">
        <ele>55</ele>
        <time>2022-01-01T13:17:41Z</time>
      </trkpt>
      <trkpt lat="47.04587" lon="-1.68069">
        <ele>55</ele>
        <time>2022-01-01T13:17:43Z</time>
      </trkpt>
      <trkpt lat="47.04583" lon="-1.68053">
        <ele>55</ele>
        <time>2022-01-01T13:17:45Z</time>
      </trkpt>
      <trkpt lat="47.04578" lon="-1.68038">
        <ele>55</ele>
        <time>2022-01-01T13:17:47Z</time>
      </trkpt>
      <trkpt lat="47.04574" lon="-1.68023">
        <ele>56</ele>
        <time>2022-01-01T13:17:49Z</time>
      </trkpt>
      <trkpt lat="47.0457" lon="-1.68007">
        <ele>57</ele>
        <time>2022-01-01T13:17:51Z</time>
      </trkpt>
      <trkpt lat="47.04566" lon="-1.6799">
        <ele>57</ele>
        <time>2022-01-01T13:17:53Z</time>
      </trkpt>
      <trkpt lat="47.04562" lon="-1.67974">
        <ele>57</ele>
        <time>2022-01-01T13:17:55Z</time>
      </trkpt>
      <trkpt lat="47.04558" lon="-1.67958">
        <ele>57</ele>
        <time>2022-01-01T13:17:57Z</time>
      </trkpt>
      <trkpt lat="47.04553" lon="-1.67941">
        <ele>58</ele>
        <time>2022-01-01T13:17:59Z</time>
      </trkpt>
      <trkpt lat="47.04549" lon="-1.67925">
        <ele>58</ele>
        <time>2022-01-01T13:18:01Z</time>
      </trkpt>
      <trkpt lat="47.04545" lon="-1.67909">
        <ele>58</ele>
        <time>2022-01-01T13:18:03Z</time>
      </trkpt>
      <trkpt lat="47.04541" lon="-1.67893">
        <ele>58</ele>
        <time>2022-01-01T13:18:05Z</time>
      </trkpt>
      <trkpt lat="47.04537" lon="-1.67878">
        <ele>58</ele>
        <time>2022-01-01T13:18:07Z</time>
      </trkpt>
      <trkpt lat="47.04533" lon="-1.67862">
        <ele>58</ele>
        <time>2022-01-01T13:18:09Z</time>
      </trkpt>
      <trkpt lat="47.04529" lon="-1.67847">
        <ele>58</ele>
        <time>2022-01-01T13:18:11Z</time>
      </trkpt>
      <trkpt lat="47.04525" lon="-1.67831">
        <ele>58</ele>
        <time>2022-01-01T13:18:13Z</time>
      </trkpt>
      <trkpt lat="47.04521" lon="-1.67815">
        <ele>58</ele>
        <time>2022-01-01T13:18:15Z</time>
      </trkpt>
      <trkpt lat="47.04517" lon="-1.67799">
        <ele>58</ele>
        <time>2022-01-01T13:18:17Z</time>
      </trkpt>
      <trkpt lat="47.04513" lon="-1.67783">
        <ele>58</ele>
        <time>2022-01-01T13:18:19Z</time>
      </trkpt>
      <trkpt lat="47.04509" lon="-1.67767">
        <ele>58</ele>
        <time>2022-01-01T13:18:21Z</time>
      </trkpt>
      <trkpt lat="47.04504" lon="-1.67751">
        <ele>58</ele>
        <time>2022-01-01T13:18:23Z</time>
      </trkpt>
      <trkpt lat="47.045" lon="-1.67735">
        <ele>58</ele>
        <time>2022-01-01T13:18:25Z</time>
      </trkpt>
      <trkpt lat="47.04496" lon="-1.67718">
        <ele>57</ele>
        <time>2022-01-01T13:18:27Z</time>
      </trkpt>
      <trkpt lat="47.04492" lon="-1.67702">
        <ele>57</ele>
        <time>2022-01-01T13:18:29Z</time>
      </trkpt>
      <trkpt lat="47.04488" lon="-1.67685">
        <ele>57</ele>
        <time>2022-01-01T13:18:31Z</time>
      </trkpt>
      <trkpt lat="47.04484" lon="-1.67669">
        <ele>57</ele>
        <time>2022-01-01T13:18:33Z</time>
      </trkpt>
      <trkpt lat="47.04479" lon="-1.67652">
        <ele>57</ele>
        <time>2022-01-01T13:18:35Z</time>
      </trkpt>
      <trkpt lat="47.04475" lon="-1.67635">
        <ele>57</ele>
        <time>2022-01-01T13:18:37Z</time>
      </trkpt>
      <trkpt lat="47.0447" lon="-1.67618">
        <ele>56</ele>
        <time>2022-01-01T13:18:39Z</time>
      </trkpt>
      <trkpt lat="47.04466" lon="-1.676">
        <ele>56</ele>
        <time>2022-01-01T13:18:41Z</time>
      </trkpt>
      <trkpt lat="47.04461" lon="-1.67583">
        <ele>56</ele>
        <time>2022-01-01T13:18:43Z</time>
      </trkpt>
      <trkpt lat="47.04457" lon="-1.67563">
        <ele>55</ele>
        <time>2022-01-01T13:18:45Z</time>
      </trkpt>
      <trkpt lat="47.04452" lon="-1.67545">
        <ele>55</ele>
        <time>2022-01-01T13:18:47Z</time>
      </trkpt>
      <trkpt lat="47.04447" lon="-1.67526">
        <ele>55</ele>
        <time>2022-01-01T13:18:49Z</time>
      </trkpt>
      <trkpt lat="47.04442" lon="-1.67507">
        <ele>54</ele>
        <time>2022-01-01T13:18:51Z</time>
      </trkpt>
      <trkpt lat="47.04437" lon="-1.67488">
        <ele>54</ele>
        <time>2022-01-01T13:18:53Z</time>
      </trkpt>
      <trkpt lat="47.04432" lon="-1.6747">
        <ele>55</ele>
        <time>2022-01-01T13:18:55Z</time>
      </trkpt>
      <trkpt lat="47.04428" lon="-1.67451">
        <ele>54</ele>
        <time>2022-01-01T13:18:57Z</time>
      </trkpt>
      <trkpt lat="47.04423" lon="-1.67433">
        <ele>54</ele>
        <time>2022-01-01T13:18:59Z</time>
      </trkpt>
      <trkpt lat="47.04418" lon="-1.67414">
        <ele>54</ele>
        <time>2022-01-01T13:19:01Z</time>
      </trkpt>
      <trkpt lat="47.04413" lon="-1.67396">
        <ele>54</ele>
        <time>2022-01-01T13:19:03Z</time>
      </trkpt>
      <trkpt lat="47.04408" lon="-1.67379">
        <ele>54</ele>
        <time>2022-01-01T13:19:05Z</time>
      </trkpt>
      <trkpt lat="47.04404" lon="-1.67361">
        <ele>54</ele>
        <time>2022-01-01T13:19:07Z</time>
      </trkpt>
      <trkpt lat="47.04399" lon="-1.67343">
        <ele>54</ele>
        <time>2022-01-01T13:19:09Z</time>
      </trkpt>
      <trkpt lat="47.04395" lon="-1.67325">
        <ele>55</ele>
        <time>2022-01-01T13:19:11Z</time>
      </trkpt>
      <trkpt lat="47.0439" lon="-1.67308">
        <ele>55</ele>
        <time>2022-01-01T13:19:13Z</time>
      </trkpt>
      <trkpt lat="47.04386" lon="-1.67291">
        <ele>55</ele>
        <time>2022-01-01T13:19:15Z</time>
      </trkpt>
      <trkpt lat="47.04382" lon="-1.67275">
        <ele>55</ele>
        <time>2022-01-01T13:19:17Z</time>
      </trkpt>
      <trkpt lat="47.04378" lon="-1.67258">
        <ele>55</ele>
        <time>2022-01-01T13:19:19Z</time>
      </trkpt>
      <trkpt lat="47.04373" lon="-1.67242">
        <ele>54</ele>
        <time>2022-01-01T13:19:21Z</time>
      </trkpt>
      <trkpt lat="47.04369" lon="-1.67225">
        <ele>54</ele>
        <time>2022-01-01T13:19:23Z</time>
      </trkpt>
      <trkpt lat="47.04365" lon="-1.67209">
        <ele>55</ele>
        <time>2022-01-01T13:19:25Z</time>
      </trkpt>
      <trkpt lat="47.0436" lon="-1.67192">
        <ele>55</ele>
        <time>2022-01-01T13:19:27Z</time>
      </trkpt>
      <trkpt lat="47.04356" lon="-1.67175">
        <ele>54</ele>
        <time>2022-01-01T13:19:29Z</time>
      </trkpt>
      <trkpt lat="47.04352" lon="-1.67159">
        <ele>54</ele>
        <time>2022-01-01T13:19:31Z</time>
      </trkpt>
      <trkpt lat="47.04348" lon="-1.67142">
        <ele>54</ele>
        <time>2022-01-01T13:19:33Z</time>
      </trkpt>
      <trkpt lat="47.04343" lon="-1.67125">
        <ele>54</ele>
        <time>2022-01-01T13:19:35Z</time>
      </trkpt>
      <trkpt lat="47.04339" lon="-1.67108">
        <ele>53</ele>
        <time>2022-01-01T13:19:37Z</time>
      </trkpt>
      <trkpt lat="47.04334" lon="-1.67091">
        <ele>53</ele>
        <time>2022-01-01T13:19:39Z</time>
      </trkpt>
      <trkpt lat="47.0433" lon="-1.67073">
        <ele>53</ele>
        <time>2022-01-01T13:19:41Z</time>
      </trkpt>
      <trkpt lat="47.04325" lon="-1.67056">
        <ele>53</ele>
        <time>2022-01-01T13:19:43Z</time>
      </trkpt>
      <trkpt lat="47.0432" lon="-1.67038">
        <ele>53</ele>
        <time>2022-01-01T13:19:45Z</time>
      </trkpt>
      <trkpt lat="47.04316" lon="-1.67021">
        <ele>53</ele>
        <time>2022-01-01T13:19:47Z</time>
      </trkpt>
      <trkpt lat="47.04311" lon="-1.67003">
        <ele>53</ele>
        <time>2022-01-01T13:19:49Z</time>
      </trkpt>
      <trkpt lat="47.04307" lon="-1.66986">
        <ele>53</ele>
        <time>2022-01-01T13:19:51Z</time>
      </trkpt>
      <trkpt lat="47.04303" lon="-1.66969">
        <ele>53</ele>
        <time>2022-01-01T13:19:53Z</time>
      </trkpt>
      <trkpt lat="47.04298" lon="-1.66952">
        <ele>53</ele>
        <time>2022-01-01T13:19:55Z</time>
      </trkpt>
      <trkpt lat="47.04294" lon="-1.66935">
        <ele>52</ele>
        <time>2022-01-01T13:19:57Z</time>
      </trkpt>
      <trkpt lat="47.0429" lon="-1.66918">
        <ele>52</ele>
        <time>2022-01-01T13:19:59Z</time>
      </trkpt>
      <trkpt lat="47.04286" lon="-1.66902">
        <ele>52</ele>
        <time>2022-01-01T13:20:01Z</time>
      </trkpt>
      <trkpt lat="47.04281" lon="-1.66886">
        <ele>52</ele>
        <time>2022-01-01T13:20:03Z</time>
      </trkpt>
      <trkpt lat="47.04277" lon="-1.66869">
        <ele>52</ele>
        <time>2022-01-01T13:20:05Z</time>
      </trkpt>
      <trkpt lat="47.04273" lon="-1.66852">
        <ele>53</ele>
        <time>2022-01-01T13:20:07Z</time>
      </trkpt>
      <trkpt lat="47.04268" lon="-1.66835">
        <ele>52</ele>
        <time>2022-01-01T13:20:09Z</time>
      </trkpt>
      <trkpt lat="47.04264" lon="-1.66817">
        <ele>52</ele>
        <time>2022-01-01T13:20:11Z</time>
      </trkpt>
      <trkpt lat="47.04259" lon="-1.668">
        <ele>52</ele>
        <time>2022-01-01T13:20:13Z</time>
      </trkpt>
      <trkpt lat="47.04254" lon="-1.66783">
        <ele>52</ele>
        <time>2022-01-01T13:20:15Z</time>
      </trkpt>
      <trkpt lat="47.04249" lon="-1.66767">
        <ele>53</ele>
        <time>2022-01-01T13:20:17Z</time>
      </trkpt>
      <trkpt lat="47.04245" lon="-1.6675">
        <ele>53</ele>
        <time>2022-01-01T13:20:19Z</time>
      </trkpt>
      <trkpt lat="47.04241" lon="-1.66733">
        <ele>53</ele>
        <time>2022-01-01T13:20:21Z</time>
      </trkpt>
      <trkpt lat="47.04237" lon="-1.66717">
        <ele>53</ele>
        <time>2022-01-01T13:20:23Z</time>
      </trkpt>
      <trkpt lat="47.04233" lon="-1.667">
        <ele>53</ele>
        <time>2022-01-01T13:20:25Z</time>
      </trkpt>
      <trkpt lat="47.04229" lon="-1.66684">
        <ele>54</ele>
        <time>2022-01-01T13:20:27Z</time>
      </trkpt>
      <trkpt lat="47.04224" lon="-1.66668">
        <ele>54</ele>
        <time>2022-01-01T13:20:29Z</time>
      </trkpt>
      <trkpt lat="47.0422" lon="-1.66651">
        <ele>54</ele>
        <time>2022-01-01T13:20:31Z</time>
      </trkpt>
      <trkpt lat="47.04216" lon="-1.66635">
        <ele>54</ele>
        <time>2022-01-01T13:20:33Z</time>
      </trkpt>
      <trkpt lat="47.04212" lon="-1.66618">
        <ele>54</ele>
        <time>2022-01-01T13:20:35Z</time>
      </trkpt>
      <trkpt lat="47.04207" lon="-1.66601">
        <ele>53</ele>
        <time>2022-01-01T13:20:37Z</time>
      </trkpt>
      <trkpt lat="47.04203" lon="-1.66584">
        <ele>54</ele>
        <time>2022-01-01T13:20:39Z</time>
      </trkpt>
      <trkpt lat="47.04198" lon="-1.66567">
        <ele>54</ele>
        <time>2022-01-01T13:20:41Z</time>
      </trkpt>
      <trkpt lat="47.04194" lon="-1.6655">
        <ele>54</ele>
        <time>2022-01-01T13:20:43Z</time>
      </trkpt>
      <trkpt lat="47.0419" lon="-1.66534">
        <ele>54</ele>
        <time>2022-01-01T13:20:45Z</time>
      </trkpt>
      <trkpt lat="47.04185" lon="-1.66517">
        <ele>54</ele>
        <time>2022-01-01T13:20:47Z</time>
      </trkpt>
      <trkpt lat="47.04181" lon="-1.66501">
        <ele>54</ele>
        <time>2022-01-01T13:20:49Z</time>
      </trkpt>
      <trkpt lat="47.04177" lon="-1.66485">
        <ele>54</ele>
        <time>2022-01-01T13:20:51Z</time>
      </trkpt>
      <trkpt lat="47.04173" lon="-1.66468">
        <ele>54</ele>
        <time>2022-01-01T13:20:53Z</time>
      </trkpt>
      <trkpt lat="47.04169" lon="-1.66453">
        <ele>54</ele>
        <time>2022-01-01T13:20:55Z</time>
      </trkpt>
      <trkpt lat="47.04165" lon="-1.66437">
        <ele>53</ele>
        <time>2022-01-01T13:20:57Z</time>
      </trkpt>
      <trkpt lat="47.04161" lon="-1.66421">
        <ele>54</ele>
        <time>2022-01-01T13:20:59Z</time>
      </trkpt>
      <trkpt lat="47.04156" lon="-1.66405">
        <ele>54</ele>
        <time>2022-01-01T13:21:01Z</time>
      </trkpt>
      <trkpt lat="47.04152" lon="-1.6639">
        <ele>55</ele>
        <time>2022-01-01T13:21:03Z</time>
      </trkpt>
      <trkpt lat="47.04149" lon="-1.66374">
        <ele>54</ele>
        <time>2022-01-01T13:21:05Z</time>
      </trkpt>
      <trkpt lat="47.04145" lon="-1.66357">
        <ele>54</ele>
        <time>2022-01-01T13:21:07Z</time>
      </trkpt>
      <trkpt lat="47.0414" lon="-1.66341">
        <ele>55</ele>
        <time>2022-01-01T13:21:09Z</time>
      </trkpt>
      <trkpt lat="47.04136" lon="-1.66325">
        <ele>55</ele>
        <time>2022-01-01T13:21:11Z</time>
      </trkpt>
      <trkpt lat="47.04132" lon="-1.66309">
        <ele>55</ele>
        <time>2022-01-01T13:21:13Z</time>
      </trkpt>
      <trkpt lat="47.04128" lon="-1.66292">
        <ele>56</ele>
        <time>2022-01-01T13:21:15Z</time>
      </trkpt>
      <trkpt lat="47.04124" lon="-1.66276">
        <ele>56</ele>
        <time>2022-01-01T13:21:17Z</time>
      </trkpt>
      <trkpt lat="47.04119" lon="-1.66259">
        <ele>55</ele>
        <time>2022-01-01T13:21:19Z</time>
      </trkpt>
      <trkpt lat="47.04115" lon="-1.66243">
        <ele>56</ele>
        <time>2022-01-01T13:21:21Z</time>
      </trkpt>
      <trkpt lat="47.04111" lon="-1.66226">
        <ele>56</ele>
        <time>2022-01-01T13:21:23Z</time>
      </trkpt>
      <trkpt lat="47.04106" lon="-1.6621">
        <ele>56</ele>
        <time>2022-01-01T13:21:25Z</time>
      </trkpt>
      <trkpt lat="47.04102" lon="-1.66194">
        <ele>56</ele>
        <time>2022-01-01T13:21:27Z</time>
      </trkpt>
      <trkpt lat="47.04098" lon="-1.66178">
        <ele>56</ele>
        <time>2022-01-01T13:21:29Z</time>
      </trkpt>
      <trkpt lat="47.04093" lon="-1.66162">
        <ele>56</ele>
        <time>2022-01-01T13:21:31Z</time>
      </trkpt>
      <trkpt lat="47.04089" lon="-1.66146">
        <ele>56</ele>
        <time>2022-01-01T13:21:33Z</time>
      </trkpt>
      <trkpt lat="47.04086" lon="-1.66131">
        <ele>56</ele>
        <time>2022-01-01T13:21:35Z</time>
      </trkpt>
      <trkpt lat="47.04081" lon="-1.66115">
        <ele>56</ele>
        <time>2022-01-01T13:21:37Z</time>
      </trkpt>
      <trkpt lat="47.04077" lon="-1.66099">
        <ele>56</ele>
        <time>2022-01-01T13:21:39Z</time>
      </trkpt>
      <trkpt lat="47.04074" lon="-1.66084">
        <ele>56</ele>
        <time>2022-01-01T13:21:41Z</time>
      </trkpt>
      <trkpt lat="47.04069" lon="-1.66067">
        <ele>56</ele>
        <time>2022-01-01T13:21:43Z</time>
      </trkpt>
      <trkpt lat="47.04065" lon="-1.66052">
        <ele>56</ele>
        <time>2022-01-01T13:21:45Z</time>
      </trkpt>
      <trkpt lat="47.04061" lon="-1.66036">
        <ele>56</ele>
        <time>2022-01-01T13:21:47Z</time>
      </trkpt>
      <trkpt lat="47.04057" lon="-1.6602">
        <ele>56</ele>
        <time>2022-01-01T13:21:49Z</time>
      </trkpt>
      <trkpt lat="47.04052" lon="-1.66005">
        <ele>56</ele>
        <time>2022-01-01T13:21:51Z</time>
      </trkpt>
      <trkpt lat="47.04048" lon="-1.65989">
        <ele>56</ele>
        <time>2022-01-01T13:21:53Z</time>
      </trkpt>
      <trkpt lat="47.04044" lon="-1.65973">
        <ele>56</ele>
        <time>2022-01-01T13:21:55Z</time>
      </trkpt>
      <trkpt lat="47.04039" lon="-1.65957">
        <ele>55</ele>
        <time>2022-01-01T13:21:57Z</time>
      </trkpt>
      <trkpt lat="47.04035" lon="-1.6594">
        <ele>56</ele>
        <time>2022-01-01T13:21:59Z</time>
      </trkpt>
      <trkpt lat="47.0403" lon="-1.65924">
        <ele>55</ele>
        <time>2022-01-01T13:22:01Z</time>
      </trkpt>
      <trkpt lat="47.04025" lon="-1.65908">
        <ele>55</ele>
        <time>2022-01-01T13:22:03Z</time>
      </trkpt>
      <trkpt lat="47.0402" lon="-1.65891">
        <ele>55</ele>
        <time>2022-01-01T13:22:05Z</time>
      </trkpt>
      <trkpt lat="47.04016" lon="-1.65874">
        <ele>55</ele>
        <time>2022-01-01T13:22:07Z</time>
      </trkpt>
      <trkpt lat="47.04011" lon="-1.65857">
        <ele>55</ele>
        <time>2022-01-01T13:22:09Z</time>
      </trkpt>
      <trkpt lat="47.04006" lon="-1.6584">
        <ele>56</ele>
        <time>2022-01-01T13:22:11Z</time>
      </trkpt>
      <trkpt lat="47.04001" lon="-1.65821">
        <ele>55</ele>
        <time>2022-01-01T13:22:13Z</time>
      </trkpt>
      <trkpt lat="47.03997" lon="-1.65804">
        <ele>55</ele>
        <time>2022-01-01T13:22:15Z</time>
      </trkpt>
      <trkpt lat="47.03992" lon="-1.65787">
        <ele>55</ele>
        <time>2022-01-01T13:22:17Z</time>
      </trkpt>
      <trkpt lat="47.03987" lon="-1.6577">
        <ele>55</ele>
        <time>2022-01-01T13:22:19Z</time>
      </trkpt>
      <trkpt lat="47.03983" lon="-1.65754">
        <ele>55</ele>
        <time>2022-01-01T13:22:21Z</time>
      </trkpt>
      <trkpt lat="47.03978" lon="-1.65737">
        <ele>55</ele>
        <time>2022-01-01T13:22:23Z</time>
      </trkpt>
      <trkpt lat="47.03973" lon="-1.65721">
        <ele>55</ele>
        <time>2022-01-01T13:22:25Z</time>
      </trkpt>
      <trkpt lat="47.03969" lon="-1.65704">
        <ele>55</ele>
        <time>2022-01-01T13:22:27Z</time>
      </trkpt>
      <trkpt lat="47.03964" lon="-1.65687">
        <ele>54</ele>
        <time>2022-01-01T13:22:29Z</time>
      </trkpt>
      <trkpt lat="47.0396" lon="-1.6567">
        <ele>54</ele>
        <time>2022-01-01T13:22:31Z</time>
      </trkpt>
      <trkpt lat="47.03955" lon="-1.65653">
        <ele>54</ele>
        <time>2022-01-01T13:22:33Z</time>
      </trkpt>
      <trkpt lat="47.0395" lon="-1.65637">
        <ele>54</ele>
        <time>2022-01-01T13:22:35Z</time>
      </trkpt>
      <trkpt lat="47.03946" lon="-1.6562">
        <ele>54</ele>
        <time>2022-01-01T13:22:37Z</time>
      </trkpt>
      <trkpt lat="47.03941" lon="-1.65604">
        <ele>54</ele>
        <time>2022-01-01T13:22:39Z</time>
      </trkpt>
      <trkpt lat="47.03936" lon="-1.65587">
        <ele>54</ele>
        <time>2022-01-01T13:22:41Z</time>
      </trkpt>
      <trkpt lat="47.03931" lon="-1.65571">
        <ele>54</ele>
        <time>2022-01-01T13:22:43Z</time>
      </trkpt>
      <trkpt lat="47.03927" lon="-1.65555">
        <ele>54</ele>
        <time>2022-01-01T13:22:45Z</time>
      </trkpt>
      <trkpt lat="47.03923" lon="-1.65538">
        <ele>54</ele>
        <time>2022-01-01T13:22:47Z</time>
      </trkpt>
      <trkpt lat="47.03919" lon="-1.65522">
        <ele>54</ele>
        <time>2022-01-01T13:22:49Z</time>
      </trkpt>
      <trkpt lat="47.03914" lon="-1.65506">
        <ele>54</ele>
        <time>2022-01-01T13:22:51Z</time>
      </trkpt>
      <trkpt lat="47.0391" lon="-1.6549">
        <ele>54</ele>
        <time>2022-01-01T13:22:53Z</time>
      </trkpt>
      <trkpt lat="47.03905" lon="-1.65474">
        <ele>54</ele>
        <time>2022-01-01T13:22:55Z</time>
      </trkpt>
      <trkpt lat="47.03901" lon="-1.65458">
        <ele>54</ele>
        <time>2022-01-01T13:22:57Z</time>
      </trkpt>
      <trkpt lat="47.03896" lon="-1.65442">
        <ele>54</ele>
        <time>2022-01-01T13:22:59Z</time>
      </trkpt>
      <trkpt lat="47.03892" lon="-1.65426">
        <ele>54</ele>
        <time>2022-01-01T13:23:01Z</time>
      </trkpt>
      <trkpt lat="47.03887" lon="-1.65409">
        <ele>54</ele>
        <time>2022-01-01T13:23:03Z</time>
      </trkpt>
      <trkpt lat="47.03882" lon="-1.65393">
        <ele>54</ele>
        <time>2022-01-01T13:23:05Z</time>
      </trkpt>
      <trkpt lat="47.03877" lon="-1.65377">
        <ele>54</ele>
        <time>2022-01-01T13:23:07Z</time>
      </trkpt>
      <trkpt lat="47.03871" lon="-1.65362">
        <ele>54</ele>
        <time>2022-01-01T13:23:09Z</time>
      </trkpt>
      <trkpt lat="47.03864" lon="-1.65349">
        <ele>54</ele>
        <time>2022-01-01T13:23:11Z</time>
      </trkpt>
      <trkpt lat="47.03856" lon="-1.65339">
        <ele>54</ele>
        <time>2022-01-01T13:23:13Z</time>
      </trkpt>
      <trkpt lat="47.03852" lon="-1.65325">
        <ele>54</ele>
        <time>2022-01-01T13:23:15Z</time>
      </trkpt>
      <trkpt lat="47.03855" lon="-1.65309">
        <ele>54</ele>
        <time>2022-01-01T13:23:17Z</time>
      </trkpt>
      <trkpt lat="47.03863" lon="-1.65296">
        <ele>55</ele>
        <time>2022-01-01T13:23:19Z</time>
      </trkpt>
      <trkpt lat="47.03874" lon="-1.65286">
        <ele>55</ele>
        <time>2022-01-01T13:23:21Z</time>
      </trkpt>
      <trkpt lat="47.03886" lon="-1.65278">
        <ele>55</ele>
        <time>2022-01-01T13:23:23Z</time>
      </trkpt>
      <trkpt lat="47.03898" lon="-1.6527">
        <ele>54</ele>
        <time>2022-01-01T13:23:25Z</time>
      </trkpt>
      <trkpt lat="47.0391" lon="-1.65262">
        <ele>54</ele>
        <time>2022-01-01T13:23:27Z</time>
      </trkpt>
      <trkpt lat="47.03921" lon="-1.65253">
        <ele>54</ele>
        <time>2022-01-01T13:23:29Z</time>
      </trkpt>
      <trkpt lat="47.03933" lon="-1.65245">
        <ele>54</ele>
        <time>2022-01-01T13:23:31Z</time>
      </trkpt>
      <trkpt lat="47.03945" lon="-1.65237">
        <ele>54</ele>
        <time>2022-01-01T13:23:33Z</time>
      </trkpt>
      <trkpt lat="47.03957" lon="-1.65229">
        <ele>54</ele>
        <time>2022-01-01T13:23:35Z</time>
      </trkpt>
      <trkpt lat="47.03969" lon="-1.65221">
        <ele>53</ele>
        <time>2022-01-01T13:23:37Z</time>
      </trkpt>
      <trkpt lat="47.03981" lon="-1.65212">
        <ele>53</ele>
        <time>2022-01-01T13:23:39Z</time>
      </trkpt>
      <trkpt lat="47.03993" lon="-1.65204">
        <ele>54</ele>
        <time>2022-01-01T13:23:41Z</time>
      </trkpt>
      <trkpt lat="47.04004" lon="-1.65196">
        <ele>53</ele>
        <time>2022-01-01T13:23:43Z</time>
      </trkpt>
      <trkpt lat="47.04017" lon="-1.65187">
        <ele>54</ele>
        <time>2022-01-01T13:23:45Z</time>
      </trkpt>
      <trkpt lat="47.04029" lon="-1.65179">
        <ele>53</ele>
        <time>2022-01-01T13:23:47Z</time>
      </trkpt>
      <trkpt lat="47.0404" lon="-1.65171">
        <ele>54</ele>
        <time>2022-01-01T13:23:49Z</time>
      </trkpt>
      <trkpt lat="47.04052" lon="-1.65163">
        <ele>54</ele>
        <time>2022-01-01T13:23:51Z</time>
      </trkpt>
      <trkpt lat="47.04064" lon="-1.65154">
        <ele>54</ele>
        <time>2022-01-01T13:23:53Z</time>
      </trkpt>
      <trkpt lat="47.04077" lon="-1.65146">
        <ele>53</ele>
        <time>2022-01-01T13:23:55Z</time>
      </trkpt>
      <trkpt lat="47.04089" lon="-1.65138">
        <ele>53</ele>
        <time>2022-01-01T13:23:57Z</time>
      </trkpt>
      <trkpt lat="47.04101" lon="-1.65129">
        <ele>53</ele>
        <time>2022-01-01T13:23:59Z</time>
      </trkpt>
      <trkpt lat="47.04113" lon="-1.65121">
        <ele>53</ele>
        <time>2022-01-01T13:24:01Z</time>
      </trkpt>
      <trkpt lat="47.04125" lon="-1.65113">
        <ele>53</ele>
        <time>2022-01-01T13:24:03Z</time>
      </trkpt>
      <trkpt lat="47.04137" lon="-1.65104">
        <ele>53</ele>
        <time>2022-01-01T13:24:05Z</time>
      </trkpt>
      <trkpt lat="47.04149" lon="-1.65096">
        <ele>52</ele>
        <time>2022-01-01T13:24:07Z</time>
      </trkpt>
      <trkpt lat="47.04161" lon="-1.65088">
        <ele>52</ele>
        <time>2022-01-01T13:24:09Z</time>
      </trkpt>
      <trkpt lat="47.04173" lon="-1.6508">
        <ele>52</ele>
        <time>2022-01-01T13:24:11Z</time>
      </trkpt>
      <trkpt lat="47.04185" lon="-1.65071">
        <ele>53</ele>
        <time>2022-01-01T13:24:13Z</time>
      </trkpt>
      <trkpt lat="47.04196" lon="-1.65063">
        <ele>52</ele>
        <time>2022-01-01T13:24:15Z</time>
      </trkpt>
      <trkpt lat="47.04209" lon="-1.65055">
        <ele>52</ele>
        <time>2022-01-01T13:24:17Z</time>
      </trkpt>
      <trkpt lat="47.04221" lon="-1.65047">
        <ele>52</ele>
        <time>2022-01-01T13:24:19Z</time>
      </trkpt>
      <trkpt lat="47.04233" lon="-1.65039">
        <ele>52</ele>
        <time>2022-01-01T13:24:21Z</time>
      </trkpt>
      <trkpt lat="47.04245" lon="-1.6503">
        <ele>52</ele>
        <time>2022-01-01T13:24:23Z</time>
      </trkpt>
      <trkpt lat="47.04258" lon="-1.65021">
        <ele>51</ele>
        <time>2022-01-01T13:24:25Z</time>
      </trkpt>
      <trkpt lat="47.0427" lon="-1.65012">
        <ele>51</ele>
        <time>2022-01-01T13:24:27Z</time>
      </trkpt>
      <trkpt lat="47.04282" lon="-1.65003">
        <ele>51</ele>
        <time>2022-01-01T13:24:29Z</time>
      </trkpt>
      <trkpt lat="47.04295" lon="-1.64994">
        <ele>50</ele>
        <time>2022-01-01T13:24:31Z</time>
      </trkpt>
      <trkpt lat="47.04306" lon="-1.64985">
        <ele>50</ele>
        <time>2022-01-01T13:24:33Z</time>
      </trkpt>
      <trkpt lat="47.04317" lon="-1.64975">
        <ele>50</ele>
        <time>2022-01-01T13:24:35Z</time>
      </trkpt>
      <trkpt lat="47.04328" lon="-1.64967">
        <ele>50</ele>
        <time>2022-01-01T13:24:37Z</time>
      </trkpt>
      <trkpt lat="47.04339" lon="-1.64958">
        <ele>51</ele>
        <time>2022-01-01T13:24:39Z</time>
      </trkpt>
      <trkpt lat="47.0435" lon="-1.64949">
        <ele>51</ele>
        <time>2022-01-01T13:24:41Z</time>
      </trkpt>
      <trkpt lat="47.04361" lon="-1.6494">
        <ele>51</ele>
        <time>2022-01-01T13:24:43Z</time>
      </trkpt>
      <trkpt lat="47.0437" lon="-1.64931">
        <ele>51</ele>
        <time>2022-01-01T13:24:45Z</time>
      </trkpt>
      <trkpt lat="47.0438" lon="-1.64923">
        <ele>51</ele>
        <time>2022-01-01T13:24:47Z</time>
      </trkpt>
      <trkpt lat="47.0439" lon="-1.64914">
        <ele>51</ele>
        <time>2022-01-01T13:24:49Z</time>
      </trkpt>
      <trkpt lat="47.044" lon="-1.64906">
        <ele>51</ele>
        <time>2022-01-01T13:24:51Z</time>
      </trkpt>
      <trkpt lat="47.0441" lon="-1.64898">
        <ele>51</ele>
        <time>2022-01-01T13:24:53Z</time>
      </trkpt>
      <trkpt lat="47.0442" lon="-1.64894">
        <ele>51</ele>
        <time>2022-01-01T13:24:55Z</time>
      </trkpt>
      <trkpt lat="47.0443" lon="-1.64894">
        <ele>51</ele>
        <time>2022-01-01T13:24:57Z</time>
      </trkpt>
      <trkpt lat="47.0444" lon="-1.64898">
        <ele>51</ele>
        <time>2022-01-01T13:24:59Z</time>
      </trkpt>
      <trkpt lat="47.04451" lon="-1.64902">
        <ele>50</ele>
        <time>2022-01-01T13:25:01Z</time>
      </trkpt>
      <trkpt lat="47.04459" lon="-1.64909">
        <ele>50</ele>
        <time>2022-01-01T13:25:03Z</time>
      </trkpt>
      <trkpt lat="47.04469" lon="-1.64909">
        <ele>50</ele>
        <time>2022-01-01T13:25:06Z</time>
      </trkpt>
      <trkpt lat="47.04469" lon="-1.64894">
        <ele>50</ele>
        <time>2022-01-01T13:25:10Z</time>
      </trkpt>
      <trkpt lat="47.04461" lon="-1.64882">
        <ele>51</ele>
        <time>2022-01-01T13:25:14Z</time>
      </trkpt>
      <trkpt lat="47.04452" lon="-1.64871">
        <ele>53</ele>
        <time>2022-01-01T13:25:17Z</time>
      </trkpt>
      <trkpt lat="47.04443" lon="-1.64859">
        <ele>52</ele>
        <time>2022-01-01T13:25:20Z</time>
      </trkpt>
      <trkpt lat="47.04434" lon="-1.64851">
        <ele>52</ele>
        <time>2022-01-01T13:25:23Z</time>
      </trkpt>
      <trkpt lat="47.04427" lon="-1.6484">
        <ele>52</ele>
        <time>2022-01-01T13:25:26Z</time>
      </trkpt>
      <trkpt lat="47.04419" lon="-1.64833">
        <ele>52</ele>
        <time>2022-01-01T13:25:28Z</time>
      </trkpt>
      <trkpt lat="47.04414" lon="-1.64821">
        <ele>52</ele>
        <time>2022-01-01T13:25:30Z</time>
      </trkpt>
      <trkpt lat="47.04408" lon="-1.6481">
        <ele>51</ele>
        <time>2022-01-01T13:25:32Z</time>
      </trkpt>
      <trkpt lat="47.04402" lon="-1.64801">
        <ele>51</ele>
        <time>2022-01-01T13:25:34Z</time>
      </trkpt>
      <trkpt lat="47.04394" lon="-1.64791">
        <ele>50</ele>
        <time>2022-01-01T13:25:36Z</time>
      </trkpt>
      <trkpt lat="47.04387" lon="-1.64781">
        <ele>50</ele>
        <time>2022-01-01T13:25:38Z</time>
      </trkpt>
      <trkpt lat="47.04379" lon="-1.64769">
        <ele>50</ele>
        <time>2022-01-01T13:25:40Z</time>
      </trkpt>
      <trkpt lat="47.04371" lon="-1.64757">
        <ele>50</ele>
        <time>2022-01-01T13:25:42Z</time>
      </trkpt>
      <trkpt lat="47.04363" lon="-1.64747">
        <ele>50</ele>
        <time>2022-01-01T13:25:44Z</time>
      </trkpt>
      <trkpt lat="47.04355" lon="-1.64735">
        <ele>50</ele>
        <time>2022-01-01T13:25:46Z</time>
      </trkpt>
      <trkpt lat="47.04347" lon="-1.64724">
        <ele>50</ele>
        <time>2022-01-01T13:25:48Z</time>
      </trkpt>
      <trkpt lat="47.04338" lon="-1.64713">
        <ele>49</ele>
        <time>2022-01-01T13:25:50Z</time>
      </trkpt>
      <trkpt lat="47.0433" lon="-1.64702">
        <ele>50</ele>
        <time>2022-01-01T13:25:52Z</time>
      </trkpt>
      <trkpt lat="47.04322" lon="-1.64692">
        <ele>50</ele>
        <time>2022-01-01T13:25:54Z</time>
      </trkpt>
      <trkpt lat="47.04314" lon="-1.6468">
        <ele>50</ele>
        <time>2022-01-01T13:25:56Z</time>
      </trkpt>
      <trkpt lat="47.04306" lon="-1.6467">
        <ele>49</ele>
        <time>2022-01-01T13:25:58Z</time>
      </trkpt>
      <trkpt lat="47.04297" lon="-1.64659">
        <ele>49</ele>
        <time>2022-01-01T13:26:00Z</time>
      </trkpt>
      <trkpt lat="47.04289" lon="-1.64648">
        <ele>49</ele>
        <time>2022-01-01T13:26:02Z</time>
      </trkpt>
      <trkpt lat="47.04281" lon="-1.64636">
        <ele>49</ele>
        <time>2022-01-01T13:26:04Z</time>
      </trkpt>
      <trkpt lat="47.04274" lon="-1.64625">
        <ele>48</ele>
        <time>2022-01-01T13:26:06Z</time>
      </trkpt>
      <trkpt lat="47.04266" lon="-1.64615">
        <ele>48</ele>
        <time>2022-01-01T13:26:08Z</time>
      </trkpt>
      <trkpt lat="47.04259" lon="-1.64604">
        <ele>49</ele>
        <time>2022-01-01T13:26:10Z</time>
      </trkpt>
      <trkpt lat="47.04251" lon="-1.64593">
        <ele>49</ele>
        <time>2022-01-01T13:26:12Z</time>
      </trkpt>
      <trkpt lat="47.04242" lon="-1.64582">
        <ele>49</ele>
        <time>2022-01-01T13:26:14Z</time>
      </trkpt>
      <trkpt lat="47.04234" lon="-1.64571">
        <ele>49</ele>
        <time>2022-01-01T13:26:16Z</time>
      </trkpt>
      <trkpt lat="47.04226" lon="-1.64559">
        <ele>49</ele>
        <time>2022-01-01T13:26:18Z</time>
      </trkpt>
      <trkpt lat="47.04218" lon="-1.64548">
        <ele>49</ele>
        <time>2022-01-01T13:26:20Z</time>
      </trkpt>
      <trkpt lat="47.04209" lon="-1.64537">
        <ele>49</ele>
        <time>2022-01-01T13:26:22Z</time>
      </trkpt>
      <trkpt lat="47.04201" lon="-1.64526">
        <ele>49</ele>
        <time>2022-01-01T13:26:24Z</time>
      </trkpt>
      <trkpt lat="47.04192" lon="-1.64515">
        <ele>49</ele>
        <time>2022-01-01T13:26:26Z</time>
      </trkpt>
      <trkpt lat="47.04184" lon="-1.64504">
        <ele>50</ele>
        <time>2022-01-01T13:26:28Z</time>
      </trkpt>
      <trkpt lat="47.04175" lon="-1.64494">
        <ele>49</ele>
        <time>2022-01-01T13:26:30Z</time>
      </trkpt>
      <trkpt lat="47.04169" lon="-1.64482">
        <ele>49</ele>
        <time>2022-01-01T13:26:32Z</time>
      </trkpt>
      <trkpt lat="47.0416" lon="-1.64469">
        <ele>49</ele>
        <time>2022-01-01T13:26:34Z</time>
      </trkpt>
      <trkpt lat="47.04152" lon="-1.64456">
        <ele>49</ele>
        <time>2022-01-01T13:26:36Z</time>
      </trkpt>
      <trkpt lat="47.04144" lon="-1.64445">
        <ele>49</ele>
        <time>2022-01-01T13:26:38Z</time>
      </trkpt>
      <trkpt lat="47.04135" lon="-1.64433">
        <ele>49</ele>
        <time>2022-01-01T13:26:40Z</time>
      </trkpt>
      <trkpt lat="47.04127" lon="-1.64422">
        <ele>49</ele>
        <time>2022-01-01T13:26:42Z</time>
      </trkpt>
      <trkpt lat="47.04118" lon="-1.64409">
        <ele>49</ele>
        <time>2022-01-01T13:26:44Z</time>
      </trkpt>
      <trkpt lat="47.0411" lon="-1.64397">
        <ele>49</ele>
        <time>2022-01-01T13:26:46Z</time>
      </trkpt>
      <trkpt lat="47.04103" lon="-1.64383">
        <ele>49</ele>
        <time>2022-01-01T13:26:48Z</time>
      </trkpt>
      <trkpt lat="47.04096" lon="-1.64369">
        <ele>49</ele>
        <time>2022-01-01T13:26:50Z</time>
      </trkpt>
      <trkpt lat="47.04089" lon="-1.64355">
        <ele>49</ele>
        <time>2022-01-01T13:26:52Z</time>
      </trkpt>
      <trkpt lat="47.04082" lon="-1.64341">
        <ele>49</ele>
        <time>2022-01-01T13:26:54Z</time>
      </trkpt>
      <trkpt lat="47.04076" lon="-1.64327">
        <ele>50</ele>
        <time>2022-01-01T13:26:56Z</time>
      </trkpt>
      <trkpt lat="47.04069" lon="-1.64312">
        <ele>50</ele>
        <time>2022-01-01T13:26:58Z</time>
      </trkpt>
      <trkpt lat="47.04064" lon="-1.64296">
        <ele>50</ele>
        <time>2022-01-01T13:27:00Z</time>
      </trkpt>
      <trkpt lat="47.04057" lon="-1.64283">
        <ele>50</ele>
        <time>2022-01-01T13:27:02Z</time>
      </trkpt>
      <trkpt lat="47.04051" lon="-1.64272">
        <ele>50</ele>
        <time>2022-01-01T13:27:04Z</time>
      </trkpt>
      <trkpt lat="47.04044" lon="-1.64262">
        <ele>50</ele>
        <time>2022-01-01T13:27:06Z</time>
      </trkpt>
      <trkpt lat="47.04037" lon="-1.64251">
        <ele>50</ele>
        <time>2022-01-01T13:27:08Z</time>
      </trkpt>
      <trkpt lat="47.04029" lon="-1.64238">
        <ele>50</ele>
        <time>2022-01-01T13:27:10Z</time>
      </trkpt>
      <trkpt lat="47.0402" lon="-1.64224">
        <ele>50</ele>
        <time>2022-01-01T13:27:12Z</time>
      </trkpt>
      <trkpt lat="47.04012" lon="-1.6421">
        <ele>49</ele>
        <time>2022-01-01T13:27:14Z</time>
      </trkpt>
      <trkpt lat="47.04003" lon="-1.64198">
        <ele>50</ele>
        <time>2022-01-01T13:27:16Z</time>
      </trkpt>
      <trkpt lat="47.03995" lon="-1.64186">
        <ele>50</ele>
        <time>2022-01-01T13:27:18Z</time>
      </trkpt>
      <trkpt lat="47.03988" lon="-1.64174">
        <ele>51</ele>
        <time>2022-01-01T13:27:20Z</time>
      </trkpt>
      <trkpt lat="47.03981" lon="-1.64162">
        <ele>51</ele>
        <time>2022-01-01T13:27:22Z</time>
      </trkpt>
      <trkpt lat="47.03975" lon="-1.64152">
        <ele>51</ele>
        <time>2022-01-01T13:27:24Z</time>
      </trkpt>
      <trkpt lat="47.03981" lon="-1.64139">
        <ele>52</ele>
        <time>2022-01-01T13:27:27Z</time>
      </trkpt>
      <trkpt lat="47.03992" lon="-1.64134">
        <ele>53</ele>
        <time>2022-01-01T13:27:29Z</time>
      </trkpt>
      <trkpt lat="47.04003" lon="-1.64127">
        <ele>53</ele>
        <time>2022-01-01T13:27:31Z</time>
      </trkpt>
      <trkpt lat="47.04015" lon="-1.64122">
        <ele>53</ele>
        <time>2022-01-01T13:27:33Z</time>
      </trkpt>
      <trkpt lat="47.04027" lon="-1.64117">
        <ele>53</ele>
        <time>2022-01-01T13:27:35Z</time>
      </trkpt>
      <trkpt lat="47.04038" lon="-1.64113">
        <ele>53</ele>
        <time>2022-01-01T13:27:37Z</time>
      </trkpt>
      <trkpt lat="47.04051" lon="-1.64107">
        <ele>52</ele>
        <time>2022-01-01T13:27:39Z</time>
      </trkpt>
      <trkpt lat="47.04064" lon="-1.64101">
        <ele>53</ele>
        <time>2022-01-01T13:27:41Z</time>
      </trkpt>
      <trkpt lat="47.04078" lon="-1.64095">
        <ele>52</ele>
        <time>2022-01-01T13:27:43Z</time>
      </trkpt>
      <trkpt lat="47.04091" lon="-1.64089">
        <ele>52</ele>
        <time>2022-01-01T13:27:45Z</time>
      </trkpt>
      <trkpt lat="47.04104" lon="-1.64083">
        <ele>52</ele>
        <time>2022-01-01T13:27:47Z</time>
      </trkpt>
      <trkpt lat="47.04124" lon="-1.64073">
        <ele>52</ele>
        <time>2022-01-01T13:27:50Z</time>
      </trkpt>
      <trkpt lat="47.04137" lon="-1.64067">
        <ele>52</ele>
        <time>2022-01-01T13:27:52Z</time>
      </trkpt>
      <trkpt lat="47.04157" lon="-1.64058">
        <ele>52</ele>
        <time>2022-01-01T13:27:55Z</time>
      </trkpt>
      <trkpt lat="47.0417" lon="-1.64052">
        <ele>52</ele>
        <time>2022-01-01T13:27:57Z</time>
      </trkpt>
      <trkpt lat="47.04183" lon="-1.64047">
        <ele>53</ele>
        <time>2022-01-01T13:27:59Z</time>
      </trkpt>
      <trkpt lat="47.04201" lon="-1.64039">
        <ele>53</ele>
        <time>2022-01-01T13:28:02Z</time>
      </trkpt>
      <trkpt lat="47.04214" lon="-1.64034">
        <ele>53</ele>
        <time>2022-01-01T13:28:04Z</time>
      </trkpt>
      <trkpt lat="47.04226" lon="-1.64028">
        <ele>53</ele>
        <time>2022-01-01T13:28:06Z</time>
      </trkpt>
      <trkpt lat="47.04244" lon="-1.6402">
        <ele>53</ele>
        <time>2022-01-01T13:28:09Z</time>
      </trkpt>
      <trkpt lat="47.04257" lon="-1.64015">
        <ele>52</ele>
        <time>2022-01-01T13:28:11Z</time>
      </trkpt>
      <trkpt lat="47.0427" lon="-1.6401">
        <ele>52</ele>
        <time>2022-01-01T13:28:13Z</time>
      </trkpt>
      <trkpt lat="47.04282" lon="-1.64005">
        <ele>53</ele>
        <time>2022-01-01T13:28:15Z</time>
      </trkpt>
      <trkpt lat="47.04294" lon="-1.64">
        <ele>52</ele>
        <time>2022-01-01T13:28:17Z</time>
      </trkpt>
      <trkpt lat="47.04305" lon="-1.63994">
        <ele>52</ele>
        <time>2022-01-01T13:28:19Z</time>
      </trkpt>
      <trkpt lat="47.04317" lon="-1.63989">
        <ele>53</ele>
        <time>2022-01-01T13:28:21Z</time>
      </trkpt>
      <trkpt lat="47.04329" lon="-1.63984">
        <ele>52</ele>
        <time>2022-01-01T13:28:23Z</time>
      </trkpt>
      <trkpt lat="47.04341" lon="-1.63978">
        <ele>52</ele>
        <time>2022-01-01T13:28:25Z</time>
      </trkpt>
      <trkpt lat="47.04352" lon="-1.63974">
        <ele>52</ele>
        <time>2022-01-01T13:28:27Z</time>
      </trkpt>
      <trkpt lat="47.04365" lon="-1.63969">
        <ele>52</ele>
        <time>2022-01-01T13:28:29Z</time>
      </trkpt>
      <trkpt lat="47.04377" lon="-1.63963">
        <ele>52</ele>
        <time>2022-01-01T13:28:31Z</time>
      </trkpt>
      <trkpt lat="47.04389" lon="-1.63957">
        <ele>51</ele>
        <time>2022-01-01T13:28:33Z</time>
      </trkpt>
      <trkpt lat="47.04401" lon="-1.63952">
        <ele>51</ele>
        <time>2022-01-01T13:28:35Z</time>
      </trkpt>
      <trkpt lat="47.04414" lon="-1.63946">
        <ele>52</ele>
        <time>2022-01-01T13:28:37Z</time>
      </trkpt>
      <trkpt lat="47.04426" lon="-1.6394">
        <ele>52</ele>
        <time>2022-01-01T13:28:39Z</time>
      </trkpt>
      <trkpt lat="47.04438" lon="-1.63935">
        <ele>52</ele>
        <time>2022-01-01T13:28:41Z</time>
      </trkpt>
      <trkpt lat="47.0445" lon="-1.63929">
        <ele>52</ele>
        <time>2022-01-01T13:28:43Z</time>
      </trkpt>
      <trkpt lat="47.0446" lon="-1.63922">
        <ele>52</ele>
        <time>2022-01-01T13:28:45Z</time>
      </trkpt>
      <trkpt lat="47.04471" lon="-1.63913">
        <ele>52</ele>
        <time>2022-01-01T13:28:47Z</time>
      </trkpt>
      <trkpt lat="47.04482" lon="-1.63908">
        <ele>52</ele>
        <time>2022-01-01T13:28:49Z</time>
      </trkpt>
      <trkpt lat="47.04495" lon="-1.63904">
        <ele>52</ele>
        <time>2022-01-01T13:28:51Z</time>
      </trkpt>
      <trkpt lat="47.04507" lon="-1.63897">
        <ele>52</ele>
        <time>2022-01-01T13:28:53Z</time>
      </trkpt>
      <trkpt lat="47.04519" lon="-1.63888">
        <ele>52</ele>
        <time>2022-01-01T13:28:55Z</time>
      </trkpt>
      <trkpt lat="47.04531" lon="-1.63881">
        <ele>52</ele>
        <time>2022-01-01T13:28:57Z</time>
      </trkpt>
      <trkpt lat="47.04543" lon="-1.63874">
        <ele>52</ele>
        <time>2022-01-01T13:28:59Z</time>
      </trkpt>
      <trkpt lat="47.04555" lon="-1.63867">
        <ele>52</ele>
        <time>2022-01-01T13:29:01Z</time>
      </trkpt>
      <trkpt lat="47.04567" lon="-1.6386">
        <ele>52</ele>
        <time>2022-01-01T13:29:03Z</time>
      </trkpt>
      <trkpt lat="47.04578" lon="-1.63854">
        <ele>52</ele>
        <time>2022-01-01T13:29:05Z</time>
      </trkpt>
      <trkpt lat="47.0459" lon="-1.63848">
        <ele>52</ele>
        <time>2022-01-01T13:29:07Z</time>
      </trkpt>
      <trkpt lat="47.04602" lon="-1.63845">
        <ele>53</ele>
        <time>2022-01-01T13:29:09Z</time>
      </trkpt>
      <trkpt lat="47.04613" lon="-1.63843">
        <ele>53</ele>
        <time>2022-01-01T13:29:11Z</time>
      </trkpt>
      <trkpt lat="47.04624" lon="-1.63841">
        <ele>53</ele>
        <time>2022-01-01T13:29:13Z</time>
      </trkpt>
      <trkpt lat="47.04635" lon="-1.63839">
        <ele>54</ele>
        <time>2022-01-01T13:29:15Z</time>
      </trkpt>
      <trkpt lat="47.04646" lon="-1.63836">
        <ele>54</ele>
        <time>2022-01-01T13:29:17Z</time>
      </trkpt>
      <trkpt lat="47.04656" lon="-1.63831">
        <ele>54</ele>
        <time>2022-01-01T13:29:19Z</time>
      </trkpt>
      <trkpt lat="47.04665" lon="-1.63825">
        <ele>54</ele>
        <time>2022-01-01T13:29:21Z</time>
      </trkpt>
      <trkpt lat="47.04676" lon="-1.63819">
        <ele>55</ele>
        <time>2022-01-01T13:29:23Z</time>
      </trkpt>
      <trkpt lat="47.04685" lon="-1.63814">
        <ele>55</ele>
        <time>2022-01-01T13:29:25Z</time>
      </trkpt>
      <trkpt lat="47.04695" lon="-1.6381">
        <ele>55</ele>
        <time>2022-01-01T13:29:27Z</time>
      </trkpt>
      <trkpt lat="47.04705" lon="-1.63805">
        <ele>55</ele>
        <time>2022-01-01T13:29:29Z</time>
      </trkpt>
      <trkpt lat="47.04716" lon="-1.63799">
        <ele>55</ele>
        <time>2022-01-01T13:29:31Z</time>
      </trkpt>
      <trkpt lat="47.04727" lon="-1.63797">
        <ele>55</ele>
        <time>2022-01-01T13:29:33Z</time>
      </trkpt>
      <trkpt lat="47.04738" lon="-1.63798">
        <ele>55</ele>
        <time>2022-01-01T13:29:35Z</time>
      </trkpt>
      <trkpt lat="47.04748" lon="-1.63797">
        <ele>56</ele>
        <time>2022-01-01T13:29:37Z</time>
      </trkpt>
      <trkpt lat="47.04759" lon="-1.63792">
        <ele>56</ele>
        <time>2022-01-01T13:29:39Z</time>
      </trkpt>
      <trkpt lat="47.0477" lon="-1.63788">
        <ele>57</ele>
        <time>2022-01-01T13:29:41Z</time>
      </trkpt>
      <trkpt lat="47.0478" lon="-1.63785">
        <ele>57</ele>
        <time>2022-01-01T13:29:43Z</time>
      </trkpt>
      <trkpt lat="47.0479" lon="-1.63781">
        <ele>58</ele>
        <time>2022-01-01T13:29:45Z</time>
      </trkpt>
      <trkpt lat="47.048" lon="-1.63778">
        <ele>58</ele>
        <time>2022-01-01T13:29:47Z</time>
      </trkpt>
      <trkpt lat="47.04811" lon="-1.63777">
        <ele>58</ele>
        <time>2022-01-01T13:29:49Z</time>
      </trkpt>
      <trkpt lat="47.04821" lon="-1.63775">
        <ele>58</ele>
        <time>2022-01-01T13:29:51Z</time>
      </trkpt>
      <trkpt lat="47.04832" lon="-1.63773">
        <ele>58</ele>
        <time>2022-01-01T13:29:53Z</time>
      </trkpt>
      <trkpt lat="47.04843" lon="-1.63771">
        <ele>58</ele>
        <time>2022-01-01T13:29:55Z</time>
      </trkpt>
      <trkpt lat="47.04854" lon="-1.63769">
        <ele>58</ele>
        <time>2022-01-01T13:29:57Z</time>
      </trkpt>
      <trkpt lat="47.04865" lon="-1.63767">
        <ele>58</ele>
        <time>2022-01-01T13:29:59Z</time>
      </trkpt>
      <trkpt lat="47.04876" lon="-1.63765">
        <ele>57</ele>
        <time>2022-01-01T13:30:01Z</time>
      </trkpt>
      <trkpt lat="47.04888" lon="-1.63763">
        <ele>57</ele>
        <time>2022-01-01T13:30:03Z</time>
      </trkpt>
      <trkpt lat="47.049" lon="-1.63761">
        <ele>57</ele>
        <time>2022-01-01T13:30:05Z</time>
      </trkpt>
      <trkpt lat="47.04912" lon="-1.63758">
        <ele>57</ele>
        <time>2022-01-01T13:30:07Z</time>
      </trkpt>
      <trkpt lat="47.04924" lon="-1.63753">
        <ele>57</ele>
        <time>2022-01-01T13:30:09Z</time>
      </trkpt>
      <trkpt lat="47.04934" lon="-1.63744">
        <ele>57</ele>
        <time>2022-01-01T13:30:11Z</time>
      </trkpt>
      <trkpt lat="47.04942" lon="-1.63732">
        <ele>57</ele>
        <time>2022-01-01T13:30:13Z</time>
      </trkpt>
      <trkpt lat="47.04946" lon="-1.63714">
        <ele>57</ele>
        <time>2022-01-01T13:30:15Z</time>
      </trkpt>
      <trkpt lat="47.04947" lon="-1.63696">
        <ele>57</ele>
        <time>2022-01-01T13:30:17Z</time>
      </trkpt>
      <trkpt lat="47.04947" lon="-1.63677">
        <ele>57</ele>
        <time>2022-01-01T13:30:19Z</time>
      </trkpt>
      <trkpt lat="47.04947" lon="-1.63659">
        <ele>57</ele>
        <time>2022-01-01T13:30:21Z</time>
      </trkpt>
      <trkpt lat="47.04947" lon="-1.63639">
        <ele>56</ele>
        <time>2022-01-01T13:30:23Z</time>
      </trkpt>
      <trkpt lat="47.04951" lon="-1.6362">
        <ele>56</ele>
        <time>2022-01-01T13:30:25Z</time>
      </trkpt>
      <trkpt lat="47.04958" lon="-1.63602">
        <ele>55</ele>
        <time>2022-01-01T13:30:27Z</time>
      </trkpt>
      <trkpt lat="47.04967" lon="-1.63584">
        <ele>55</ele>
        <time>2022-01-01T13:30:29Z</time>
      </trkpt>
      <trkpt lat="47.04978" lon="-1.63571">
        <ele>55</ele>
        <time>2022-01-01T13:30:31Z</time>
      </trkpt>
      <trkpt lat="47.04991" lon="-1.63561">
        <ele>54</ele>
        <time>2022-01-01T13:30:33Z</time>
      </trkpt>
      <trkpt lat="47.05005" lon="-1.63552">
        <ele>54</ele>
        <time>2022-01-01T13:30:35Z</time>
      </trkpt>
      <trkpt lat="47.05019" lon="-1.63545">
        <ele>53</ele>
        <time>2022-01-01T13:30:37Z</time>
      </trkpt>
      <trkpt lat="47.05033" lon="-1.6354">
        <ele>53</ele>
        <time>2022-01-01T13:30:39Z</time>
      </trkpt>
      <trkpt lat="47.05047" lon="-1.63534">
        <ele>53</ele>
        <time>2022-01-01T13:30:41Z</time>
      </trkpt>
      <trkpt lat="47.0506" lon="-1.63529">
        <ele>52</ele>
        <time>2022-01-01T13:30:43Z</time>
      </trkpt>
      <trkpt lat="47.05074" lon="-1.63524">
        <ele>52</ele>
        <time>2022-01-01T13:30:45Z</time>
      </trkpt>
      <trkpt lat="47.05087" lon="-1.63518">
        <ele>53</ele>
        <time>2022-01-01T13:30:47Z</time>
      </trkpt>
      <trkpt lat="47.051" lon="-1.63513">
        <ele>53</ele>
        <time>2022-01-01T13:30:49Z</time>
      </trkpt>
      <trkpt lat="47.05114" lon="-1.63508">
        <ele>53</ele>
        <time>2022-01-01T13:30:51Z</time>
      </trkpt>
      <trkpt lat="47.05126" lon="-1.63503">
        <ele>53</ele>
        <time>2022-01-01T13:30:53Z</time>
      </trkpt>
      <trkpt lat="47.0514" lon="-1.63497">
        <ele>53</ele>
        <time>2022-01-01T13:30:55Z</time>
      </trkpt>
      <trkpt lat="47.05152" lon="-1.63492">
        <ele>52</ele>
        <time>2022-01-01T13:30:57Z</time>
      </trkpt>
      <trkpt lat="47.05165" lon="-1.63488">
        <ele>52</ele>
        <time>2022-01-01T13:30:59Z</time>
      </trkpt>
      <trkpt lat="47.05178" lon="-1.63483">
        <ele>52</ele>
        <time>2022-01-01T13:31:01Z</time>
      </trkpt>
      <trkpt lat="47.05191" lon="-1.63478">
        <ele>52</ele>
        <time>2022-01-01T13:31:03Z</time>
      </trkpt>
      <trkpt lat="47.05204" lon="-1.63473">
        <ele>52</ele>
        <time>2022-01-01T13:31:05Z</time>
      </trkpt>
      <trkpt lat="47.05217" lon="-1.63468">
        <ele>52</ele>
        <time>2022-01-01T13:31:07Z</time>
      </trkpt>
      <trkpt lat="47.05231" lon="-1.63464">
        <ele>52</ele>
        <time>2022-01-01T13:31:09Z</time>
      </trkpt>
      <trkpt lat="47.05244" lon="-1.6346">
        <ele>52</ele>
        <time>2022-01-01T13:31:11Z</time>
      </trkpt>
      <trkpt lat="47.05258" lon="-1.63457">
        <ele>51</ele>
        <time>2022-01-01T13:31:13Z</time>
      </trkpt>
      <trkpt lat="47.05271" lon="-1.63454">
        <ele>51</ele>
        <time>2022-01-01T13:31:15Z</time>
      </trkpt>
      <trkpt lat="47.05284" lon="-1.6345">
        <ele>52</ele>
        <time>2022-01-01T13:31:17Z</time>
      </trkpt>
      <trkpt lat="47.05298" lon="-1.63447">
        <ele>51</ele>
        <time>2022-01-01T13:31:19Z</time>
      </trkpt>
      <trkpt lat="47.05311" lon="-1.63445">
        <ele>52</ele>
        <time>2022-01-01T13:31:21Z</time>
      </trkpt>
      <trkpt lat="47.05325" lon="-1.63444">
        <ele>51</ele>
        <time>2022-01-01T13:31:23Z</time>
      </trkpt>
      <trkpt lat="47.05339" lon="-1.63444">
        <ele>51</ele>
        <time>2022-01-01T13:31:25Z</time>
      </trkpt>
      <trkpt lat="47.05352" lon="-1.63442">
        <ele>51</ele>
        <time>2022-01-01T13:31:27Z</time>
      </trkpt>
      <trkpt lat="47.05364" lon="-1.63435">
        <ele>51</ele>
        <time>2022-01-01T13:31:29Z</time>
      </trkpt>
      <trkpt lat="47.05377" lon="-1.63429">
        <ele>51</ele>
        <time>2022-01-01T13:31:31Z</time>
      </trkpt>
      <trkpt lat="47.05391" lon="-1.63431">
        <ele>51</ele>
        <time>2022-01-01T13:31:33Z</time>
      </trkpt>
      <trkpt lat="47.05405" lon="-1.63433">
        <ele>51</ele>
        <time>2022-01-01T13:31:35Z</time>
      </trkpt>
      <trkpt lat="47.0542" lon="-1.6343">
        <ele>52</ele>
        <time>2022-01-01T13:31:37Z</time>
      </trkpt>
      <trkpt lat="47.05434" lon="-1.63427">
        <ele>52</ele>
        <time>2022-01-01T13:31:39Z</time>
      </trkpt>
      <trkpt lat="47.05448" lon="-1.63424">
        <ele>52</ele>
        <time>2022-01-01T13:31:41Z</time>
      </trkpt>
      <trkpt lat="47.05462" lon="-1.63422">
        <ele>52</ele>
        <time>2022-01-01T13:31:43Z</time>
      </trkpt>
      <trkpt lat="47.05476" lon="-1.6342">
        <ele>52</ele>
        <time>2022-01-01T13:31:45Z</time>
      </trkpt>
      <trkpt lat="47.0549" lon="-1.63418">
        <ele>52</ele>
        <time>2022-01-01T13:31:47Z</time>
      </trkpt>
      <trkpt lat="47.05504" lon="-1.63416">
        <ele>51</ele>
        <time>2022-01-01T13:31:49Z</time>
      </trkpt>
      <trkpt lat="47.05518" lon="-1.63413">
        <ele>51</ele>
        <time>2022-01-01T13:31:51Z</time>
      </trkpt>
      <trkpt lat="47.05532" lon="-1.63409">
        <ele>51</ele>
        <time>2022-01-01T13:31:53Z</time>
      </trkpt>
      <trkpt lat="47.05546" lon="-1.63405">
        <ele>51</ele>
        <time>2022-01-01T13:31:55Z</time>
      </trkpt>
      <trkpt lat="47.05559" lon="-1.634">
        <ele>51</ele>
        <time>2022-01-01T13:31:57Z</time>
      </trkpt>
      <trkpt lat="47.05572" lon="-1.63394">
        <ele>51</ele>
        <time>2022-01-01T13:31:59Z</time>
      </trkpt>
      <trkpt lat="47.05585" lon="-1.63389">
        <ele>51</ele>
        <time>2022-01-01T13:32:01Z</time>
      </trkpt>
      <trkpt lat="47.05598" lon="-1.63383">
        <ele>51</ele>
        <time>2022-01-01T13:32:03Z</time>
      </trkpt>
      <trkpt lat="47.0561" lon="-1.63377">
        <ele>51</ele>
        <time>2022-01-01T13:32:05Z</time>
      </trkpt>
      <trkpt lat="47.05623" lon="-1.63371">
        <ele>51</ele>
        <time>2022-01-01T13:32:07Z</time>
      </trkpt>
      <trkpt lat="47.05636" lon="-1.63365">
        <ele>51</ele>
        <time>2022-01-01T13:32:09Z</time>
      </trkpt>
      <trkpt lat="47.05649" lon="-1.6336">
        <ele>51</ele>
        <time>2022-01-01T13:32:11Z</time>
      </trkpt>
      <trkpt lat="47.05662" lon="-1.63353">
        <ele>51</ele>
        <time>2022-01-01T13:32:13Z</time>
      </trkpt>
      <trkpt lat="47.05675" lon="-1.63348">
        <ele>51</ele>
        <time>2022-01-01T13:32:15Z</time>
      </trkpt>
      <trkpt lat="47.05687" lon="-1.63342">
        <ele>51</ele>
        <time>2022-01-01T13:32:17Z</time>
      </trkpt>
      <trkpt lat="47.057" lon="-1.63336">
        <ele>50</ele>
        <time>2022-01-01T13:32:19Z</time>
      </trkpt>
      <trkpt lat="47.05713" lon="-1.63329">
        <ele>51</ele>
        <time>2022-01-01T13:32:21Z</time>
      </trkpt>
      <trkpt lat="47.05725" lon="-1.63324">
        <ele>51</ele>
        <time>2022-01-01T13:32:23Z</time>
      </trkpt>
      <trkpt lat="47.05737" lon="-1.63318">
        <ele>51</ele>
        <time>2022-01-01T13:32:25Z</time>
      </trkpt>
      <trkpt lat="47.05749" lon="-1.63313">
        <ele>51</ele>
        <time>2022-01-01T13:32:27Z</time>
      </trkpt>
      <trkpt lat="47.05761" lon="-1.63307">
        <ele>52</ele>
        <time>2022-01-01T13:32:29Z</time>
      </trkpt>
      <trkpt lat="47.05774" lon="-1.63301">
        <ele>52</ele>
        <time>2022-01-01T13:32:31Z</time>
      </trkpt>
      <trkpt lat="47.05786" lon="-1.63295">
        <ele>52</ele>
        <time>2022-01-01T13:32:33Z</time>
      </trkpt>
      <trkpt lat="47.05798" lon="-1.63289">
        <ele>52</ele>
        <time>2022-01-01T13:32:35Z</time>
      </trkpt>
      <trkpt lat="47.05811" lon="-1.63284">
        <ele>52</ele>
        <time>2022-01-01T13:32:37Z</time>
      </trkpt>
      <trkpt lat="47.05823" lon="-1.63277">
        <ele>52</ele>
        <time>2022-01-01T13:32:39Z</time>
      </trkpt>
      <trkpt lat="47.05836" lon="-1.63271">
        <ele>52</ele>
        <time>2022-01-01T13:32:41Z</time>
      </trkpt>
      <trkpt lat="47.05848" lon="-1.63266">
        <ele>52</ele>
        <time>2022-01-01T13:32:43Z</time>
      </trkpt>
      <trkpt lat="47.05861" lon="-1.6326">
        <ele>52</ele>
        <time>2022-01-01T13:32:45Z</time>
      </trkpt>
      <trkpt lat="47.05874" lon="-1.63253">
        <ele>52</ele>
        <time>2022-01-01T13:32:47Z</time>
      </trkpt>
      <trkpt lat="47.05886" lon="-1.63248">
        <ele>51</ele>
        <time>2022-01-01T13:32:49Z</time>
      </trkpt>
      <trkpt lat="47.05898" lon="-1.63242">
        <ele>51</ele>
        <time>2022-01-01T13:32:51Z</time>
      </trkpt>
      <trkpt lat="47.05911" lon="-1.63236">
        <ele>51</ele>
        <time>2022-01-01T13:32:53Z</time>
      </trkpt>
      <trkpt lat="47.05924" lon="-1.6323">
        <ele>51</ele>
        <time>2022-01-01T13:32:55Z</time>
      </trkpt>
      <trkpt lat="47.05937" lon="-1.63225">
        <ele>52</ele>
        <time>2022-01-01T13:32:57Z</time>
      </trkpt>
      <trkpt lat="47.05949" lon="-1.63219">
        <ele>52</ele>
        <time>2022-01-01T13:32:59Z</time>
      </trkpt>
      <trkpt lat="47.05961" lon="-1.63213">
        <ele>51</ele>
        <time>2022-01-01T13:33:01Z</time>
      </trkpt>
      <trkpt lat="47.05974" lon="-1.63207">
        <ele>52</ele>
        <time>2022-01-01T13:33:03Z</time>
      </trkpt>
      <trkpt lat="47.05987" lon="-1.63201">
        <ele>52</ele>
        <time>2022-01-01T13:33:05Z</time>
      </trkpt>
      <trkpt lat="47.05999" lon="-1.63195">
        <ele>52</ele>
        <time>2022-01-01T13:33:07Z</time>
      </trkpt>
      <trkpt lat="47.06012" lon="-1.6319">
        <ele>51</ele>
        <time>2022-01-01T13:33:09Z</time>
      </trkpt>
      <trkpt lat="47.06024" lon="-1.63186">
        <ele>51</ele>
        <time>2022-01-01T13:33:11Z</time>
      </trkpt>
      <trkpt lat="47.06036" lon="-1.63181">
        <ele>52</ele>
        <time>2022-01-01T13:33:13Z</time>
      </trkpt>
      <trkpt lat="47.06047" lon="-1.63175">
        <ele>52</ele>
        <time>2022-01-01T13:33:15Z</time>
      </trkpt>
      <trkpt lat="47.06057" lon="-1.63186">
        <ele>52</ele>
        <time>2022-01-01T13:33:18Z</time>
      </trkpt>
      <trkpt lat="47.06056" lon="-1.63202">
        <ele>51</ele>
        <time>2022-01-01T13:33:20Z</time>
      </trkpt>
      <trkpt lat="47.06053" lon="-1.6322">
        <ele>51</ele>
        <time>2022-01-01T13:33:22Z</time>
      </trkpt>
      <trkpt lat="47.06049" lon="-1.63238">
        <ele>51</ele>
        <time>2022-01-01T13:33:24Z</time>
      </trkpt>
      <trkpt lat="47.06046" lon="-1.63256">
        <ele>51</ele>
        <time>2022-01-01T13:33:26Z</time>
      </trkpt>
      <trkpt lat="47.06043" lon="-1.63274">
        <ele>51</ele>
        <time>2022-01-01T13:33:28Z</time>
      </trkpt>
      <trkpt lat="47.06041" lon="-1.63292">
        <ele>51</ele>
        <time>2022-01-01T13:33:30Z</time>
      </trkpt>
      <trkpt lat="47.06042" lon="-1.63309">
        <ele>51</ele>
        <time>2022-01-01T13:33:32Z</time>
      </trkpt>
      <trkpt lat="47.0605" lon="-1.63321">
        <ele>51</ele>
        <time>2022-01-01T13:33:34Z</time>
      </trkpt>
      <trkpt lat="47.06063" lon="-1.63327">
        <ele>51</ele>
        <time>2022-01-01T13:33:36Z</time>
      </trkpt>
      <trkpt lat="47.06075" lon="-1.63331">
        <ele>51</ele>
        <time>2022-01-01T13:33:38Z</time>
      </trkpt>
      <trkpt lat="47.06087" lon="-1.63336">
        <ele>52</ele>
        <time>2022-01-01T13:33:40Z</time>
      </trkpt>
      <trkpt lat="47.06099" lon="-1.6334">
        <ele>51</ele>
        <time>2022-01-01T13:33:42Z</time>
      </trkpt>
      <trkpt lat="47.06111" lon="-1.63345">
        <ele>51</ele>
        <time>2022-01-01T13:33:44Z</time>
      </trkpt>
      <trkpt lat="47.06124" lon="-1.6335">
        <ele>51</ele>
        <time>2022-01-01T13:33:46Z</time>
      </trkpt>
      <trkpt lat="47.06136" lon="-1.63354">
        <ele>52</ele>
        <time>2022-01-01T13:33:48Z</time>
      </trkpt>
      <trkpt lat="47.06149" lon="-1.63359">
        <ele>52</ele>
        <time>2022-01-01T13:33:50Z</time>
      </trkpt>
      <trkpt lat="47.06161" lon="-1.63365">
        <ele>52</ele>
        <time>2022-01-01T13:33:52Z</time>
      </trkpt>
      <trkpt lat="47.06174" lon="-1.63369">
        <ele>52</ele>
        <time>2022-01-01T13:33:54Z</time>
      </trkpt>
      <trkpt lat="47.06187" lon="-1.63374">
        <ele>52</ele>
        <time>2022-01-01T13:33:56Z</time>
      </trkpt>
      <trkpt lat="47.062" lon="-1.63379">
        <ele>52</ele>
        <time>2022-01-01T13:33:58Z</time>
      </trkpt>
      <trkpt lat="47.06212" lon="-1.63384">
        <ele>52</ele>
        <time>2022-01-01T13:34:00Z</time>
      </trkpt>
      <trkpt lat="47.06225" lon="-1.63389">
        <ele>52</ele>
        <time>2022-01-01T13:34:02Z</time>
      </trkpt>
      <trkpt lat="47.06238" lon="-1.63394">
        <ele>52</ele>
        <time>2022-01-01T13:34:04Z</time>
      </trkpt>
      <trkpt lat="47.0625" lon="-1.63399">
        <ele>52</ele>
        <time>2022-01-01T13:34:06Z</time>
      </trkpt>
      <trkpt lat="47.06263" lon="-1.63403">
        <ele>52</ele>
        <time>2022-01-01T13:34:08Z</time>
      </trkpt>
      <trkpt lat="47.06275" lon="-1.63408">
        <ele>52</ele>
        <time>2022-01-01T13:34:10Z</time>
      </trkpt>
      <trkpt lat="47.06288" lon="-1.63412">
        <ele>52</ele>
        <time>2022-01-01T13:34:12Z</time>
      </trkpt>
      <trkpt lat="47.06301" lon="-1.63418">
        <ele>52</ele>
        <time>2022-01-01T13:34:14Z</time>
      </trkpt>
      <trkpt lat="47.06314" lon="-1.63424">
        <ele>53</ele>
        <time>2022-01-01T13:34:16Z</time>
      </trkpt>
      <trkpt lat="47.06326" lon="-1.63432">
        <ele>53</ele>
        <time>2022-01-01T13:34:18Z</time>
      </trkpt>
      <trkpt lat="47.06337" lon="-1.63443">
        <ele>53</ele>
        <time>2022-01-01T13:34:20Z</time>
      </trkpt>
      <trkpt lat="47.06347" lon="-1.63455">
        <ele>53</ele>
        <time>2022-01-01T13:34:22Z</time>
      </trkpt>
      <trkpt lat="47.06357" lon="-1.63468">
        <ele>53</ele>
        <time>2022-01-01T13:34:24Z</time>
      </trkpt>
      <trkpt lat="47.06365" lon="-1.63482">
        <ele>52</ele>
        <time>2022-01-01T13:34:26Z</time>
      </trkpt>
      <trkpt lat="47.06372" lon="-1.63498">
        <ele>52</ele>
        <time>2022-01-01T13:34:28Z</time>
      </trkpt>
      <trkpt lat="47.0638" lon="-1.63514">
        <ele>51</ele>
        <time>2022-01-01T13:34:30Z</time>
      </trkpt>
      <trkpt lat="47.0639" lon="-1.63527">
        <ele>52</ele>
        <time>2022-01-01T13:34:32Z</time>
      </trkpt>
      <trkpt lat="47.06401" lon="-1.63537">
        <ele>51</ele>
        <time>2022-01-01T13:34:34Z</time>
      </trkpt>
      <trkpt lat="47.06412" lon="-1.63546">
        <ele>51</ele>
        <time>2022-01-01T13:34:36Z</time>
      </trkpt>
      <trkpt lat="47.06423" lon="-1.63555">
        <ele>51</ele>
        <time>2022-01-01T13:34:38Z</time>
      </trkpt>
      <trkpt lat="47.06434" lon="-1.63565">
        <ele>51</ele>
        <time>2022-01-01T13:34:40Z</time>
      </trkpt>
      <trkpt lat="47.06445" lon="-1.63574">
        <ele>51</ele>
        <time>2022-01-01T13:34:42Z</time>
      </trkpt>
      <trkpt lat="47.06456" lon="-1.63584">
        <ele>50</ele>
        <time>2022-01-01T13:34:44Z</time>
      </trkpt>
      <trkpt lat="47.06467" lon="-1.63594">
        <ele>50</ele>
        <time>2022-01-01T13:34:46Z</time>
      </trkpt>
      <trkpt lat="47.06478" lon="-1.63603">
        <ele>50</ele>
        <time>2022-01-01T13:34:48Z</time>
      </trkpt>
      <trkpt lat="47.0649" lon="-1.63612">
        <ele>50</ele>
        <time>2022-01-01T13:34:50Z</time>
      </trkpt>
      <trkpt lat="47.06501" lon="-1.63619">
        <ele>50</ele>
        <time>2022-01-01T13:34:52Z</time>
      </trkpt>
      <trkpt lat="47.06513" lon="-1.63628">
        <ele>50</ele>
        <time>2022-01-01T13:34:54Z</time>
      </trkpt>
      <trkpt lat="47.06524" lon="-1.63636">
        <ele>50</ele>
        <time>2022-01-01T13:34:56Z</time>
      </trkpt>
      <trkpt lat="47.06536" lon="-1.63645">
        <ele>50</ele>
        <time>2022-01-01T13:34:58Z</time>
      </trkpt>
      <trkpt lat="47.06548" lon="-1.63653">
        <ele>50</ele>
        <time>2022-01-01T13:35:00Z</time>
      </trkpt>
      <trkpt lat="47.06559" lon="-1.63661">
        <ele>50</ele>
        <time>2022-01-01T13:35:02Z</time>
      </trkpt>
      <trkpt lat="47.06571" lon="-1.63671">
        <ele>50</ele>
        <time>2022-01-01T13:35:04Z</time>
      </trkpt>
      <trkpt lat="47.06581" lon="-1.63682">
        <ele>50</ele>
        <time>2022-01-01T13:35:06Z</time>
      </trkpt>
      <trkpt lat="47.06592" lon="-1.63693">
        <ele>50</ele>
        <time>2022-01-01T13:35:08Z</time>
      </trkpt>
      <trkpt lat="47.06602" lon="-1.63705">
        <ele>51</ele>
        <time>2022-01-01T13:35:10Z</time>
      </trkpt>
      <trkpt lat="47.06613" lon="-1.63717">
        <ele>51</ele>
        <time>2022-01-01T13:35:12Z</time>
      </trkpt>
      <trkpt lat="47.06622" lon="-1.63729">
        <ele>51</ele>
        <time>2022-01-01T13:35:14Z</time>
      </trkpt>
      <trkpt lat="47.06632" lon="-1.63742">
        <ele>50</ele>
        <time>2022-01-01T13:35:16Z</time>
      </trkpt>
      <trkpt lat="47.06642" lon="-1.63754">
        <ele>50</ele>
        <time>2022-01-01T13:35:18Z</time>
      </trkpt>
      <trkpt lat="47.06652" lon="-1.63766">
        <ele>50</ele>
        <time>2022-01-01T13:35:20Z</time>
      </trkpt>
      <trkpt lat="47.06662" lon="-1.63779">
        <ele>50</ele>
        <time>2022-01-01T13:35:22Z</time>
      </trkpt>
      <trkpt lat="47.06671" lon="-1.63791">
        <ele>50</ele>
        <time>2022-01-01T13:35:24Z</time>
      </trkpt>
      <trkpt lat="47.06681" lon="-1.63804">
        <ele>50</ele>
        <time>2022-01-01T13:35:26Z</time>
      </trkpt>
      <trkpt lat="47.06691" lon="-1.63816">
        <ele>50</ele>
        <time>2022-01-01T13:35:28Z</time>
      </trkpt>
      <trkpt lat="47.067" lon="-1.63828">
        <ele>50</ele>
        <time>2022-01-01T13:35:30Z</time>
      </trkpt>
      <trkpt lat="47.06712" lon="-1.63836">
        <ele>49</ele>
        <time>2022-01-01T13:35:32Z</time>
      </trkpt>
      <trkpt lat="47.06725" lon="-1.63836">
        <ele>49</ele>
        <time>2022-01-01T13:35:34Z</time>
      </trkpt>
      <trkpt lat="47.06737" lon="-1.63825">
        <ele>49</ele>
        <time>2022-01-01T13:35:36Z</time>
      </trkpt>
      <trkpt lat="47.06747" lon="-1.63814">
        <ele>49</ele>
        <time>2022-01-01T13:35:38Z</time>
      </trkpt>
      <trkpt lat="47.06758" lon="-1.63804">
        <ele>49</ele>
        <time>2022-01-01T13:35:40Z</time>
      </trkpt>
      <trkpt lat="47.06769" lon="-1.63793">
        <ele>49</ele>
        <time>2022-01-01T13:35:42Z</time>
      </trkpt>
      <trkpt lat="47.0678" lon="-1.63782">
        <ele>49</ele>
        <time>2022-01-01T13:35:44Z</time>
      </trkpt>
      <trkpt lat="47.06791" lon="-1.63772">
        <ele>49</ele>
        <time>2022-01-01T13:35:46Z</time>
      </trkpt>
      <trkpt lat="47.06802" lon="-1.63762">
        <ele>49</ele>
        <time>2022-01-01T13:35:48Z</time>
      </trkpt>
      <trkpt lat="47.06812" lon="-1.63752">
        <ele>49</ele>
        <time>2022-01-01T13:35:50Z</time>
      </trkpt>
      <trkpt lat="47.06822" lon="-1.63741">
        <ele>50</ele>
        <time>2022-01-01T13:35:52Z</time>
      </trkpt>
      <trkpt lat="47.06832" lon="-1.63728">
        <ele>50</ele>
        <time>2022-01-01T13:35:54Z</time>
      </trkpt>
      <trkpt lat="47.0684" lon="-1.63713">
        <ele>49</ele>
        <time>2022-01-01T13:35:56Z</time>
      </trkpt>
      <trkpt lat="47.06845" lon="-1.63697">
        <ele>49</ele>
        <time>2022-01-01T13:35:58Z</time>
      </trkpt>
      <trkpt lat="47.06849" lon="-1.63679">
        <ele>49</ele>
        <time>2022-01-01T13:36:00Z</time>
      </trkpt>
      <trkpt lat="47.06852" lon="-1.63661">
        <ele>49</ele>
        <time>2022-01-01T13:36:02Z</time>
      </trkpt>
      <trkpt lat="47.06853" lon="-1.63643">
        <ele>49</ele>
        <time>2022-01-01T13:36:04Z</time>
      </trkpt>
      <trkpt lat="47.06855" lon="-1.63625">
        <ele>49</ele>
        <time>2022-01-01T13:36:06Z</time>
      </trkpt>
      <trkpt lat="47.06856" lon="-1.63606">
        <ele>49</ele>
        <time>2022-01-01T13:36:08Z</time>
      </trkpt>
      <trkpt lat="47.06857" lon="-1.63588">
        <ele>49</ele>
        <time>2022-01-01T13:36:10Z</time>
      </trkpt>
      <trkpt lat="47.06859" lon="-1.6357">
        <ele>49</ele>
        <time>2022-01-01T13:36:12Z</time>
      </trkpt>
      <trkpt lat="47.06861" lon="-1.63552">
        <ele>49</ele>
        <time>2022-01-01T13:36:14Z</time>
      </trkpt>
      <trkpt lat="47.06865" lon="-1.63535">
        <ele>49</ele>
        <time>2022-01-01T13:36:16Z</time>
      </trkpt>
      <trkpt lat="47.06869" lon="-1.63517">
        <ele>49</ele>
        <time>2022-01-01T13:36:18Z</time>
      </trkpt>
      <trkpt lat="47.06875" lon="-1.63501">
        <ele>49</ele>
        <time>2022-01-01T13:36:20Z</time>
      </trkpt>
      <trkpt lat="47.06882" lon="-1.63485">
        <ele>49</ele>
        <time>2022-01-01T13:36:22Z</time>
      </trkpt>
      <trkpt lat="47.06891" lon="-1.63473">
        <ele>49</ele>
        <time>2022-01-01T13:36:24Z</time>
      </trkpt>
      <trkpt lat="47.06901" lon="-1.63463">
        <ele>49</ele>
        <time>2022-01-01T13:36:26Z</time>
      </trkpt>
      <trkpt lat="47.06912" lon="-1.63455">
        <ele>49</ele>
        <time>2022-01-01T13:36:28Z</time>
      </trkpt>
      <trkpt lat="47.06923" lon="-1.63448">
        <ele>49</ele>
        <time>2022-01-01T13:36:30Z</time>
      </trkpt>
      <trkpt lat="47.06935" lon="-1.63441">
        <ele>49</ele>
        <time>2022-01-01T13:36:32Z</time>
      </trkpt>
      <trkpt lat="47.06947" lon="-1.63434">
        <ele>49</ele>
        <time>2022-01-01T13:36:34Z</time>
      </trkpt>
      <trkpt lat="47.06959" lon="-1.63424">
        <ele>49</ele>
        <time>2022-01-01T13:36:36Z</time>
      </trkpt>
      <trkpt lat="47.0697" lon="-1.63413">
        <ele>49</ele>
        <time>2022-01-01T13:36:38Z</time>
      </trkpt>
      <trkpt lat="47.06981" lon="-1.63402">
        <ele>49</ele>
        <time>2022-01-01T13:36:40Z</time>
      </trkpt>
      <trkpt lat="47.06991" lon="-1.63392">
        <ele>49</ele>
        <time>2022-01-01T13:36:42Z</time>
      </trkpt>
      <trkpt lat="47.07001" lon="-1.63382">
        <ele>49</ele>
        <time>2022-01-01T13:36:44Z</time>
      </trkpt>
      <trkpt lat="47.07012" lon="-1.63372">
        <ele>50</ele>
        <time>2022-01-01T13:36:46Z</time>
      </trkpt>
      <trkpt lat="47.07022" lon="-1.63361">
        <ele>50</ele>
        <time>2022-01-01T13:36:48Z</time>
      </trkpt>
      <trkpt lat="47.07033" lon="-1.63351">
        <ele>51</ele>
        <time>2022-01-01T13:36:50Z</time>
      </trkpt>
      <trkpt lat="47.07043" lon="-1.6334">
        <ele>51</ele>
        <time>2022-01-01T13:36:52Z</time>
      </trkpt>
      <trkpt lat="47.07053" lon="-1.63328">
        <ele>51</ele>
        <time>2022-01-01T13:36:54Z</time>
      </trkpt>
      <trkpt lat="47.07062" lon="-1.63314">
        <ele>50</ele>
        <time>2022-01-01T13:36:56Z</time>
      </trkpt>
      <trkpt lat="47.07069" lon="-1.63299">
        <ele>50</ele>
        <time>2022-01-01T13:36:58Z</time>
      </trkpt>
      <trkpt lat="47.07075" lon="-1.63281">
        <ele>50</ele>
        <time>2022-01-01T13:37:00Z</time>
      </trkpt>
      <trkpt lat="47.07081" lon="-1.63263">
        <ele>50</ele>
        <time>2022-01-01T13:37:02Z</time>
      </trkpt>
      <trkpt lat="47.07085" lon="-1.63245">
        <ele>50</ele>
        <time>2022-01-01T13:37:04Z</time>
      </trkpt>
      <trkpt lat="47.07088" lon="-1.63226">
        <ele>49</ele>
        <time>2022-01-01T13:37:06Z</time>
      </trkpt>
      <trkpt lat="47.07089" lon="-1.63208">
        <ele>49</ele>
        <time>2022-01-01T13:37:08Z</time>
      </trkpt>
      <trkpt lat="47.07091" lon="-1.6319">
        <ele>49</ele>
        <time>2022-01-01T13:37:10Z</time>
      </trkpt>
      <trkpt lat="47.07096" lon="-1.63175">
        <ele>49</ele>
        <time>2022-01-01T13:37:12Z</time>
      </trkpt>
      <trkpt lat="47.07104" lon="-1.63161">
        <ele>50</ele>
        <time>2022-01-01T13:37:14Z</time>
      </trkpt>
      <trkpt lat="47.07113" lon="-1.63151">
        <ele>50</ele>
        <time>2022-01-01T13:37:16Z</time>
      </trkpt>
      <trkpt lat="47.07123" lon="-1.63141">
        <ele>50</ele>
        <time>2022-01-01T13:37:18Z</time>
      </trkpt>
      <trkpt lat="47.07135" lon="-1.63132">
        <ele>50</ele>
        <time>2022-01-01T13:37:20Z</time>
      </trkpt>
      <trkpt lat="47.07147" lon="-1.63125">
        <ele>51</ele>
        <time>2022-01-01T13:37:22Z</time>
      </trkpt>
      <trkpt lat="47.07159" lon="-1.63123">
        <ele>53</ele>
        <time>2022-01-01T13:37:24Z</time>
      </trkpt>
      <trkpt lat="47.07172" lon="-1.63121">
        <ele>53</ele>
        <time>2022-01-01T13:37:26Z</time>
      </trkpt>
      <trkpt lat="47.07185" lon="-1.63121">
        <ele>54</ele>
        <time>2022-01-01T13:37:28Z</time>
      </trkpt>
      <trkpt lat="47.07197" lon="-1.63122">
        <ele>55</ele>
        <time>2022-01-01T13:37:30Z</time>
      </trkpt>
      <trkpt lat="47.0721" lon="-1.63127">
        <ele>56</ele>
        <time>2022-01-01T13:37:32Z</time>
      </trkpt>
      <trkpt lat="47.07221" lon="-1.63135">
        <ele>56</ele>
        <time>2022-01-01T13:37:34Z</time>
      </trkpt>
      <trkpt lat="47.07231" lon="-1.63145">
        <ele>55</ele>
        <time>2022-01-01T13:37:36Z</time>
      </trkpt>
      <trkpt lat="47.07242" lon="-1.63155">
        <ele>55</ele>
        <time>2022-01-01T13:37:38Z</time>
      </trkpt>
      <trkpt lat="47.07252" lon="-1.63163">
        <ele>54</ele>
        <time>2022-01-01T13:37:40Z</time>
      </trkpt>
      <trkpt lat="47.07262" lon="-1.63172">
        <ele>54</ele>
        <time>2022-01-01T13:37:42Z</time>
      </trkpt>
      <trkpt lat="47.07271" lon="-1.63183">
        <ele>54</ele>
        <time>2022-01-01T13:37:44Z</time>
      </trkpt>
      <trkpt lat="47.07279" lon="-1.63195">
        <ele>54</ele>
        <time>2022-01-01T13:37:46Z</time>
      </trkpt>
      <trkpt lat="47.07288" lon="-1.63208">
        <ele>54</ele>
        <time>2022-01-01T13:37:48Z</time>
      </trkpt>
      <trkpt lat="47.07297" lon="-1.63221">
        <ele>54</ele>
        <time>2022-01-01T13:37:50Z</time>
      </trkpt>
      <trkpt lat="47.07305" lon="-1.63234">
        <ele>54</ele>
        <time>2022-01-01T13:37:52Z</time>
      </trkpt>
      <trkpt lat="47.07314" lon="-1.63244">
        <ele>54</ele>
        <time>2022-01-01T13:37:54Z</time>
      </trkpt>
      <trkpt lat="47.07322" lon="-1.63256">
        <ele>54</ele>
        <time>2022-01-01T13:37:56Z</time>
      </trkpt>
      <trkpt lat="47.07331" lon="-1.63266">
        <ele>54</ele>
        <time>2022-01-01T13:37:58Z</time>
      </trkpt>
      <trkpt lat="47.07341" lon="-1.63277">
        <ele>53</ele>
        <time>2022-01-01T13:38:00Z</time>
      </trkpt>
      <trkpt lat="47.07351" lon="-1.63285">
        <ele>53</ele>
        <time>2022-01-01T13:38:02Z</time>
      </trkpt>
      <trkpt lat="47.07361" lon="-1.63294">
        <ele>52</ele>
        <time>2022-01-01T13:38:04Z</time>
      </trkpt>
      <trkpt lat="47.07372" lon="-1.63302">
        <ele>52</ele>
        <time>2022-01-01T13:38:06Z</time>
      </trkpt>
      <trkpt lat="47.07383" lon="-1.6331">
        <ele>52</ele>
        <time>2022-01-01T13:38:08Z</time>
      </trkpt>
      <trkpt lat="47.07394" lon="-1.63317">
        <ele>52</ele>
        <time>2022-01-01T13:38:10Z</time>
      </trkpt>
      <trkpt lat="47.07405" lon="-1.63325">
        <ele>52</ele>
        <time>2022-01-01T13:38:12Z</time>
      </trkpt>
      <trkpt lat="47.07416" lon="-1.63333">
        <ele>52</ele>
        <time>2022-01-01T13:38:14Z</time>
      </trkpt>
      <trkpt lat="47.07428" lon="-1.63341">
        <ele>52</ele>
        <time>2022-01-01T13:38:16Z</time>
      </trkpt>
      <trkpt lat="47.0744" lon="-1.63348">
        <ele>52</ele>
        <time>2022-01-01T13:38:18Z</time>
      </trkpt>
      <trkpt lat="47.07451" lon="-1.63356">
        <ele>52</ele>
        <time>2022-01-01T13:38:20Z</time>
      </trkpt>
      <trkpt lat="47.07463" lon="-1.63363">
        <ele>52</ele>
        <time>2022-01-01T13:38:22Z</time>
      </trkpt>
      <trkpt lat="47.07474" lon="-1.63371">
        <ele>52</ele>
        <time>2022-01-01T13:38:24Z</time>
      </trkpt>
      <trkpt lat="47.07486" lon="-1.63378">
        <ele>52</ele>
        <time>2022-01-01T13:38:26Z</time>
      </trkpt>
      <trkpt lat="47.07498" lon="-1.63385">
        <ele>52</ele>
        <time>2022-01-01T13:38:28Z</time>
      </trkpt>
      <trkpt lat="47.0751" lon="-1.63392">
        <ele>52</ele>
        <time>2022-01-01T13:38:30Z</time>
      </trkpt>
      <trkpt lat="47.07521" lon="-1.63399">
        <ele>52</ele>
        <time>2022-01-01T13:38:32Z</time>
      </trkpt>
      <trkpt lat="47.07533" lon="-1.63407">
        <ele>52</ele>
        <time>2022-01-01T13:38:34Z</time>
      </trkpt>
      <trkpt lat="47.07545" lon="-1.63413">
        <ele>52</ele>
        <time>2022-01-01T13:38:36Z</time>
      </trkpt>
      <trkpt lat="47.07557" lon="-1.63419">
        <ele>52</ele>
        <time>2022-01-01T13:38:38Z</time>
      </trkpt>
      <trkpt lat="47.07569" lon="-1.63426">
        <ele>52</ele>
        <time>2022-01-01T13:38:40Z</time>
      </trkpt>
      <trkpt lat="47.07581" lon="-1.63431">
        <ele>51</ele>
        <time>2022-01-01T13:38:42Z</time>
      </trkpt>
      <trkpt lat="47.07594" lon="-1.63433">
        <ele>51</ele>
        <time>2022-01-01T13:38:44Z</time>
      </trkpt>
      <trkpt lat="47.07606" lon="-1.63433">
        <ele>51</ele>
        <time>2022-01-01T13:38:46Z</time>
      </trkpt>
      <trkpt lat="47.07619" lon="-1.6343">
        <ele>51</ele>
        <time>2022-01-01T13:38:48Z</time>
      </trkpt>
      <trkpt lat="47.07631" lon="-1.63426">
        <ele>51</ele>
        <time>2022-01-01T13:38:50Z</time>
      </trkpt>
      <trkpt lat="47.07644" lon="-1.63422">
        <ele>51</ele>
        <time>2022-01-01T13:38:52Z</time>
      </trkpt>
      <trkpt lat="47.07657" lon="-1.63418">
        <ele>51</ele>
        <time>2022-01-01T13:38:54Z</time>
      </trkpt>
      <trkpt lat="47.0767" lon="-1.63414">
        <ele>51</ele>
        <time>2022-01-01T13:38:56Z</time>
      </trkpt>
      <trkpt lat="47.07681" lon="-1.63411">
        <ele>52</ele>
        <time>2022-01-01T13:38:58Z</time>
      </trkpt>
      <trkpt lat="47.07693" lon="-1.63408">
        <ele>53</ele>
        <time>2022-01-01T13:39:00Z</time>
      </trkpt>
      <trkpt lat="47.07703" lon="-1.634">
        <ele>52</ele>
        <time>2022-01-01T13:39:02Z</time>
      </trkpt>
      <trkpt lat="47.07714" lon="-1.63389">
        <ele>53</ele>
        <time>2022-01-01T13:39:04Z</time>
      </trkpt>
      <trkpt lat="47.07724" lon="-1.63377">
        <ele>53</ele>
        <time>2022-01-01T13:39:06Z</time>
      </trkpt>
      <trkpt lat="47.07734" lon="-1.63366">
        <ele>53</ele>
        <time>2022-01-01T13:39:08Z</time>
      </trkpt>
      <trkpt lat="47.07743" lon="-1.63354">
        <ele>53</ele>
        <time>2022-01-01T13:39:10Z</time>
      </trkpt>
      <trkpt lat="47.07753" lon="-1.63341">
        <ele>53</ele>
        <time>2022-01-01T13:39:12Z</time>
      </trkpt>
      <trkpt lat="47.07763" lon="-1.6333">
        <ele>53</ele>
        <time>2022-01-01T13:39:14Z</time>
      </trkpt>
      <trkpt lat="47.07772" lon="-1.63319">
        <ele>53</ele>
        <time>2022-01-01T13:39:16Z</time>
      </trkpt>
      <trkpt lat="47.07781" lon="-1.63307">
        <ele>54</ele>
        <time>2022-01-01T13:39:18Z</time>
      </trkpt>
      <trkpt lat="47.0779" lon="-1.63296">
        <ele>54</ele>
        <time>2022-01-01T13:39:20Z</time>
      </trkpt>
      <trkpt lat="47.078" lon="-1.63285">
        <ele>54</ele>
        <time>2022-01-01T13:39:22Z</time>
      </trkpt>
      <trkpt lat="47.07809" lon="-1.63273">
        <ele>54</ele>
        <time>2022-01-01T13:39:24Z</time>
      </trkpt>
      <trkpt lat="47.07818" lon="-1.63261">
        <ele>54</ele>
        <time>2022-01-01T13:39:26Z</time>
      </trkpt>
      <trkpt lat="47.07824" lon="-1.63246">
        <ele>54</ele>
        <time>2022-01-01T13:39:28Z</time>
      </trkpt>
      <trkpt lat="47.07826" lon="-1.63228">
        <ele>55</ele>
        <time>2022-01-01T13:39:30Z</time>
      </trkpt>
      <trkpt lat="47.07824" lon="-1.63211">
        <ele>54</ele>
        <time>2022-01-01T13:39:32Z</time>
      </trkpt>
      <trkpt lat="47.07819" lon="-1.63196">
        <ele>54</ele>
        <time>2022-01-01T13:39:34Z</time>
      </trkpt>
      <trkpt lat="47.07813" lon="-1.63182">
        <ele>53</ele>
        <time>2022-01-01T13:39:36Z</time>
      </trkpt>
      <trkpt lat="47.07807" lon="-1.63167">
        <ele>53</ele>
        <time>2022-01-01T13:39:38Z</time>
      </trkpt>
      <trkpt lat="47.07801" lon="-1.63154">
        <ele>53</ele>
        <time>2022-01-01T13:39:40Z</time>
      </trkpt>
      <trkpt lat="47.07796" lon="-1.63142">
        <ele>53</ele>
        <time>2022-01-01T13:39:42Z</time>
      </trkpt>
      <trkpt lat="47.07802" lon="-1.63126">
        <ele>53</ele>
        <time>2022-01-01T13:39:45Z</time>
      </trkpt>
      <trkpt lat="47.07814" lon="-1.63126">
        <ele>53</ele>
        <time>2022-01-01T13:39:47Z</time>
      </trkpt>
      <trkpt lat="47.07826" lon="-1.63126">
        <ele>53</ele>
        <time>2022-01-01T13:39:49Z</time>
      </trkpt>
      <trkpt lat="47.07839" lon="-1.63124">
        <ele>52</ele>
        <time>2022-01-01T13:39:51Z</time>
      </trkpt>
      <trkpt lat="47.07853" lon="-1.63123">
        <ele>52</ele>
        <time>2022-01-01T13:39:53Z</time>
      </trkpt>
      <trkpt lat="47.07865" lon="-1.63122">
        <ele>52</ele>
        <time>2022-01-01T13:39:55Z</time>
      </trkpt>
      <trkpt lat="47.07878" lon="-1.6312">
        <ele>53</ele>
        <time>2022-01-01T13:39:57Z</time>
      </trkpt>
      <trkpt lat="47.07891" lon="-1.63119">
        <ele>53</ele>
        <time>2022-01-01T13:39:59Z</time>
      </trkpt>
      <trkpt lat="47.07903" lon="-1.63118">
        <ele>53</ele>
        <time>2022-01-01T13:40:01Z</time>
      </trkpt>
      <trkpt lat="47.07916" lon="-1.63117">
        <ele>53</ele>
        <time>2022-01-01T13:40:03Z</time>
      </trkpt>
      <trkpt lat="47.07928" lon="-1.63116">
        <ele>53</ele>
        <time>2022-01-01T13:40:05Z</time>
      </trkpt>
      <trkpt lat="47.07941" lon="-1.63115">
        <ele>53</ele>
        <time>2022-01-01T13:40:07Z</time>
      </trkpt>
      <trkpt lat="47.07954" lon="-1.63113">
        <ele>53</ele>
        <time>2022-01-01T13:40:09Z</time>
      </trkpt>
      <trkpt lat="47.07966" lon="-1.63112">
        <ele>53</ele>
        <time>2022-01-01T13:40:11Z</time>
      </trkpt>
      <trkpt lat="47.07979" lon="-1.63111">
        <ele>54</ele>
        <time>2022-01-01T13:40:13Z</time>
      </trkpt>
      <trkpt lat="47.07992" lon="-1.63109">
        <ele>54</ele>
        <time>2022-01-01T13:40:15Z</time>
      </trkpt>
      <trkpt lat="47.08005" lon="-1.63107">
        <ele>55</ele>
        <time>2022-01-01T13:40:17Z</time>
      </trkpt>
      <trkpt lat="47.08018" lon="-1.63106">
        <ele>55</ele>
        <time>2022-01-01T13:40:19Z</time>
      </trkpt>
      <trkpt lat="47.08032" lon="-1.63106">
        <ele>54</ele>
        <time>2022-01-01T13:40:21Z</time>
      </trkpt>
      <trkpt lat="47.08051" lon="-1.63104">
        <ele>53</ele>
        <time>2022-01-01T13:40:24Z</time>
      </trkpt>
      <trkpt lat="47.08064" lon="-1.63103">
        <ele>53</ele>
        <time>2022-01-01T13:40:26Z</time>
      </trkpt>
      <trkpt lat="47.08077" lon="-1.63102">
        <ele>53</ele>
        <time>2022-01-01T13:40:28Z</time>
      </trkpt>
      <trkpt lat="47.0809" lon="-1.63101">
        <ele>53</ele>
        <time>2022-01-01T13:40:30Z</time>
      </trkpt>
      <trkpt lat="47.08103" lon="-1.631">
        <ele>52</ele>
        <time>2022-01-01T13:40:32Z</time>
      </trkpt>
      <trkpt lat="47.08116" lon="-1.63098">
        <ele>52</ele>
        <time>2022-01-01T13:40:34Z</time>
      </trkpt>
      <trkpt lat="47.08129" lon="-1.63097">
        <ele>52</ele>
        <time>2022-01-01T13:40:36Z</time>
      </trkpt>
      <trkpt lat="47.0815" lon="-1.63095">
        <ele>52</ele>
        <time>2022-01-01T13:40:39Z</time>
      </trkpt>
      <trkpt lat="47.08163" lon="-1.63094">
        <ele>51</ele>
        <time>2022-01-01T13:40:41Z</time>
      </trkpt>
      <trkpt lat="47.08176" lon="-1.63092">
        <ele>52</ele>
        <time>2022-01-01T13:40:43Z</time>
      </trkpt>
      <trkpt lat="47.08189" lon="-1.6309">
        <ele>52</ele>
        <time>2022-01-01T13:40:45Z</time>
      </trkpt>
      <trkpt lat="47.08203" lon="-1.63089">
        <ele>53</ele>
        <time>2022-01-01T13:40:47Z</time>
      </trkpt>
      <trkpt lat="47.08216" lon="-1.63088">
        <ele>53</ele>
        <time>2022-01-01T13:40:49Z</time>
      </trkpt>
      <trkpt lat="47.08236" lon="-1.63086">
        <ele>53</ele>
        <time>2022-01-01T13:40:52Z</time>
      </trkpt>
      <trkpt lat="47.08248" lon="-1.63085">
        <ele>53</ele>
        <time>2022-01-01T13:40:54Z</time>
      </trkpt>
      <trkpt lat="47.08261" lon="-1.63083">
        <ele>53</ele>
        <time>2022-01-01T13:40:56Z</time>
      </trkpt>
      <trkpt lat="47.08274" lon="-1.63082">
        <ele>54</ele>
        <time>2022-01-01T13:40:58Z</time>
      </trkpt>
      <trkpt lat="47.08287" lon="-1.63081">
        <ele>55</ele>
        <time>2022-01-01T13:41:00Z</time>
      </trkpt>
      <trkpt lat="47.08299" lon="-1.6308">
        <ele>55</ele>
        <time>2022-01-01T13:41:02Z</time>
      </trkpt>
      <trkpt lat="47.08312" lon="-1.63079">
        <ele>55</ele>
        <time>2022-01-01T13:41:04Z</time>
      </trkpt>
      <trkpt lat="47.08325" lon="-1.63078">
        <ele>55</ele>
        <time>2022-01-01T13:41:06Z</time>
      </trkpt>
      <trkpt lat="47.08338" lon="-1.63077">
        <ele>54</ele>
        <time>2022-01-01T13:41:08Z</time>
      </trkpt>
      <trkpt lat="47.08351" lon="-1.63076">
        <ele>54</ele>
        <time>2022-01-01T13:41:10Z</time>
      </trkpt>
      <trkpt lat="47.08364" lon="-1.63075">
        <ele>54</ele>
        <time>2022-01-01T13:41:12Z</time>
      </trkpt>
      <trkpt lat="47.08376" lon="-1.63073">
        <ele>54</ele>
        <time>2022-01-01T13:41:14Z</time>
      </trkpt>
      <trkpt lat="47.08388" lon="-1.6307">
        <ele>55</ele>
        <time>2022-01-01T13:41:16Z</time>
      </trkpt>
      <trkpt lat="47.08399" lon="-1.63064">
        <ele>55</ele>
        <time>2022-01-01T13:41:18Z</time>
      </trkpt>
      <trkpt lat="47.0841" lon="-1.63056">
        <ele>56</ele>
        <time>2022-01-01T13:41:20Z</time>
      </trkpt>
      <trkpt lat="47.08421" lon="-1.63043">
        <ele>56</ele>
        <time>2022-01-01T13:41:22Z</time>
      </trkpt>
      <trkpt lat="47.08431" lon="-1.63028">
        <ele>55</ele>
        <time>2022-01-01T13:41:24Z</time>
      </trkpt>
      <trkpt lat="47.08441" lon="-1.63013">
        <ele>54</ele>
        <time>2022-01-01T13:41:26Z</time>
      </trkpt>
      <trkpt lat="47.0845" lon="-1.62998">
        <ele>54</ele>
        <time>2022-01-01T13:41:28Z</time>
      </trkpt>
      <trkpt lat="47.08459" lon="-1.62983">
        <ele>54</ele>
        <time>2022-01-01T13:41:30Z</time>
      </trkpt>
      <trkpt lat="47.08468" lon="-1.62969">
        <ele>54</ele>
        <time>2022-01-01T13:41:32Z</time>
      </trkpt>
      <trkpt lat="47.08477" lon="-1.62955">
        <ele>54</ele>
        <time>2022-01-01T13:41:34Z</time>
      </trkpt>
      <trkpt lat="47.08485" lon="-1.6294">
        <ele>54</ele>
        <time>2022-01-01T13:41:36Z</time>
      </trkpt>
      <trkpt lat="47.08494" lon="-1.62926">
        <ele>55</ele>
        <time>2022-01-01T13:41:38Z</time>
      </trkpt>
      <trkpt lat="47.08503" lon="-1.62913">
        <ele>55</ele>
        <time>2022-01-01T13:41:40Z</time>
      </trkpt>
      <trkpt lat="47.08511" lon="-1.62899">
        <ele>55</ele>
        <time>2022-01-01T13:41:42Z</time>
      </trkpt>
      <trkpt lat="47.0852" lon="-1.62885">
        <ele>55</ele>
        <time>2022-01-01T13:41:44Z</time>
      </trkpt>
      <trkpt lat="47.08528" lon="-1.62872">
        <ele>55</ele>
        <time>2022-01-01T13:41:46Z</time>
      </trkpt>
      <trkpt lat="47.08537" lon="-1.62858">
        <ele>56</ele>
        <time>2022-01-01T13:41:48Z</time>
      </trkpt>
      <trkpt lat="47.08546" lon="-1.62845">
        <ele>56</ele>
        <time>2022-01-01T13:41:50Z</time>
      </trkpt>
      <trkpt lat="47.08555" lon="-1.62834">
        <ele>56</ele>
        <time>2022-01-01T13:41:52Z</time>
      </trkpt>
      <trkpt lat="47.08565" lon="-1.62825">
        <ele>56</ele>
        <time>2022-01-01T13:41:54Z</time>
      </trkpt>
      <trkpt lat="47.08574" lon="-1.62816">
        <ele>56</ele>
        <time>2022-01-01T13:41:56Z</time>
      </trkpt>
      <trkpt lat="47.0858" lon="-1.62798">
        <ele>56</ele>
        <time>2022-01-01T13:41:59Z</time>
      </trkpt>
      <trkpt lat="47.08579" lon="-1.62779">
        <ele>56</ele>
        <time>2022-01-01T13:42:01Z</time>
      </trkpt>
      <trkpt lat="47.08579" lon="-1.62759">
        <ele>56</ele>
        <time>2022-01-01T13:42:03Z</time>
      </trkpt>
      <trkpt lat="47.08579" lon="-1.62739">
        <ele>56</ele>
        <time>2022-01-01T13:42:05Z</time>
      </trkpt>
      <trkpt lat="47.0858" lon="-1.62721">
        <ele>57</ele>
        <time>2022-01-01T13:42:07Z</time>
      </trkpt>
      <trkpt lat="47.0858" lon="-1.62703">
        <ele>57</ele>
        <time>2022-01-01T13:42:09Z</time>
      </trkpt>
      <trkpt lat="47.0858" lon="-1.62685">
        <ele>57</ele>
        <time>2022-01-01T13:42:11Z</time>
      </trkpt>
      <trkpt lat="47.08581" lon="-1.62668">
        <ele>56</ele>
        <time>2022-01-01T13:42:13Z</time>
      </trkpt>
      <trkpt lat="47.08581" lon="-1.6265">
        <ele>56</ele>
        <time>2022-01-01T13:42:15Z</time>
      </trkpt>
      <trkpt lat="47.08582" lon="-1.62633">
        <ele>55</ele>
        <time>2022-01-01T13:42:17Z</time>
      </trkpt>
      <trkpt lat="47.08582" lon="-1.62614">
        <ele>55</ele>
        <time>2022-01-01T13:42:19Z</time>
      </trkpt>
      <trkpt lat="47.08584" lon="-1.62597">
        <ele>54</ele>
        <time>2022-01-01T13:42:21Z</time>
      </trkpt>
      <trkpt lat="47.08584" lon="-1.62579">
        <ele>54</ele>
        <time>2022-01-01T13:42:23Z</time>
      </trkpt>
      <trkpt lat="47.08585" lon="-1.62561">
        <ele>54</ele>
        <time>2022-01-01T13:42:25Z</time>
      </trkpt>
      <trkpt lat="47.08586" lon="-1.62543">
        <ele>54</ele>
        <time>2022-01-01T13:42:27Z</time>
      </trkpt>
      <trkpt lat="47.08587" lon="-1.62525">
        <ele>54</ele>
        <time>2022-01-01T13:42:29Z</time>
      </trkpt>
      <trkpt lat="47.08588" lon="-1.62507">
        <ele>54</ele>
        <time>2022-01-01T13:42:31Z</time>
      </trkpt>
      <trkpt lat="47.08589" lon="-1.62489">
        <ele>54</ele>
        <time>2022-01-01T13:42:33Z</time>
      </trkpt>
      <trkpt lat="47.0859" lon="-1.62471">
        <ele>53</ele>
        <time>2022-01-01T13:42:35Z</time>
      </trkpt>
      <trkpt lat="47.08591" lon="-1.62453">
        <ele>53</ele>
        <time>2022-01-01T13:42:37Z</time>
      </trkpt>
      <trkpt lat="47.08592" lon="-1.62436">
        <ele>53</ele>
        <time>2022-01-01T13:42:39Z</time>
      </trkpt>
      <trkpt lat="47.08593" lon="-1.62418">
        <ele>53</ele>
        <time>2022-01-01T13:42:41Z</time>
      </trkpt>
      <trkpt lat="47.08593" lon="-1.62401">
        <ele>53</ele>
        <time>2022-01-01T13:42:43Z</time>
      </trkpt>
      <trkpt lat="47.08594" lon="-1.62384">
        <ele>53</ele>
        <time>2022-01-01T13:42:45Z</time>
      </trkpt>
      <trkpt lat="47.08595" lon="-1.62369">
        <ele>53</ele>
        <time>2022-01-01T13:42:47Z</time>
      </trkpt>
      <trkpt lat="47.08601" lon="-1.62355">
        <ele>53</ele>
        <time>2022-01-01T13:42:49Z</time>
      </trkpt>
      <trkpt lat="47.08612" lon="-1.62347">
        <ele>52</ele>
        <time>2022-01-01T13:42:51Z</time>
      </trkpt>
      <trkpt lat="47.08625" lon="-1.62342">
        <ele>52</ele>
        <time>2022-01-01T13:42:53Z</time>
      </trkpt>
      <trkpt lat="47.08638" lon="-1.62336">
        <ele>52</ele>
        <time>2022-01-01T13:42:55Z</time>
      </trkpt>
      <trkpt lat="47.08651" lon="-1.62331">
        <ele>52</ele>
        <time>2022-01-01T13:42:57Z</time>
      </trkpt>
      <trkpt lat="47.08663" lon="-1.62326">
        <ele>52</ele>
        <time>2022-01-01T13:42:59Z</time>
      </trkpt>
      <trkpt lat="47.08675" lon="-1.62322">
        <ele>52</ele>
        <time>2022-01-01T13:43:01Z</time>
      </trkpt>
      <trkpt lat="47.08687" lon="-1.62318">
        <ele>53</ele>
        <time>2022-01-01T13:43:03Z</time>
      </trkpt>
      <trkpt lat="47.08699" lon="-1.62313">
        <ele>53</ele>
        <time>2022-01-01T13:43:05Z</time>
      </trkpt>
      <trkpt lat="47.0871" lon="-1.62307">
        <ele>52</ele>
        <time>2022-01-01T13:43:07Z</time>
      </trkpt>
      <trkpt lat="47.08722" lon="-1.62302">
        <ele>52</ele>
        <time>2022-01-01T13:43:09Z</time>
      </trkpt>
      <trkpt lat="47.08733" lon="-1.62297">
        <ele>52</ele>
        <time>2022-01-01T13:43:11Z</time>
      </trkpt>
      <trkpt lat="47.08745" lon="-1.62292">
        <ele>52</ele>
        <time>2022-01-01T13:43:13Z</time>
      </trkpt>
      <trkpt lat="47.08757" lon="-1.62287">
        <ele>52</ele>
        <time>2022-01-01T13:43:15Z</time>
      </trkpt>
      <trkpt lat="47.08769" lon="-1.62281">
        <ele>52</ele>
        <time>2022-01-01T13:43:17Z</time>
      </trkpt>
      <trkpt lat="47.0878" lon="-1.62277">
        <ele>53</ele>
        <time>2022-01-01T13:43:19Z</time>
      </trkpt>
      <trkpt lat="47.08791" lon="-1.62274">
        <ele>53</ele>
        <time>2022-01-01T13:43:21Z</time>
      </trkpt>
      <trkpt lat="47.08802" lon="-1.62269">
        <ele>53</ele>
        <time>2022-01-01T13:43:23Z</time>
      </trkpt>
      <trkpt lat="47.08813" lon="-1.62263">
        <ele>53</ele>
        <time>2022-01-01T13:43:25Z</time>
      </trkpt>
      <trkpt lat="47.08825" lon="-1.62258">
        <ele>53</ele>
        <time>2022-01-01T13:43:27Z</time>
      </trkpt>
      <trkpt lat="47.08836" lon="-1.62254">
        <ele>53</ele>
        <time>2022-01-01T13:43:29Z</time>
      </trkpt>
      <trkpt lat="47.08847" lon="-1.62249">
        <ele>53</ele>
        <time>2022-01-01T13:43:31Z</time>
      </trkpt>
      <trkpt lat="47.08858" lon="-1.62245">
        <ele>53</ele>
        <time>2022-01-01T13:43:33Z</time>
      </trkpt>
      <trkpt lat="47.08869" lon="-1.6224">
        <ele>53</ele>
        <time>2022-01-01T13:43:35Z</time>
      </trkpt>
      <trkpt lat="47.08881" lon="-1.62235">
        <ele>53</ele>
        <time>2022-01-01T13:43:37Z</time>
      </trkpt>
      <trkpt lat="47.08893" lon="-1.6223">
        <ele>53</ele>
        <time>2022-01-01T13:43:39Z</time>
      </trkpt>
      <trkpt lat="47.08904" lon="-1.62225">
        <ele>53</ele>
        <time>2022-01-01T13:43:41Z</time>
      </trkpt>
      <trkpt lat="47.08916" lon="-1.62221">
        <ele>53</ele>
        <time>2022-01-01T13:43:43Z</time>
      </trkpt>
      <trkpt lat="47.08928" lon="-1.62216">
        <ele>53</ele>
        <time>2022-01-01T13:43:45Z</time>
      </trkpt>
      <trkpt lat="47.0894" lon="-1.62211">
        <ele>54</ele>
        <time>2022-01-01T13:43:47Z</time>
      </trkpt>
      <trkpt lat="47.08951" lon="-1.62206">
        <ele>54</ele>
        <time>2022-01-01T13:43:49Z</time>
      </trkpt>
      <trkpt lat="47.08963" lon="-1.62201">
        <ele>54</ele>
        <time>2022-01-01T13:43:51Z</time>
      </trkpt>
      <trkpt lat="47.08975" lon="-1.62196">
        <ele>54</ele>
        <time>2022-01-01T13:43:53Z</time>
      </trkpt>
      <trkpt lat="47.08986" lon="-1.62191">
        <ele>55</ele>
        <time>2022-01-01T13:43:55Z</time>
      </trkpt>
      <trkpt lat="47.08997" lon="-1.62186">
        <ele>55</ele>
        <time>2022-01-01T13:43:57Z</time>
      </trkpt>
      <trkpt lat="47.09009" lon="-1.62181">
        <ele>55</ele>
        <time>2022-01-01T13:43:59Z</time>
      </trkpt>
      <trkpt lat="47.0902" lon="-1.62177">
        <ele>55</ele>
        <time>2022-01-01T13:44:01Z</time>
      </trkpt>
      <trkpt lat="47.09031" lon="-1.62172">
        <ele>55</ele>
        <time>2022-01-01T13:44:03Z</time>
      </trkpt>
      <trkpt lat="47.09043" lon="-1.62167">
        <ele>55</ele>
        <time>2022-01-01T13:44:05Z</time>
      </trkpt>
      <trkpt lat="47.09054" lon="-1.62162">
        <ele>55</ele>
        <time>2022-01-01T13:44:07Z</time>
      </trkpt>
      <trkpt lat="47.09066" lon="-1.62158">
        <ele>55</ele>
        <time>2022-01-01T13:44:09Z</time>
      </trkpt>
      <trkpt lat="47.09078" lon="-1.62153">
        <ele>55</ele>
        <time>2022-01-01T13:44:11Z</time>
      </trkpt>
      <trkpt lat="47.09089" lon="-1.62148">
        <ele>55</ele>
        <time>2022-01-01T13:44:13Z</time>
      </trkpt>
      <trkpt lat="47.091" lon="-1.62143">
        <ele>55</ele>
        <time>2022-01-01T13:44:15Z</time>
      </trkpt>
      <trkpt lat="47.09112" lon="-1.62138">
        <ele>54</ele>
        <time>2022-01-01T13:44:17Z</time>
      </trkpt>
      <trkpt lat="47.09123" lon="-1.62133">
        <ele>55</ele>
        <time>2022-01-01T13:44:19Z</time>
      </trkpt>
      <trkpt lat="47.09134" lon="-1.62129">
        <ele>55</ele>
        <time>2022-01-01T13:44:21Z</time>
      </trkpt>
      <trkpt lat="47.09146" lon="-1.62124">
        <ele>55</ele>
        <time>2022-01-01T13:44:23Z</time>
      </trkpt>
      <trkpt lat="47.09157" lon="-1.6212">
        <ele>55</ele>
        <time>2022-01-01T13:44:25Z</time>
      </trkpt>
      <trkpt lat="47.09168" lon="-1.62115">
        <ele>55</ele>
        <time>2022-01-01T13:44:27Z</time>
      </trkpt>
      <trkpt lat="47.09178" lon="-1.62109">
        <ele>55</ele>
        <time>2022-01-01T13:44:29Z</time>
      </trkpt>
      <trkpt lat="47.09183" lon="-1.62095">
        <ele>55</ele>
        <time>2022-01-01T13:44:31Z</time>
      </trkpt>
      <trkpt lat="47.09179" lon="-1.62079">
        <ele>55</ele>
        <time>2022-01-01T13:44:33Z</time>
      </trkpt>
      <trkpt lat="47.09171" lon="-1.62065">
        <ele>55</ele>
        <time>2022-01-01T13:44:35Z</time>
      </trkpt>
      <trkpt lat="47.09165" lon="-1.6205">
        <ele>55</ele>
        <time>2022-01-01T13:44:37Z</time>
      </trkpt>
      <trkpt lat="47.0916" lon="-1.62034">
        <ele>55</ele>
        <time>2022-01-01T13:44:39Z</time>
      </trkpt>
      <trkpt lat="47.09155" lon="-1.62018">
        <ele>54</ele>
        <time>2022-01-01T13:44:41Z</time>
      </trkpt>
      <trkpt lat="47.09149" lon="-1.62002">
        <ele>54</ele>
        <time>2022-01-01T13:44:43Z</time>
      </trkpt>
      <trkpt lat="47.09144" lon="-1.61987">
        <ele>54</ele>
        <time>2022-01-01T13:44:45Z</time>
      </trkpt>
      <trkpt lat="47.09138" lon="-1.61972">
        <ele>54</ele>
        <time>2022-01-01T13:44:47Z</time>
      </trkpt>
      <trkpt lat="47.09133" lon="-1.61957">
        <ele>54</ele>
        <time>2022-01-01T13:44:49Z</time>
      </trkpt>
      <trkpt lat="47.09128" lon="-1.61943">
        <ele>54</ele>
        <time>2022-01-01T13:44:51Z</time>
      </trkpt>
      <trkpt lat="47.09123" lon="-1.61928">
        <ele>54</ele>
        <time>2022-01-01T13:44:53Z</time>
      </trkpt>
      <trkpt lat="47.09117" lon="-1.61913">
        <ele>54</ele>
        <time>2022-01-01T13:44:55Z</time>
      </trkpt>
      <trkpt lat="47.09111" lon="-1.61897">
        <ele>54</ele>
        <time>2022-01-01T13:44:57Z</time>
      </trkpt>
      <trkpt lat="47.09106" lon="-1.61882">
        <ele>54</ele>
        <time>2022-01-01T13:44:59Z</time>
      </trkpt>
      <trkpt lat="47.09101" lon="-1.61867">
        <ele>54</ele>
        <time>2022-01-01T13:45:01Z</time>
      </trkpt>
      <trkpt lat="47.09095" lon="-1.61852">
        <ele>54</ele>
        <time>2022-01-01T13:45:03Z</time>
      </trkpt>
      <trkpt lat="47.0909" lon="-1.61838">
        <ele>54</ele>
        <time>2022-01-01T13:45:05Z</time>
      </trkpt>
      <trkpt lat="47.09085" lon="-1.61823">
        <ele>54</ele>
        <time>2022-01-01T13:45:07Z</time>
      </trkpt>
      <trkpt lat="47.09079" lon="-1.61808">
        <ele>54</ele>
        <time>2022-01-01T13:45:09Z</time>
      </trkpt>
      <trkpt lat="47.09074" lon="-1.61794">
        <ele>55</ele>
        <time>2022-01-01T13:45:11Z</time>
      </trkpt>
      <trkpt lat="47.09069" lon="-1.6178">
        <ele>54</ele>
        <time>2022-01-01T13:45:13Z</time>
      </trkpt>
      <trkpt lat="47.09063" lon="-1.61765">
        <ele>55</ele>
        <time>2022-01-01T13:45:15Z</time>
      </trkpt>
      <trkpt lat="47.09058" lon="-1.61751">
        <ele>55</ele>
        <time>2022-01-01T13:45:17Z</time>
      </trkpt>
      <trkpt lat="47.09053" lon="-1.61736">
        <ele>55</ele>
        <time>2022-01-01T13:45:19Z</time>
      </trkpt>
      <trkpt lat="47.09048" lon="-1.61721">
        <ele>55</ele>
        <time>2022-01-01T13:45:21Z</time>
      </trkpt>
      <trkpt lat="47.09042" lon="-1.61707">
        <ele>55</ele>
        <time>2022-01-01T13:45:23Z</time>
      </trkpt>
      <trkpt lat="47.09037" lon="-1.61693">
        <ele>55</ele>
        <time>2022-01-01T13:45:25Z</time>
      </trkpt>
      <trkpt lat="47.09032" lon="-1.61678">
        <ele>55</ele>
        <time>2022-01-01T13:45:27Z</time>
      </trkpt>
      <trkpt lat="47.09027" lon="-1.61664">
        <ele>54</ele>
        <time>2022-01-01T13:45:29Z</time>
      </trkpt>
      <trkpt lat="47.09022" lon="-1.61649">
        <ele>55</ele>
        <time>2022-01-01T13:45:31Z</time>
      </trkpt>
      <trkpt lat="47.09018" lon="-1.61634">
        <ele>55</ele>
        <time>2022-01-01T13:45:33Z</time>
      </trkpt>
      <trkpt lat="47.09012" lon="-1.6162">
        <ele>55</ele>
        <time>2022-01-01T13:45:35Z</time>
      </trkpt>
      <trkpt lat="47.09006" lon="-1.61606">
        <ele>55</ele>
        <time>2022-01-01T13:45:37Z</time>
      </trkpt>
      <trkpt lat="47.09001" lon="-1.61592">
        <ele>55</ele>
        <time>2022-01-01T13:45:39Z</time>
      </trkpt>
      <trkpt lat="47.09007" lon="-1.61575">
        <ele>55</ele>
        <time>2022-01-01T13:45:42Z</time>
      </trkpt>
      <trkpt lat="47.0902" lon="-1.61571">
        <ele>55</ele>
        <time>2022-01-01T13:45:44Z</time>
      </trkpt>
      <trkpt lat="47.09032" lon="-1.61564">
        <ele>56</ele>
        <time>2022-01-01T13:45:46Z</time>
      </trkpt>
      <trkpt lat="47.09043" lon="-1.61557">
        <ele>56</ele>
        <time>2022-01-01T13:45:48Z</time>
      </trkpt>
      <trkpt lat="47.09054" lon="-1.61551">
        <ele>56</ele>
        <time>2022-01-01T13:45:50Z</time>
      </trkpt>
      <trkpt lat="47.09065" lon="-1.61544">
        <ele>56</ele>
        <time>2022-01-01T13:45:52Z</time>
      </trkpt>
      <trkpt lat="47.09076" lon="-1.61538">
        <ele>56</ele>
        <time>2022-01-01T13:45:54Z</time>
      </trkpt>
      <trkpt lat="47.09088" lon="-1.61531">
        <ele>57</ele>
        <time>2022-01-01T13:45:56Z</time>
      </trkpt>
      <trkpt lat="47.09099" lon="-1.61525">
        <ele>57</ele>
        <time>2022-01-01T13:45:58Z</time>
      </trkpt>
      <trkpt lat="47.09109" lon="-1.61519">
        <ele>57</ele>
        <time>2022-01-01T13:46:00Z</time>
      </trkpt>
      <trkpt lat="47.0912" lon="-1.61513">
        <ele>57</ele>
        <time>2022-01-01T13:46:02Z</time>
      </trkpt>
      <trkpt lat="47.09131" lon="-1.61507">
        <ele>57</ele>
        <time>2022-01-01T13:46:04Z</time>
      </trkpt>
      <trkpt lat="47.09142" lon="-1.61501">
        <ele>57</ele>
        <time>2022-01-01T13:46:06Z</time>
      </trkpt>
      <trkpt lat="47.09153" lon="-1.61495">
        <ele>57</ele>
        <time>2022-01-01T13:46:08Z</time>
      </trkpt>
      <trkpt lat="47.09163" lon="-1.61489">
        <ele>57</ele>
        <time>2022-01-01T13:46:10Z</time>
      </trkpt>
      <trkpt lat="47.09174" lon="-1.61482">
        <ele>58</ele>
        <time>2022-01-01T13:46:12Z</time>
      </trkpt>
      <trkpt lat="47.09184" lon="-1.61476">
        <ele>57</ele>
        <time>2022-01-01T13:46:14Z</time>
      </trkpt>
      <trkpt lat="47.09194" lon="-1.6147">
        <ele>57</ele>
        <time>2022-01-01T13:46:16Z</time>
      </trkpt>
      <trkpt lat="47.09205" lon="-1.61465">
        <ele>58</ele>
        <time>2022-01-01T13:46:18Z</time>
      </trkpt>
      <trkpt lat="47.09215" lon="-1.61458">
        <ele>58</ele>
        <time>2022-01-01T13:46:20Z</time>
      </trkpt>
      <trkpt lat="47.09226" lon="-1.61452">
        <ele>58</ele>
        <time>2022-01-01T13:46:22Z</time>
      </trkpt>
      <trkpt lat="47.09236" lon="-1.61446">
        <ele>58</ele>
        <time>2022-01-01T13:46:24Z</time>
      </trkpt>
      <trkpt lat="47.09245" lon="-1.61441">
        <ele>57</ele>
        <time>2022-01-01T13:46:26Z</time>
      </trkpt>
      <trkpt lat="47.09254" lon="-1.61436">
        <ele>58</ele>
        <time>2022-01-01T13:46:28Z</time>
      </trkpt>
      <trkpt lat="47.09264" lon="-1.6143">
        <ele>58</ele>
        <time>2022-01-01T13:46:30Z</time>
      </trkpt>
      <trkpt lat="47.09274" lon="-1.61425">
        <ele>58</ele>
        <time>2022-01-01T13:46:32Z</time>
      </trkpt>
      <trkpt lat="47.09283" lon="-1.61416">
        <ele>58</ele>
        <time>2022-01-01T13:46:34Z</time>
      </trkpt>
      <trkpt lat="47.09283" lon="-1.614">
        <ele>58</ele>
        <time>2022-01-01T13:46:36Z</time>
      </trkpt>
      <trkpt lat="47.0928" lon="-1.61384">
        <ele>58</ele>
        <time>2022-01-01T13:46:38Z</time>
      </trkpt>
      <trkpt lat="47.09277" lon="-1.61367">
        <ele>58</ele>
        <time>2022-01-01T13:46:40Z</time>
      </trkpt>
      <trkpt lat="47.09273" lon="-1.61351">
        <ele>58</ele>
        <time>2022-01-01T13:46:42Z</time>
      </trkpt>
      <trkpt lat="47.0927" lon="-1.61334">
        <ele>58</ele>
        <time>2022-01-01T13:46:44Z</time>
      </trkpt>
      <trkpt lat="47.09268" lon="-1.61317">
        <ele>58</ele>
        <time>2022-01-01T13:46:46Z</time>
      </trkpt>
      <trkpt lat="47.09265" lon="-1.61301">
        <ele>58</ele>
        <time>2022-01-01T13:46:48Z</time>
      </trkpt>
      <trkpt lat="47.0926" lon="-1.61285">
        <ele>58</ele>
        <time>2022-01-01T13:46:50Z</time>
      </trkpt>
      <trkpt lat="47.09256" lon="-1.61268">
        <ele>58</ele>
        <time>2022-01-01T13:46:52Z</time>
      </trkpt>
      <trkpt lat="47.09253" lon="-1.61253">
        <ele>58</ele>
        <time>2022-01-01T13:46:54Z</time>
      </trkpt>
      <trkpt lat="47.0925" lon="-1.61239">
        <ele>57</ele>
        <time>2022-01-01T13:46:56Z</time>
      </trkpt>
      <trkpt lat="47.09247" lon="-1.61225">
        <ele>57</ele>
        <time>2022-01-01T13:46:58Z</time>
      </trkpt>
      <trkpt lat="47.09243" lon="-1.61213">
        <ele>58</ele>
        <time>2022-01-01T13:47:00Z</time>
      </trkpt>
      <trkpt lat="47.09239" lon="-1.61201">
        <ele>58</ele>
        <time>2022-01-01T13:47:02Z</time>
      </trkpt>
      <trkpt lat="47.09238" lon="-1.61186">
        <ele>58</ele>
        <time>2022-01-01T13:47:06Z</time>
      </trkpt>
      <trkpt lat="47.0925" lon="-1.61185">
        <ele>58</ele>
        <time>2022-01-01T13:47:13Z</time>
      </trkpt>
      <trkpt lat="47.09262" lon="-1.61188">
        <ele>58</ele>
        <time>2022-01-01T13:47:16Z</time>
      </trkpt>
      <trkpt lat="47.09272" lon="-1.61191">
        <ele>59</ele>
        <time>2022-01-01T13:47:19Z</time>
      </trkpt>
      <trkpt lat="47.09284" lon="-1.61195">
        <ele>59</ele>
        <time>2022-01-01T13:47:22Z</time>
      </trkpt>
      <trkpt lat="47.09293" lon="-1.61198">
        <ele>59</ele>
        <time>2022-01-01T13:47:25Z</time>
      </trkpt>
      <trkpt lat="47.09307" lon="-1.61197">
        <ele>59</ele>
        <time>2022-01-01T13:47:29Z</time>
      </trkpt>
      <trkpt lat="47.09317" lon="-1.61201">
        <ele>60</ele>
        <time>2022-01-01T13:47:31Z</time>
      </trkpt>
      <trkpt lat="47.0933" lon="-1.61204">
        <ele>61</ele>
        <time>2022-01-01T13:47:33Z</time>
      </trkpt>
      <trkpt lat="47.09343" lon="-1.61208">
        <ele>62</ele>
        <time>2022-01-01T13:47:35Z</time>
      </trkpt>
      <trkpt lat="47.09357" lon="-1.6121">
        <ele>62</ele>
        <time>2022-01-01T13:47:37Z</time>
      </trkpt>
      <trkpt lat="47.09371" lon="-1.61214">
        <ele>62</ele>
        <time>2022-01-01T13:47:39Z</time>
      </trkpt>
      <trkpt lat="47.09385" lon="-1.6122">
        <ele>60</ele>
        <time>2022-01-01T13:47:41Z</time>
      </trkpt>
      <trkpt lat="47.09399" lon="-1.61226">
        <ele>59</ele>
        <time>2022-01-01T13:47:43Z</time>
      </trkpt>
      <trkpt lat="47.09413" lon="-1.61231">
        <ele>58</ele>
        <time>2022-01-01T13:47:45Z</time>
      </trkpt>
      <trkpt lat="47.09427" lon="-1.61225">
        <ele>58</ele>
        <time>2022-01-01T13:47:47Z</time>
      </trkpt>
      <trkpt lat="47.09438" lon="-1.61213">
        <ele>57</ele>
        <time>2022-01-01T13:47:49Z</time>
      </trkpt>
      <trkpt lat="47.09449" lon="-1.612">
        <ele>57</ele>
        <time>2022-01-01T13:47:51Z</time>
      </trkpt>
      <trkpt lat="47.09461" lon="-1.61187">
        <ele>56</ele>
        <time>2022-01-01T13:47:53Z</time>
      </trkpt>
      <trkpt lat="47.09473" lon="-1.61175">
        <ele>55</ele>
        <time>2022-01-01T13:47:55Z</time>
      </trkpt>
      <trkpt lat="47.09484" lon="-1.61162">
        <ele>55</ele>
        <time>2022-01-01T13:47:57Z</time>
      </trkpt>
      <trkpt lat="47.09496" lon="-1.61152">
        <ele>55</ele>
        <time>2022-01-01T13:47:59Z</time>
      </trkpt>
      <trkpt lat="47.09509" lon="-1.61144">
        <ele>55</ele>
        <time>2022-01-01T13:48:01Z</time>
      </trkpt>
      <trkpt lat="47.09523" lon="-1.61138">
        <ele>54</ele>
        <time>2022-01-01T13:48:03Z</time>
      </trkpt>
      <trkpt lat="47.09536" lon="-1.61135">
        <ele>54</ele>
        <time>2022-01-01T13:48:05Z</time>
      </trkpt>
      <trkpt lat="47.0955" lon="-1.61133">
        <ele>55</ele>
        <time>2022-01-01T13:48:07Z</time>
      </trkpt>
      <trkpt lat="47.09565" lon="-1.61131">
        <ele>55</ele>
        <time>2022-01-01T13:48:09Z</time>
      </trkpt>
      <trkpt lat="47.09579" lon="-1.6113">
        <ele>55</ele>
        <time>2022-01-01T13:48:11Z</time>
      </trkpt>
      <trkpt lat="47.09593" lon="-1.61129">
        <ele>54</ele>
        <time>2022-01-01T13:48:13Z</time>
      </trkpt>
      <trkpt lat="47.09607" lon="-1.61127">
        <ele>53</ele>
        <time>2022-01-01T13:48:15Z</time>
      </trkpt>
      <trkpt lat="47.09621" lon="-1.61125">
        <ele>53</ele>
        <time>2022-01-01T13:48:17Z</time>
      </trkpt>
      <trkpt lat="47.09636" lon="-1.61123">
        <ele>53</ele>
        <time>2022-01-01T13:48:19Z</time>
      </trkpt>
      <trkpt lat="47.0965" lon="-1.61122">
        <ele>52</ele>
        <time>2022-01-01T13:48:21Z</time>
      </trkpt>
      <trkpt lat="47.09664" lon="-1.6112">
        <ele>52</ele>
        <time>2022-01-01T13:48:23Z</time>
      </trkpt>
      <trkpt lat="47.09677" lon="-1.61118">
        <ele>52</ele>
        <time>2022-01-01T13:48:25Z</time>
      </trkpt>
      <trkpt lat="47.09691" lon="-1.61116">
        <ele>52</ele>
        <time>2022-01-01T13:48:27Z</time>
      </trkpt>
      <trkpt lat="47.09706" lon="-1.61115">
        <ele>52</ele>
        <time>2022-01-01T13:48:29Z</time>
      </trkpt>
      <trkpt lat="47.0972" lon="-1.61114">
        <ele>52</ele>
        <time>2022-01-01T13:48:31Z</time>
      </trkpt>
      <trkpt lat="47.09734" lon="-1.61112">
        <ele>52</ele>
        <time>2022-01-01T13:48:33Z</time>
      </trkpt>
      <trkpt lat="47.09748" lon="-1.61109">
        <ele>52</ele>
        <time>2022-01-01T13:48:35Z</time>
      </trkpt>
      <trkpt lat="47.09762" lon="-1.61107">
        <ele>53</ele>
        <time>2022-01-01T13:48:37Z</time>
      </trkpt>
      <trkpt lat="47.09775" lon="-1.61106">
        <ele>53</ele>
        <time>2022-01-01T13:48:39Z</time>
      </trkpt>
      <trkpt lat="47.09788" lon="-1.61104">
        <ele>53</ele>
        <time>2022-01-01T13:48:41Z</time>
      </trkpt>
      <trkpt lat="47.098" lon="-1.61099">
        <ele>54</ele>
        <time>2022-01-01T13:48:43Z</time>
      </trkpt>
      <trkpt lat="47.09812" lon="-1.61093">
        <ele>54</ele>
        <time>2022-01-01T13:48:45Z</time>
      </trkpt>
      <trkpt lat="47.09823" lon="-1.61085">
        <ele>54</ele>
        <time>2022-01-01T13:48:47Z</time>
      </trkpt>
      <trkpt lat="47.09834" lon="-1.61076">
        <ele>53</ele>
        <time>2022-01-01T13:48:49Z</time>
      </trkpt>
      <trkpt lat="47.09843" lon="-1.61066">
        <ele>54</ele>
        <time>2022-01-01T13:48:51Z</time>
      </trkpt>
      <trkpt lat="47.09852" lon="-1.61055">
        <ele>53</ele>
        <time>2022-01-01T13:48:53Z</time>
      </trkpt>
      <trkpt lat="47.09859" lon="-1.61043">
        <ele>54</ele>
        <time>2022-01-01T13:48:55Z</time>
      </trkpt>
      <trkpt lat="47.09866" lon="-1.61029">
        <ele>54</ele>
        <time>2022-01-01T13:48:57Z</time>
      </trkpt>
      <trkpt lat="47.09873" lon="-1.61016">
        <ele>54</ele>
        <time>2022-01-01T13:48:59Z</time>
      </trkpt>
      <trkpt lat="47.09879" lon="-1.61002">
        <ele>54</ele>
        <time>2022-01-01T13:49:01Z</time>
      </trkpt>
      <trkpt lat="47.09885" lon="-1.60988">
        <ele>54</ele>
        <time>2022-01-01T13:49:03Z</time>
      </trkpt>
      <trkpt lat="47.0989" lon="-1.60974">
        <ele>54</ele>
        <time>2022-01-01T13:49:05Z</time>
      </trkpt>
      <trkpt lat="47.09896" lon="-1.6096">
        <ele>54</ele>
        <time>2022-01-01T13:49:07Z</time>
      </trkpt>
      <trkpt lat="47.09901" lon="-1.60947">
        <ele>55</ele>
        <time>2022-01-01T13:49:09Z</time>
      </trkpt>
      <trkpt lat="47.09906" lon="-1.60933">
        <ele>55</ele>
        <time>2022-01-01T13:49:11Z</time>
      </trkpt>
      <trkpt lat="47.09912" lon="-1.60919">
        <ele>55</ele>
        <time>2022-01-01T13:49:13Z</time>
      </trkpt>
      <trkpt lat="47.09917" lon="-1.60905">
        <ele>55</ele>
        <time>2022-01-01T13:49:15Z</time>
      </trkpt>
      <trkpt lat="47.09923" lon="-1.60891">
        <ele>55</ele>
        <time>2022-01-01T13:49:17Z</time>
      </trkpt>
      <trkpt lat="47.09928" lon="-1.60877">
        <ele>55</ele>
        <time>2022-01-01T13:49:19Z</time>
      </trkpt>
      <trkpt lat="47.09933" lon="-1.60863">
        <ele>56</ele>
        <time>2022-01-01T13:49:21Z</time>
      </trkpt>
      <trkpt lat="47.09939" lon="-1.60849">
        <ele>56</ele>
        <time>2022-01-01T13:49:23Z</time>
      </trkpt>
      <trkpt lat="47.09944" lon="-1.60835">
        <ele>56</ele>
        <time>2022-01-01T13:49:25Z</time>
      </trkpt>
      <trkpt lat="47.09949" lon="-1.6082">
        <ele>56</ele>
        <time>2022-01-01T13:49:27Z</time>
      </trkpt>
      <trkpt lat="47.09954" lon="-1.60805">
        <ele>56</ele>
        <time>2022-01-01T13:49:29Z</time>
      </trkpt>
      <trkpt lat="47.09958" lon="-1.6079">
        <ele>57</ele>
        <time>2022-01-01T13:49:31Z</time>
      </trkpt>
      <trkpt lat="47.09963" lon="-1.60777">
        <ele>57</ele>
        <time>2022-01-01T13:49:33Z</time>
      </trkpt>
      <trkpt lat="47.09967" lon="-1.60762">
        <ele>57</ele>
        <time>2022-01-01T13:49:35Z</time>
      </trkpt>
      <trkpt lat="47.09971" lon="-1.60747">
        <ele>57</ele>
        <time>2022-01-01T13:49:37Z</time>
      </trkpt>
      <trkpt lat="47.09976" lon="-1.60733">
        <ele>57</ele>
        <time>2022-01-01T13:49:39Z</time>
      </trkpt>
      <trkpt lat="47.0998" lon="-1.60718">
        <ele>57</ele>
        <time>2022-01-01T13:49:41Z</time>
      </trkpt>
      <trkpt lat="47.09985" lon="-1.60703">
        <ele>57</ele>
        <time>2022-01-01T13:49:43Z</time>
      </trkpt>
      <trkpt lat="47.09989" lon="-1.60688">
        <ele>57</ele>
        <time>2022-01-01T13:49:45Z</time>
      </trkpt>
      <trkpt lat="47.09993" lon="-1.60673">
        <ele>57</ele>
        <time>2022-01-01T13:49:47Z</time>
      </trkpt>
      <trkpt lat="47.09998" lon="-1.60659">
        <ele>57</ele>
        <time>2022-01-01T13:49:49Z</time>
      </trkpt>
      <trkpt lat="47.10002" lon="-1.60644">
        <ele>57</ele>
        <time>2022-01-01T13:49:51Z</time>
      </trkpt>
      <trkpt lat="47.10007" lon="-1.60629">
        <ele>57</ele>
        <time>2022-01-01T13:49:53Z</time>
      </trkpt>
      <trkpt lat="47.10011" lon="-1.60614">
        <ele>57</ele>
        <time>2022-01-01T13:49:55Z</time>
      </trkpt>
      <trkpt lat="47.10015" lon="-1.60599">
        <ele>57</ele>
        <time>2022-01-01T13:49:57Z</time>
      </trkpt>
      <trkpt lat="47.1002" lon="-1.60585">
        <ele>57</ele>
        <time>2022-01-01T13:49:59Z</time>
      </trkpt>
      <trkpt lat="47.10024" lon="-1.60569">
        <ele>57</ele>
        <time>2022-01-01T13:50:01Z</time>
      </trkpt>
      <trkpt lat="47.10029" lon="-1.60555">
        <ele>57</ele>
        <time>2022-01-01T13:50:03Z</time>
      </trkpt>
      <trkpt lat="47.10033" lon="-1.60539">
        <ele>57</ele>
        <time>2022-01-01T13:50:05Z</time>
      </trkpt>
      <trkpt lat="47.10038" lon="-1.60523">
        <ele>57</ele>
        <time>2022-01-01T13:50:07Z</time>
      </trkpt>
      <trkpt lat="47.10042" lon="-1.60507">
        <ele>57</ele>
        <time>2022-01-01T13:50:09Z</time>
      </trkpt>
      <trkpt lat="47.10046" lon="-1.60491">
        <ele>57</ele>
        <time>2022-01-01T13:50:11Z</time>
      </trkpt>
      <trkpt lat="47.1005" lon="-1.60474">
        <ele>57</ele>
        <time>2022-01-01T13:50:13Z</time>
      </trkpt>
      <trkpt lat="47.10053" lon="-1.60458">
        <ele>57</ele>
        <time>2022-01-01T13:50:15Z</time>
      </trkpt>
      <trkpt lat="47.10056" lon="-1.60441">
        <ele>57</ele>
        <time>2022-01-01T13:50:17Z</time>
      </trkpt>
      <trkpt lat="47.10059" lon="-1.60424">
        <ele>57</ele>
        <time>2022-01-01T13:50:19Z</time>
      </trkpt>
      <trkpt lat="47.10061" lon="-1.60408">
        <ele>57</ele>
        <time>2022-01-01T13:50:21Z</time>
      </trkpt>
      <trkpt lat="47.10063" lon="-1.60391">
        <ele>57</ele>
        <time>2022-01-01T13:50:23Z</time>
      </trkpt>
      <trkpt lat="47.10064" lon="-1.60374">
        <ele>57</ele>
        <time>2022-01-01T13:50:25Z</time>
      </trkpt>
      <trkpt lat="47.10066" lon="-1.60357">
        <ele>57</ele>
        <time>2022-01-01T13:50:27Z</time>
      </trkpt>
      <trkpt lat="47.10068" lon="-1.6034">
        <ele>57</ele>
        <time>2022-01-01T13:50:29Z</time>
      </trkpt>
      <trkpt lat="47.1007" lon="-1.60323">
        <ele>57</ele>
        <time>2022-01-01T13:50:31Z</time>
      </trkpt>
      <trkpt lat="47.10071" lon="-1.60306">
        <ele>57</ele>
        <time>2022-01-01T13:50:33Z</time>
      </trkpt>
      <trkpt lat="47.10073" lon="-1.6029">
        <ele>57</ele>
        <time>2022-01-01T13:50:35Z</time>
      </trkpt>
      <trkpt lat="47.10075" lon="-1.60274">
        <ele>57</ele>
        <time>2022-01-01T13:50:37Z</time>
      </trkpt>
      <trkpt lat="47.10076" lon="-1.60258">
        <ele>57</ele>
        <time>2022-01-01T13:50:39Z</time>
      </trkpt>
      <trkpt lat="47.10077" lon="-1.60241">
        <ele>57</ele>
        <time>2022-01-01T13:50:41Z</time>
      </trkpt>
      <trkpt lat="47.10078" lon="-1.60224">
        <ele>57</ele>
        <time>2022-01-01T13:50:43Z</time>
      </trkpt>
      <trkpt lat="47.10079" lon="-1.60207">
        <ele>57</ele>
        <time>2022-01-01T13:50:45Z</time>
      </trkpt>
      <trkpt lat="47.1008" lon="-1.60191">
        <ele>57</ele>
        <time>2022-01-01T13:50:47Z</time>
      </trkpt>
      <trkpt lat="47.10079" lon="-1.60174">
        <ele>56</ele>
        <time>2022-01-01T13:50:49Z</time>
      </trkpt>
      <trkpt lat="47.10076" lon="-1.60159">
        <ele>56</ele>
        <time>2022-01-01T13:50:51Z</time>
      </trkpt>
      <trkpt lat="47.10072" lon="-1.60144">
        <ele>57</ele>
        <time>2022-01-01T13:50:53Z</time>
      </trkpt>
      <trkpt lat="47.10071" lon="-1.60126">
        <ele>57</ele>
        <time>2022-01-01T13:50:55Z</time>
      </trkpt>
      <trkpt lat="47.10079" lon="-1.6011">
        <ele>56</ele>
        <time>2022-01-01T13:50:57Z</time>
      </trkpt>
      <trkpt lat="47.10089" lon="-1.60101">
        <ele>56</ele>
        <time>2022-01-01T13:50:59Z</time>
      </trkpt>
      <trkpt lat="47.10101" lon="-1.60096">
        <ele>56</ele>
        <time>2022-01-01T13:51:01Z</time>
      </trkpt>
      <trkpt lat="47.10109" lon="-1.60084">
        <ele>56</ele>
        <time>2022-01-01T13:51:03Z</time>
      </trkpt>
      <trkpt lat="47.10117" lon="-1.60072">
        <ele>57</ele>
        <time>2022-01-01T13:51:05Z</time>
      </trkpt>
      <trkpt lat="47.10124" lon="-1.60058">
        <ele>57</ele>
        <time>2022-01-01T13:51:07Z</time>
      </trkpt>
      <trkpt lat="47.10131" lon="-1.60045">
        <ele>56</ele>
        <time>2022-01-01T13:51:09Z</time>
      </trkpt>
      <trkpt lat="47.10139" lon="-1.60031">
        <ele>56</ele>
        <time>2022-01-01T13:51:11Z</time>
      </trkpt>
      <trkpt lat="47.10147" lon="-1.60017">
        <ele>56</ele>
        <time>2022-01-01T13:51:13Z</time>
      </trkpt>
      <trkpt lat="47.10155" lon="-1.60004">
        <ele>56</ele>
        <time>2022-01-01T13:51:15Z</time>
      </trkpt>
      <trkpt lat="47.10163" lon="-1.5999">
        <ele>56</ele>
        <time>2022-01-01T13:51:17Z</time>
      </trkpt>
      <trkpt lat="47.10171" lon="-1.59977">
        <ele>56</ele>
        <time>2022-01-01T13:51:19Z</time>
      </trkpt>
      <trkpt lat="47.10179" lon="-1.59964">
        <ele>56</ele>
        <time>2022-01-01T13:51:21Z</time>
      </trkpt>
      <trkpt lat="47.10187" lon="-1.59951">
        <ele>56</ele>
        <time>2022-01-01T13:51:23Z</time>
      </trkpt>
      <trkpt lat="47.10195" lon="-1.59937">
        <ele>56</ele>
        <time>2022-01-01T13:51:25Z</time>
      </trkpt>
      <trkpt lat="47.10203" lon="-1.59924">
        <ele>56</ele>
        <time>2022-01-01T13:51:27Z</time>
      </trkpt>
      <trkpt lat="47.10211" lon="-1.5991">
        <ele>56</ele>
        <time>2022-01-01T13:51:29Z</time>
      </trkpt>
      <trkpt lat="47.10219" lon="-1.59897">
        <ele>56</ele>
        <time>2022-01-01T13:51:31Z</time>
      </trkpt>
      <trkpt lat="47.10228" lon="-1.59884">
        <ele>56</ele>
        <time>2022-01-01T13:51:33Z</time>
      </trkpt>
      <trkpt lat="47.10236" lon="-1.59871">
        <ele>56</ele>
        <time>2022-01-01T13:51:35Z</time>
      </trkpt>
      <trkpt lat="47.10244" lon="-1.59857">
        <ele>57</ele>
        <time>2022-01-01T13:51:37Z</time>
      </trkpt>
      <trkpt lat="47.10252" lon="-1.59844">
        <ele>57</ele>
        <time>2022-01-01T13:51:39Z</time>
      </trkpt>
      <trkpt lat="47.1026" lon="-1.59831">
        <ele>57</ele>
        <time>2022-01-01T13:51:41Z</time>
      </trkpt>
      <trkpt lat="47.10268" lon="-1.59818">
        <ele>57</ele>
        <time>2022-01-01T13:51:43Z</time>
      </trkpt>
      <trkpt lat="47.10276" lon="-1.59804">
        <ele>57</ele>
        <time>2022-01-01T13:51:45Z</time>
      </trkpt>
      <trkpt lat="47.10284" lon="-1.59791">
        <ele>57</ele>
        <time>2022-01-01T13:51:47Z</time>
      </trkpt>
      <trkpt lat="47.10292" lon="-1.59777">
        <ele>57</ele>
        <time>2022-01-01T13:51:49Z</time>
      </trkpt>
      <trkpt lat="47.10299" lon="-1.59765">
        <ele>57</ele>
        <time>2022-01-01T13:51:51Z</time>
      </trkpt>
      <trkpt lat="47.10306" lon="-1.59752">
        <ele>57</ele>
        <time>2022-01-01T13:51:53Z</time>
      </trkpt>
      <trkpt lat="47.10314" lon="-1.59739">
        <ele>58</ele>
        <time>2022-01-01T13:51:55Z</time>
      </trkpt>
      <trkpt lat="47.10321" lon="-1.59725">
        <ele>58</ele>
        <time>2022-01-01T13:51:57Z</time>
      </trkpt>
      <trkpt lat="47.10329" lon="-1.59712">
        <ele>58</ele>
        <time>2022-01-01T13:51:59Z</time>
      </trkpt>
      <trkpt lat="47.10336" lon="-1.59698">
        <ele>59</ele>
        <time>2022-01-01T13:52:01Z</time>
      </trkpt>
      <trkpt lat="47.10344" lon="-1.59686">
        <ele>59</ele>
        <time>2022-01-01T13:52:03Z</time>
      </trkpt>
      <trkpt lat="47.10352" lon="-1.59673">
        <ele>58</ele>
        <time>2022-01-01T13:52:05Z</time>
      </trkpt>
      <trkpt lat="47.1036" lon="-1.59661">
        <ele>59</ele>
        <time>2022-01-01T13:52:07Z</time>
      </trkpt>
      <trkpt lat="47.10367" lon="-1.59649">
        <ele>59</ele>
        <time>2022-01-01T13:52:09Z</time>
      </trkpt>
      <trkpt lat="47.10376" lon="-1.59636">
        <ele>59</ele>
        <time>2022-01-01T13:52:11Z</time>
      </trkpt>
      <trkpt lat="47.10383" lon="-1.59623">
        <ele>59</ele>
        <time>2022-01-01T13:52:13Z</time>
      </trkpt>
      <trkpt lat="47.10391" lon="-1.5961">
        <ele>59</ele>
        <time>2022-01-01T13:52:15Z</time>
      </trkpt>
      <trkpt lat="47.10399" lon="-1.59598">
        <ele>59</ele>
        <time>2022-01-01T13:52:17Z</time>
      </trkpt>
      <trkpt lat="47.10406" lon="-1.59585">
        <ele>58</ele>
        <time>2022-01-01T13:52:19Z</time>
      </trkpt>
      <trkpt lat="47.10414" lon="-1.59572">
        <ele>58</ele>
        <time>2022-01-01T13:52:21Z</time>
      </trkpt>
      <trkpt lat="47.10422" lon="-1.5956">
        <ele>58</ele>
        <time>2022-01-01T13:52:23Z</time>
      </trkpt>
      <trkpt lat="47.10429" lon="-1.59548">
        <ele>58</ele>
        <time>2022-01-01T13:52:25Z</time>
      </trkpt>
      <trkpt lat="47.10437" lon="-1.59535">
        <ele>58</ele>
        <time>2022-01-01T13:52:27Z</time>
      </trkpt>
      <trkpt lat="47.10444" lon="-1.59523">
        <ele>57</ele>
        <time>2022-01-01T13:52:29Z</time>
      </trkpt>
      <trkpt lat="47.10451" lon="-1.5951">
        <ele>57</ele>
        <time>2022-01-01T13:52:31Z</time>
      </trkpt>
      <trkpt lat="47.10458" lon="-1.59497">
        <ele>57</ele>
        <time>2022-01-01T13:52:33Z</time>
      </trkpt>
      <trkpt lat="47.10465" lon="-1.59484">
        <ele>58</ele>
        <time>2022-01-01T13:52:35Z</time>
      </trkpt>
      <trkpt lat="47.10473" lon="-1.59472">
        <ele>57</ele>
        <time>2022-01-01T13:52:37Z</time>
      </trkpt>
      <trkpt lat="47.10481" lon="-1.59459">
        <ele>57</ele>
        <time>2022-01-01T13:52:39Z</time>
      </trkpt>
      <trkpt lat="47.10488" lon="-1.59447">
        <ele>58</ele>
        <time>2022-01-01T13:52:41Z</time>
      </trkpt>
      <trkpt lat="47.10496" lon="-1.59434">
        <ele>58</ele>
        <time>2022-01-01T13:52:43Z</time>
      </trkpt>
      <trkpt lat="47.10504" lon="-1.59421">
        <ele>58</ele>
        <time>2022-01-01T13:52:45Z</time>
      </trkpt>
      <trkpt lat="47.10511" lon="-1.59409">
        <ele>58</ele>
        <time>2022-01-01T13:52:47Z</time>
      </trkpt>
      <trkpt lat="47.10519" lon="-1.59396">
        <ele>58</ele>
        <time>2022-01-01T13:52:49Z</time>
      </trkpt>
      <trkpt lat="47.10525" lon="-1.59385">
        <ele>59</ele>
        <time>2022-01-01T13:52:51Z</time>
      </trkpt>
      <trkpt lat="47.10532" lon="-1.59373">
        <ele>59</ele>
        <time>2022-01-01T13:52:53Z</time>
      </trkpt>
      <trkpt lat="47.10539" lon="-1.59361">
        <ele>59</ele>
        <time>2022-01-01T13:52:55Z</time>
      </trkpt>
      <trkpt lat="47.10545" lon="-1.59349">
        <ele>59</ele>
        <time>2022-01-01T13:52:57Z</time>
      </trkpt>
      <trkpt lat="47.10552" lon="-1.59338">
        <ele>59</ele>
        <time>2022-01-01T13:52:59Z</time>
      </trkpt>
      <trkpt lat="47.10558" lon="-1.59326">
        <ele>59</ele>
        <time>2022-01-01T13:53:01Z</time>
      </trkpt>
      <trkpt lat="47.10565" lon="-1.59314">
        <ele>59</ele>
        <time>2022-01-01T13:53:03Z</time>
      </trkpt>
      <trkpt lat="47.10571" lon="-1.59302">
        <ele>60</ele>
        <time>2022-01-01T13:53:05Z</time>
      </trkpt>
      <trkpt lat="47.10577" lon="-1.59291">
        <ele>60</ele>
        <time>2022-01-01T13:53:07Z</time>
      </trkpt>
      <trkpt lat="47.10584" lon="-1.5928">
        <ele>60</ele>
        <time>2022-01-01T13:53:09Z</time>
      </trkpt>
      <trkpt lat="47.10591" lon="-1.59268">
        <ele>60</ele>
        <time>2022-01-01T13:53:11Z</time>
      </trkpt>
      <trkpt lat="47.10598" lon="-1.59257">
        <ele>61</ele>
        <time>2022-01-01T13:53:13Z</time>
      </trkpt>
      <trkpt lat="47.10605" lon="-1.59246">
        <ele>61</ele>
        <time>2022-01-01T13:53:15Z</time>
      </trkpt>
      <trkpt lat="47.10612" lon="-1.59235">
        <ele>62</ele>
        <time>2022-01-01T13:53:17Z</time>
      </trkpt>
      <trkpt lat="47.10618" lon="-1.59225">
        <ele>62</ele>
        <time>2022-01-01T13:53:19Z</time>
      </trkpt>
      <trkpt lat="47.10625" lon="-1.59215">
        <ele>62</ele>
        <time>2022-01-01T13:53:21Z</time>
      </trkpt>
      <trkpt lat="47.1063" lon="-1.59203">
        <ele>62</ele>
        <time>2022-01-01T13:53:23Z</time>
      </trkpt>
      <trkpt lat="47.10636" lon="-1.59192">
        <ele>62</ele>
        <time>2022-01-01T13:53:25Z</time>
      </trkpt>
      <trkpt lat="47.10646" lon="-1.59174">
        <ele>63</ele>
        <time>2022-01-01T13:53:28Z</time>
      </trkpt>
      <trkpt lat="47.10655" lon="-1.59155">
        <ele>63</ele>
        <time>2022-01-01T13:53:31Z</time>
      </trkpt>
      <trkpt lat="47.10663" lon="-1.59135">
        <ele>63</ele>
        <time>2022-01-01T13:53:34Z</time>
      </trkpt>
      <trkpt lat="47.10669" lon="-1.59116">
        <ele>63</ele>
        <time>2022-01-01T13:53:37Z</time>
      </trkpt>
      <trkpt lat="47.10674" lon="-1.59103">
        <ele>64</ele>
        <time>2022-01-01T13:53:39Z</time>
      </trkpt>
      <trkpt lat="47.1068" lon="-1.59083">
        <ele>64</ele>
        <time>2022-01-01T13:53:42Z</time>
      </trkpt>
      <trkpt lat="47.10683" lon="-1.5907">
        <ele>64</ele>
        <time>2022-01-01T13:53:44Z</time>
      </trkpt>
      <trkpt lat="47.10687" lon="-1.59056">
        <ele>64</ele>
        <time>2022-01-01T13:53:46Z</time>
      </trkpt>
      <trkpt lat="47.1069" lon="-1.59043">
        <ele>64</ele>
        <time>2022-01-01T13:53:48Z</time>
      </trkpt>
      <trkpt lat="47.10695" lon="-1.5903">
        <ele>64</ele>
        <time>2022-01-01T13:53:50Z</time>
      </trkpt>
      <trkpt lat="47.10702" lon="-1.59018">
        <ele>64</ele>
        <time>2022-01-01T13:53:53Z</time>
      </trkpt>
      <trkpt lat="47.10708" lon="-1.59007">
        <ele>65</ele>
        <time>2022-01-01T13:53:59Z</time>
      </trkpt>
      <trkpt lat="47.10714" lon="-1.58997">
        <ele>65</ele>
        <time>2022-01-01T13:54:01Z</time>
      </trkpt>
      <trkpt lat="47.1072" lon="-1.58982">
        <ele>65</ele>
        <time>2022-01-01T13:54:03Z</time>
      </trkpt>
      <trkpt lat="47.10726" lon="-1.58965">
        <ele>64</ele>
        <time>2022-01-01T13:54:05Z</time>
      </trkpt>
      <trkpt lat="47.10731" lon="-1.58948">
        <ele>64</ele>
        <time>2022-01-01T13:54:07Z</time>
      </trkpt>
      <trkpt lat="47.10737" lon="-1.58933">
        <ele>64</ele>
        <time>2022-01-01T13:54:09Z</time>
      </trkpt>
      <trkpt lat="47.10742" lon="-1.58918">
        <ele>64</ele>
        <time>2022-01-01T13:54:11Z</time>
      </trkpt>
      <trkpt lat="47.10748" lon="-1.58903">
        <ele>64</ele>
        <time>2022-01-01T13:54:13Z</time>
      </trkpt>
      <trkpt lat="47.10755" lon="-1.58887">
        <ele>64</ele>
        <time>2022-01-01T13:54:15Z</time>
      </trkpt>
      <trkpt lat="47.10763" lon="-1.58874">
        <ele>64</ele>
        <time>2022-01-01T13:54:17Z</time>
      </trkpt>
      <trkpt lat="47.10773" lon="-1.58863">
        <ele>64</ele>
        <time>2022-01-01T13:54:19Z</time>
      </trkpt>
      <trkpt lat="47.10782" lon="-1.58849">
        <ele>64</ele>
        <time>2022-01-01T13:54:21Z</time>
      </trkpt>
      <trkpt lat="47.10791" lon="-1.58835">
        <ele>64</ele>
        <time>2022-01-01T13:54:23Z</time>
      </trkpt>
      <trkpt lat="47.10799" lon="-1.58821">
        <ele>63</ele>
        <time>2022-01-01T13:54:25Z</time>
      </trkpt>
      <trkpt lat="47.10808" lon="-1.58807">
        <ele>63</ele>
        <time>2022-01-01T13:54:27Z</time>
      </trkpt>
      <trkpt lat="47.10818" lon="-1.58793">
        <ele>63</ele>
        <time>2022-01-01T13:54:29Z</time>
      </trkpt>
      <trkpt lat="47.10827" lon="-1.58779">
        <ele>63</ele>
        <time>2022-01-01T13:54:31Z</time>
      </trkpt>
      <trkpt lat="47.10836" lon="-1.58766">
        <ele>62</ele>
        <time>2022-01-01T13:54:33Z</time>
      </trkpt>
      <trkpt lat="47.10845" lon="-1.58752">
        <ele>62</ele>
        <time>2022-01-01T13:54:35Z</time>
      </trkpt>
      <trkpt lat="47.10854" lon="-1.58738">
        <ele>62</ele>
        <time>2022-01-01T13:54:37Z</time>
      </trkpt>
      <trkpt lat="47.10862" lon="-1.58723">
        <ele>62</ele>
        <time>2022-01-01T13:54:39Z</time>
      </trkpt>
      <trkpt lat="47.10872" lon="-1.58713">
        <ele>62</ele>
        <time>2022-01-01T13:54:41Z</time>
      </trkpt>
      <trkpt lat="47.1088" lon="-1.58699">
        <ele>61</ele>
        <time>2022-01-01T13:54:43Z</time>
      </trkpt>
      <trkpt lat="47.10889" lon="-1.58685">
        <ele>61</ele>
        <time>2022-01-01T13:54:45Z</time>
      </trkpt>
      <trkpt lat="47.10898" lon="-1.5867">
        <ele>60</ele>
        <time>2022-01-01T13:54:47Z</time>
      </trkpt>
      <trkpt lat="47.10908" lon="-1.58655">
        <ele>60</ele>
        <time>2022-01-01T13:54:49Z</time>
      </trkpt>
      <trkpt lat="47.10917" lon="-1.58641">
        <ele>60</ele>
        <time>2022-01-01T13:54:51Z</time>
      </trkpt>
      <trkpt lat="47.10928" lon="-1.58627">
        <ele>59</ele>
        <time>2022-01-01T13:54:53Z</time>
      </trkpt>
      <trkpt lat="47.10939" lon="-1.58613">
        <ele>59</ele>
        <time>2022-01-01T13:54:55Z</time>
      </trkpt>
      <trkpt lat="47.1095" lon="-1.586">
        <ele>59</ele>
        <time>2022-01-01T13:54:57Z</time>
      </trkpt>
      <trkpt lat="47.1096" lon="-1.58585">
        <ele>59</ele>
        <time>2022-01-01T13:54:59Z</time>
      </trkpt>
      <trkpt lat="47.1097" lon="-1.5857">
        <ele>59</ele>
        <time>2022-01-01T13:55:01Z</time>
      </trkpt>
      <trkpt lat="47.10979" lon="-1.58555">
        <ele>59</ele>
        <time>2022-01-01T13:55:03Z</time>
      </trkpt>
      <trkpt lat="47.10988" lon="-1.58539">
        <ele>58</ele>
        <time>2022-01-01T13:55:05Z</time>
      </trkpt>
      <trkpt lat="47.10998" lon="-1.58524">
        <ele>59</ele>
        <time>2022-01-01T13:55:07Z</time>
      </trkpt>
      <trkpt lat="47.11008" lon="-1.58508">
        <ele>59</ele>
        <time>2022-01-01T13:55:09Z</time>
      </trkpt>
      <trkpt lat="47.11017" lon="-1.58493">
        <ele>58</ele>
        <time>2022-01-01T13:55:11Z</time>
      </trkpt>
      <trkpt lat="47.11026" lon="-1.58478">
        <ele>58</ele>
        <time>2022-01-01T13:55:13Z</time>
      </trkpt>
      <trkpt lat="47.11036" lon="-1.58462">
        <ele>58</ele>
        <time>2022-01-01T13:55:15Z</time>
      </trkpt>
      <trkpt lat="47.11044" lon="-1.58446">
        <ele>58</ele>
        <time>2022-01-01T13:55:17Z</time>
      </trkpt>
      <trkpt lat="47.11053" lon="-1.5843">
        <ele>57</ele>
        <time>2022-01-01T13:55:19Z</time>
      </trkpt>
      <trkpt lat="47.11061" lon="-1.58414">
        <ele>57</ele>
        <time>2022-01-01T13:55:21Z</time>
      </trkpt>
      <trkpt lat="47.1107" lon="-1.58397">
        <ele>57</ele>
        <time>2022-01-01T13:55:23Z</time>
      </trkpt>
      <trkpt lat="47.11077" lon="-1.5838">
        <ele>56</ele>
        <time>2022-01-01T13:55:25Z</time>
      </trkpt>
      <trkpt lat="47.11085" lon="-1.58363">
        <ele>56</ele>
        <time>2022-01-01T13:55:27Z</time>
      </trkpt>
      <trkpt lat="47.11093" lon="-1.58346">
        <ele>56</ele>
        <time>2022-01-01T13:55:29Z</time>
      </trkpt>
      <trkpt lat="47.11101" lon="-1.58331">
        <ele>56</ele>
        <time>2022-01-01T13:55:31Z</time>
      </trkpt>
      <trkpt lat="47.11111" lon="-1.58316">
        <ele>56</ele>
        <time>2022-01-01T13:55:33Z</time>
      </trkpt>
      <trkpt lat="47.11122" lon="-1.58303">
        <ele>56</ele>
        <time>2022-01-01T13:55:35Z</time>
      </trkpt>
      <trkpt lat="47.11133" lon="-1.58291">
        <ele>56</ele>
        <time>2022-01-01T13:55:37Z</time>
      </trkpt>
      <trkpt lat="47.11144" lon="-1.58279">
        <ele>56</ele>
        <time>2022-01-01T13:55:39Z</time>
      </trkpt>
      <trkpt lat="47.11156" lon="-1.58268">
        <ele>55</ele>
        <time>2022-01-01T13:55:41Z</time>
      </trkpt>
      <trkpt lat="47.11166" lon="-1.58255">
        <ele>55</ele>
        <time>2022-01-01T13:55:43Z</time>
      </trkpt>
      <trkpt lat="47.11177" lon="-1.58243">
        <ele>55</ele>
        <time>2022-01-01T13:55:45Z</time>
      </trkpt>
      <trkpt lat="47.11188" lon="-1.58231">
        <ele>55</ele>
        <time>2022-01-01T13:55:47Z</time>
      </trkpt>
      <trkpt lat="47.11198" lon="-1.58217">
        <ele>55</ele>
        <time>2022-01-01T13:55:49Z</time>
      </trkpt>
      <trkpt lat="47.11208" lon="-1.58205">
        <ele>55</ele>
        <time>2022-01-01T13:55:51Z</time>
      </trkpt>
      <trkpt lat="47.11218" lon="-1.58191">
        <ele>55</ele>
        <time>2022-01-01T13:55:53Z</time>
      </trkpt>
      <trkpt lat="47.11229" lon="-1.58178">
        <ele>54</ele>
        <time>2022-01-01T13:55:55Z</time>
      </trkpt>
      <trkpt lat="47.11239" lon="-1.58166">
        <ele>54</ele>
        <time>2022-01-01T13:55:57Z</time>
      </trkpt>
      <trkpt lat="47.1125" lon="-1.58155">
        <ele>53</ele>
        <time>2022-01-01T13:55:59Z</time>
      </trkpt>
      <trkpt lat="47.11262" lon="-1.58144">
        <ele>53</ele>
        <time>2022-01-01T13:56:01Z</time>
      </trkpt>
      <trkpt lat="47.11273" lon="-1.58134">
        <ele>53</ele>
        <time>2022-01-01T13:56:03Z</time>
      </trkpt>
      <trkpt lat="47.11285" lon="-1.58124">
        <ele>53</ele>
        <time>2022-01-01T13:56:05Z</time>
      </trkpt>
      <trkpt lat="47.11297" lon="-1.58115">
        <ele>54</ele>
        <time>2022-01-01T13:56:07Z</time>
      </trkpt>
      <trkpt lat="47.1131" lon="-1.58106">
        <ele>54</ele>
        <time>2022-01-01T13:56:09Z</time>
      </trkpt>
      <trkpt lat="47.11321" lon="-1.58099">
        <ele>54</ele>
        <time>2022-01-01T13:56:11Z</time>
      </trkpt>
      <trkpt lat="47.11333" lon="-1.58092">
        <ele>54</ele>
        <time>2022-01-01T13:56:13Z</time>
      </trkpt>
      <trkpt lat="47.11344" lon="-1.58086">
        <ele>55</ele>
        <time>2022-01-01T13:56:15Z</time>
      </trkpt>
      <trkpt lat="47.11356" lon="-1.58079">
        <ele>55</ele>
        <time>2022-01-01T13:56:17Z</time>
      </trkpt>
      <trkpt lat="47.11368" lon="-1.58071">
        <ele>55</ele>
        <time>2022-01-01T13:56:19Z</time>
      </trkpt>
      <trkpt lat="47.1138" lon="-1.58063">
        <ele>55</ele>
        <time>2022-01-01T13:56:21Z</time>
      </trkpt>
      <trkpt lat="47.11392" lon="-1.58056">
        <ele>55</ele>
        <time>2022-01-01T13:56:23Z</time>
      </trkpt>
      <trkpt lat="47.11403" lon="-1.5805">
        <ele>55</ele>
        <time>2022-01-01T13:56:25Z</time>
      </trkpt>
      <trkpt lat="47.11415" lon="-1.58041">
        <ele>54</ele>
        <time>2022-01-01T13:56:27Z</time>
      </trkpt>
      <trkpt lat="47.11427" lon="-1.58034">
        <ele>54</ele>
        <time>2022-01-01T13:56:29Z</time>
      </trkpt>
      <trkpt lat="47.11439" lon="-1.58029">
        <ele>54</ele>
        <time>2022-01-01T13:56:31Z</time>
      </trkpt>
      <trkpt lat="47.11451" lon="-1.58024">
        <ele>54</ele>
        <time>2022-01-01T13:56:33Z</time>
      </trkpt>
      <trkpt lat="47.11463" lon="-1.58019">
        <ele>54</ele>
        <time>2022-01-01T13:56:35Z</time>
      </trkpt>
      <trkpt lat="47.11476" lon="-1.58015">
        <ele>55</ele>
        <time>2022-01-01T13:56:37Z</time>
      </trkpt>
      <trkpt lat="47.11488" lon="-1.58012">
        <ele>55</ele>
        <time>2022-01-01T13:56:39Z</time>
      </trkpt>
      <trkpt lat="47.115" lon="-1.5801">
        <ele>56</ele>
        <time>2022-01-01T13:56:41Z</time>
      </trkpt>
      <trkpt lat="47.11513" lon="-1.58008">
        <ele>56</ele>
        <time>2022-01-01T13:56:43Z</time>
      </trkpt>
      <trkpt lat="47.11525" lon="-1.58006">
        <ele>57</ele>
        <time>2022-01-01T13:56:45Z</time>
      </trkpt>
      <trkpt lat="47.11537" lon="-1.58005">
        <ele>58</ele>
        <time>2022-01-01T13:56:47Z</time>
      </trkpt>
      <trkpt lat="47.11549" lon="-1.58005">
        <ele>58</ele>
        <time>2022-01-01T13:56:49Z</time>
      </trkpt>
      <trkpt lat="47.1156" lon="-1.58006">
        <ele>59</ele>
        <time>2022-01-01T13:56:51Z</time>
      </trkpt>
      <trkpt lat="47.11572" lon="-1.58007">
        <ele>58</ele>
        <time>2022-01-01T13:56:53Z</time>
      </trkpt>
      <trkpt lat="47.11583" lon="-1.5801">
        <ele>58</ele>
        <time>2022-01-01T13:56:55Z</time>
      </trkpt>
      <trkpt lat="47.11595" lon="-1.58011">
        <ele>58</ele>
        <time>2022-01-01T13:56:57Z</time>
      </trkpt>
      <trkpt lat="47.11606" lon="-1.58011">
        <ele>58</ele>
        <time>2022-01-01T13:56:59Z</time>
      </trkpt>
      <trkpt lat="47.11617" lon="-1.58008">
        <ele>58</ele>
        <time>2022-01-01T13:57:01Z</time>
      </trkpt>
      <trkpt lat="47.11627" lon="-1.58005">
        <ele>58</ele>
        <time>2022-01-01T13:57:03Z</time>
      </trkpt>
      <trkpt lat="47.11636" lon="-1.58004">
        <ele>57</ele>
        <time>2022-01-01T13:57:05Z</time>
      </trkpt>
      <trkpt lat="47.11645" lon="-1.5801">
        <ele>57</ele>
        <time>2022-01-01T13:57:07Z</time>
      </trkpt>
      <trkpt lat="47.11653" lon="-1.58022">
        <ele>56</ele>
        <time>2022-01-01T13:57:09Z</time>
      </trkpt>
      <trkpt lat="47.11665" lon="-1.58028">
        <ele>55</ele>
        <time>2022-01-01T13:57:11Z</time>
      </trkpt>
      <trkpt lat="47.11676" lon="-1.58028">
        <ele>55</ele>
        <time>2022-01-01T13:57:13Z</time>
      </trkpt>
      <trkpt lat="47.11688" lon="-1.58029">
        <ele>55</ele>
        <time>2022-01-01T13:57:15Z</time>
      </trkpt>
      <trkpt lat="47.11699" lon="-1.58029">
        <ele>55</ele>
        <time>2022-01-01T13:57:17Z</time>
      </trkpt>
      <trkpt lat="47.11711" lon="-1.5803">
        <ele>55</ele>
        <time>2022-01-01T13:57:19Z</time>
      </trkpt>
      <trkpt lat="47.11723" lon="-1.58031">
        <ele>55</ele>
        <time>2022-01-01T13:57:21Z</time>
      </trkpt>
      <trkpt lat="47.11734" lon="-1.58033">
        <ele>55</ele>
        <time>2022-01-01T13:57:23Z</time>
      </trkpt>
      <trkpt lat="47.11745" lon="-1.58034">
        <ele>55</ele>
        <time>2022-01-01T13:57:25Z</time>
      </trkpt>
      <trkpt lat="47.11757" lon="-1.58036">
        <ele>56</ele>
        <time>2022-01-01T13:57:27Z</time>
      </trkpt>
      <trkpt lat="47.11768" lon="-1.58038">
        <ele>56</ele>
        <time>2022-01-01T13:57:29Z</time>
      </trkpt>
      <trkpt lat="47.11779" lon="-1.58041">
        <ele>56</ele>
        <time>2022-01-01T13:57:31Z</time>
      </trkpt>
      <trkpt lat="47.1179" lon="-1.58044">
        <ele>56</ele>
        <time>2022-01-01T13:57:33Z</time>
      </trkpt>
      <trkpt lat="47.11801" lon="-1.58046">
        <ele>56</ele>
        <time>2022-01-01T13:57:35Z</time>
      </trkpt>
      <trkpt lat="47.11812" lon="-1.58049">
        <ele>56</ele>
        <time>2022-01-01T13:57:37Z</time>
      </trkpt>
      <trkpt lat="47.11822" lon="-1.58052">
        <ele>56</ele>
        <time>2022-01-01T13:57:39Z</time>
      </trkpt>
      <trkpt lat="47.11833" lon="-1.58055">
        <ele>56</ele>
        <time>2022-01-01T13:57:41Z</time>
      </trkpt>
      <trkpt lat="47.11844" lon="-1.58057">
        <ele>56</ele>
        <time>2022-01-01T13:57:43Z</time>
      </trkpt>
      <trkpt lat="47.11854" lon="-1.58059">
        <ele>56</ele>
        <time>2022-01-01T13:57:45Z</time>
      </trkpt>
      <trkpt lat="47.11864" lon="-1.58062">
        <ele>57</ele>
        <time>2022-01-01T13:57:47Z</time>
      </trkpt>
      <trkpt lat="47.11874" lon="-1.58065">
        <ele>57</ele>
        <time>2022-01-01T13:57:49Z</time>
      </trkpt>
      <trkpt lat="47.11885" lon="-1.58067">
        <ele>57</ele>
        <time>2022-01-01T13:57:51Z</time>
      </trkpt>
      <trkpt lat="47.11896" lon="-1.5807">
        <ele>57</ele>
        <time>2022-01-01T13:57:53Z</time>
      </trkpt>
      <trkpt lat="47.11906" lon="-1.58073">
        <ele>57</ele>
        <time>2022-01-01T13:57:55Z</time>
      </trkpt>
      <trkpt lat="47.11916" lon="-1.58075">
        <ele>57</ele>
        <time>2022-01-01T13:57:57Z</time>
      </trkpt>
      <trkpt lat="47.11926" lon="-1.58078">
        <ele>57</ele>
        <time>2022-01-01T13:57:59Z</time>
      </trkpt>
      <trkpt lat="47.11937" lon="-1.5808">
        <ele>58</ele>
        <time>2022-01-01T13:58:01Z</time>
      </trkpt>
      <trkpt lat="47.11946" lon="-1.58082">
        <ele>58</ele>
        <time>2022-01-01T13:58:03Z</time>
      </trkpt>
      <trkpt lat="47.11956" lon="-1.58085">
        <ele>58</ele>
        <time>2022-01-01T13:58:05Z</time>
      </trkpt>
      <trkpt lat="47.11966" lon="-1.58087">
        <ele>59</ele>
        <time>2022-01-01T13:58:07Z</time>
      </trkpt>
      <trkpt lat="47.11975" lon="-1.5809">
        <ele>59</ele>
        <time>2022-01-01T13:58:09Z</time>
      </trkpt>
      <trkpt lat="47.11984" lon="-1.58093">
        <ele>59</ele>
        <time>2022-01-01T13:58:11Z</time>
      </trkpt>
      <trkpt lat="47.11994" lon="-1.58096">
        <ele>60</ele>
        <time>2022-01-01T13:58:13Z</time>
      </trkpt>
      <trkpt lat="47.12003" lon="-1.58098">
        <ele>60</ele>
        <time>2022-01-01T13:58:15Z</time>
      </trkpt>
      <trkpt lat="47.12012" lon="-1.58097">
        <ele>60</ele>
        <time>2022-01-01T13:58:17Z</time>
      </trkpt>
      <trkpt lat="47.12024" lon="-1.58098">
        <ele>60</ele>
        <time>2022-01-01T13:58:20Z</time>
      </trkpt>
      <trkpt lat="47.12032" lon="-1.58109">
        <ele>59</ele>
        <time>2022-01-01T13:58:22Z</time>
      </trkpt>
      <trkpt lat="47.12042" lon="-1.58117">
        <ele>59</ele>
        <time>2022-01-01T13:58:24Z</time>
      </trkpt>
      <trkpt lat="47.12052" lon="-1.58123">
        <ele>59</ele>
        <time>2022-01-01T13:58:26Z</time>
      </trkpt>
      <trkpt lat="47.12063" lon="-1.58129">
        <ele>59</ele>
        <time>2022-01-01T13:58:28Z</time>
      </trkpt>
      <trkpt lat="47.12074" lon="-1.58137">
        <ele>59</ele>
        <time>2022-01-01T13:58:30Z</time>
      </trkpt>
      <trkpt lat="47.12085" lon="-1.58144">
        <ele>59</ele>
        <time>2022-01-01T13:58:32Z</time>
      </trkpt>
      <trkpt lat="47.12096" lon="-1.58151">
        <ele>58</ele>
        <time>2022-01-01T13:58:34Z</time>
      </trkpt>
      <trkpt lat="47.12108" lon="-1.58159">
        <ele>58</ele>
        <time>2022-01-01T13:58:36Z</time>
      </trkpt>
      <trkpt lat="47.12119" lon="-1.58168">
        <ele>58</ele>
        <time>2022-01-01T13:58:38Z</time>
      </trkpt>
      <trkpt lat="47.12131" lon="-1.58178">
        <ele>58</ele>
        <time>2022-01-01T13:58:40Z</time>
      </trkpt>
      <trkpt lat="47.12142" lon="-1.58189">
        <ele>58</ele>
        <time>2022-01-01T13:58:42Z</time>
      </trkpt>
      <trkpt lat="47.12155" lon="-1.58201">
        <ele>58</ele>
        <time>2022-01-01T13:58:44Z</time>
      </trkpt>
      <trkpt lat="47.12168" lon="-1.58213">
        <ele>57</ele>
        <time>2022-01-01T13:58:46Z</time>
      </trkpt>
      <trkpt lat="47.1218" lon="-1.58226">
        <ele>57</ele>
        <time>2022-01-01T13:58:48Z</time>
      </trkpt>
      <trkpt lat="47.12192" lon="-1.58239">
        <ele>56</ele>
        <time>2022-01-01T13:58:50Z</time>
      </trkpt>
      <trkpt lat="47.12205" lon="-1.5825">
        <ele>55</ele>
        <time>2022-01-01T13:58:52Z</time>
      </trkpt>
      <trkpt lat="47.12216" lon="-1.58261">
        <ele>55</ele>
        <time>2022-01-01T13:58:54Z</time>
      </trkpt>
      <trkpt lat="47.12227" lon="-1.58271">
        <ele>54</ele>
        <time>2022-01-01T13:58:56Z</time>
      </trkpt>
      <trkpt lat="47.12238" lon="-1.58282">
        <ele>54</ele>
        <time>2022-01-01T13:58:58Z</time>
      </trkpt>
      <trkpt lat="47.12249" lon="-1.58292">
        <ele>53</ele>
        <time>2022-01-01T13:59:00Z</time>
      </trkpt>
      <trkpt lat="47.1226" lon="-1.58302">
        <ele>53</ele>
        <time>2022-01-01T13:59:02Z</time>
      </trkpt>
      <trkpt lat="47.1227" lon="-1.58313">
        <ele>53</ele>
        <time>2022-01-01T13:59:04Z</time>
      </trkpt>
      <trkpt lat="47.1228" lon="-1.58323">
        <ele>53</ele>
        <time>2022-01-01T13:59:06Z</time>
      </trkpt>
      <trkpt lat="47.1229" lon="-1.58332">
        <ele>53</ele>
        <time>2022-01-01T13:59:08Z</time>
      </trkpt>
      <trkpt lat="47.12298" lon="-1.58341">
        <ele>53</ele>
        <time>2022-01-01T13:59:10Z</time>
      </trkpt>
      <trkpt lat="47.12304" lon="-1.58354">
        <ele>54</ele>
        <time>2022-01-01T13:59:12Z</time>
      </trkpt>
      <trkpt lat="47.12305" lon="-1.58369">
        <ele>53</ele>
        <time>2022-01-01T13:59:14Z</time>
      </trkpt>
      <trkpt lat="47.12306" lon="-1.58385">
        <ele>54</ele>
        <time>2022-01-01T13:59:16Z</time>
      </trkpt>
      <trkpt lat="47.1231" lon="-1.584">
        <ele>54</ele>
        <time>2022-01-01T13:59:18Z</time>
      </trkpt>
      <trkpt lat="47.12315" lon="-1.58415">
        <ele>54</ele>
        <time>2022-01-01T13:59:20Z</time>
      </trkpt>
      <trkpt lat="47.12323" lon="-1.58426">
        <ele>54</ele>
        <time>2022-01-01T13:59:22Z</time>
      </trkpt>
      <trkpt lat="47.12331" lon="-1.58433">
        <ele>55</ele>
        <time>2022-01-01T13:59:24Z</time>
      </trkpt>
      <trkpt lat="47.12335" lon="-1.58448">
        <ele>55</ele>
        <time>2022-01-01T13:59:26Z</time>
      </trkpt>
      <trkpt lat="47.12337" lon="-1.58465">
        <ele>55</ele>
        <time>2022-01-01T13:59:28Z</time>
      </trkpt>
      <trkpt lat="47.12341" lon="-1.58482">
        <ele>55</ele>
        <time>2022-01-01T13:59:30Z</time>
      </trkpt>
      <trkpt lat="47.12346" lon="-1.58499">
        <ele>55</ele>
        <time>2022-01-01T13:59:32Z</time>
      </trkpt>
      <trkpt lat="47.1235" lon="-1.58516">
        <ele>55</ele>
        <time>2022-01-01T13:59:34Z</time>
      </trkpt>
      <trkpt lat="47.12354" lon="-1.58532">
        <ele>55</ele>
        <time>2022-01-01T13:59:36Z</time>
      </trkpt>
      <trkpt lat="47.12357" lon="-1.58548">
        <ele>56</ele>
        <time>2022-01-01T13:59:38Z</time>
      </trkpt>
      <trkpt lat="47.1236" lon="-1.58563">
        <ele>56</ele>
        <time>2022-01-01T13:59:40Z</time>
      </trkpt>
      <trkpt lat="47.12364" lon="-1.58578">
        <ele>55</ele>
        <time>2022-01-01T13:59:42Z</time>
      </trkpt>
      <trkpt lat="47.12368" lon="-1.58593">
        <ele>56</ele>
        <time>2022-01-01T13:59:44Z</time>
      </trkpt>
      <trkpt lat="47.12372" lon="-1.58609">
        <ele>56</ele>
        <time>2022-01-01T13:59:46Z</time>
      </trkpt>
      <trkpt lat="47.12375" lon="-1.58625">
        <ele>56</ele>
        <time>2022-01-01T13:59:48Z</time>
      </trkpt>
      <trkpt lat="47.12378" lon="-1.5864">
        <ele>56</ele>
        <time>2022-01-01T13:59:50Z</time>
      </trkpt>
      <trkpt lat="47.12382" lon="-1.58656">
        <ele>56</ele>
        <time>2022-01-01T13:59:52Z</time>
      </trkpt>
      <trkpt lat="47.12385" lon="-1.58671">
        <ele>56</ele>
        <time>2022-01-01T13:59:54Z</time>
      </trkpt>
      <trkpt lat="47.12389" lon="-1.58686">
        <ele>56</ele>
        <time>2022-01-01T13:59:56Z</time>
      </trkpt>
      <trkpt lat="47.12392" lon="-1.587">
        <ele>56</ele>
        <time>2022-01-01T13:59:58Z</time>
      </trkpt>
      <trkpt lat="47.12395" lon="-1.58714">
        <ele>57</ele>
        <time>2022-01-01T14:00:00Z</time>
      </trkpt>
      <trkpt lat="47.12397" lon="-1.58729">
        <ele>57</ele>
        <time>2022-01-01T14:00:02Z</time>
      </trkpt>
      <trkpt lat="47.12401" lon="-1.58744">
        <ele>57</ele>
        <time>2022-01-01T14:00:04Z</time>
      </trkpt>
      <trkpt lat="47.12403" lon="-1.58759">
        <ele>57</ele>
        <time>2022-01-01T14:00:06Z</time>
      </trkpt>
      <trkpt lat="47.12406" lon="-1.58774">
        <ele>58</ele>
        <time>2022-01-01T14:00:08Z</time>
      </trkpt>
      <trkpt lat="47.12408" lon="-1.58789">
        <ele>58</ele>
        <time>2022-01-01T14:00:10Z</time>
      </trkpt>
      <trkpt lat="47.12411" lon="-1.58805">
        <ele>58</ele>
        <time>2022-01-01T14:00:12Z</time>
      </trkpt>
      <trkpt lat="47.12413" lon="-1.58819">
        <ele>59</ele>
        <time>2022-01-01T14:00:14Z</time>
      </trkpt>
      <trkpt lat="47.12415" lon="-1.58834">
        <ele>59</ele>
        <time>2022-01-01T14:00:16Z</time>
      </trkpt>
      <trkpt lat="47.12416" lon="-1.58849">
        <ele>59</ele>
        <time>2022-01-01T14:00:18Z</time>
      </trkpt>
      <trkpt lat="47.12418" lon="-1.58864">
        <ele>59</ele>
        <time>2022-01-01T14:00:20Z</time>
      </trkpt>
      <trkpt lat="47.12419" lon="-1.58879">
        <ele>58</ele>
        <time>2022-01-01T14:00:22Z</time>
      </trkpt>
      <trkpt lat="47.12421" lon="-1.58895">
        <ele>58</ele>
        <time>2022-01-01T14:00:24Z</time>
      </trkpt>
      <trkpt lat="47.12423" lon="-1.58912">
        <ele>58</ele>
        <time>2022-01-01T14:00:26Z</time>
      </trkpt>
      <trkpt lat="47.12424" lon="-1.58929">
        <ele>57</ele>
        <time>2022-01-01T14:00:28Z</time>
      </trkpt>
      <trkpt lat="47.12426" lon="-1.58947">
        <ele>57</ele>
        <time>2022-01-01T14:00:30Z</time>
      </trkpt>
      <trkpt lat="47.12427" lon="-1.58967">
        <ele>56</ele>
        <time>2022-01-01T14:00:32Z</time>
      </trkpt>
      <trkpt lat="47.12428" lon="-1.58987">
        <ele>55</ele>
        <time>2022-01-01T14:00:34Z</time>
      </trkpt>
      <trkpt lat="47.12428" lon="-1.59007">
        <ele>54</ele>
        <time>2022-01-01T14:00:36Z</time>
      </trkpt>
      <trkpt lat="47.1243" lon="-1.59028">
        <ele>54</ele>
        <time>2022-01-01T14:00:38Z</time>
      </trkpt>
      <trkpt lat="47.1243" lon="-1.59049">
        <ele>54</ele>
        <time>2022-01-01T14:00:40Z</time>
      </trkpt>
      <trkpt lat="47.12431" lon="-1.5907">
        <ele>54</ele>
        <time>2022-01-01T14:00:42Z</time>
      </trkpt>
      <trkpt lat="47.12432" lon="-1.5909">
        <ele>54</ele>
        <time>2022-01-01T14:00:44Z</time>
      </trkpt>
      <trkpt lat="47.12433" lon="-1.59109">
        <ele>54</ele>
        <time>2022-01-01T14:00:46Z</time>
      </trkpt>
      <trkpt lat="47.12434" lon="-1.59128">
        <ele>53</ele>
        <time>2022-01-01T14:00:48Z</time>
      </trkpt>
      <trkpt lat="47.12435" lon="-1.59146">
        <ele>53</ele>
        <time>2022-01-01T14:00:50Z</time>
      </trkpt>
      <trkpt lat="47.12437" lon="-1.59164">
        <ele>53</ele>
        <time>2022-01-01T14:00:52Z</time>
      </trkpt>
      <trkpt lat="47.12441" lon="-1.5918">
        <ele>53</ele>
        <time>2022-01-01T14:00:54Z</time>
      </trkpt>
      <trkpt lat="47.12442" lon="-1.59196">
        <ele>53</ele>
        <time>2022-01-01T14:00:56Z</time>
      </trkpt>
      <trkpt lat="47.12441" lon="-1.59212">
        <ele>53</ele>
        <time>2022-01-01T14:00:58Z</time>
      </trkpt>
      <trkpt lat="47.1244" lon="-1.59228">
        <ele>53</ele>
        <time>2022-01-01T14:01:00Z</time>
      </trkpt>
      <trkpt lat="47.1244" lon="-1.59245">
        <ele>53</ele>
        <time>2022-01-01T14:01:02Z</time>
      </trkpt>
      <trkpt lat="47.12441" lon="-1.59261">
        <ele>54</ele>
        <time>2022-01-01T14:01:04Z</time>
      </trkpt>
      <trkpt lat="47.12442" lon="-1.59278">
        <ele>54</ele>
        <time>2022-01-01T14:01:06Z</time>
      </trkpt>
      <trkpt lat="47.12443" lon="-1.59295">
        <ele>54</ele>
        <time>2022-01-01T14:01:08Z</time>
      </trkpt>
      <trkpt lat="47.12443" lon="-1.59312">
        <ele>54</ele>
        <time>2022-01-01T14:01:10Z</time>
      </trkpt>
      <trkpt lat="47.12444" lon="-1.59328">
        <ele>54</ele>
        <time>2022-01-01T14:01:12Z</time>
      </trkpt>
      <trkpt lat="47.12446" lon="-1.59345">
        <ele>54</ele>
        <time>2022-01-01T14:01:14Z</time>
      </trkpt>
      <trkpt lat="47.12446" lon="-1.5936">
        <ele>54</ele>
        <time>2022-01-01T14:01:16Z</time>
      </trkpt>
      <trkpt lat="47.12447" lon="-1.59377">
        <ele>54</ele>
        <time>2022-01-01T14:01:18Z</time>
      </trkpt>
      <trkpt lat="47.12448" lon="-1.59393">
        <ele>54</ele>
        <time>2022-01-01T14:01:20Z</time>
      </trkpt>
      <trkpt lat="47.12449" lon="-1.59409">
        <ele>54</ele>
        <time>2022-01-01T14:01:22Z</time>
      </trkpt>
      <trkpt lat="47.1245" lon="-1.59425">
        <ele>54</ele>
        <time>2022-01-01T14:01:24Z</time>
      </trkpt>
      <trkpt lat="47.1245" lon="-1.59441">
        <ele>54</ele>
        <time>2022-01-01T14:01:26Z</time>
      </trkpt>
      <trkpt lat="47.12451" lon="-1.59456">
        <ele>54</ele>
        <time>2022-01-01T14:01:28Z</time>
      </trkpt>
      <trkpt lat="47.12452" lon="-1.59472">
        <ele>54</ele>
        <time>2022-01-01T14:01:30Z</time>
      </trkpt>
      <trkpt lat="47.12452" lon="-1.59488">
        <ele>55</ele>
        <time>2022-01-01T14:01:32Z</time>
      </trkpt>
      <trkpt lat="47.12453" lon="-1.59503">
        <ele>55</ele>
        <time>2022-01-01T14:01:34Z</time>
      </trkpt>
      <trkpt lat="47.12454" lon="-1.59519">
        <ele>55</ele>
        <time>2022-01-01T14:01:36Z</time>
      </trkpt>
      <trkpt lat="47.12455" lon="-1.59534">
        <ele>54</ele>
        <time>2022-01-01T14:01:38Z</time>
      </trkpt>
      <trkpt lat="47.12456" lon="-1.5955">
        <ele>55</ele>
        <time>2022-01-01T14:01:40Z</time>
      </trkpt>
      <trkpt lat="47.12456" lon="-1.59565">
        <ele>55</ele>
        <time>2022-01-01T14:01:42Z</time>
      </trkpt>
      <trkpt lat="47.12457" lon="-1.5958">
        <ele>55</ele>
        <time>2022-01-01T14:01:44Z</time>
      </trkpt>
      <trkpt lat="47.12458" lon="-1.59596">
        <ele>55</ele>
        <time>2022-01-01T14:01:46Z</time>
      </trkpt>
      <trkpt lat="47.12459" lon="-1.59612">
        <ele>55</ele>
        <time>2022-01-01T14:01:48Z</time>
      </trkpt>
      <trkpt lat="47.12459" lon="-1.59627">
        <ele>55</ele>
        <time>2022-01-01T14:01:50Z</time>
      </trkpt>
      <trkpt lat="47.1246" lon="-1.59643">
        <ele>55</ele>
        <time>2022-01-01T14:01:52Z</time>
      </trkpt>
      <trkpt lat="47.12461" lon="-1.59659">
        <ele>55</ele>
        <time>2022-01-01T14:01:54Z</time>
      </trkpt>
      <trkpt lat="47.12462" lon="-1.59674">
        <ele>55</ele>
        <time>2022-01-01T14:01:56Z</time>
      </trkpt>
      <trkpt lat="47.12463" lon="-1.5969">
        <ele>55</ele>
        <time>2022-01-01T14:01:58Z</time>
      </trkpt>
      <trkpt lat="47.12464" lon="-1.59705">
        <ele>55</ele>
        <time>2022-01-01T14:02:00Z</time>
      </trkpt>
      <trkpt lat="47.12464" lon="-1.59721">
        <ele>55</ele>
        <time>2022-01-01T14:02:02Z</time>
      </trkpt>
      <trkpt lat="47.12465" lon="-1.59736">
        <ele>55</ele>
        <time>2022-01-01T14:02:04Z</time>
      </trkpt>
      <trkpt lat="47.12465" lon="-1.59752">
        <ele>55</ele>
        <time>2022-01-01T14:02:06Z</time>
      </trkpt>
      <trkpt lat="47.12466" lon="-1.59767">
        <ele>55</ele>
        <time>2022-01-01T14:02:08Z</time>
      </trkpt>
      <trkpt lat="47.12467" lon="-1.59783">
        <ele>55</ele>
        <time>2022-01-01T14:02:10Z</time>
      </trkpt>
      <trkpt lat="47.12468" lon="-1.59799">
        <ele>55</ele>
        <time>2022-01-01T14:02:12Z</time>
      </trkpt>
      <trkpt lat="47.12469" lon="-1.59815">
        <ele>55</ele>
        <time>2022-01-01T14:02:14Z</time>
      </trkpt>
      <trkpt lat="47.1247" lon="-1.5983">
        <ele>56</ele>
        <time>2022-01-01T14:02:16Z</time>
      </trkpt>
      <trkpt lat="47.12471" lon="-1.59845">
        <ele>56</ele>
        <time>2022-01-01T14:02:18Z</time>
      </trkpt>
      <trkpt lat="47.12471" lon="-1.5986">
        <ele>56</ele>
        <time>2022-01-01T14:02:20Z</time>
      </trkpt>
      <trkpt lat="47.12472" lon="-1.59876">
        <ele>57</ele>
        <time>2022-01-01T14:02:22Z</time>
      </trkpt>
      <trkpt lat="47.12472" lon="-1.59892">
        <ele>57</ele>
        <time>2022-01-01T14:02:24Z</time>
      </trkpt>
      <trkpt lat="47.12472" lon="-1.59908">
        <ele>57</ele>
        <time>2022-01-01T14:02:26Z</time>
      </trkpt>
      <trkpt lat="47.12473" lon="-1.59925">
        <ele>57</ele>
        <time>2022-01-01T14:02:28Z</time>
      </trkpt>
      <trkpt lat="47.12474" lon="-1.59943">
        <ele>56</ele>
        <time>2022-01-01T14:02:30Z</time>
      </trkpt>
      <trkpt lat="47.12475" lon="-1.59961">
        <ele>56</ele>
        <time>2022-01-01T14:02:32Z</time>
      </trkpt>
      <trkpt lat="47.12476" lon="-1.59978">
        <ele>56</ele>
        <time>2022-01-01T14:02:34Z</time>
      </trkpt>
      <trkpt lat="47.12477" lon="-1.59995">
        <ele>55</ele>
        <time>2022-01-01T14:02:36Z</time>
      </trkpt>
      <trkpt lat="47.12478" lon="-1.60013">
        <ele>55</ele>
        <time>2022-01-01T14:02:38Z</time>
      </trkpt>
      <trkpt lat="47.12478" lon="-1.60029">
        <ele>55</ele>
        <time>2022-01-01T14:02:40Z</time>
      </trkpt>
      <trkpt lat="47.12479" lon="-1.60046">
        <ele>55</ele>
        <time>2022-01-01T14:02:42Z</time>
      </trkpt>
      <trkpt lat="47.12479" lon="-1.60064">
        <ele>54</ele>
        <time>2022-01-01T14:02:44Z</time>
      </trkpt>
      <trkpt lat="47.12481" lon="-1.60081">
        <ele>54</ele>
        <time>2022-01-01T14:02:46Z</time>
      </trkpt>
      <trkpt lat="47.12482" lon="-1.60099">
        <ele>54</ele>
        <time>2022-01-01T14:02:48Z</time>
      </trkpt>
      <trkpt lat="47.12483" lon="-1.60117">
        <ele>54</ele>
        <time>2022-01-01T14:02:50Z</time>
      </trkpt>
      <trkpt lat="47.12484" lon="-1.60136">
        <ele>54</ele>
        <time>2022-01-01T14:02:52Z</time>
      </trkpt>
      <trkpt lat="47.12485" lon="-1.60154">
        <ele>53</ele>
        <time>2022-01-01T14:02:54Z</time>
      </trkpt>
      <trkpt lat="47.12486" lon="-1.60172">
        <ele>53</ele>
        <time>2022-01-01T14:02:56Z</time>
      </trkpt>
      <trkpt lat="47.12487" lon="-1.60189">
        <ele>52</ele>
        <time>2022-01-01T14:02:58Z</time>
      </trkpt>
      <trkpt lat="47.12489" lon="-1.60208">
        <ele>52</ele>
        <time>2022-01-01T14:03:00Z</time>
      </trkpt>
      <trkpt lat="47.12492" lon="-1.60225">
        <ele>52</ele>
        <time>2022-01-01T14:03:02Z</time>
      </trkpt>
      <trkpt lat="47.12495" lon="-1.60243">
        <ele>52</ele>
        <time>2022-01-01T14:03:04Z</time>
      </trkpt>
      <trkpt lat="47.12498" lon="-1.6026">
        <ele>52</ele>
        <time>2022-01-01T14:03:06Z</time>
      </trkpt>
      <trkpt lat="47.12502" lon="-1.60277">
        <ele>51</ele>
        <time>2022-01-01T14:03:08Z</time>
      </trkpt>
      <trkpt lat="47.12505" lon="-1.60294">
        <ele>52</ele>
        <time>2022-01-01T14:03:10Z</time>
      </trkpt>
      <trkpt lat="47.12508" lon="-1.6031">
        <ele>52</ele>
        <time>2022-01-01T14:03:12Z</time>
      </trkpt>
      <trkpt lat="47.12511" lon="-1.60326">
        <ele>52</ele>
        <time>2022-01-01T14:03:14Z</time>
      </trkpt>
      <trkpt lat="47.12514" lon="-1.60342">
        <ele>52</ele>
        <time>2022-01-01T14:03:16Z</time>
      </trkpt>
      <trkpt lat="47.12517" lon="-1.60358">
        <ele>52</ele>
        <time>2022-01-01T14:03:18Z</time>
      </trkpt>
      <trkpt lat="47.12521" lon="-1.60374">
        <ele>53</ele>
        <time>2022-01-01T14:03:20Z</time>
      </trkpt>
      <trkpt lat="47.12524" lon="-1.60391">
        <ele>53</ele>
        <time>2022-01-01T14:03:22Z</time>
      </trkpt>
      <trkpt lat="47.12527" lon="-1.60406">
        <ele>53</ele>
        <time>2022-01-01T14:03:24Z</time>
      </trkpt>
      <trkpt lat="47.1253" lon="-1.60422">
        <ele>53</ele>
        <time>2022-01-01T14:03:26Z</time>
      </trkpt>
      <trkpt lat="47.12533" lon="-1.60437">
        <ele>54</ele>
        <time>2022-01-01T14:03:28Z</time>
      </trkpt>
      <trkpt lat="47.12536" lon="-1.60452">
        <ele>54</ele>
        <time>2022-01-01T14:03:30Z</time>
      </trkpt>
      <trkpt lat="47.12539" lon="-1.60467">
        <ele>54</ele>
        <time>2022-01-01T14:03:32Z</time>
      </trkpt>
      <trkpt lat="47.12541" lon="-1.60482">
        <ele>54</ele>
        <time>2022-01-01T14:03:34Z</time>
      </trkpt>
      <trkpt lat="47.12542" lon="-1.60497">
        <ele>54</ele>
        <time>2022-01-01T14:03:36Z</time>
      </trkpt>
      <trkpt lat="47.12544" lon="-1.60512">
        <ele>55</ele>
        <time>2022-01-01T14:03:38Z</time>
      </trkpt>
      <trkpt lat="47.12545" lon="-1.60527">
        <ele>55</ele>
        <time>2022-01-01T14:03:40Z</time>
      </trkpt>
      <trkpt lat="47.12546" lon="-1.60543">
        <ele>55</ele>
        <time>2022-01-01T14:03:42Z</time>
      </trkpt>
      <trkpt lat="47.12547" lon="-1.60558">
        <ele>55</ele>
        <time>2022-01-01T14:03:44Z</time>
      </trkpt>
      <trkpt lat="47.12547" lon="-1.60573">
        <ele>55</ele>
        <time>2022-01-01T14:03:46Z</time>
      </trkpt>
      <trkpt lat="47.12548" lon="-1.60587">
        <ele>55</ele>
        <time>2022-01-01T14:03:48Z</time>
      </trkpt>
      <trkpt lat="47.12548" lon="-1.60602">
        <ele>55</ele>
        <time>2022-01-01T14:03:50Z</time>
      </trkpt>
      <trkpt lat="47.12548" lon="-1.60618">
        <ele>55</ele>
        <time>2022-01-01T14:03:52Z</time>
      </trkpt>
      <trkpt lat="47.12548" lon="-1.60633">
        <ele>55</ele>
        <time>2022-01-01T14:03:54Z</time>
      </trkpt>
      <trkpt lat="47.12548" lon="-1.60649">
        <ele>55</ele>
        <time>2022-01-01T14:03:56Z</time>
      </trkpt>
      <trkpt lat="47.12548" lon="-1.60664">
        <ele>56</ele>
        <time>2022-01-01T14:03:58Z</time>
      </trkpt>
      <trkpt lat="47.12548" lon="-1.60679">
        <ele>55</ele>
        <time>2022-01-01T14:04:00Z</time>
      </trkpt>
      <trkpt lat="47.12548" lon="-1.60695">
        <ele>55</ele>
        <time>2022-01-01T14:04:02Z</time>
      </trkpt>
      <trkpt lat="47.12549" lon="-1.6071">
        <ele>55</ele>
        <time>2022-01-01T14:04:04Z</time>
      </trkpt>
      <trkpt lat="47.12549" lon="-1.60725">
        <ele>55</ele>
        <time>2022-01-01T14:04:06Z</time>
      </trkpt>
      <trkpt lat="47.12548" lon="-1.60741">
        <ele>55</ele>
        <time>2022-01-01T14:04:08Z</time>
      </trkpt>
      <trkpt lat="47.12547" lon="-1.60756">
        <ele>55</ele>
        <time>2022-01-01T14:04:10Z</time>
      </trkpt>
      <trkpt lat="47.12546" lon="-1.60771">
        <ele>56</ele>
        <time>2022-01-01T14:04:12Z</time>
      </trkpt>
      <trkpt lat="47.12545" lon="-1.60786">
        <ele>56</ele>
        <time>2022-01-01T14:04:14Z</time>
      </trkpt>
      <trkpt lat="47.12544" lon="-1.60801">
        <ele>56</ele>
        <time>2022-01-01T14:04:16Z</time>
      </trkpt>
      <trkpt lat="47.12542" lon="-1.60815">
        <ele>56</ele>
        <time>2022-01-01T14:04:18Z</time>
      </trkpt>
      <trkpt lat="47.12541" lon="-1.60829">
        <ele>56</ele>
        <time>2022-01-01T14:04:20Z</time>
      </trkpt>
      <trkpt lat="47.12545" lon="-1.60845">
        <ele>56</ele>
        <time>2022-01-01T14:04:23Z</time>
      </trkpt>
      <trkpt lat="47.12557" lon="-1.60845">
        <ele>57</ele>
        <time>2022-01-01T14:04:26Z</time>
      </trkpt>
      <trkpt lat="47.12569" lon="-1.60841">
        <ele>58</ele>
        <time>2022-01-01T14:04:29Z</time>
      </trkpt>
      <trkpt lat="47.12581" lon="-1.60834">
        <ele>58</ele>
        <time>2022-01-01T14:04:32Z</time>
      </trkpt>
      <trkpt lat="47.12592" lon="-1.6083">
        <ele>58</ele>
        <time>2022-01-01T14:04:34Z</time>
      </trkpt>
      <trkpt lat="47.12603" lon="-1.60826">
        <ele>58</ele>
        <time>2022-01-01T14:04:36Z</time>
      </trkpt>
      <trkpt lat="47.12615" lon="-1.60823">
        <ele>58</ele>
        <time>2022-01-01T14:04:38Z</time>
      </trkpt>
      <trkpt lat="47.12626" lon="-1.60819">
        <ele>58</ele>
        <time>2022-01-01T14:04:40Z</time>
      </trkpt>
      <trkpt lat="47.12637" lon="-1.60815">
        <ele>58</ele>
        <time>2022-01-01T14:04:42Z</time>
      </trkpt>
      <trkpt lat="47.12648" lon="-1.60812">
        <ele>59</ele>
        <time>2022-01-01T14:04:44Z</time>
      </trkpt>
      <trkpt lat="47.12659" lon="-1.60808">
        <ele>59</ele>
        <time>2022-01-01T14:04:46Z</time>
      </trkpt>
      <trkpt lat="47.1267" lon="-1.60804">
        <ele>59</ele>
        <time>2022-01-01T14:04:48Z</time>
      </trkpt>
      <trkpt lat="47.12681" lon="-1.60801">
        <ele>59</ele>
        <time>2022-01-01T14:04:50Z</time>
      </trkpt>
      <trkpt lat="47.12691" lon="-1.60797">
        <ele>59</ele>
        <time>2022-01-01T14:04:52Z</time>
      </trkpt>
      <trkpt lat="47.12701" lon="-1.60792">
        <ele>59</ele>
        <time>2022-01-01T14:04:54Z</time>
      </trkpt>
      <trkpt lat="47.12711" lon="-1.60789">
        <ele>60</ele>
        <time>2022-01-01T14:04:56Z</time>
      </trkpt>
      <trkpt lat="47.1272" lon="-1.60786">
        <ele>60</ele>
        <time>2022-01-01T14:04:58Z</time>
      </trkpt>
      <trkpt lat="47.12727" lon="-1.60804">
        <ele>61</ele>
        <time>2022-01-01T14:05:01Z</time>
      </trkpt>
      <trkpt lat="47.12724" lon="-1.6082">
        <ele>60</ele>
        <time>2022-01-01T14:05:03Z</time>
      </trkpt>
      <trkpt lat="47.1272" lon="-1.60835">
        <ele>60</ele>
        <time>2022-01-01T14:05:05Z</time>
      </trkpt>
      <trkpt lat="47.12715" lon="-1.6085">
        <ele>60</ele>
        <time>2022-01-01T14:05:07Z</time>
      </trkpt>
      <trkpt lat="47.1271" lon="-1.60864">
        <ele>59</ele>
        <time>2022-01-01T14:05:09Z</time>
      </trkpt>
      <trkpt lat="47.12705" lon="-1.60879">
        <ele>60</ele>
        <time>2022-01-01T14:05:11Z</time>
      </trkpt>
      <trkpt lat="47.12702" lon="-1.60894">
        <ele>60</ele>
        <time>2022-01-01T14:05:13Z</time>
      </trkpt>
      <trkpt lat="47.127" lon="-1.60909">
        <ele>60</ele>
        <time>2022-01-01T14:05:15Z</time>
      </trkpt>
      <trkpt lat="47.12697" lon="-1.60924">
        <ele>60</ele>
        <time>2022-01-01T14:05:17Z</time>
      </trkpt>
      <trkpt lat="47.12696" lon="-1.6094">
        <ele>61</ele>
        <time>2022-01-01T14:05:19Z</time>
      </trkpt>
      <trkpt lat="47.12695" lon="-1.60956">
        <ele>61</ele>
        <time>2022-01-01T14:05:21Z</time>
      </trkpt>
      <trkpt lat="47.12695" lon="-1.60972">
        <ele>61</ele>
        <time>2022-01-01T14:05:23Z</time>
      </trkpt>
      <trkpt lat="47.12695" lon="-1.60988">
        <ele>61</ele>
        <time>2022-01-01T14:05:25Z</time>
      </trkpt>
      <trkpt lat="47.12694" lon="-1.61004">
        <ele>61</ele>
        <time>2022-01-01T14:05:27Z</time>
      </trkpt>
      <trkpt lat="47.12693" lon="-1.6102">
        <ele>61</ele>
        <time>2022-01-01T14:05:29Z</time>
      </trkpt>
      <trkpt lat="47.12693" lon="-1.61035">
        <ele>61</ele>
        <time>2022-01-01T14:05:31Z</time>
      </trkpt>
      <trkpt lat="47.12692" lon="-1.6105">
        <ele>61</ele>
        <time>2022-01-01T14:05:33Z</time>
      </trkpt>
      <trkpt lat="47.12691" lon="-1.61065">
        <ele>61</ele>
        <time>2022-01-01T14:05:35Z</time>
      </trkpt>
      <trkpt lat="47.1269" lon="-1.6108">
        <ele>61</ele>
        <time>2022-01-01T14:05:37Z</time>
      </trkpt>
      <trkpt lat="47.12689" lon="-1.61095">
        <ele>61</ele>
        <time>2022-01-01T14:05:39Z</time>
      </trkpt>
      <trkpt lat="47.12688" lon="-1.61111">
        <ele>61</ele>
        <time>2022-01-01T14:05:41Z</time>
      </trkpt>
      <trkpt lat="47.12686" lon="-1.61126">
        <ele>60</ele>
        <time>2022-01-01T14:05:43Z</time>
      </trkpt>
      <trkpt lat="47.12685" lon="-1.61141">
        <ele>60</ele>
        <time>2022-01-01T14:05:45Z</time>
      </trkpt>
      <trkpt lat="47.12683" lon="-1.61157">
        <ele>59</ele>
        <time>2022-01-01T14:05:47Z</time>
      </trkpt>
      <trkpt lat="47.1268" lon="-1.61173">
        <ele>59</ele>
        <time>2022-01-01T14:05:49Z</time>
      </trkpt>
      <trkpt lat="47.12678" lon="-1.61188">
        <ele>59</ele>
        <time>2022-01-01T14:05:51Z</time>
      </trkpt>
      <trkpt lat="47.12675" lon="-1.61203">
        <ele>59</ele>
        <time>2022-01-01T14:05:53Z</time>
      </trkpt>
      <trkpt lat="47.12672" lon="-1.61226">
        <ele>59</ele>
        <time>2022-01-01T14:05:56Z</time>
      </trkpt>
      <trkpt lat="47.12672" lon="-1.61241">
        <ele>58</ele>
        <time>2022-01-01T14:05:58Z</time>
      </trkpt>
      <trkpt lat="47.12672" lon="-1.61256">
        <ele>58</ele>
        <time>2022-01-01T14:06:00Z</time>
      </trkpt>
      <trkpt lat="47.12677" lon="-1.61277">
        <ele>59</ele>
        <time>2022-01-01T14:06:03Z</time>
      </trkpt>
      <trkpt lat="47.12681" lon="-1.6129">
        <ele>59</ele>
        <time>2022-01-01T14:06:05Z</time>
      </trkpt>
      <trkpt lat="47.12685" lon="-1.61305">
        <ele>59</ele>
        <time>2022-01-01T14:06:07Z</time>
      </trkpt>
      <trkpt lat="47.1269" lon="-1.6132">
        <ele>59</ele>
        <time>2022-01-01T14:06:09Z</time>
      </trkpt>
      <trkpt lat="47.12695" lon="-1.61335">
        <ele>59</ele>
        <time>2022-01-01T14:06:11Z</time>
      </trkpt>
      <trkpt lat="47.12699" lon="-1.61347">
        <ele>61</ele>
        <time>2022-01-01T14:06:13Z</time>
      </trkpt>
      <trkpt lat="47.12704" lon="-1.61361">
        <ele>62</ele>
        <time>2022-01-01T14:06:15Z</time>
      </trkpt>
      <trkpt lat="47.12709" lon="-1.61374">
        <ele>64</ele>
        <time>2022-01-01T14:06:17Z</time>
      </trkpt>
      <trkpt lat="47.12715" lon="-1.61387">
        <ele>65</ele>
        <time>2022-01-01T14:06:19Z</time>
      </trkpt>
      <trkpt lat="47.1272" lon="-1.614">
        <ele>65</ele>
        <time>2022-01-01T14:06:21Z</time>
      </trkpt>
      <trkpt lat="47.12727" lon="-1.61415">
        <ele>65</ele>
        <time>2022-01-01T14:06:23Z</time>
      </trkpt>
      <trkpt lat="47.12734" lon="-1.61429">
        <ele>65</ele>
        <time>2022-01-01T14:06:25Z</time>
      </trkpt>
      <trkpt lat="47.1274" lon="-1.61442">
        <ele>65</ele>
        <time>2022-01-01T14:06:27Z</time>
      </trkpt>
      <trkpt lat="47.12747" lon="-1.61456">
        <ele>65</ele>
        <time>2022-01-01T14:06:29Z</time>
      </trkpt>
      <trkpt lat="47.12753" lon="-1.6147">
        <ele>65</ele>
        <time>2022-01-01T14:06:31Z</time>
      </trkpt>
      <trkpt lat="47.12759" lon="-1.61483">
        <ele>65</ele>
        <time>2022-01-01T14:06:33Z</time>
      </trkpt>
      <trkpt lat="47.12766" lon="-1.61497">
        <ele>64</ele>
        <time>2022-01-01T14:06:35Z</time>
      </trkpt>
      <trkpt lat="47.1277" lon="-1.61512">
        <ele>63</ele>
        <time>2022-01-01T14:06:37Z</time>
      </trkpt>
      <trkpt lat="47.12775" lon="-1.61527">
        <ele>62</ele>
        <time>2022-01-01T14:06:39Z</time>
      </trkpt>
      <trkpt lat="47.12781" lon="-1.61542">
        <ele>61</ele>
        <time>2022-01-01T14:06:41Z</time>
      </trkpt>
      <trkpt lat="47.12786" lon="-1.61556">
        <ele>61</ele>
        <time>2022-01-01T14:06:43Z</time>
      </trkpt>
      <trkpt lat="47.12792" lon="-1.61571">
        <ele>60</ele>
        <time>2022-01-01T14:06:45Z</time>
      </trkpt>
      <trkpt lat="47.12797" lon="-1.61585">
        <ele>60</ele>
        <time>2022-01-01T14:06:47Z</time>
      </trkpt>
      <trkpt lat="47.12802" lon="-1.616">
        <ele>59</ele>
        <time>2022-01-01T14:06:49Z</time>
      </trkpt>
      <trkpt lat="47.12807" lon="-1.61614">
        <ele>58</ele>
        <time>2022-01-01T14:06:51Z</time>
      </trkpt>
      <trkpt lat="47.12813" lon="-1.61628">
        <ele>58</ele>
        <time>2022-01-01T14:06:53Z</time>
      </trkpt>
      <trkpt lat="47.12817" lon="-1.61641">
        <ele>58</ele>
        <time>2022-01-01T14:06:55Z</time>
      </trkpt>
      <trkpt lat="47.12822" lon="-1.61654">
        <ele>58</ele>
        <time>2022-01-01T14:06:59Z</time>
      </trkpt>
      <trkpt lat="47.12827" lon="-1.61666">
        <ele>58</ele>
        <time>2022-01-01T14:07:01Z</time>
      </trkpt>
      <trkpt lat="47.12833" lon="-1.61678">
        <ele>58</ele>
        <time>2022-01-01T14:07:03Z</time>
      </trkpt>
      <trkpt lat="47.1284" lon="-1.61692">
        <ele>59</ele>
        <time>2022-01-01T14:07:05Z</time>
      </trkpt>
      <trkpt lat="47.12845" lon="-1.61704">
        <ele>59</ele>
        <time>2022-01-01T14:07:07Z</time>
      </trkpt>
      <trkpt lat="47.12851" lon="-1.6172">
        <ele>60</ele>
        <time>2022-01-01T14:07:09Z</time>
      </trkpt>
      <trkpt lat="47.12858" lon="-1.61734">
        <ele>59</ele>
        <time>2022-01-01T14:07:11Z</time>
      </trkpt>
      <trkpt lat="47.12864" lon="-1.61748">
        <ele>59</ele>
        <time>2022-01-01T14:07:13Z</time>
      </trkpt>
      <trkpt lat="47.1287" lon="-1.61762">
        <ele>58</ele>
        <time>2022-01-01T14:07:15Z</time>
      </trkpt>
      <trkpt lat="47.12876" lon="-1.61777">
        <ele>58</ele>
        <time>2022-01-01T14:07:17Z</time>
      </trkpt>
      <trkpt lat="47.12883" lon="-1.61794">
        <ele>58</ele>
        <time>2022-01-01T14:07:19Z</time>
      </trkpt>
      <trkpt lat="47.12889" lon="-1.6181">
        <ele>57</ele>
        <time>2022-01-01T14:07:21Z</time>
      </trkpt>
      <trkpt lat="47.12895" lon="-1.61827">
        <ele>57</ele>
        <time>2022-01-01T14:07:23Z</time>
      </trkpt>
      <trkpt lat="47.12901" lon="-1.61844">
        <ele>56</ele>
        <time>2022-01-01T14:07:25Z</time>
      </trkpt>
      <trkpt lat="47.12905" lon="-1.6186">
        <ele>56</ele>
        <time>2022-01-01T14:07:27Z</time>
      </trkpt>
      <trkpt lat="47.1291" lon="-1.61878">
        <ele>56</ele>
        <time>2022-01-01T14:07:29Z</time>
      </trkpt>
      <trkpt lat="47.12913" lon="-1.61893">
        <ele>57</ele>
        <time>2022-01-01T14:07:31Z</time>
      </trkpt>
      <trkpt lat="47.12915" lon="-1.6191">
        <ele>57</ele>
        <time>2022-01-01T14:07:33Z</time>
      </trkpt>
      <trkpt lat="47.12916" lon="-1.61927">
        <ele>57</ele>
        <time>2022-01-01T14:07:35Z</time>
      </trkpt>
      <trkpt lat="47.12919" lon="-1.61944">
        <ele>56</ele>
        <time>2022-01-01T14:07:37Z</time>
      </trkpt>
      <trkpt lat="47.12923" lon="-1.6196">
        <ele>56</ele>
        <time>2022-01-01T14:07:39Z</time>
      </trkpt>
      <trkpt lat="47.12927" lon="-1.61976">
        <ele>56</ele>
        <time>2022-01-01T14:07:41Z</time>
      </trkpt>
      <trkpt lat="47.12931" lon="-1.61992">
        <ele>56</ele>
        <time>2022-01-01T14:07:43Z</time>
      </trkpt>
      <trkpt lat="47.12934" lon="-1.62007">
        <ele>57</ele>
        <time>2022-01-01T14:07:45Z</time>
      </trkpt>
      <trkpt lat="47.12938" lon="-1.62022">
        <ele>58</ele>
        <time>2022-01-01T14:07:47Z</time>
      </trkpt>
      <trkpt lat="47.12942" lon="-1.62036">
        <ele>59</ele>
        <time>2022-01-01T14:07:49Z</time>
      </trkpt>
      <trkpt lat="47.12948" lon="-1.62052">
        <ele>59</ele>
        <time>2022-01-01T14:07:51Z</time>
      </trkpt>
      <trkpt lat="47.12955" lon="-1.62067">
        <ele>59</ele>
        <time>2022-01-01T14:07:53Z</time>
      </trkpt>
      <trkpt lat="47.12962" lon="-1.62081">
        <ele>58</ele>
        <time>2022-01-01T14:07:55Z</time>
      </trkpt>
      <trkpt lat="47.12969" lon="-1.62094">
        <ele>57</ele>
        <time>2022-01-01T14:07:57Z</time>
      </trkpt>
      <trkpt lat="47.12976" lon="-1.62106">
        <ele>58</ele>
        <time>2022-01-01T14:07:59Z</time>
      </trkpt>
      <trkpt lat="47.12984" lon="-1.62117">
        <ele>58</ele>
        <time>2022-01-01T14:08:01Z</time>
      </trkpt>
      <trkpt lat="47.1299" lon="-1.6213">
        <ele>57</ele>
        <time>2022-01-01T14:08:03Z</time>
      </trkpt>
      <trkpt lat="47.12998" lon="-1.62141">
        <ele>58</ele>
        <time>2022-01-01T14:08:05Z</time>
      </trkpt>
      <trkpt lat="47.13005" lon="-1.62154">
        <ele>57</ele>
        <time>2022-01-01T14:08:07Z</time>
      </trkpt>
      <trkpt lat="47.13012" lon="-1.62165">
        <ele>57</ele>
        <time>2022-01-01T14:08:09Z</time>
      </trkpt>
      <trkpt lat="47.1302" lon="-1.62177">
        <ele>57</ele>
        <time>2022-01-01T14:08:11Z</time>
      </trkpt>
      <trkpt lat="47.13028" lon="-1.62189">
        <ele>58</ele>
        <time>2022-01-01T14:08:13Z</time>
      </trkpt>
      <trkpt lat="47.13035" lon="-1.62201">
        <ele>58</ele>
        <time>2022-01-01T14:08:15Z</time>
      </trkpt>
      <trkpt lat="47.13043" lon="-1.62212">
        <ele>58</ele>
        <time>2022-01-01T14:08:17Z</time>
      </trkpt>
      <trkpt lat="47.1305" lon="-1.62224">
        <ele>59</ele>
        <time>2022-01-01T14:08:19Z</time>
      </trkpt>
      <trkpt lat="47.13057" lon="-1.62236">
        <ele>58</ele>
        <time>2022-01-01T14:08:21Z</time>
      </trkpt>
      <trkpt lat="47.13064" lon="-1.62247">
        <ele>58</ele>
        <time>2022-01-01T14:08:23Z</time>
      </trkpt>
      <trkpt lat="47.13072" lon="-1.62259">
        <ele>59</ele>
        <time>2022-01-01T14:08:25Z</time>
      </trkpt>
      <trkpt lat="47.13079" lon="-1.62269">
        <ele>59</ele>
        <time>2022-01-01T14:08:27Z</time>
      </trkpt>
      <trkpt lat="47.13086" lon="-1.62279">
        <ele>59</ele>
        <time>2022-01-01T14:08:29Z</time>
      </trkpt>
      <trkpt lat="47.13093" lon="-1.62289">
        <ele>60</ele>
        <time>2022-01-01T14:08:31Z</time>
      </trkpt>
      <trkpt lat="47.131" lon="-1.62299">
        <ele>60</ele>
        <time>2022-01-01T14:08:33Z</time>
      </trkpt>
      <trkpt lat="47.13112" lon="-1.62299">
        <ele>60</ele>
        <time>2022-01-01T14:08:36Z</time>
      </trkpt>
      <trkpt lat="47.13117" lon="-1.62287">
        <ele>59</ele>
        <time>2022-01-01T14:08:38Z</time>
      </trkpt>
      <trkpt lat="47.13123" lon="-1.62273">
        <ele>59</ele>
        <time>2022-01-01T14:08:40Z</time>
      </trkpt>
      <trkpt lat="47.13129" lon="-1.62261">
        <ele>59</ele>
        <time>2022-01-01T14:08:42Z</time>
      </trkpt>
      <trkpt lat="47.13134" lon="-1.62248">
        <ele>59</ele>
        <time>2022-01-01T14:08:44Z</time>
      </trkpt>
      <trkpt lat="47.1314" lon="-1.62236">
        <ele>59</ele>
        <time>2022-01-01T14:08:46Z</time>
      </trkpt>
      <trkpt lat="47.13146" lon="-1.62224">
        <ele>60</ele>
        <time>2022-01-01T14:08:48Z</time>
      </trkpt>
      <trkpt lat="47.13152" lon="-1.62211">
        <ele>60</ele>
        <time>2022-01-01T14:08:50Z</time>
      </trkpt>
      <trkpt lat="47.13158" lon="-1.62199">
        <ele>60</ele>
        <time>2022-01-01T14:08:52Z</time>
      </trkpt>
      <trkpt lat="47.13163" lon="-1.62187">
        <ele>60</ele>
        <time>2022-01-01T14:08:54Z</time>
      </trkpt>
      <trkpt lat="47.1317" lon="-1.62175">
        <ele>60</ele>
        <time>2022-01-01T14:08:56Z</time>
      </trkpt>
      <trkpt lat="47.13176" lon="-1.62163">
        <ele>60</ele>
        <time>2022-01-01T14:08:58Z</time>
      </trkpt>
      <trkpt lat="47.13182" lon="-1.62151">
        <ele>60</ele>
        <time>2022-01-01T14:09:00Z</time>
      </trkpt>
      <trkpt lat="47.13189" lon="-1.62139">
        <ele>60</ele>
        <time>2022-01-01T14:09:02Z</time>
      </trkpt>
      <trkpt lat="47.13195" lon="-1.62129">
        <ele>60</ele>
        <time>2022-01-01T14:09:04Z</time>
      </trkpt>
      <trkpt lat="47.13201" lon="-1.62118">
        <ele>60</ele>
        <time>2022-01-01T14:09:06Z</time>
      </trkpt>
      <trkpt lat="47.13207" lon="-1.62107">
        <ele>60</ele>
        <time>2022-01-01T14:09:08Z</time>
      </trkpt>
      <trkpt lat="47.13213" lon="-1.62095">
        <ele>60</ele>
        <time>2022-01-01T14:09:10Z</time>
      </trkpt>
      <trkpt lat="47.1322" lon="-1.62083">
        <ele>60</ele>
        <time>2022-01-01T14:09:12Z</time>
      </trkpt>
      <trkpt lat="47.13227" lon="-1.62073">
        <ele>60</ele>
        <time>2022-01-01T14:09:14Z</time>
      </trkpt>
      <trkpt lat="47.13234" lon="-1.62062">
        <ele>60</ele>
        <time>2022-01-01T14:09:16Z</time>
      </trkpt>
      <trkpt lat="47.13241" lon="-1.62052">
        <ele>60</ele>
        <time>2022-01-01T14:09:18Z</time>
      </trkpt>
      <trkpt lat="47.13248" lon="-1.62042">
        <ele>60</ele>
        <time>2022-01-01T14:09:20Z</time>
      </trkpt>
      <trkpt lat="47.13255" lon="-1.62032">
        <ele>60</ele>
        <time>2022-01-01T14:09:22Z</time>
      </trkpt>
      <trkpt lat="47.13264" lon="-1.62023">
        <ele>60</ele>
        <time>2022-01-01T14:09:24Z</time>
      </trkpt>
      <trkpt lat="47.13272" lon="-1.62015">
        <ele>60</ele>
        <time>2022-01-01T14:09:26Z</time>
      </trkpt>
      <trkpt lat="47.13281" lon="-1.62007">
        <ele>60</ele>
        <time>2022-01-01T14:09:28Z</time>
      </trkpt>
      <trkpt lat="47.1329" lon="-1.61999">
        <ele>61</ele>
        <time>2022-01-01T14:09:30Z</time>
      </trkpt>
      <trkpt lat="47.13299" lon="-1.61992">
        <ele>61</ele>
        <time>2022-01-01T14:09:32Z</time>
      </trkpt>
      <trkpt lat="47.13308" lon="-1.61986">
        <ele>61</ele>
        <time>2022-01-01T14:09:34Z</time>
      </trkpt>
      <trkpt lat="47.13317" lon="-1.61979">
        <ele>62</ele>
        <time>2022-01-01T14:09:36Z</time>
      </trkpt>
      <trkpt lat="47.13326" lon="-1.61972">
        <ele>62</ele>
        <time>2022-01-01T14:09:38Z</time>
      </trkpt>
      <trkpt lat="47.13335" lon="-1.61965">
        <ele>62</ele>
        <time>2022-01-01T14:09:40Z</time>
      </trkpt>
      <trkpt lat="47.13343" lon="-1.61959">
        <ele>62</ele>
        <time>2022-01-01T14:09:42Z</time>
      </trkpt>
      <trkpt lat="47.13352" lon="-1.61952">
        <ele>62</ele>
        <time>2022-01-01T14:09:44Z</time>
      </trkpt>
      <trkpt lat="47.13361" lon="-1.61945">
        <ele>62</ele>
        <time>2022-01-01T14:09:46Z</time>
      </trkpt>
      <trkpt lat="47.1337" lon="-1.61939">
        <ele>62</ele>
        <time>2022-01-01T14:09:48Z</time>
      </trkpt>
      <trkpt lat="47.13379" lon="-1.61932">
        <ele>62</ele>
        <time>2022-01-01T14:09:50Z</time>
      </trkpt>
      <trkpt lat="47.13389" lon="-1.61925">
        <ele>62</ele>
        <time>2022-01-01T14:09:52Z</time>
      </trkpt>
      <trkpt lat="47.13398" lon="-1.61918">
        <ele>62</ele>
        <time>2022-01-01T14:09:54Z</time>
      </trkpt>
      <trkpt lat="47.13407" lon="-1.6191">
        <ele>62</ele>
        <time>2022-01-01T14:09:56Z</time>
      </trkpt>
      <trkpt lat="47.13417" lon="-1.61902">
        <ele>62</ele>
        <time>2022-01-01T14:09:58Z</time>
      </trkpt>
      <trkpt lat="47.13427" lon="-1.61895">
        <ele>62</ele>
        <time>2022-01-01T14:10:00Z</time>
      </trkpt>
      <trkpt lat="47.13437" lon="-1.61888">
        <ele>62</ele>
        <time>2022-01-01T14:10:02Z</time>
      </trkpt>
      <trkpt lat="47.13446" lon="-1.61879">
        <ele>62</ele>
        <time>2022-01-01T14:10:04Z</time>
      </trkpt>
      <trkpt lat="47.13455" lon="-1.61872">
        <ele>62</ele>
        <time>2022-01-01T14:10:06Z</time>
      </trkpt>
      <trkpt lat="47.13465" lon="-1.61865">
        <ele>62</ele>
        <time>2022-01-01T14:10:08Z</time>
      </trkpt>
      <trkpt lat="47.13476" lon="-1.61858">
        <ele>62</ele>
        <time>2022-01-01T14:10:10Z</time>
      </trkpt>
      <trkpt lat="47.13486" lon="-1.61852">
        <ele>62</ele>
        <time>2022-01-01T14:10:12Z</time>
      </trkpt>
      <trkpt lat="47.13496" lon="-1.61846">
        <ele>62</ele>
        <time>2022-01-01T14:10:14Z</time>
      </trkpt>
      <trkpt lat="47.13506" lon="-1.61841">
        <ele>62</ele>
        <time>2022-01-01T14:10:16Z</time>
      </trkpt>
      <trkpt lat="47.13517" lon="-1.61836">
        <ele>61</ele>
        <time>2022-01-01T14:10:18Z</time>
      </trkpt>
      <trkpt lat="47.13528" lon="-1.61831">
        <ele>61</ele>
        <time>2022-01-01T14:10:20Z</time>
      </trkpt>
      <trkpt lat="47.13539" lon="-1.61826">
        <ele>61</ele>
        <time>2022-01-01T14:10:22Z</time>
      </trkpt>
      <trkpt lat="47.1355" lon="-1.61821">
        <ele>61</ele>
        <time>2022-01-01T14:10:24Z</time>
      </trkpt>
      <trkpt lat="47.13561" lon="-1.61816">
        <ele>61</ele>
        <time>2022-01-01T14:10:26Z</time>
      </trkpt>
      <trkpt lat="47.13571" lon="-1.61809">
        <ele>61</ele>
        <time>2022-01-01T14:10:28Z</time>
      </trkpt>
      <trkpt lat="47.1358" lon="-1.61804">
        <ele>61</ele>
        <time>2022-01-01T14:10:30Z</time>
      </trkpt>
      <trkpt lat="47.13592" lon="-1.61801">
        <ele>61</ele>
        <time>2022-01-01T14:10:32Z</time>
      </trkpt>
      <trkpt lat="47.13603" lon="-1.61797">
        <ele>62</ele>
        <time>2022-01-01T14:10:34Z</time>
      </trkpt>
      <trkpt lat="47.13615" lon="-1.61793">
        <ele>63</ele>
        <time>2022-01-01T14:10:36Z</time>
      </trkpt>
      <trkpt lat="47.13626" lon="-1.61788">
        <ele>63</ele>
        <time>2022-01-01T14:10:38Z</time>
      </trkpt>
      <trkpt lat="47.13636" lon="-1.61783">
        <ele>63</ele>
        <time>2022-01-01T14:10:40Z</time>
      </trkpt>
      <trkpt lat="47.13647" lon="-1.61779">
        <ele>63</ele>
        <time>2022-01-01T14:10:42Z</time>
      </trkpt>
      <trkpt lat="47.13658" lon="-1.61774">
        <ele>63</ele>
        <time>2022-01-01T14:10:44Z</time>
      </trkpt>
      <trkpt lat="47.13668" lon="-1.61769">
        <ele>63</ele>
        <time>2022-01-01T14:10:46Z</time>
      </trkpt>
      <trkpt lat="47.13678" lon="-1.61763">
        <ele>63</ele>
        <time>2022-01-01T14:10:48Z</time>
      </trkpt>
      <trkpt lat="47.13688" lon="-1.61757">
        <ele>63</ele>
        <time>2022-01-01T14:10:50Z</time>
      </trkpt>
      <trkpt lat="47.13698" lon="-1.61749">
        <ele>63</ele>
        <time>2022-01-01T14:10:52Z</time>
      </trkpt>
      <trkpt lat="47.13707" lon="-1.61742">
        <ele>63</ele>
        <time>2022-01-01T14:10:54Z</time>
      </trkpt>
      <trkpt lat="47.13716" lon="-1.61735">
        <ele>63</ele>
        <time>2022-01-01T14:10:56Z</time>
      </trkpt>
      <trkpt lat="47.13727" lon="-1.61727">
        <ele>64</ele>
        <time>2022-01-01T14:10:59Z</time>
      </trkpt>
      <trkpt lat="47.13738" lon="-1.61725">
        <ele>65</ele>
        <time>2022-01-01T14:11:02Z</time>
      </trkpt>
      <trkpt lat="47.13743" lon="-1.61738">
        <ele>64</ele>
        <time>2022-01-01T14:11:04Z</time>
      </trkpt>
      <trkpt lat="47.13741" lon="-1.61754">
        <ele>64</ele>
        <time>2022-01-01T14:11:06Z</time>
      </trkpt>
      <trkpt lat="47.13738" lon="-1.6177">
        <ele>64</ele>
        <time>2022-01-01T14:11:08Z</time>
      </trkpt>
      <trkpt lat="47.13735" lon="-1.61784">
        <ele>64</ele>
        <time>2022-01-01T14:11:10Z</time>
      </trkpt>
      <trkpt lat="47.13732" lon="-1.618">
        <ele>64</ele>
        <time>2022-01-01T14:11:12Z</time>
      </trkpt>
      <trkpt lat="47.1373" lon="-1.61816">
        <ele>63</ele>
        <time>2022-01-01T14:11:14Z</time>
      </trkpt>
      <trkpt lat="47.13728" lon="-1.61831">
        <ele>63</ele>
        <time>2022-01-01T14:11:16Z</time>
      </trkpt>
      <trkpt lat="47.13727" lon="-1.61846">
        <ele>63</ele>
        <time>2022-01-01T14:11:18Z</time>
      </trkpt>
      <trkpt lat="47.13726" lon="-1.61861">
        <ele>63</ele>
        <time>2022-01-01T14:11:20Z</time>
      </trkpt>
      <trkpt lat="47.13726" lon="-1.61876">
        <ele>63</ele>
        <time>2022-01-01T14:11:22Z</time>
      </trkpt>
      <trkpt lat="47.13725" lon="-1.61891">
        <ele>63</ele>
        <time>2022-01-01T14:11:24Z</time>
      </trkpt>
      <trkpt lat="47.13724" lon="-1.61906">
        <ele>63</ele>
        <time>2022-01-01T14:11:26Z</time>
      </trkpt>
      <trkpt lat="47.13724" lon="-1.6192">
        <ele>63</ele>
        <time>2022-01-01T14:11:28Z</time>
      </trkpt>
      <trkpt lat="47.13724" lon="-1.61936">
        <ele>63</ele>
        <time>2022-01-01T14:11:30Z</time>
      </trkpt>
      <trkpt lat="47.13725" lon="-1.61951">
        <ele>63</ele>
        <time>2022-01-01T14:11:32Z</time>
      </trkpt>
      <trkpt lat="47.13727" lon="-1.61966">
        <ele>63</ele>
        <time>2022-01-01T14:11:34Z</time>
      </trkpt>
      <trkpt lat="47.13729" lon="-1.61981">
        <ele>63</ele>
        <time>2022-01-01T14:11:36Z</time>
      </trkpt>
      <trkpt lat="47.13731" lon="-1.61995">
        <ele>63</ele>
        <time>2022-01-01T14:11:38Z</time>
      </trkpt>
      <trkpt lat="47.13734" lon="-1.62009">
        <ele>63</ele>
        <time>2022-01-01T14:11:40Z</time>
      </trkpt>
      <trkpt lat="47.13737" lon="-1.62023">
        <ele>64</ele>
        <time>2022-01-01T14:11:42Z</time>
      </trkpt>
      <trkpt lat="47.13739" lon="-1.62037">
        <ele>63</ele>
        <time>2022-01-01T14:11:44Z</time>
      </trkpt>
      <trkpt lat="47.1374" lon="-1.62051">
        <ele>64</ele>
        <time>2022-01-01T14:11:46Z</time>
      </trkpt>
      <trkpt lat="47.13741" lon="-1.62067">
        <ele>64</ele>
        <time>2022-01-01T14:11:48Z</time>
      </trkpt>
      <trkpt lat="47.13743" lon="-1.62081">
        <ele>65</ele>
        <time>2022-01-01T14:11:50Z</time>
      </trkpt>
      <trkpt lat="47.13745" lon="-1.62096">
        <ele>65</ele>
        <time>2022-01-01T14:11:52Z</time>
      </trkpt>
      <trkpt lat="47.13747" lon="-1.62111">
        <ele>65</ele>
        <time>2022-01-01T14:11:54Z</time>
      </trkpt>
      <trkpt lat="47.13749" lon="-1.62127">
        <ele>65</ele>
        <time>2022-01-01T14:11:56Z</time>
      </trkpt>
      <trkpt lat="47.13751" lon="-1.62142">
        <ele>64</ele>
        <time>2022-01-01T14:11:58Z</time>
      </trkpt>
      <trkpt lat="47.13752" lon="-1.62157">
        <ele>64</ele>
        <time>2022-01-01T14:12:00Z</time>
      </trkpt>
      <trkpt lat="47.13754" lon="-1.62172">
        <ele>64</ele>
        <time>2022-01-01T14:12:02Z</time>
      </trkpt>
      <trkpt lat="47.13756" lon="-1.62187">
        <ele>64</ele>
        <time>2022-01-01T14:12:04Z</time>
      </trkpt>
      <trkpt lat="47.13757" lon="-1.62201">
        <ele>64</ele>
        <time>2022-01-01T14:12:06Z</time>
      </trkpt>
      <trkpt lat="47.13759" lon="-1.62216">
        <ele>64</ele>
        <time>2022-01-01T14:12:08Z</time>
      </trkpt>
      <trkpt lat="47.13761" lon="-1.62231">
        <ele>64</ele>
        <time>2022-01-01T14:12:10Z</time>
      </trkpt>
      <trkpt lat="47.13763" lon="-1.62245">
        <ele>64</ele>
        <time>2022-01-01T14:12:12Z</time>
      </trkpt>
      <trkpt lat="47.13764" lon="-1.6226">
        <ele>64</ele>
        <time>2022-01-01T14:12:14Z</time>
      </trkpt>
      <trkpt lat="47.13766" lon="-1.62275">
        <ele>64</ele>
        <time>2022-01-01T14:12:16Z</time>
      </trkpt>
      <trkpt lat="47.13767" lon="-1.6229">
        <ele>64</ele>
        <time>2022-01-01T14:12:18Z</time>
      </trkpt>
      <trkpt lat="47.13768" lon="-1.62305">
        <ele>64</ele>
        <time>2022-01-01T14:12:20Z</time>
      </trkpt>
      <trkpt lat="47.13768" lon="-1.62321">
        <ele>63</ele>
        <time>2022-01-01T14:12:22Z</time>
      </trkpt>
      <trkpt lat="47.13767" lon="-1.62337">
        <ele>63</ele>
        <time>2022-01-01T14:12:24Z</time>
      </trkpt>
      <trkpt lat="47.13766" lon="-1.62353">
        <ele>63</ele>
        <time>2022-01-01T14:12:26Z</time>
      </trkpt>
      <trkpt lat="47.13764" lon="-1.62371">
        <ele>63</ele>
        <time>2022-01-01T14:12:28Z</time>
      </trkpt>
      <trkpt lat="47.13763" lon="-1.62388">
        <ele>63</ele>
        <time>2022-01-01T14:12:30Z</time>
      </trkpt>
      <trkpt lat="47.13763" lon="-1.62404">
        <ele>63</ele>
        <time>2022-01-01T14:12:32Z</time>
      </trkpt>
      <trkpt lat="47.13762" lon="-1.62423">
        <ele>63</ele>
        <time>2022-01-01T14:12:34Z</time>
      </trkpt>
      <trkpt lat="47.13764" lon="-1.6244">
        <ele>62</ele>
        <time>2022-01-01T14:12:36Z</time>
      </trkpt>
      <trkpt lat="47.13765" lon="-1.62459">
        <ele>63</ele>
        <time>2022-01-01T14:12:38Z</time>
      </trkpt>
      <trkpt lat="47.13767" lon="-1.62479">
        <ele>64</ele>
        <time>2022-01-01T14:12:40Z</time>
      </trkpt>
      <trkpt lat="47.13769" lon="-1.625">
        <ele>64</ele>
        <time>2022-01-01T14:12:42Z</time>
      </trkpt>
      <trkpt lat="47.13772" lon="-1.6252">
        <ele>64</ele>
        <time>2022-01-01T14:12:44Z</time>
      </trkpt>
      <trkpt lat="47.13774" lon="-1.62539">
        <ele>64</ele>
        <time>2022-01-01T14:12:46Z</time>
      </trkpt>
      <trkpt lat="47.13776" lon="-1.62556">
        <ele>64</ele>
        <time>2022-01-01T14:12:48Z</time>
      </trkpt>
      <trkpt lat="47.13778" lon="-1.62572">
        <ele>64</ele>
        <time>2022-01-01T14:12:50Z</time>
      </trkpt>
      <trkpt lat="47.13779" lon="-1.62588">
        <ele>64</ele>
        <time>2022-01-01T14:12:52Z</time>
      </trkpt>
      <trkpt lat="47.1378" lon="-1.62603">
        <ele>64</ele>
        <time>2022-01-01T14:12:54Z</time>
      </trkpt>
      <trkpt lat="47.13781" lon="-1.62618">
        <ele>64</ele>
        <time>2022-01-01T14:12:56Z</time>
      </trkpt>
      <trkpt lat="47.13782" lon="-1.62632">
        <ele>64</ele>
        <time>2022-01-01T14:12:58Z</time>
      </trkpt>
      <trkpt lat="47.13784" lon="-1.62647">
        <ele>65</ele>
        <time>2022-01-01T14:13:00Z</time>
      </trkpt>
      <trkpt lat="47.13785" lon="-1.62663">
        <ele>65</ele>
        <time>2022-01-01T14:13:02Z</time>
      </trkpt>
      <trkpt lat="47.13784" lon="-1.62677">
        <ele>65</ele>
        <time>2022-01-01T14:13:04Z</time>
      </trkpt>
      <trkpt lat="47.13784" lon="-1.62692">
        <ele>64</ele>
        <time>2022-01-01T14:13:06Z</time>
      </trkpt>
      <trkpt lat="47.13784" lon="-1.62707">
        <ele>65</ele>
        <time>2022-01-01T14:13:08Z</time>
      </trkpt>
      <trkpt lat="47.13783" lon="-1.62721">
        <ele>65</ele>
        <time>2022-01-01T14:13:10Z</time>
      </trkpt>
      <trkpt lat="47.13783" lon="-1.62736">
        <ele>64</ele>
        <time>2022-01-01T14:13:12Z</time>
      </trkpt>
      <trkpt lat="47.13784" lon="-1.6275">
        <ele>65</ele>
        <time>2022-01-01T14:13:14Z</time>
      </trkpt>
      <trkpt lat="47.13786" lon="-1.62764">
        <ele>65</ele>
        <time>2022-01-01T14:13:16Z</time>
      </trkpt>
      <trkpt lat="47.13789" lon="-1.62778">
        <ele>65</ele>
        <time>2022-01-01T14:13:18Z</time>
      </trkpt>
      <trkpt lat="47.13793" lon="-1.62792">
        <ele>65</ele>
        <time>2022-01-01T14:13:20Z</time>
      </trkpt>
      <trkpt lat="47.13798" lon="-1.62805">
        <ele>66</ele>
        <time>2022-01-01T14:13:22Z</time>
      </trkpt>
      <trkpt lat="47.13803" lon="-1.62818">
        <ele>66</ele>
        <time>2022-01-01T14:13:24Z</time>
      </trkpt>
      <trkpt lat="47.13809" lon="-1.62834">
        <ele>65</ele>
        <time>2022-01-01T14:13:27Z</time>
      </trkpt>
      <trkpt lat="47.13813" lon="-1.62846">
        <ele>65</ele>
        <time>2022-01-01T14:13:29Z</time>
      </trkpt>
      <trkpt lat="47.13818" lon="-1.62858">
        <ele>66</ele>
        <time>2022-01-01T14:13:31Z</time>
      </trkpt>
      <trkpt lat="47.13823" lon="-1.62874">
        <ele>65</ele>
        <time>2022-01-01T14:13:34Z</time>
      </trkpt>
      <trkpt lat="47.13827" lon="-1.62893">
        <ele>65</ele>
        <time>2022-01-01T14:13:37Z</time>
      </trkpt>
      <trkpt lat="47.13828" lon="-1.62906">
        <ele>65</ele>
        <time>2022-01-01T14:13:39Z</time>
      </trkpt>
      <trkpt lat="47.13827" lon="-1.6292">
        <ele>65</ele>
        <time>2022-01-01T14:13:41Z</time>
      </trkpt>
      <trkpt lat="47.13825" lon="-1.62934">
        <ele>65</ele>
        <time>2022-01-01T14:13:43Z</time>
      </trkpt>
      <trkpt lat="47.13823" lon="-1.62948">
        <ele>64</ele>
        <time>2022-01-01T14:13:45Z</time>
      </trkpt>
      <trkpt lat="47.13821" lon="-1.62963">
        <ele>64</ele>
        <time>2022-01-01T14:13:47Z</time>
      </trkpt>
      <trkpt lat="47.1382" lon="-1.62979">
        <ele>64</ele>
        <time>2022-01-01T14:13:49Z</time>
      </trkpt>
      <trkpt lat="47.13818" lon="-1.62996">
        <ele>64</ele>
        <time>2022-01-01T14:13:51Z</time>
      </trkpt>
      <trkpt lat="47.13818" lon="-1.63013">
        <ele>63</ele>
        <time>2022-01-01T14:13:53Z</time>
      </trkpt>
      <trkpt lat="47.13819" lon="-1.63031">
        <ele>63</ele>
        <time>2022-01-01T14:13:55Z</time>
      </trkpt>
      <trkpt lat="47.13821" lon="-1.63046">
        <ele>63</ele>
        <time>2022-01-01T14:13:57Z</time>
      </trkpt>
      <trkpt lat="47.13831" lon="-1.63059">
        <ele>62</ele>
        <time>2022-01-01T14:14:00Z</time>
      </trkpt>
      <trkpt lat="47.13841" lon="-1.63058">
        <ele>62</ele>
        <time>2022-01-01T14:14:02Z</time>
      </trkpt>
      <trkpt lat="47.1385" lon="-1.63056">
        <ele>62</ele>
        <time>2022-01-01T14:14:04Z</time>
      </trkpt>
      <trkpt lat="47.1386" lon="-1.63054">
        <ele>63</ele>
        <time>2022-01-01T14:14:06Z</time>
      </trkpt>
      <trkpt lat="47.13871" lon="-1.63052">
        <ele>63</ele>
        <time>2022-01-01T14:14:08Z</time>
      </trkpt>
      <trkpt lat="47.13881" lon="-1.6305">
        <ele>63</ele>
        <time>2022-01-01T14:14:10Z</time>
      </trkpt>
      <trkpt lat="47.13891" lon="-1.63047">
        <ele>63</ele>
        <time>2022-01-01T14:14:12Z</time>
      </trkpt>
      <trkpt lat="47.13902" lon="-1.63045">
        <ele>63</ele>
        <time>2022-01-01T14:14:14Z</time>
      </trkpt>
      <trkpt lat="47.13912" lon="-1.63041">
        <ele>63</ele>
        <time>2022-01-01T14:14:16Z</time>
      </trkpt>
      <trkpt lat="47.13922" lon="-1.63038">
        <ele>63</ele>
        <time>2022-01-01T14:14:18Z</time>
      </trkpt>
      <trkpt lat="47.13932" lon="-1.63033">
        <ele>63</ele>
        <time>2022-01-01T14:14:20Z</time>
      </trkpt>
      <trkpt lat="47.13942" lon="-1.63027">
        <ele>63</ele>
        <time>2022-01-01T14:14:22Z</time>
      </trkpt>
      <trkpt lat="47.13951" lon="-1.63022">
        <ele>63</ele>
        <time>2022-01-01T14:14:24Z</time>
      </trkpt>
      <trkpt lat="47.13961" lon="-1.63017">
        <ele>63</ele>
        <time>2022-01-01T14:14:26Z</time>
      </trkpt>
      <trkpt lat="47.13971" lon="-1.63011">
        <ele>63</ele>
        <time>2022-01-01T14:14:28Z</time>
      </trkpt>
      <trkpt lat="47.13981" lon="-1.63006">
        <ele>63</ele>
        <time>2022-01-01T14:14:30Z</time>
      </trkpt>
      <trkpt lat="47.1399" lon="-1.63001">
        <ele>63</ele>
        <time>2022-01-01T14:14:32Z</time>
      </trkpt>
      <trkpt lat="47.13999" lon="-1.62996">
        <ele>64</ele>
        <time>2022-01-01T14:14:34Z</time>
      </trkpt>
      <trkpt lat="47.14008" lon="-1.62991">
        <ele>64</ele>
        <time>2022-01-01T14:14:36Z</time>
      </trkpt>
      <trkpt lat="47.14017" lon="-1.62986">
        <ele>65</ele>
        <time>2022-01-01T14:14:38Z</time>
      </trkpt>
      <trkpt lat="47.14026" lon="-1.62982">
        <ele>66</ele>
        <time>2022-01-01T14:14:40Z</time>
      </trkpt>
      <trkpt lat="47.14035" lon="-1.62979">
        <ele>66</ele>
        <time>2022-01-01T14:14:42Z</time>
      </trkpt>
      <trkpt lat="47.14044" lon="-1.62976">
        <ele>67</ele>
        <time>2022-01-01T14:14:44Z</time>
      </trkpt>
      <trkpt lat="47.14058" lon="-1.62974">
        <ele>67</ele>
        <time>2022-01-01T14:14:47Z</time>
      </trkpt>
      <trkpt lat="47.14067" lon="-1.62973">
        <ele>67</ele>
        <time>2022-01-01T14:14:49Z</time>
      </trkpt>
      <trkpt lat="47.14076" lon="-1.62974">
        <ele>67</ele>
        <time>2022-01-01T14:14:51Z</time>
      </trkpt>
      <trkpt lat="47.14085" lon="-1.62974">
        <ele>67</ele>
        <time>2022-01-01T14:14:53Z</time>
      </trkpt>
      <trkpt lat="47.14095" lon="-1.62976">
        <ele>67</ele>
        <time>2022-01-01T14:14:55Z</time>
      </trkpt>
      <trkpt lat="47.14104" lon="-1.62977">
        <ele>67</ele>
        <time>2022-01-01T14:14:57Z</time>
      </trkpt>
      <trkpt lat="47.14113" lon="-1.62979">
        <ele>67</ele>
        <time>2022-01-01T14:14:59Z</time>
      </trkpt>
      <trkpt lat="47.14122" lon="-1.62982">
        <ele>67</ele>
        <time>2022-01-01T14:15:01Z</time>
      </trkpt>
      <trkpt lat="47.14135" lon="-1.62987">
        <ele>68</ele>
        <time>2022-01-01T14:15:04Z</time>
      </trkpt>
      <trkpt lat="47.14143" lon="-1.62991">
        <ele>67</ele>
        <time>2022-01-01T14:15:06Z</time>
      </trkpt>
      <trkpt lat="47.14152" lon="-1.62995">
        <ele>67</ele>
        <time>2022-01-01T14:15:08Z</time>
      </trkpt>
      <trkpt lat="47.14161" lon="-1.62999">
        <ele>68</ele>
        <time>2022-01-01T14:15:10Z</time>
      </trkpt>
      <trkpt lat="47.1417" lon="-1.63003">
        <ele>68</ele>
        <time>2022-01-01T14:15:12Z</time>
      </trkpt>
      <trkpt lat="47.14179" lon="-1.63007">
        <ele>67</ele>
        <time>2022-01-01T14:15:14Z</time>
      </trkpt>
      <trkpt lat="47.14188" lon="-1.63012">
        <ele>67</ele>
        <time>2022-01-01T14:15:16Z</time>
      </trkpt>
      <trkpt lat="47.14198" lon="-1.63017">
        <ele>67</ele>
        <time>2022-01-01T14:15:18Z</time>
      </trkpt>
      <trkpt lat="47.14208" lon="-1.63022">
        <ele>66</ele>
        <time>2022-01-01T14:15:20Z</time>
      </trkpt>
      <trkpt lat="47.14217" lon="-1.63026">
        <ele>66</ele>
        <time>2022-01-01T14:15:22Z</time>
      </trkpt>
      <trkpt lat="47.14227" lon="-1.63032">
        <ele>67</ele>
        <time>2022-01-01T14:15:24Z</time>
      </trkpt>
      <trkpt lat="47.14237" lon="-1.63037">
        <ele>67</ele>
        <time>2022-01-01T14:15:26Z</time>
      </trkpt>
      <trkpt lat="47.14246" lon="-1.63042">
        <ele>67</ele>
        <time>2022-01-01T14:15:28Z</time>
      </trkpt>
      <trkpt lat="47.14256" lon="-1.63047">
        <ele>67</ele>
        <time>2022-01-01T14:15:30Z</time>
      </trkpt>
      <trkpt lat="47.14265" lon="-1.63051">
        <ele>67</ele>
        <time>2022-01-01T14:15:32Z</time>
      </trkpt>
      <trkpt lat="47.14274" lon="-1.63056">
        <ele>67</ele>
        <time>2022-01-01T14:15:34Z</time>
      </trkpt>
      <trkpt lat="47.14283" lon="-1.63061">
        <ele>68</ele>
        <time>2022-01-01T14:15:36Z</time>
      </trkpt>
      <trkpt lat="47.14293" lon="-1.63066">
        <ele>68</ele>
        <time>2022-01-01T14:15:38Z</time>
      </trkpt>
      <trkpt lat="47.14303" lon="-1.63071">
        <ele>68</ele>
        <time>2022-01-01T14:15:40Z</time>
      </trkpt>
      <trkpt lat="47.14313" lon="-1.63076">
        <ele>69</ele>
        <time>2022-01-01T14:15:42Z</time>
      </trkpt>
      <trkpt lat="47.14323" lon="-1.63081">
        <ele>70</ele>
        <time>2022-01-01T14:15:44Z</time>
      </trkpt>
      <trkpt lat="47.14332" lon="-1.63086">
        <ele>70</ele>
        <time>2022-01-01T14:15:46Z</time>
      </trkpt>
      <trkpt lat="47.14341" lon="-1.63091">
        <ele>69</ele>
        <time>2022-01-01T14:15:48Z</time>
      </trkpt>
      <trkpt lat="47.1435" lon="-1.63096">
        <ele>69</ele>
        <time>2022-01-01T14:15:50Z</time>
      </trkpt>
      <trkpt lat="47.1436" lon="-1.631">
        <ele>69</ele>
        <time>2022-01-01T14:15:52Z</time>
      </trkpt>
      <trkpt lat="47.14369" lon="-1.63105">
        <ele>70</ele>
        <time>2022-01-01T14:15:54Z</time>
      </trkpt>
      <trkpt lat="47.1438" lon="-1.6311">
        <ele>70</ele>
        <time>2022-01-01T14:15:56Z</time>
      </trkpt>
      <trkpt lat="47.1439" lon="-1.63115">
        <ele>69</ele>
        <time>2022-01-01T14:15:58Z</time>
      </trkpt>
      <trkpt lat="47.14399" lon="-1.63119">
        <ele>69</ele>
        <time>2022-01-01T14:16:00Z</time>
      </trkpt>
      <trkpt lat="47.14409" lon="-1.63124">
        <ele>69</ele>
        <time>2022-01-01T14:16:02Z</time>
      </trkpt>
      <trkpt lat="47.14418" lon="-1.63129">
        <ele>68</ele>
        <time>2022-01-01T14:16:04Z</time>
      </trkpt>
      <trkpt lat="47.14428" lon="-1.63134">
        <ele>68</ele>
        <time>2022-01-01T14:16:06Z</time>
      </trkpt>
      <trkpt lat="47.14437" lon="-1.63138">
        <ele>68</ele>
        <time>2022-01-01T14:16:08Z</time>
      </trkpt>
      <trkpt lat="47.14447" lon="-1.63143">
        <ele>68</ele>
        <time>2022-01-01T14:16:10Z</time>
      </trkpt>
      <trkpt lat="47.14457" lon="-1.63146">
        <ele>68</ele>
        <time>2022-01-01T14:16:12Z</time>
      </trkpt>
      <trkpt lat="47.14467" lon="-1.63146">
        <ele>69</ele>
        <time>2022-01-01T14:16:14Z</time>
      </trkpt>
      <trkpt lat="47.14477" lon="-1.63145">
        <ele>68</ele>
        <time>2022-01-01T14:16:16Z</time>
      </trkpt>
      <trkpt lat="47.14487" lon="-1.63146">
        <ele>68</ele>
        <time>2022-01-01T14:16:18Z</time>
      </trkpt>
      <trkpt lat="47.14497" lon="-1.63146">
        <ele>68</ele>
        <time>2022-01-01T14:16:20Z</time>
      </trkpt>
      <trkpt lat="47.14507" lon="-1.63146">
        <ele>68</ele>
        <time>2022-01-01T14:16:22Z</time>
      </trkpt>
      <trkpt lat="47.14517" lon="-1.63146">
        <ele>68</ele>
        <time>2022-01-01T14:16:24Z</time>
      </trkpt>
      <trkpt lat="47.14527" lon="-1.63146">
        <ele>68</ele>
        <time>2022-01-01T14:16:26Z</time>
      </trkpt>
      <trkpt lat="47.14537" lon="-1.63146">
        <ele>68</ele>
        <time>2022-01-01T14:16:28Z</time>
      </trkpt>
      <trkpt lat="47.14547" lon="-1.63144">
        <ele>69</ele>
        <time>2022-01-01T14:16:30Z</time>
      </trkpt>
      <trkpt lat="47.14557" lon="-1.63142">
        <ele>69</ele>
        <time>2022-01-01T14:16:32Z</time>
      </trkpt>
      <trkpt lat="47.14566" lon="-1.63139">
        <ele>69</ele>
        <time>2022-01-01T14:16:34Z</time>
      </trkpt>
      <trkpt lat="47.14575" lon="-1.63135">
        <ele>69</ele>
        <time>2022-01-01T14:16:36Z</time>
      </trkpt>
      <trkpt lat="47.14585" lon="-1.6313">
        <ele>69</ele>
        <time>2022-01-01T14:16:38Z</time>
      </trkpt>
      <trkpt lat="47.14593" lon="-1.63125">
        <ele>69</ele>
        <time>2022-01-01T14:16:40Z</time>
      </trkpt>
      <trkpt lat="47.14605" lon="-1.63116">
        <ele>69</ele>
        <time>2022-01-01T14:16:43Z</time>
      </trkpt>
      <trkpt lat="47.14614" lon="-1.63111">
        <ele>69</ele>
        <time>2022-01-01T14:16:45Z</time>
      </trkpt>
      <trkpt lat="47.14622" lon="-1.63106">
        <ele>69</ele>
        <time>2022-01-01T14:16:47Z</time>
      </trkpt>
      <trkpt lat="47.14631" lon="-1.631">
        <ele>70</ele>
        <time>2022-01-01T14:16:49Z</time>
      </trkpt>
      <trkpt lat="47.1464" lon="-1.63095">
        <ele>70</ele>
        <time>2022-01-01T14:16:51Z</time>
      </trkpt>
      <trkpt lat="47.14653" lon="-1.63088">
        <ele>70</ele>
        <time>2022-01-01T14:16:54Z</time>
      </trkpt>
      <trkpt lat="47.14661" lon="-1.63083">
        <ele>70</ele>
        <time>2022-01-01T14:16:56Z</time>
      </trkpt>
      <trkpt lat="47.1467" lon="-1.63079">
        <ele>70</ele>
        <time>2022-01-01T14:16:58Z</time>
      </trkpt>
      <trkpt lat="47.14679" lon="-1.63076">
        <ele>70</ele>
        <time>2022-01-01T14:17:00Z</time>
      </trkpt>
      <trkpt lat="47.14689" lon="-1.63074">
        <ele>70</ele>
        <time>2022-01-01T14:17:02Z</time>
      </trkpt>
      <trkpt lat="47.14699" lon="-1.63072">
        <ele>70</ele>
        <time>2022-01-01T14:17:04Z</time>
      </trkpt>
      <trkpt lat="47.14708" lon="-1.6307">
        <ele>70</ele>
        <time>2022-01-01T14:17:06Z</time>
      </trkpt>
      <trkpt lat="47.14717" lon="-1.63069">
        <ele>69</ele>
        <time>2022-01-01T14:17:08Z</time>
      </trkpt>
      <trkpt lat="47.1473" lon="-1.63068">
        <ele>70</ele>
        <time>2022-01-01T14:17:11Z</time>
      </trkpt>
      <trkpt lat="47.14742" lon="-1.63068">
        <ele>70</ele>
        <time>2022-01-01T14:17:14Z</time>
      </trkpt>
      <trkpt lat="47.14752" lon="-1.63068">
        <ele>71</ele>
        <time>2022-01-01T14:17:16Z</time>
      </trkpt>
      <trkpt lat="47.14762" lon="-1.63067">
        <ele>71</ele>
        <time>2022-01-01T14:17:18Z</time>
      </trkpt>
      <trkpt lat="47.14772" lon="-1.63066">
        <ele>71</ele>
        <time>2022-01-01T14:17:20Z</time>
      </trkpt>
      <trkpt lat="47.14782" lon="-1.63065">
        <ele>71</ele>
        <time>2022-01-01T14:17:22Z</time>
      </trkpt>
      <trkpt lat="47.14792" lon="-1.63064">
        <ele>71</ele>
        <time>2022-01-01T14:17:24Z</time>
      </trkpt>
      <trkpt lat="47.14802" lon="-1.63064">
        <ele>71</ele>
        <time>2022-01-01T14:17:26Z</time>
      </trkpt>
      <trkpt lat="47.14813" lon="-1.63064">
        <ele>71</ele>
        <time>2022-01-01T14:17:28Z</time>
      </trkpt>
      <trkpt lat="47.14822" lon="-1.63063">
        <ele>72</ele>
        <time>2022-01-01T14:17:30Z</time>
      </trkpt>
      <trkpt lat="47.14832" lon="-1.63062">
        <ele>72</ele>
        <time>2022-01-01T14:17:32Z</time>
      </trkpt>
      <trkpt lat="47.14842" lon="-1.63062">
        <ele>73</ele>
        <time>2022-01-01T14:17:34Z</time>
      </trkpt>
      <trkpt lat="47.14852" lon="-1.63061">
        <ele>73</ele>
        <time>2022-01-01T14:17:36Z</time>
      </trkpt>
      <trkpt lat="47.14861" lon="-1.6306">
        <ele>73</ele>
        <time>2022-01-01T14:17:38Z</time>
      </trkpt>
      <trkpt lat="47.14874" lon="-1.63059">
        <ele>73</ele>
        <time>2022-01-01T14:17:41Z</time>
      </trkpt>
      <trkpt lat="47.14884" lon="-1.63064">
        <ele>73</ele>
        <time>2022-01-01T14:17:44Z</time>
      </trkpt>
      <trkpt lat="47.14885" lon="-1.63082">
        <ele>75</ele>
        <time>2022-01-01T14:17:47Z</time>
      </trkpt>
      <trkpt lat="47.14883" lon="-1.63097">
        <ele>75</ele>
        <time>2022-01-01T14:17:49Z</time>
      </trkpt>
      <trkpt lat="47.14882" lon="-1.63112">
        <ele>75</ele>
        <time>2022-01-01T14:17:51Z</time>
      </trkpt>
      <trkpt lat="47.1488" lon="-1.63127">
        <ele>74</ele>
        <time>2022-01-01T14:17:53Z</time>
      </trkpt>
      <trkpt lat="47.14878" lon="-1.63143">
        <ele>74</ele>
        <time>2022-01-01T14:17:55Z</time>
      </trkpt>
      <trkpt lat="47.14878" lon="-1.63158">
        <ele>73</ele>
        <time>2022-01-01T14:17:57Z</time>
      </trkpt>
      <trkpt lat="47.14877" lon="-1.63173">
        <ele>73</ele>
        <time>2022-01-01T14:17:59Z</time>
      </trkpt>
      <trkpt lat="47.14876" lon="-1.63188">
        <ele>72</ele>
        <time>2022-01-01T14:18:01Z</time>
      </trkpt>
      <trkpt lat="47.14876" lon="-1.63202">
        <ele>73</ele>
        <time>2022-01-01T14:18:03Z</time>
      </trkpt>
      <trkpt lat="47.14876" lon="-1.63217">
        <ele>72</ele>
        <time>2022-01-01T14:18:05Z</time>
      </trkpt>
      <trkpt lat="47.14875" lon="-1.63232">
        <ele>72</ele>
        <time>2022-01-01T14:18:07Z</time>
      </trkpt>
      <trkpt lat="47.14876" lon="-1.63247">
        <ele>72</ele>
        <time>2022-01-01T14:18:09Z</time>
      </trkpt>
      <trkpt lat="47.14875" lon="-1.63262">
        <ele>73</ele>
        <time>2022-01-01T14:18:11Z</time>
      </trkpt>
      <trkpt lat="47.14876" lon="-1.63284">
        <ele>73</ele>
        <time>2022-01-01T14:18:14Z</time>
      </trkpt>
      <trkpt lat="47.14876" lon="-1.63299">
        <ele>72</ele>
        <time>2022-01-01T14:18:16Z</time>
      </trkpt>
      <trkpt lat="47.14876" lon="-1.63315">
        <ele>72</ele>
        <time>2022-01-01T14:18:18Z</time>
      </trkpt>
      <trkpt lat="47.14877" lon="-1.63329">
        <ele>72</ele>
        <time>2022-01-01T14:18:20Z</time>
      </trkpt>
      <trkpt lat="47.14876" lon="-1.63352">
        <ele>72</ele>
        <time>2022-01-01T14:18:23Z</time>
      </trkpt>
      <trkpt lat="47.14876" lon="-1.63367">
        <ele>73</ele>
        <time>2022-01-01T14:18:25Z</time>
      </trkpt>
      <trkpt lat="47.14877" lon="-1.63382">
        <ele>72</ele>
        <time>2022-01-01T14:18:27Z</time>
      </trkpt>
      <trkpt lat="47.14876" lon="-1.63396">
        <ele>72</ele>
        <time>2022-01-01T14:18:29Z</time>
      </trkpt>
      <trkpt lat="47.14876" lon="-1.6341">
        <ele>72</ele>
        <time>2022-01-01T14:18:31Z</time>
      </trkpt>
      <trkpt lat="47.14876" lon="-1.63425">
        <ele>72</ele>
        <time>2022-01-01T14:18:33Z</time>
      </trkpt>
      <trkpt lat="47.14875" lon="-1.6344">
        <ele>72</ele>
        <time>2022-01-01T14:18:35Z</time>
      </trkpt>
      <trkpt lat="47.14875" lon="-1.63454">
        <ele>73</ele>
        <time>2022-01-01T14:18:37Z</time>
      </trkpt>
      <trkpt lat="47.14874" lon="-1.63469">
        <ele>72</ele>
        <time>2022-01-01T14:18:39Z</time>
      </trkpt>
      <trkpt lat="47.14874" lon="-1.63483">
        <ele>72</ele>
        <time>2022-01-01T14:18:41Z</time>
      </trkpt>
      <trkpt lat="47.14873" lon="-1.63506">
        <ele>72</ele>
        <time>2022-01-01T14:18:44Z</time>
      </trkpt>
      <trkpt lat="47.14873" lon="-1.63521">
        <ele>72</ele>
        <time>2022-01-01T14:18:46Z</time>
      </trkpt>
      <trkpt lat="47.14874" lon="-1.63537">
        <ele>71</ele>
        <time>2022-01-01T14:18:48Z</time>
      </trkpt>
      <trkpt lat="47.14874" lon="-1.6356">
        <ele>71</ele>
        <time>2022-01-01T14:18:51Z</time>
      </trkpt>
      <trkpt lat="47.14874" lon="-1.63575">
        <ele>71</ele>
        <time>2022-01-01T14:18:53Z</time>
      </trkpt>
      <trkpt lat="47.14875" lon="-1.63591">
        <ele>71</ele>
        <time>2022-01-01T14:18:55Z</time>
      </trkpt>
      <trkpt lat="47.14875" lon="-1.63607">
        <ele>71</ele>
        <time>2022-01-01T14:18:57Z</time>
      </trkpt>
      <trkpt lat="47.14874" lon="-1.63622">
        <ele>71</ele>
        <time>2022-01-01T14:18:59Z</time>
      </trkpt>
      <trkpt lat="47.14874" lon="-1.63637">
        <ele>72</ele>
        <time>2022-01-01T14:19:01Z</time>
      </trkpt>
      <trkpt lat="47.14874" lon="-1.63652">
        <ele>72</ele>
        <time>2022-01-01T14:19:03Z</time>
      </trkpt>
      <trkpt lat="47.14874" lon="-1.63666">
        <ele>72</ele>
        <time>2022-01-01T14:19:05Z</time>
      </trkpt>
      <trkpt lat="47.14874" lon="-1.6368">
        <ele>72</ele>
        <time>2022-01-01T14:19:07Z</time>
      </trkpt>
      <trkpt lat="47.14873" lon="-1.63695">
        <ele>72</ele>
        <time>2022-01-01T14:19:09Z</time>
      </trkpt>
      <trkpt lat="47.14873" lon="-1.6371">
        <ele>72</ele>
        <time>2022-01-01T14:19:11Z</time>
      </trkpt>
      <trkpt lat="47.14873" lon="-1.63725">
        <ele>71</ele>
        <time>2022-01-01T14:19:13Z</time>
      </trkpt>
      <trkpt lat="47.14873" lon="-1.6374">
        <ele>71</ele>
        <time>2022-01-01T14:19:15Z</time>
      </trkpt>
      <trkpt lat="47.14873" lon="-1.63754">
        <ele>71</ele>
        <time>2022-01-01T14:19:17Z</time>
      </trkpt>
      <trkpt lat="47.14874" lon="-1.6377">
        <ele>71</ele>
        <time>2022-01-01T14:19:19Z</time>
      </trkpt>
      <trkpt lat="47.14873" lon="-1.63784">
        <ele>72</ele>
        <time>2022-01-01T14:19:21Z</time>
      </trkpt>
      <trkpt lat="47.14873" lon="-1.63798">
        <ele>72</ele>
        <time>2022-01-01T14:19:23Z</time>
      </trkpt>
      <trkpt lat="47.14873" lon="-1.63814">
        <ele>71</ele>
        <time>2022-01-01T14:19:25Z</time>
      </trkpt>
      <trkpt lat="47.14873" lon="-1.63828">
        <ele>71</ele>
        <time>2022-01-01T14:19:27Z</time>
      </trkpt>
      <trkpt lat="47.14872" lon="-1.63843">
        <ele>71</ele>
        <time>2022-01-01T14:19:29Z</time>
      </trkpt>
      <trkpt lat="47.14871" lon="-1.63857">
        <ele>71</ele>
        <time>2022-01-01T14:19:31Z</time>
      </trkpt>
      <trkpt lat="47.14869" lon="-1.63871">
        <ele>71</ele>
        <time>2022-01-01T14:19:33Z</time>
      </trkpt>
      <trkpt lat="47.14868" lon="-1.63885">
        <ele>71</ele>
        <time>2022-01-01T14:19:35Z</time>
      </trkpt>
      <trkpt lat="47.14866" lon="-1.639">
        <ele>71</ele>
        <time>2022-01-01T14:19:37Z</time>
      </trkpt>
      <trkpt lat="47.14864" lon="-1.63913">
        <ele>71</ele>
        <time>2022-01-01T14:19:39Z</time>
      </trkpt>
      <trkpt lat="47.14862" lon="-1.63926">
        <ele>71</ele>
        <time>2022-01-01T14:19:41Z</time>
      </trkpt>
      <trkpt lat="47.14859" lon="-1.63946">
        <ele>71</ele>
        <time>2022-01-01T14:19:44Z</time>
      </trkpt>
      <trkpt lat="47.1486" lon="-1.63965">
        <ele>71</ele>
        <time>2022-01-01T14:19:47Z</time>
      </trkpt>
      <trkpt lat="47.14864" lon="-1.63977">
        <ele>72</ele>
        <time>2022-01-01T14:19:49Z</time>
      </trkpt>
      <trkpt lat="47.14872" lon="-1.63993">
        <ele>71</ele>
        <time>2022-01-01T14:19:52Z</time>
      </trkpt>
      <trkpt lat="47.14879" lon="-1.64004">
        <ele>71</ele>
        <time>2022-01-01T14:19:54Z</time>
      </trkpt>
      <trkpt lat="47.14885" lon="-1.64013">
        <ele>71</ele>
        <time>2022-01-01T14:19:56Z</time>
      </trkpt>
      <trkpt lat="47.14894" lon="-1.64019">
        <ele>71</ele>
        <time>2022-01-01T14:19:58Z</time>
      </trkpt>
      <trkpt lat="47.14907" lon="-1.64016">
        <ele>71</ele>
        <time>2022-01-01T14:20:01Z</time>
      </trkpt>
      <trkpt lat="47.14914" lon="-1.64004">
        <ele>71</ele>
        <time>2022-01-01T14:20:03Z</time>
      </trkpt>
      <trkpt lat="47.14919" lon="-1.6399">
        <ele>71</ele>
        <time>2022-01-01T14:20:05Z</time>
      </trkpt>
      <trkpt lat="47.14925" lon="-1.63978">
        <ele>71</ele>
        <time>2022-01-01T14:20:07Z</time>
      </trkpt>
      <trkpt lat="47.14931" lon="-1.63966">
        <ele>72</ele>
        <time>2022-01-01T14:20:09Z</time>
      </trkpt>
      <trkpt lat="47.14938" lon="-1.63955">
        <ele>72</ele>
        <time>2022-01-01T14:20:11Z</time>
      </trkpt>
      <trkpt lat="47.14945" lon="-1.63945">
        <ele>72</ele>
        <time>2022-01-01T14:20:13Z</time>
      </trkpt>
      <trkpt lat="47.14952" lon="-1.63935">
        <ele>72</ele>
        <time>2022-01-01T14:20:15Z</time>
      </trkpt>
      <trkpt lat="47.1496" lon="-1.63924">
        <ele>72</ele>
        <time>2022-01-01T14:20:17Z</time>
      </trkpt>
      <trkpt lat="47.14967" lon="-1.63913">
        <ele>72</ele>
        <time>2022-01-01T14:20:19Z</time>
      </trkpt>
      <trkpt lat="47.14974" lon="-1.63902">
        <ele>71</ele>
        <time>2022-01-01T14:20:21Z</time>
      </trkpt>
      <trkpt lat="47.14982" lon="-1.63891">
        <ele>71</ele>
        <time>2022-01-01T14:20:23Z</time>
      </trkpt>
      <trkpt lat="47.14989" lon="-1.63881">
        <ele>71</ele>
        <time>2022-01-01T14:20:25Z</time>
      </trkpt>
      <trkpt lat="47.14997" lon="-1.6387">
        <ele>71</ele>
        <time>2022-01-01T14:20:27Z</time>
      </trkpt>
      <trkpt lat="47.15004" lon="-1.6386">
        <ele>71</ele>
        <time>2022-01-01T14:20:29Z</time>
      </trkpt>
      <trkpt lat="47.15012" lon="-1.63849">
        <ele>71</ele>
        <time>2022-01-01T14:20:31Z</time>
      </trkpt>
      <trkpt lat="47.1502" lon="-1.63839">
        <ele>70</ele>
        <time>2022-01-01T14:20:33Z</time>
      </trkpt>
      <trkpt lat="47.15027" lon="-1.63829">
        <ele>71</ele>
        <time>2022-01-01T14:20:35Z</time>
      </trkpt>
      <trkpt lat="47.15035" lon="-1.63819">
        <ele>71</ele>
        <time>2022-01-01T14:20:37Z</time>
      </trkpt>
      <trkpt lat="47.15043" lon="-1.63809">
        <ele>71</ele>
        <time>2022-01-01T14:20:39Z</time>
      </trkpt>
      <trkpt lat="47.1505" lon="-1.63799">
        <ele>71</ele>
        <time>2022-01-01T14:20:41Z</time>
      </trkpt>
      <trkpt lat="47.15058" lon="-1.63788">
        <ele>71</ele>
        <time>2022-01-01T14:20:43Z</time>
      </trkpt>
      <trkpt lat="47.15066" lon="-1.63778">
        <ele>71</ele>
        <time>2022-01-01T14:20:45Z</time>
      </trkpt>
      <trkpt lat="47.15075" lon="-1.63768">
        <ele>71</ele>
        <time>2022-01-01T14:20:47Z</time>
      </trkpt>
      <trkpt lat="47.15083" lon="-1.63758">
        <ele>70</ele>
        <time>2022-01-01T14:20:49Z</time>
      </trkpt>
      <trkpt lat="47.15092" lon="-1.63749">
        <ele>71</ele>
        <time>2022-01-01T14:20:51Z</time>
      </trkpt>
      <trkpt lat="47.151" lon="-1.63739">
        <ele>71</ele>
        <time>2022-01-01T14:20:53Z</time>
      </trkpt>
      <trkpt lat="47.15108" lon="-1.6373">
        <ele>71</ele>
        <time>2022-01-01T14:20:55Z</time>
      </trkpt>
      <trkpt lat="47.15117" lon="-1.63721">
        <ele>71</ele>
        <time>2022-01-01T14:20:57Z</time>
      </trkpt>
      <trkpt lat="47.15125" lon="-1.63712">
        <ele>71</ele>
        <time>2022-01-01T14:20:59Z</time>
      </trkpt>
      <trkpt lat="47.15134" lon="-1.63703">
        <ele>72</ele>
        <time>2022-01-01T14:21:01Z</time>
      </trkpt>
      <trkpt lat="47.15143" lon="-1.63693">
        <ele>72</ele>
        <time>2022-01-01T14:21:03Z</time>
      </trkpt>
      <trkpt lat="47.15151" lon="-1.63684">
        <ele>72</ele>
        <time>2022-01-01T14:21:05Z</time>
      </trkpt>
      <trkpt lat="47.15161" lon="-1.63676">
        <ele>72</ele>
        <time>2022-01-01T14:21:07Z</time>
      </trkpt>
      <trkpt lat="47.1517" lon="-1.63668">
        <ele>72</ele>
        <time>2022-01-01T14:21:09Z</time>
      </trkpt>
      <trkpt lat="47.15179" lon="-1.63661">
        <ele>72</ele>
        <time>2022-01-01T14:21:11Z</time>
      </trkpt>
      <trkpt lat="47.15187" lon="-1.63652">
        <ele>72</ele>
        <time>2022-01-01T14:21:13Z</time>
      </trkpt>
      <trkpt lat="47.15196" lon="-1.63644">
        <ele>72</ele>
        <time>2022-01-01T14:21:15Z</time>
      </trkpt>
      <trkpt lat="47.15205" lon="-1.63637">
        <ele>72</ele>
        <time>2022-01-01T14:21:17Z</time>
      </trkpt>
      <trkpt lat="47.15214" lon="-1.63629">
        <ele>72</ele>
        <time>2022-01-01T14:21:19Z</time>
      </trkpt>
      <trkpt lat="47.15223" lon="-1.63621">
        <ele>73</ele>
        <time>2022-01-01T14:21:21Z</time>
      </trkpt>
      <trkpt lat="47.15231" lon="-1.63613">
        <ele>72</ele>
        <time>2022-01-01T14:21:23Z</time>
      </trkpt>
      <trkpt lat="47.1524" lon="-1.63606">
        <ele>72</ele>
        <time>2022-01-01T14:21:25Z</time>
      </trkpt>
      <trkpt lat="47.15249" lon="-1.63597">
        <ele>72</ele>
        <time>2022-01-01T14:21:27Z</time>
      </trkpt>
      <trkpt lat="47.15258" lon="-1.63589">
        <ele>72</ele>
        <time>2022-01-01T14:21:29Z</time>
      </trkpt>
      <trkpt lat="47.15267" lon="-1.63582">
        <ele>72</ele>
        <time>2022-01-01T14:21:31Z</time>
      </trkpt>
      <trkpt lat="47.15275" lon="-1.63574">
        <ele>72</ele>
        <time>2022-01-01T14:21:33Z</time>
      </trkpt>
      <trkpt lat="47.15284" lon="-1.63565">
        <ele>72</ele>
        <time>2022-01-01T14:21:35Z</time>
      </trkpt>
      <trkpt lat="47.15292" lon="-1.63557">
        <ele>72</ele>
        <time>2022-01-01T14:21:37Z</time>
      </trkpt>
      <trkpt lat="47.15301" lon="-1.63549">
        <ele>71</ele>
        <time>2022-01-01T14:21:39Z</time>
      </trkpt>
      <trkpt lat="47.1531" lon="-1.63541">
        <ele>72</ele>
        <time>2022-01-01T14:21:41Z</time>
      </trkpt>
      <trkpt lat="47.15319" lon="-1.63533">
        <ele>72</ele>
        <time>2022-01-01T14:21:43Z</time>
      </trkpt>
      <trkpt lat="47.15328" lon="-1.63525">
        <ele>72</ele>
        <time>2022-01-01T14:21:45Z</time>
      </trkpt>
      <trkpt lat="47.15337" lon="-1.63518">
        <ele>72</ele>
        <time>2022-01-01T14:21:47Z</time>
      </trkpt>
      <trkpt lat="47.15346" lon="-1.63509">
        <ele>72</ele>
        <time>2022-01-01T14:21:49Z</time>
      </trkpt>
      <trkpt lat="47.15355" lon="-1.63501">
        <ele>72</ele>
        <time>2022-01-01T14:21:51Z</time>
      </trkpt>
      <trkpt lat="47.15364" lon="-1.63493">
        <ele>72</ele>
        <time>2022-01-01T14:21:53Z</time>
      </trkpt>
      <trkpt lat="47.15373" lon="-1.63485">
        <ele>72</ele>
        <time>2022-01-01T14:21:55Z</time>
      </trkpt>
      <trkpt lat="47.15382" lon="-1.63477">
        <ele>72</ele>
        <time>2022-01-01T14:21:57Z</time>
      </trkpt>
      <trkpt lat="47.15391" lon="-1.63469">
        <ele>71</ele>
        <time>2022-01-01T14:21:59Z</time>
      </trkpt>
      <trkpt lat="47.154" lon="-1.63461">
        <ele>72</ele>
        <time>2022-01-01T14:22:01Z</time>
      </trkpt>
      <trkpt lat="47.15409" lon="-1.63453">
        <ele>71</ele>
        <time>2022-01-01T14:22:03Z</time>
      </trkpt>
      <trkpt lat="47.15419" lon="-1.63445">
        <ele>71</ele>
        <time>2022-01-01T14:22:05Z</time>
      </trkpt>
      <trkpt lat="47.15429" lon="-1.63436">
        <ele>71</ele>
        <time>2022-01-01T14:22:07Z</time>
      </trkpt>
      <trkpt lat="47.15438" lon="-1.63427">
        <ele>70</ele>
        <time>2022-01-01T14:22:09Z</time>
      </trkpt>
      <trkpt lat="47.15447" lon="-1.63416">
        <ele>70</ele>
        <time>2022-01-01T14:22:11Z</time>
      </trkpt>
      <trkpt lat="47.15457" lon="-1.63407">
        <ele>69</ele>
        <time>2022-01-01T14:22:13Z</time>
      </trkpt>
      <trkpt lat="47.15467" lon="-1.63399">
        <ele>69</ele>
        <time>2022-01-01T14:22:15Z</time>
      </trkpt>
      <trkpt lat="47.15478" lon="-1.63391">
        <ele>69</ele>
        <time>2022-01-01T14:22:17Z</time>
      </trkpt>
      <trkpt lat="47.15489" lon="-1.63384">
        <ele>69</ele>
        <time>2022-01-01T14:22:19Z</time>
      </trkpt>
      <trkpt lat="47.155" lon="-1.63376">
        <ele>69</ele>
        <time>2022-01-01T14:22:21Z</time>
      </trkpt>
      <trkpt lat="47.15511" lon="-1.63367">
        <ele>69</ele>
        <time>2022-01-01T14:22:23Z</time>
      </trkpt>
      <trkpt lat="47.15522" lon="-1.63357">
        <ele>68</ele>
        <time>2022-01-01T14:22:25Z</time>
      </trkpt>
      <trkpt lat="47.15533" lon="-1.63347">
        <ele>68</ele>
        <time>2022-01-01T14:22:27Z</time>
      </trkpt>
      <trkpt lat="47.15545" lon="-1.63337">
        <ele>68</ele>
        <time>2022-01-01T14:22:29Z</time>
      </trkpt>
      <trkpt lat="47.15556" lon="-1.63327">
        <ele>67</ele>
        <time>2022-01-01T14:22:31Z</time>
      </trkpt>
      <trkpt lat="47.15568" lon="-1.63316">
        <ele>67</ele>
        <time>2022-01-01T14:22:33Z</time>
      </trkpt>
      <trkpt lat="47.15581" lon="-1.63305">
        <ele>67</ele>
        <time>2022-01-01T14:22:35Z</time>
      </trkpt>
      <trkpt lat="47.15592" lon="-1.63295">
        <ele>66</ele>
        <time>2022-01-01T14:22:37Z</time>
      </trkpt>
      <trkpt lat="47.15605" lon="-1.63284">
        <ele>66</ele>
        <time>2022-01-01T14:22:39Z</time>
      </trkpt>
      <trkpt lat="47.15617" lon="-1.63274">
        <ele>66</ele>
        <time>2022-01-01T14:22:41Z</time>
      </trkpt>
      <trkpt lat="47.15628" lon="-1.63264">
        <ele>66</ele>
        <time>2022-01-01T14:22:43Z</time>
      </trkpt>
      <trkpt lat="47.15639" lon="-1.63254">
        <ele>66</ele>
        <time>2022-01-01T14:22:45Z</time>
      </trkpt>
      <trkpt lat="47.1565" lon="-1.63244">
        <ele>66</ele>
        <time>2022-01-01T14:22:47Z</time>
      </trkpt>
      <trkpt lat="47.15661" lon="-1.63234">
        <ele>66</ele>
        <time>2022-01-01T14:22:49Z</time>
      </trkpt>
      <trkpt lat="47.15672" lon="-1.63225">
        <ele>66</ele>
        <time>2022-01-01T14:22:51Z</time>
      </trkpt>
      <trkpt lat="47.15682" lon="-1.63215">
        <ele>66</ele>
        <time>2022-01-01T14:22:53Z</time>
      </trkpt>
      <trkpt lat="47.15692" lon="-1.63206">
        <ele>66</ele>
        <time>2022-01-01T14:22:55Z</time>
      </trkpt>
      <trkpt lat="47.15702" lon="-1.63197">
        <ele>66</ele>
        <time>2022-01-01T14:22:57Z</time>
      </trkpt>
      <trkpt lat="47.15712" lon="-1.63188">
        <ele>66</ele>
        <time>2022-01-01T14:22:59Z</time>
      </trkpt>
      <trkpt lat="47.15722" lon="-1.63179">
        <ele>66</ele>
        <time>2022-01-01T14:23:01Z</time>
      </trkpt>
      <trkpt lat="47.15732" lon="-1.6317">
        <ele>66</ele>
        <time>2022-01-01T14:23:03Z</time>
      </trkpt>
      <trkpt lat="47.15742" lon="-1.6316">
        <ele>66</ele>
        <time>2022-01-01T14:23:05Z</time>
      </trkpt>
      <trkpt lat="47.1575" lon="-1.63148">
        <ele>66</ele>
        <time>2022-01-01T14:23:07Z</time>
      </trkpt>
      <trkpt lat="47.15761" lon="-1.63143">
        <ele>65</ele>
        <time>2022-01-01T14:23:09Z</time>
      </trkpt>
      <trkpt lat="47.15771" lon="-1.63137">
        <ele>65</ele>
        <time>2022-01-01T14:23:11Z</time>
      </trkpt>
      <trkpt lat="47.15781" lon="-1.63128">
        <ele>65</ele>
        <time>2022-01-01T14:23:13Z</time>
      </trkpt>
      <trkpt lat="47.15791" lon="-1.63119">
        <ele>65</ele>
        <time>2022-01-01T14:23:15Z</time>
      </trkpt>
      <trkpt lat="47.15802" lon="-1.63109">
        <ele>65</ele>
        <time>2022-01-01T14:23:17Z</time>
      </trkpt>
      <trkpt lat="47.15813" lon="-1.631">
        <ele>64</ele>
        <time>2022-01-01T14:23:19Z</time>
      </trkpt>
      <trkpt lat="47.15825" lon="-1.63089">
        <ele>63</ele>
        <time>2022-01-01T14:23:21Z</time>
      </trkpt>
      <trkpt lat="47.15837" lon="-1.63079">
        <ele>63</ele>
        <time>2022-01-01T14:23:23Z</time>
      </trkpt>
      <trkpt lat="47.1585" lon="-1.63067">
        <ele>62</ele>
        <time>2022-01-01T14:23:25Z</time>
      </trkpt>
      <trkpt lat="47.15863" lon="-1.63055">
        <ele>61</ele>
        <time>2022-01-01T14:23:27Z</time>
      </trkpt>
      <trkpt lat="47.15876" lon="-1.63044">
        <ele>61</ele>
        <time>2022-01-01T14:23:29Z</time>
      </trkpt>
      <trkpt lat="47.15889" lon="-1.63032">
        <ele>61</ele>
        <time>2022-01-01T14:23:31Z</time>
      </trkpt>
      <trkpt lat="47.15901" lon="-1.63021">
        <ele>61</ele>
        <time>2022-01-01T14:23:33Z</time>
      </trkpt>
      <trkpt lat="47.15912" lon="-1.63011">
        <ele>61</ele>
        <time>2022-01-01T14:23:35Z</time>
      </trkpt>
      <trkpt lat="47.15923" lon="-1.63001">
        <ele>61</ele>
        <time>2022-01-01T14:23:37Z</time>
      </trkpt>
      <trkpt lat="47.15933" lon="-1.62992">
        <ele>61</ele>
        <time>2022-01-01T14:23:39Z</time>
      </trkpt>
      <trkpt lat="47.15942" lon="-1.62983">
        <ele>61</ele>
        <time>2022-01-01T14:23:41Z</time>
      </trkpt>
      <trkpt lat="47.15952" lon="-1.62975">
        <ele>61</ele>
        <time>2022-01-01T14:23:43Z</time>
      </trkpt>
      <trkpt lat="47.15961" lon="-1.62966">
        <ele>61</ele>
        <time>2022-01-01T14:23:45Z</time>
      </trkpt>
      <trkpt lat="47.15969" lon="-1.62959">
        <ele>62</ele>
        <time>2022-01-01T14:23:47Z</time>
      </trkpt>
      <trkpt lat="47.15978" lon="-1.62952">
        <ele>62</ele>
        <time>2022-01-01T14:23:49Z</time>
      </trkpt>
      <trkpt lat="47.15987" lon="-1.62945">
        <ele>63</ele>
        <time>2022-01-01T14:23:51Z</time>
      </trkpt>
      <trkpt lat="47.15995" lon="-1.62937">
        <ele>63</ele>
        <time>2022-01-01T14:23:53Z</time>
      </trkpt>
      <trkpt lat="47.16003" lon="-1.6293">
        <ele>63</ele>
        <time>2022-01-01T14:23:55Z</time>
      </trkpt>
      <trkpt lat="47.16011" lon="-1.62924">
        <ele>64</ele>
        <time>2022-01-01T14:23:57Z</time>
      </trkpt>
      <trkpt lat="47.16019" lon="-1.62916">
        <ele>65</ele>
        <time>2022-01-01T14:23:59Z</time>
      </trkpt>
      <trkpt lat="47.16027" lon="-1.62908">
        <ele>65</ele>
        <time>2022-01-01T14:24:01Z</time>
      </trkpt>
      <trkpt lat="47.16036" lon="-1.62901">
        <ele>65</ele>
        <time>2022-01-01T14:24:03Z</time>
      </trkpt>
      <trkpt lat="47.16044" lon="-1.62893">
        <ele>65</ele>
        <time>2022-01-01T14:24:05Z</time>
      </trkpt>
      <trkpt lat="47.16052" lon="-1.62886">
        <ele>65</ele>
        <time>2022-01-01T14:24:07Z</time>
      </trkpt>
      <trkpt lat="47.1606" lon="-1.62879">
        <ele>66</ele>
        <time>2022-01-01T14:24:09Z</time>
      </trkpt>
      <trkpt lat="47.16068" lon="-1.62871">
        <ele>66</ele>
        <time>2022-01-01T14:24:11Z</time>
      </trkpt>
      <trkpt lat="47.16076" lon="-1.62863">
        <ele>66</ele>
        <time>2022-01-01T14:24:13Z</time>
      </trkpt>
      <trkpt lat="47.16085" lon="-1.62856">
        <ele>66</ele>
        <time>2022-01-01T14:24:15Z</time>
      </trkpt>
      <trkpt lat="47.16094" lon="-1.62849">
        <ele>66</ele>
        <time>2022-01-01T14:24:17Z</time>
      </trkpt>
      <trkpt lat="47.16102" lon="-1.62841">
        <ele>66</ele>
        <time>2022-01-01T14:24:19Z</time>
      </trkpt>
      <trkpt lat="47.16111" lon="-1.62833">
        <ele>66</ele>
        <time>2022-01-01T14:24:21Z</time>
      </trkpt>
      <trkpt lat="47.1612" lon="-1.62826">
        <ele>66</ele>
        <time>2022-01-01T14:24:23Z</time>
      </trkpt>
      <trkpt lat="47.16128" lon="-1.62819">
        <ele>67</ele>
        <time>2022-01-01T14:24:25Z</time>
      </trkpt>
      <trkpt lat="47.16137" lon="-1.62811">
        <ele>67</ele>
        <time>2022-01-01T14:24:27Z</time>
      </trkpt>
      <trkpt lat="47.16145" lon="-1.62804">
        <ele>67</ele>
        <time>2022-01-01T14:24:29Z</time>
      </trkpt>
      <trkpt lat="47.16154" lon="-1.62796">
        <ele>67</ele>
        <time>2022-01-01T14:24:31Z</time>
      </trkpt>
      <trkpt lat="47.16163" lon="-1.62789">
        <ele>67</ele>
        <time>2022-01-01T14:24:33Z</time>
      </trkpt>
      <trkpt lat="47.16171" lon="-1.62781">
        <ele>68</ele>
        <time>2022-01-01T14:24:35Z</time>
      </trkpt>
      <trkpt lat="47.16179" lon="-1.62774">
        <ele>68</ele>
        <time>2022-01-01T14:24:37Z</time>
      </trkpt>
      <trkpt lat="47.16187" lon="-1.62766">
        <ele>69</ele>
        <time>2022-01-01T14:24:39Z</time>
      </trkpt>
      <trkpt lat="47.16196" lon="-1.62759">
        <ele>69</ele>
        <time>2022-01-01T14:24:41Z</time>
      </trkpt>
      <trkpt lat="47.16204" lon="-1.62751">
        <ele>70</ele>
        <time>2022-01-01T14:24:43Z</time>
      </trkpt>
      <trkpt lat="47.16212" lon="-1.62744">
        <ele>70</ele>
        <time>2022-01-01T14:24:45Z</time>
      </trkpt>
      <trkpt lat="47.1622" lon="-1.62737">
        <ele>70</ele>
        <time>2022-01-01T14:24:47Z</time>
      </trkpt>
      <trkpt lat="47.16229" lon="-1.62731">
        <ele>70</ele>
        <time>2022-01-01T14:24:49Z</time>
      </trkpt>
      <trkpt lat="47.16237" lon="-1.62724">
        <ele>71</ele>
        <time>2022-01-01T14:24:51Z</time>
      </trkpt>
      <trkpt lat="47.16245" lon="-1.62718">
        <ele>71</ele>
        <time>2022-01-01T14:24:53Z</time>
      </trkpt>
      <trkpt lat="47.16253" lon="-1.62711">
        <ele>72</ele>
        <time>2022-01-01T14:24:55Z</time>
      </trkpt>
      <trkpt lat="47.16261" lon="-1.62703">
        <ele>72</ele>
        <time>2022-01-01T14:24:57Z</time>
      </trkpt>
      <trkpt lat="47.16272" lon="-1.62694">
        <ele>73</ele>
        <time>2022-01-01T14:25:00Z</time>
      </trkpt>
      <trkpt lat="47.1628" lon="-1.62684">
        <ele>73</ele>
        <time>2022-01-01T14:25:03Z</time>
      </trkpt>
      <trkpt lat="47.16279" lon="-1.62671">
        <ele>73</ele>
        <time>2022-01-01T14:25:05Z</time>
      </trkpt>
      <trkpt lat="47.16279" lon="-1.62655">
        <ele>72</ele>
        <time>2022-01-01T14:25:07Z</time>
      </trkpt>
      <trkpt lat="47.16281" lon="-1.62639">
        <ele>73</ele>
        <time>2022-01-01T14:25:09Z</time>
      </trkpt>
      <trkpt lat="47.16283" lon="-1.62625">
        <ele>73</ele>
        <time>2022-01-01T14:25:11Z</time>
      </trkpt>
      <trkpt lat="47.16287" lon="-1.6261">
        <ele>73</ele>
        <time>2022-01-01T14:25:13Z</time>
      </trkpt>
      <trkpt lat="47.16291" lon="-1.62596">
        <ele>73</ele>
        <time>2022-01-01T14:25:15Z</time>
      </trkpt>
      <trkpt lat="47.16296" lon="-1.62584">
        <ele>73</ele>
        <time>2022-01-01T14:25:17Z</time>
      </trkpt>
      <trkpt lat="47.16302" lon="-1.62575">
        <ele>73</ele>
        <time>2022-01-01T14:25:19Z</time>
      </trkpt>
      <trkpt lat="47.16311" lon="-1.6257">
        <ele>73</ele>
        <time>2022-01-01T14:25:21Z</time>
      </trkpt>
      <trkpt lat="47.16321" lon="-1.62568">
        <ele>73</ele>
        <time>2022-01-01T14:25:23Z</time>
      </trkpt>
      <trkpt lat="47.16331" lon="-1.6257">
        <ele>73</ele>
        <time>2022-01-01T14:25:25Z</time>
      </trkpt>
      <trkpt lat="47.16341" lon="-1.62575">
        <ele>73</ele>
        <time>2022-01-01T14:25:27Z</time>
      </trkpt>
      <trkpt lat="47.16351" lon="-1.62579">
        <ele>74</ele>
        <time>2022-01-01T14:25:29Z</time>
      </trkpt>
      <trkpt lat="47.16361" lon="-1.62582">
        <ele>74</ele>
        <time>2022-01-01T14:25:31Z</time>
      </trkpt>
      <trkpt lat="47.16372" lon="-1.62583">
        <ele>74</ele>
        <time>2022-01-01T14:25:33Z</time>
      </trkpt>
      <trkpt lat="47.16382" lon="-1.62582">
        <ele>74</ele>
        <time>2022-01-01T14:25:35Z</time>
      </trkpt>
      <trkpt lat="47.16391" lon="-1.62578">
        <ele>74</ele>
        <time>2022-01-01T14:25:37Z</time>
      </trkpt>
      <trkpt lat="47.16401" lon="-1.62572">
        <ele>74</ele>
        <time>2022-01-01T14:25:39Z</time>
      </trkpt>
      <trkpt lat="47.16409" lon="-1.62564">
        <ele>74</ele>
        <time>2022-01-01T14:25:41Z</time>
      </trkpt>
      <trkpt lat="47.16418" lon="-1.62555">
        <ele>74</ele>
        <time>2022-01-01T14:25:43Z</time>
      </trkpt>
      <trkpt lat="47.16425" lon="-1.62547">
        <ele>75</ele>
        <time>2022-01-01T14:25:45Z</time>
      </trkpt>
      <trkpt lat="47.16434" lon="-1.6254">
        <ele>75</ele>
        <time>2022-01-01T14:25:47Z</time>
      </trkpt>
      <trkpt lat="47.16443" lon="-1.62538">
        <ele>75</ele>
        <time>2022-01-01T14:25:49Z</time>
      </trkpt>
      <trkpt lat="47.16452" lon="-1.6254">
        <ele>75</ele>
        <time>2022-01-01T14:25:51Z</time>
      </trkpt>
      <trkpt lat="47.16465" lon="-1.62544">
        <ele>75</ele>
        <time>2022-01-01T14:25:54Z</time>
      </trkpt>
      <trkpt lat="47.16474" lon="-1.62547">
        <ele>75</ele>
        <time>2022-01-01T14:25:56Z</time>
      </trkpt>
      <trkpt lat="47.16484" lon="-1.6255">
        <ele>75</ele>
        <time>2022-01-01T14:25:58Z</time>
      </trkpt>
      <trkpt lat="47.16493" lon="-1.62554">
        <ele>75</ele>
        <time>2022-01-01T14:26:00Z</time>
      </trkpt>
      <trkpt lat="47.16503" lon="-1.62557">
        <ele>74</ele>
        <time>2022-01-01T14:26:02Z</time>
      </trkpt>
      <trkpt lat="47.16513" lon="-1.6256">
        <ele>74</ele>
        <time>2022-01-01T14:26:04Z</time>
      </trkpt>
      <trkpt lat="47.16523" lon="-1.62563">
        <ele>74</ele>
        <time>2022-01-01T14:26:06Z</time>
      </trkpt>
      <trkpt lat="47.16532" lon="-1.62564">
        <ele>75</ele>
        <time>2022-01-01T14:26:08Z</time>
      </trkpt>
      <trkpt lat="47.16542" lon="-1.62559">
        <ele>75</ele>
        <time>2022-01-01T14:26:10Z</time>
      </trkpt>
      <trkpt lat="47.1655" lon="-1.62549">
        <ele>76</ele>
        <time>2022-01-01T14:26:12Z</time>
      </trkpt>
      <trkpt lat="47.16558" lon="-1.62538">
        <ele>75</ele>
        <time>2022-01-01T14:26:14Z</time>
      </trkpt>
      <trkpt lat="47.16566" lon="-1.62526">
        <ele>75</ele>
        <time>2022-01-01T14:26:16Z</time>
      </trkpt>
      <trkpt lat="47.16572" lon="-1.62511">
        <ele>74</ele>
        <time>2022-01-01T14:26:18Z</time>
      </trkpt>
      <trkpt lat="47.16578" lon="-1.62497">
        <ele>74</ele>
        <time>2022-01-01T14:26:20Z</time>
      </trkpt>
      <trkpt lat="47.16584" lon="-1.62482">
        <ele>73</ele>
        <time>2022-01-01T14:26:22Z</time>
      </trkpt>
      <trkpt lat="47.1659" lon="-1.62467">
        <ele>72</ele>
        <time>2022-01-01T14:26:24Z</time>
      </trkpt>
      <trkpt lat="47.16597" lon="-1.62451">
        <ele>72</ele>
        <time>2022-01-01T14:26:26Z</time>
      </trkpt>
      <trkpt lat="47.16603" lon="-1.62436">
        <ele>71</ele>
        <time>2022-01-01T14:26:28Z</time>
      </trkpt>
      <trkpt lat="47.1661" lon="-1.62421">
        <ele>70</ele>
        <time>2022-01-01T14:26:30Z</time>
      </trkpt>
      <trkpt lat="47.16618" lon="-1.62406">
        <ele>70</ele>
        <time>2022-01-01T14:26:32Z</time>
      </trkpt>
      <trkpt lat="47.16627" lon="-1.62393">
        <ele>69</ele>
        <time>2022-01-01T14:26:34Z</time>
      </trkpt>
      <trkpt lat="47.16637" lon="-1.62381">
        <ele>69</ele>
        <time>2022-01-01T14:26:36Z</time>
      </trkpt>
      <trkpt lat="47.16648" lon="-1.6237">
        <ele>69</ele>
        <time>2022-01-01T14:26:38Z</time>
      </trkpt>
      <trkpt lat="47.1666" lon="-1.62361">
        <ele>68</ele>
        <time>2022-01-01T14:26:40Z</time>
      </trkpt>
      <trkpt lat="47.16672" lon="-1.62356">
        <ele>67</ele>
        <time>2022-01-01T14:26:42Z</time>
      </trkpt>
      <trkpt lat="47.16686" lon="-1.62357">
        <ele>67</ele>
        <time>2022-01-01T14:26:44Z</time>
      </trkpt>
      <trkpt lat="47.16697" lon="-1.62365">
        <ele>68</ele>
        <time>2022-01-01T14:26:46Z</time>
      </trkpt>
      <trkpt lat="47.16706" lon="-1.62376">
        <ele>68</ele>
        <time>2022-01-01T14:26:48Z</time>
      </trkpt>
      <trkpt lat="47.16714" lon="-1.62388">
        <ele>69</ele>
        <time>2022-01-01T14:26:50Z</time>
      </trkpt>
      <trkpt lat="47.1672" lon="-1.62399">
        <ele>69</ele>
        <time>2022-01-01T14:26:52Z</time>
      </trkpt>
      <trkpt lat="47.1673" lon="-1.62411">
        <ele>69</ele>
        <time>2022-01-01T14:26:55Z</time>
      </trkpt>
      <trkpt lat="47.1673" lon="-1.62431">
        <ele>69</ele>
        <time>2022-01-01T14:26:58Z</time>
      </trkpt>
      <trkpt lat="47.16728" lon="-1.62445">
        <ele>69</ele>
        <time>2022-01-01T14:27:00Z</time>
      </trkpt>
      <trkpt lat="47.16724" lon="-1.62459">
        <ele>69</ele>
        <time>2022-01-01T14:27:02Z</time>
      </trkpt>
      <trkpt lat="47.16721" lon="-1.62474">
        <ele>69</ele>
        <time>2022-01-01T14:27:04Z</time>
      </trkpt>
      <trkpt lat="47.16719" lon="-1.62488">
        <ele>69</ele>
        <time>2022-01-01T14:27:06Z</time>
      </trkpt>
      <trkpt lat="47.1673" lon="-1.62499">
        <ele>68</ele>
        <time>2022-01-01T14:27:09Z</time>
      </trkpt>
      <trkpt lat="47.16739" lon="-1.62503">
        <ele>68</ele>
        <time>2022-01-01T14:27:11Z</time>
      </trkpt>
      <trkpt lat="47.16749" lon="-1.62507">
        <ele>69</ele>
        <time>2022-01-01T14:27:13Z</time>
      </trkpt>
      <trkpt lat="47.16758" lon="-1.62512">
        <ele>69</ele>
        <time>2022-01-01T14:27:15Z</time>
      </trkpt>
      <trkpt lat="47.16767" lon="-1.62516">
        <ele>69</ele>
        <time>2022-01-01T14:27:17Z</time>
      </trkpt>
      <trkpt lat="47.16776" lon="-1.62522">
        <ele>70</ele>
        <time>2022-01-01T14:27:19Z</time>
      </trkpt>
      <trkpt lat="47.16784" lon="-1.62528">
        <ele>70</ele>
        <time>2022-01-01T14:27:21Z</time>
      </trkpt>
      <trkpt lat="47.16793" lon="-1.62534">
        <ele>71</ele>
        <time>2022-01-01T14:27:23Z</time>
      </trkpt>
      <trkpt lat="47.16801" lon="-1.62539">
        <ele>71</ele>
        <time>2022-01-01T14:27:25Z</time>
      </trkpt>
      <trkpt lat="47.1681" lon="-1.62546">
        <ele>70</ele>
        <time>2022-01-01T14:27:27Z</time>
      </trkpt>
      <trkpt lat="47.16818" lon="-1.62553">
        <ele>70</ele>
        <time>2022-01-01T14:27:29Z</time>
      </trkpt>
      <trkpt lat="47.16826" lon="-1.62562">
        <ele>70</ele>
        <time>2022-01-01T14:27:31Z</time>
      </trkpt>
      <trkpt lat="47.16832" lon="-1.62574">
        <ele>71</ele>
        <time>2022-01-01T14:27:33Z</time>
      </trkpt>
      <trkpt lat="47.1683" lon="-1.62589">
        <ele>71</ele>
        <time>2022-01-01T14:27:35Z</time>
      </trkpt>
      <trkpt lat="47.16825" lon="-1.626">
        <ele>71</ele>
        <time>2022-01-01T14:27:37Z</time>
      </trkpt>
      <trkpt lat="47.16818" lon="-1.62611">
        <ele>71</ele>
        <time>2022-01-01T14:27:39Z</time>
      </trkpt>
      <trkpt lat="47.16811" lon="-1.62622">
        <ele>71</ele>
        <time>2022-01-01T14:27:41Z</time>
      </trkpt>
      <trkpt lat="47.16805" lon="-1.62632">
        <ele>72</ele>
        <time>2022-01-01T14:27:43Z</time>
      </trkpt>
      <trkpt lat="47.16796" lon="-1.62645">
        <ele>72</ele>
        <time>2022-01-01T14:27:46Z</time>
      </trkpt>
      <trkpt lat="47.1679" lon="-1.62656">
        <ele>72</ele>
        <time>2022-01-01T14:27:49Z</time>
      </trkpt>
      <trkpt lat="47.1678" lon="-1.62656">
        <ele>72</ele>
        <time>2022-01-01T14:27:55Z</time>
      </trkpt>
    </trkseg>
  </trk>
</gpx>